<?xml version='1.0' encoding='UTF-8'?>
<gpx version="1.1" creator="https://www.komoot.de" xmlns="http://www.topografix.com/GPX/1/1" xmlns:xsi="http://www.w3.org/2001/XMLSchema-instance" xsi:schemaLocation="http://www.topografix.com/GPX/1/1 http://www.topografix.com/GPX/1/1/gpx.xsd">
  <metadata>
    <name>Day 1: Genava airport to Inter hotel rey</name>
    <author>
      <link href="https://www.komoot.de">
        <text>komoot</text>
        <type>text/html</type>
      </link>
    </author>
  </metadata>
  <trk>
    <name>Day 1: Genava airport to Inter hotel rey</name>
    <trkseg>
      <trkpt lat="46.230465" lon="6.109605">
        <ele>497.389933</ele>
        <time>2017-06-01T09:46:42.000Z</time>
      </trkpt>
      <trkpt lat="46.230460" lon="6.109475">
        <ele>497.389933</ele>
        <time>2017-06-01T09:46:50.000Z</time>
      </trkpt>
      <trkpt lat="46.230347" lon="6.109410">
        <ele>497.389933</ele>
        <time>2017-06-01T09:47:16.000Z</time>
      </trkpt>
      <trkpt lat="46.230410" lon="6.109547">
        <ele>497.389933</ele>
        <time>2017-06-01T09:47:40.000Z</time>
      </trkpt>
      <trkpt lat="46.230408" lon="6.109409">
        <ele>497.389933</ele>
        <time>2017-06-01T09:47:53.000Z</time>
      </trkpt>
      <trkpt lat="46.230430" lon="6.109214">
        <ele>497.389933</ele>
        <time>2017-06-01T09:47:59.000Z</time>
      </trkpt>
      <trkpt lat="46.230564" lon="6.109124">
        <ele>497.389933</ele>
        <time>2017-06-01T09:48:13.000Z</time>
      </trkpt>
      <trkpt lat="46.230038" lon="6.108369">
        <ele>491.697055</ele>
        <time>2017-06-01T09:49:43.000Z</time>
      </trkpt>
      <trkpt lat="46.229590" lon="6.106621">
        <ele>478.774783</ele>
        <time>2017-06-01T09:58:07.000Z</time>
      </trkpt>
      <trkpt lat="46.229620" lon="6.106490">
        <ele>479.006675</ele>
        <time>2017-06-01T09:58:33.000Z</time>
      </trkpt>
      <trkpt lat="46.229618" lon="6.106175">
        <ele>479.536048</ele>
        <time>2017-06-01T09:59:34.000Z</time>
      </trkpt>
      <trkpt lat="46.229540" lon="6.106105">
        <ele>479.759074</ele>
        <time>2017-06-01T09:59:40.000Z</time>
      </trkpt>
      <trkpt lat="46.229450" lon="6.106009">
        <ele>480.030784</ele>
        <time>2017-06-01T09:59:45.000Z</time>
      </trkpt>
      <trkpt lat="46.229390" lon="6.105879">
        <ele>480.293406</ele>
        <time>2017-06-01T09:59:50.000Z</time>
      </trkpt>
      <trkpt lat="46.229420" lon="6.105730">
        <ele>480.554188</ele>
        <time>2017-06-01T09:59:55.000Z</time>
      </trkpt>
      <trkpt lat="46.229378" lon="6.105578">
        <ele>480.829245</ele>
        <time>2017-06-01T10:00:00.000Z</time>
      </trkpt>
      <trkpt lat="46.229294" lon="6.105463">
        <ele>481.110291</ele>
        <time>2017-06-01T10:00:04.000Z</time>
      </trkpt>
      <trkpt lat="46.229218" lon="6.105371">
        <ele>481.351099</ele>
        <time>2017-06-01T10:00:07.000Z</time>
      </trkpt>
      <trkpt lat="46.229140" lon="6.105284">
        <ele>481.590428</ele>
        <time>2017-06-01T10:00:10.000Z</time>
      </trkpt>
      <trkpt lat="46.229070" lon="6.105204">
        <ele>481.807199</ele>
        <time>2017-06-01T10:00:14.000Z</time>
      </trkpt>
      <trkpt lat="46.228996" lon="6.105107">
        <ele>482.049865</ele>
        <time>2017-06-01T10:00:18.000Z</time>
      </trkpt>
      <trkpt lat="46.228916" lon="6.104987">
        <ele>482.329927</ele>
        <time>2017-06-01T10:00:21.000Z</time>
      </trkpt>
      <trkpt lat="46.228844" lon="6.104863">
        <ele>482.601984</ele>
        <time>2017-06-01T10:00:24.000Z</time>
      </trkpt>
      <trkpt lat="46.228790" lon="6.104728">
        <ele>482.864047</ele>
        <time>2017-06-01T10:00:27.000Z</time>
      </trkpt>
      <trkpt lat="46.228740" lon="6.104593">
        <ele>482.952052</ele>
        <time>2017-06-01T10:00:30.000Z</time>
      </trkpt>
      <trkpt lat="46.228695" lon="6.104470">
        <ele>482.621054</ele>
        <time>2017-06-01T10:00:33.000Z</time>
      </trkpt>
      <trkpt lat="46.228653" lon="6.104318">
        <ele>482.231691</ele>
        <time>2017-06-01T10:00:37.000Z</time>
      </trkpt>
      <trkpt lat="46.228607" lon="6.104164">
        <ele>481.832656</ele>
        <time>2017-06-01T10:00:41.000Z</time>
      </trkpt>
      <trkpt lat="46.228565" lon="6.104006">
        <ele>481.430002</ele>
        <time>2017-06-01T10:00:45.000Z</time>
      </trkpt>
      <trkpt lat="46.228535" lon="6.103882">
        <ele>481.117505</ele>
        <time>2017-06-01T10:00:48.000Z</time>
      </trkpt>
      <trkpt lat="46.228480" lon="6.103757">
        <ele>480.765096</ele>
        <time>2017-06-01T10:00:51.000Z</time>
      </trkpt>
      <trkpt lat="46.228405" lon="6.103621">
        <ele>480.351352</ele>
        <time>2017-06-01T10:00:55.000Z</time>
      </trkpt>
      <trkpt lat="46.228344" lon="6.103511">
        <ele>480.015980</ele>
        <time>2017-06-01T10:00:58.000Z</time>
      </trkpt>
      <trkpt lat="46.228270" lon="6.103406">
        <ele>479.659407</ele>
        <time>2017-06-01T10:01:01.000Z</time>
      </trkpt>
      <trkpt lat="46.228207" lon="6.103294">
        <ele>479.316012</ele>
        <time>2017-06-01T10:01:04.000Z</time>
      </trkpt>
      <trkpt lat="46.228146" lon="6.103186">
        <ele>478.984338</ele>
        <time>2017-06-01T10:01:07.000Z</time>
      </trkpt>
      <trkpt lat="46.228077" lon="6.103072">
        <ele>478.624000</ele>
        <time>2017-06-01T10:01:10.000Z</time>
      </trkpt>
      <trkpt lat="46.228012" lon="6.102961">
        <ele>478.278044</ele>
        <time>2017-06-01T10:01:13.000Z</time>
      </trkpt>
      <trkpt lat="46.227943" lon="6.102848">
        <ele>477.919492</ele>
        <time>2017-06-01T10:01:16.000Z</time>
      </trkpt>
      <trkpt lat="46.227880" lon="6.102747">
        <ele>477.595977</ele>
        <time>2017-06-01T10:01:19.000Z</time>
      </trkpt>
      <trkpt lat="46.227802" lon="6.102627">
        <ele>477.204271</ele>
        <time>2017-06-01T10:01:23.000Z</time>
      </trkpt>
      <trkpt lat="46.227722" lon="6.102503">
        <ele>476.865251</ele>
        <time>2017-06-01T10:01:27.000Z</time>
      </trkpt>
      <trkpt lat="46.227654" lon="6.102408">
        <ele>476.860409</ele>
        <time>2017-06-01T10:01:30.000Z</time>
      </trkpt>
      <trkpt lat="46.227585" lon="6.102304">
        <ele>476.855303</ele>
        <time>2017-06-01T10:01:33.000Z</time>
      </trkpt>
      <trkpt lat="46.227512" lon="6.102192">
        <ele>476.849852</ele>
        <time>2017-06-01T10:01:36.000Z</time>
      </trkpt>
      <trkpt lat="46.227425" lon="6.102086">
        <ele>476.844025</ele>
        <time>2017-06-01T10:01:39.000Z</time>
      </trkpt>
      <trkpt lat="46.227352" lon="6.101972">
        <ele>476.838522</ele>
        <time>2017-06-01T10:01:42.000Z</time>
      </trkpt>
      <trkpt lat="46.227270" lon="6.101838">
        <ele>476.832183</ele>
        <time>2017-06-01T10:01:45.000Z</time>
      </trkpt>
      <trkpt lat="46.227180" lon="6.101718">
        <ele>476.825913</ele>
        <time>2017-06-01T10:01:48.000Z</time>
      </trkpt>
      <trkpt lat="46.227090" lon="6.101586">
        <ele>476.819347</ele>
        <time>2017-06-01T10:01:51.000Z</time>
      </trkpt>
      <trkpt lat="46.227000" lon="6.101460">
        <ele>476.812931</ele>
        <time>2017-06-01T10:01:54.000Z</time>
      </trkpt>
      <trkpt lat="46.226933" lon="6.101372">
        <ele>476.808295</ele>
        <time>2017-06-01T10:01:56.000Z</time>
      </trkpt>
      <trkpt lat="46.226826" lon="6.101258">
        <ele>476.801488</ele>
        <time>2017-06-01T10:01:59.000Z</time>
      </trkpt>
      <trkpt lat="46.226740" lon="6.101203">
        <ele>476.796672</ele>
        <time>2017-06-01T10:02:01.000Z</time>
      </trkpt>
      <trkpt lat="46.226604" lon="6.101195">
        <ele>476.789701</ele>
        <time>2017-06-01T10:02:04.000Z</time>
      </trkpt>
      <trkpt lat="46.226517" lon="6.101205">
        <ele>476.785232</ele>
        <time>2017-06-01T10:02:06.000Z</time>
      </trkpt>
      <trkpt lat="46.226420" lon="6.101205">
        <ele>476.780264</ele>
        <time>2017-06-01T10:02:08.000Z</time>
      </trkpt>
      <trkpt lat="46.226330" lon="6.101205">
        <ele>476.775655</ele>
        <time>2017-06-01T10:02:10.000Z</time>
      </trkpt>
      <trkpt lat="46.226234" lon="6.101215">
        <ele>476.794211</ele>
        <time>2017-06-01T10:02:12.000Z</time>
      </trkpt>
      <trkpt lat="46.226135" lon="6.101219">
        <ele>476.824304</ele>
        <time>2017-06-01T10:02:14.000Z</time>
      </trkpt>
      <trkpt lat="46.226040" lon="6.101225">
        <ele>476.853197</ele>
        <time>2017-06-01T10:02:16.000Z</time>
      </trkpt>
      <trkpt lat="46.225950" lon="6.101230">
        <ele>476.880564</ele>
        <time>2017-06-01T10:02:18.000Z</time>
      </trkpt>
      <trkpt lat="46.225815" lon="6.101214">
        <ele>476.921722</ele>
        <time>2017-06-01T10:02:21.000Z</time>
      </trkpt>
      <trkpt lat="46.225730" lon="6.101142">
        <ele>476.951657</ele>
        <time>2017-06-01T10:02:23.000Z</time>
      </trkpt>
      <trkpt lat="46.225647" lon="6.101049">
        <ele>476.983566</ele>
        <time>2017-06-01T10:02:25.000Z</time>
      </trkpt>
      <trkpt lat="46.225563" lon="6.100934">
        <ele>477.018721</ele>
        <time>2017-06-01T10:02:27.000Z</time>
      </trkpt>
      <trkpt lat="46.225468" lon="6.100819">
        <ele>477.056372</ele>
        <time>2017-06-01T10:02:29.000Z</time>
      </trkpt>
      <trkpt lat="46.225370" lon="6.100707">
        <ele>477.094333</ele>
        <time>2017-06-01T10:02:31.000Z</time>
      </trkpt>
      <trkpt lat="46.225273" lon="6.100586">
        <ele>477.133264</ele>
        <time>2017-06-01T10:02:33.000Z</time>
      </trkpt>
      <trkpt lat="46.225163" lon="6.100461">
        <ele>477.175780</ele>
        <time>2017-06-01T10:02:35.000Z</time>
      </trkpt>
      <trkpt lat="46.225048" lon="6.100340">
        <ele>477.219000</ele>
        <time>2017-06-01T10:02:37.000Z</time>
      </trkpt>
      <trkpt lat="46.224950" lon="6.100229">
        <ele>477.256830</ele>
        <time>2017-06-01T10:02:39.000Z</time>
      </trkpt>
      <trkpt lat="46.224854" lon="6.100116">
        <ele>477.294449</ele>
        <time>2017-06-01T10:02:41.000Z</time>
      </trkpt>
      <trkpt lat="46.224762" lon="6.100019">
        <ele>477.289832</ele>
        <time>2017-06-01T10:02:43.000Z</time>
      </trkpt>
      <trkpt lat="46.224655" lon="6.099942">
        <ele>477.156928</ele>
        <time>2017-06-01T10:02:45.000Z</time>
      </trkpt>
      <trkpt lat="46.224545" lon="6.099835">
        <ele>477.009502</ele>
        <time>2017-06-01T10:02:48.000Z</time>
      </trkpt>
      <trkpt lat="46.224430" lon="6.099740">
        <ele>476.862223</ele>
        <time>2017-06-01T10:02:51.000Z</time>
      </trkpt>
      <trkpt lat="46.224342" lon="6.099621">
        <ele>476.728230</ele>
        <time>2017-06-01T10:02:54.000Z</time>
      </trkpt>
      <trkpt lat="46.224274" lon="6.099504">
        <ele>476.610682</ele>
        <time>2017-06-01T10:02:58.000Z</time>
      </trkpt>
      <trkpt lat="46.224220" lon="6.099390">
        <ele>476.504401</ele>
        <time>2017-06-01T10:03:03.000Z</time>
      </trkpt>
      <trkpt lat="46.224167" lon="6.099280">
        <ele>476.401284</ele>
        <time>2017-06-01T10:03:07.000Z</time>
      </trkpt>
      <trkpt lat="46.224064" lon="6.099208">
        <ele>476.274067</ele>
        <time>2017-06-01T10:03:11.000Z</time>
      </trkpt>
      <trkpt lat="46.223972" lon="6.099104">
        <ele>476.144203</ele>
        <time>2017-06-01T10:03:15.000Z</time>
      </trkpt>
      <trkpt lat="46.223890" lon="6.099033">
        <ele>476.037919</ele>
        <time>2017-06-01T10:03:18.000Z</time>
      </trkpt>
      <trkpt lat="46.223800" lon="6.098952">
        <ele>475.920034</ele>
        <time>2017-06-01T10:03:21.000Z</time>
      </trkpt>
      <trkpt lat="46.223720" lon="6.098871">
        <ele>475.811428</ele>
        <time>2017-06-01T10:03:24.000Z</time>
      </trkpt>
      <trkpt lat="46.223620" lon="6.098764">
        <ele>475.673086</ele>
        <time>2017-06-01T10:03:27.000Z</time>
      </trkpt>
      <trkpt lat="46.223507" lon="6.098657">
        <ele>475.522879</ele>
        <time>2017-06-01T10:03:30.000Z</time>
      </trkpt>
      <trkpt lat="46.223410" lon="6.098548">
        <ele>475.386264</ele>
        <time>2017-06-01T10:03:33.000Z</time>
      </trkpt>
      <trkpt lat="46.223330" lon="6.098444">
        <ele>475.279638</ele>
        <time>2017-06-01T10:03:37.000Z</time>
      </trkpt>
      <trkpt lat="46.223324" lon="6.098302">
        <ele>475.196527</ele>
        <time>2017-06-01T10:03:43.000Z</time>
      </trkpt>
      <trkpt lat="46.223232" lon="6.098273">
        <ele>475.117016</ele>
        <time>2017-06-01T10:05:04.000Z</time>
      </trkpt>
      <trkpt lat="46.223145" lon="6.098178">
        <ele>475.024946</ele>
        <time>2017-06-01T10:05:08.000Z</time>
      </trkpt>
      <trkpt lat="46.223060" lon="6.098078">
        <ele>474.932402</ele>
        <time>2017-06-01T10:05:11.000Z</time>
      </trkpt>
      <trkpt lat="46.222970" lon="6.097982">
        <ele>474.837952</ele>
        <time>2017-06-01T10:05:14.000Z</time>
      </trkpt>
      <trkpt lat="46.222878" lon="6.097872">
        <ele>474.737132</ele>
        <time>2017-06-01T10:05:17.000Z</time>
      </trkpt>
      <trkpt lat="46.222786" lon="6.097759">
        <ele>474.635187</ele>
        <time>2017-06-01T10:05:20.000Z</time>
      </trkpt>
      <trkpt lat="46.222680" lon="6.097652">
        <ele>474.526013</ele>
        <time>2017-06-01T10:05:23.000Z</time>
      </trkpt>
      <trkpt lat="46.222600" lon="6.097587">
        <ele>474.448519</ele>
        <time>2017-06-01T10:05:25.000Z</time>
      </trkpt>
      <trkpt lat="46.222504" lon="6.097489">
        <ele>474.349277</ele>
        <time>2017-06-01T10:05:28.000Z</time>
      </trkpt>
      <trkpt lat="46.222420" lon="6.097413">
        <ele>474.265597</ele>
        <time>2017-06-01T10:05:31.000Z</time>
      </trkpt>
      <trkpt lat="46.222340" lon="6.097328">
        <ele>474.181757</ele>
        <time>2017-06-01T10:05:35.000Z</time>
      </trkpt>
      <trkpt lat="46.222263" lon="6.097232">
        <ele>474.095892</ele>
        <time>2017-06-01T10:05:42.000Z</time>
      </trkpt>
      <trkpt lat="46.222187" lon="6.097160">
        <ele>474.019161</ele>
        <time>2017-06-01T10:05:52.000Z</time>
      </trkpt>
      <trkpt lat="46.222090" lon="6.097135">
        <ele>473.935962</ele>
        <time>2017-06-01T10:05:59.000Z</time>
      </trkpt>
      <trkpt lat="46.222008" lon="6.097086">
        <ele>473.861037</ele>
        <time>2017-06-01T10:06:06.000Z</time>
      </trkpt>
      <trkpt lat="46.221910" lon="6.097057">
        <ele>473.824015</ele>
        <time>2017-06-01T10:06:12.000Z</time>
      </trkpt>
      <trkpt lat="46.221752" lon="6.096960">
        <ele>473.950219</ele>
        <time>2017-06-01T10:06:29.000Z</time>
      </trkpt>
      <trkpt lat="46.221657" lon="6.096912">
        <ele>474.024206</ele>
        <time>2017-06-01T10:06:33.000Z</time>
      </trkpt>
      <trkpt lat="46.221550" lon="6.096952">
        <ele>474.105460</ele>
        <time>2017-06-01T10:06:37.000Z</time>
      </trkpt>
      <trkpt lat="46.221436" lon="6.096902">
        <ele>474.193045</ele>
        <time>2017-06-01T10:06:41.000Z</time>
      </trkpt>
      <trkpt lat="46.221344" lon="6.096846">
        <ele>474.266435</ele>
        <time>2017-06-01T10:06:44.000Z</time>
      </trkpt>
      <trkpt lat="46.221260" lon="6.096782">
        <ele>474.336246</ele>
        <time>2017-06-01T10:06:46.000Z</time>
      </trkpt>
      <trkpt lat="46.221165" lon="6.096722">
        <ele>474.412466</ele>
        <time>2017-06-01T10:06:49.000Z</time>
      </trkpt>
      <trkpt lat="46.221066" lon="6.096678">
        <ele>474.488613</ele>
        <time>2017-06-01T10:06:54.000Z</time>
      </trkpt>
      <trkpt lat="46.220943" lon="6.096719">
        <ele>474.581415</ele>
        <time>2017-06-01T10:08:09.000Z</time>
      </trkpt>
      <trkpt lat="46.220870" lon="6.096612">
        <ele>474.657852</ele>
        <time>2017-06-01T10:08:13.000Z</time>
      </trkpt>
      <trkpt lat="46.220783" lon="6.096541">
        <ele>474.731305</ele>
        <time>2017-06-01T10:08:19.000Z</time>
      </trkpt>
      <trkpt lat="46.220665" lon="6.096464">
        <ele>474.826489</ele>
        <time>2017-06-01T10:08:45.000Z</time>
      </trkpt>
      <trkpt lat="46.220562" lon="6.096437">
        <ele>474.903448</ele>
        <time>2017-06-01T10:08:51.000Z</time>
      </trkpt>
      <trkpt lat="46.220467" lon="6.096382">
        <ele>474.978686</ele>
        <time>2017-06-01T10:08:54.000Z</time>
      </trkpt>
      <trkpt lat="46.220345" lon="6.096318">
        <ele>475.074104</ele>
        <time>2017-06-01T10:08:57.000Z</time>
      </trkpt>
      <trkpt lat="46.220230" lon="6.096254">
        <ele>475.086720</ele>
        <time>2017-06-01T10:09:00.000Z</time>
      </trkpt>
      <trkpt lat="46.220110" lon="6.096186">
        <ele>474.998705</ele>
        <time>2017-06-01T10:09:03.000Z</time>
      </trkpt>
      <trkpt lat="46.219997" lon="6.096120">
        <ele>474.915480</ele>
        <time>2017-06-01T10:09:06.000Z</time>
      </trkpt>
      <trkpt lat="46.219883" lon="6.096067">
        <ele>474.833707</ele>
        <time>2017-06-01T10:09:09.000Z</time>
      </trkpt>
      <trkpt lat="46.219765" lon="6.095983">
        <ele>474.743887</ele>
        <time>2017-06-01T10:09:12.000Z</time>
      </trkpt>
      <trkpt lat="46.219646" lon="6.095923">
        <ele>474.657826</ele>
        <time>2017-06-01T10:09:15.000Z</time>
      </trkpt>
      <trkpt lat="46.219540" lon="6.095856">
        <ele>474.578824</ele>
        <time>2017-06-01T10:09:18.000Z</time>
      </trkpt>
      <trkpt lat="46.219460" lon="6.095762">
        <ele>474.508421</ele>
        <time>2017-06-01T10:09:20.000Z</time>
      </trkpt>
      <trkpt lat="46.219364" lon="6.095671">
        <ele>474.430026</ele>
        <time>2017-06-01T10:09:22.000Z</time>
      </trkpt>
      <trkpt lat="46.219270" lon="6.095610">
        <ele>474.359665</ele>
        <time>2017-06-01T10:09:25.000Z</time>
      </trkpt>
      <trkpt lat="46.219150" lon="6.095577">
        <ele>474.276252</ele>
        <time>2017-06-01T10:09:29.000Z</time>
      </trkpt>
      <trkpt lat="46.219060" lon="6.095532">
        <ele>474.211222</ele>
        <time>2017-06-01T10:09:32.000Z</time>
      </trkpt>
      <trkpt lat="46.218956" lon="6.095475">
        <ele>474.135271</ele>
        <time>2017-06-01T10:09:35.000Z</time>
      </trkpt>
      <trkpt lat="46.218870" lon="6.095412">
        <ele>474.069433</ele>
        <time>2017-06-01T10:09:38.000Z</time>
      </trkpt>
      <trkpt lat="46.218674" lon="6.095364">
        <ele>473.933686</ele>
        <time>2017-06-01T10:10:54.000Z</time>
      </trkpt>
      <trkpt lat="46.218580" lon="6.095360">
        <ele>473.700840</ele>
        <time>2017-06-01T10:11:02.000Z</time>
      </trkpt>
      <trkpt lat="46.218533" lon="6.095512">
        <ele>473.123440</ele>
        <time>2017-06-01T10:11:07.000Z</time>
      </trkpt>
      <trkpt lat="46.218494" lon="6.095657">
        <ele>472.583902</ele>
        <time>2017-06-01T10:11:10.000Z</time>
      </trkpt>
      <trkpt lat="46.218460" lon="6.095780">
        <ele>472.124540</ele>
        <time>2017-06-01T10:11:12.000Z</time>
      </trkpt>
      <trkpt lat="46.218420" lon="6.095913">
        <ele>471.621587</ele>
        <time>2017-06-01T10:11:14.000Z</time>
      </trkpt>
      <trkpt lat="46.218384" lon="6.096048">
        <ele>471.119820</ele>
        <time>2017-06-01T10:11:16.000Z</time>
      </trkpt>
      <trkpt lat="46.218323" lon="6.096195">
        <ele>470.525346</ele>
        <time>2017-06-01T10:11:18.000Z</time>
      </trkpt>
      <trkpt lat="46.218254" lon="6.096348">
        <ele>469.891959</ele>
        <time>2017-06-01T10:11:20.000Z</time>
      </trkpt>
      <trkpt lat="46.218200" lon="6.096508">
        <ele>469.274561</ele>
        <time>2017-06-01T10:11:22.000Z</time>
      </trkpt>
      <trkpt lat="46.218120" lon="6.096668">
        <ele>468.589935</ele>
        <time>2017-06-01T10:11:24.000Z</time>
      </trkpt>
      <trkpt lat="46.218050" lon="6.096837">
        <ele>467.906823</ele>
        <time>2017-06-01T10:11:26.000Z</time>
      </trkpt>
      <trkpt lat="46.217968" lon="6.097002">
        <ele>467.202266</ele>
        <time>2017-06-01T10:11:28.000Z</time>
      </trkpt>
      <trkpt lat="46.217884" lon="6.097166">
        <ele>466.494604</ele>
        <time>2017-06-01T10:11:30.000Z</time>
      </trkpt>
      <trkpt lat="46.217804" lon="6.097290">
        <ele>465.906607</ele>
        <time>2017-06-01T10:11:32.000Z</time>
      </trkpt>
      <trkpt lat="46.217716" lon="6.097417">
        <ele>465.283258</ele>
        <time>2017-06-01T10:11:35.000Z</time>
      </trkpt>
      <trkpt lat="46.217636" lon="6.097529">
        <ele>464.871516</ele>
        <time>2017-06-01T10:11:38.000Z</time>
      </trkpt>
      <trkpt lat="46.217567" lon="6.097642">
        <ele>464.841156</ele>
        <time>2017-06-01T10:11:41.000Z</time>
      </trkpt>
      <trkpt lat="46.217490" lon="6.097727">
        <ele>464.812946</ele>
        <time>2017-06-01T10:11:44.000Z</time>
      </trkpt>
      <trkpt lat="46.217403" lon="6.097785">
        <ele>464.785052</ele>
        <time>2017-06-01T10:11:48.000Z</time>
      </trkpt>
      <trkpt lat="46.217370" lon="6.097911">
        <ele>464.757912</ele>
        <time>2017-06-01T10:11:54.000Z</time>
      </trkpt>
      <trkpt lat="46.217304" lon="6.098043">
        <ele>464.725105</ele>
        <time>2017-06-01T10:13:20.000Z</time>
      </trkpt>
      <trkpt lat="46.217230" lon="6.098135">
        <ele>464.696686</ele>
        <time>2017-06-01T10:13:23.000Z</time>
      </trkpt>
      <trkpt lat="46.217144" lon="6.098250">
        <ele>464.662574</ele>
        <time>2017-06-01T10:13:26.000Z</time>
      </trkpt>
      <trkpt lat="46.217045" lon="6.098368">
        <ele>464.625213</ele>
        <time>2017-06-01T10:13:29.000Z</time>
      </trkpt>
      <trkpt lat="46.216930" lon="6.098473">
        <ele>464.585610</ele>
        <time>2017-06-01T10:13:32.000Z</time>
      </trkpt>
      <trkpt lat="46.216830" lon="6.098570">
        <ele>464.550547</ele>
        <time>2017-06-01T10:13:35.000Z</time>
      </trkpt>
      <trkpt lat="46.216747" lon="6.098659">
        <ele>464.520457</ele>
        <time>2017-06-01T10:13:38.000Z</time>
      </trkpt>
      <trkpt lat="46.216637" lon="6.098708">
        <ele>464.486945</ele>
        <time>2017-06-01T10:13:42.000Z</time>
      </trkpt>
      <trkpt lat="46.216550" lon="6.098788">
        <ele>464.456923</ele>
        <time>2017-06-01T10:13:45.000Z</time>
      </trkpt>
      <trkpt lat="46.216457" lon="6.098841">
        <ele>464.427818</ele>
        <time>2017-06-01T10:13:48.000Z</time>
      </trkpt>
      <trkpt lat="46.216366" lon="6.098859">
        <ele>464.401077</ele>
        <time>2017-06-01T10:13:51.000Z</time>
      </trkpt>
      <trkpt lat="46.216320" lon="6.098977">
        <ele>464.373793</ele>
        <time>2017-06-01T10:13:54.000Z</time>
      </trkpt>
      <trkpt lat="46.216255" lon="6.099081">
        <ele>464.414699</ele>
        <time>2017-06-01T10:13:57.000Z</time>
      </trkpt>
      <trkpt lat="46.216160" lon="6.099182">
        <ele>464.589848</ele>
        <time>2017-06-01T10:14:00.000Z</time>
      </trkpt>
      <trkpt lat="46.216057" lon="6.099291">
        <ele>464.779439</ele>
        <time>2017-06-01T10:14:03.000Z</time>
      </trkpt>
      <trkpt lat="46.215954" lon="6.099394">
        <ele>464.965454</ele>
        <time>2017-06-01T10:14:06.000Z</time>
      </trkpt>
      <trkpt lat="46.215860" lon="6.099511">
        <ele>465.149693</ele>
        <time>2017-06-01T10:14:09.000Z</time>
      </trkpt>
      <trkpt lat="46.215763" lon="6.099644">
        <ele>465.348266</ele>
        <time>2017-06-01T10:14:12.000Z</time>
      </trkpt>
      <trkpt lat="46.215694" lon="6.099741">
        <ele>465.491223</ele>
        <time>2017-06-01T10:14:14.000Z</time>
      </trkpt>
      <trkpt lat="46.215630" lon="6.099834">
        <ele>465.626009</ele>
        <time>2017-06-01T10:14:16.000Z</time>
      </trkpt>
      <trkpt lat="46.215530" lon="6.099971">
        <ele>465.830644</ele>
        <time>2017-06-01T10:14:19.000Z</time>
      </trkpt>
      <trkpt lat="46.215443" lon="6.100119">
        <ele>466.030205</ele>
        <time>2017-06-01T10:14:22.000Z</time>
      </trkpt>
      <trkpt lat="46.215374" lon="6.100219">
        <ele>466.175328</ele>
        <time>2017-06-01T10:14:24.000Z</time>
      </trkpt>
      <trkpt lat="46.215310" lon="6.100362">
        <ele>466.350338</ele>
        <time>2017-06-01T10:14:27.000Z</time>
      </trkpt>
      <trkpt lat="46.215250" lon="6.100476">
        <ele>466.497525</ele>
        <time>2017-06-01T10:14:29.000Z</time>
      </trkpt>
      <trkpt lat="46.215195" lon="6.100601">
        <ele>466.649748</ele>
        <time>2017-06-01T10:14:31.000Z</time>
      </trkpt>
      <trkpt lat="46.215137" lon="6.100712">
        <ele>466.792684</ele>
        <time>2017-06-01T10:14:33.000Z</time>
      </trkpt>
      <trkpt lat="46.215065" lon="6.100817">
        <ele>466.944593</ele>
        <time>2017-06-01T10:14:35.000Z</time>
      </trkpt>
      <trkpt lat="46.214996" lon="6.100925">
        <ele>467.130343</ele>
        <time>2017-06-01T10:14:37.000Z</time>
      </trkpt>
      <trkpt lat="46.214900" lon="6.101049">
        <ele>467.419740</ele>
        <time>2017-06-01T10:14:40.000Z</time>
      </trkpt>
      <trkpt lat="46.214832" lon="6.101151">
        <ele>467.640026</ele>
        <time>2017-06-01T10:14:43.000Z</time>
      </trkpt>
      <trkpt lat="46.214787" lon="6.101282">
        <ele>467.867491</ele>
        <time>2017-06-01T10:14:46.000Z</time>
      </trkpt>
      <trkpt lat="46.214720" lon="6.101395">
        <ele>468.098931</ele>
        <time>2017-06-01T10:14:49.000Z</time>
      </trkpt>
      <trkpt lat="46.214640" lon="6.101512">
        <ele>468.354751</ele>
        <time>2017-06-01T10:14:52.000Z</time>
      </trkpt>
      <trkpt lat="46.214550" lon="6.101603">
        <ele>468.601634</ele>
        <time>2017-06-01T10:14:54.000Z</time>
      </trkpt>
      <trkpt lat="46.214478" lon="6.101690">
        <ele>468.812579</ele>
        <time>2017-06-01T10:14:56.000Z</time>
      </trkpt>
      <trkpt lat="46.214390" lon="6.101818">
        <ele>469.093209</ele>
        <time>2017-06-01T10:14:59.000Z</time>
      </trkpt>
      <trkpt lat="46.214294" lon="6.101944">
        <ele>469.384689</ele>
        <time>2017-06-01T10:15:02.000Z</time>
      </trkpt>
      <trkpt lat="46.214220" lon="6.102059">
        <ele>469.628932</ele>
        <time>2017-06-01T10:15:05.000Z</time>
      </trkpt>
      <trkpt lat="46.214150" lon="6.102182">
        <ele>469.876621</ele>
        <time>2017-06-01T10:15:08.000Z</time>
      </trkpt>
      <trkpt lat="46.214046" lon="6.102304">
        <ele>470.177694</ele>
        <time>2017-06-01T10:15:11.000Z</time>
      </trkpt>
      <trkpt lat="46.213947" lon="6.102413">
        <ele>470.457432</ele>
        <time>2017-06-01T10:15:14.000Z</time>
      </trkpt>
      <trkpt lat="46.213870" lon="6.102536">
        <ele>470.715402</ele>
        <time>2017-06-01T10:15:17.000Z</time>
      </trkpt>
      <trkpt lat="46.213790" lon="6.102663">
        <ele>470.982512</ele>
        <time>2017-06-01T10:15:20.000Z</time>
      </trkpt>
      <trkpt lat="46.213710" lon="6.102796">
        <ele>471.220170</ele>
        <time>2017-06-01T10:15:23.000Z</time>
      </trkpt>
      <trkpt lat="46.213627" lon="6.102906">
        <ele>471.423674</ele>
        <time>2017-06-01T10:15:26.000Z</time>
      </trkpt>
      <trkpt lat="46.213540" lon="6.103012">
        <ele>471.629303</ele>
        <time>2017-06-01T10:15:29.000Z</time>
      </trkpt>
      <trkpt lat="46.213448" lon="6.103127">
        <ele>471.849112</ele>
        <time>2017-06-01T10:15:32.000Z</time>
      </trkpt>
      <trkpt lat="46.213364" lon="6.103248">
        <ele>472.063431</ele>
        <time>2017-06-01T10:15:35.000Z</time>
      </trkpt>
      <trkpt lat="46.213284" lon="6.103366">
        <ele>472.269996</ele>
        <time>2017-06-01T10:15:38.000Z</time>
      </trkpt>
      <trkpt lat="46.213207" lon="6.103491">
        <ele>472.479259</ele>
        <time>2017-06-01T10:15:41.000Z</time>
      </trkpt>
      <trkpt lat="46.213158" lon="6.103639">
        <ele>472.684414</ele>
        <time>2017-06-01T10:15:44.000Z</time>
      </trkpt>
      <trkpt lat="46.213097" lon="6.103763">
        <ele>472.874655</ele>
        <time>2017-06-01T10:15:47.000Z</time>
      </trkpt>
      <trkpt lat="46.213010" lon="6.103861">
        <ele>473.073984</ele>
        <time>2017-06-01T10:15:50.000Z</time>
      </trkpt>
      <trkpt lat="46.212906" lon="6.103975">
        <ele>473.309862</ele>
        <time>2017-06-01T10:15:53.000Z</time>
      </trkpt>
      <trkpt lat="46.212826" lon="6.104096">
        <ele>473.519125</ele>
        <time>2017-06-01T10:15:56.000Z</time>
      </trkpt>
      <trkpt lat="46.212746" lon="6.104227">
        <ele>473.737599</ele>
        <time>2017-06-01T10:15:59.000Z</time>
      </trkpt>
      <trkpt lat="46.212680" lon="6.104347">
        <ele>473.929275</ele>
        <time>2017-06-01T10:16:02.000Z</time>
      </trkpt>
      <trkpt lat="46.212597" lon="6.104451">
        <ele>474.127787</ele>
        <time>2017-06-01T10:16:05.000Z</time>
      </trkpt>
      <trkpt lat="46.212510" lon="6.104565">
        <ele>474.338674</ele>
        <time>2017-06-01T10:16:08.000Z</time>
      </trkpt>
      <trkpt lat="46.212433" lon="6.104689">
        <ele>474.532434</ele>
        <time>2017-06-01T10:16:11.000Z</time>
      </trkpt>
      <trkpt lat="46.212360" lon="6.104814">
        <ele>474.722658</ele>
        <time>2017-06-01T10:16:14.000Z</time>
      </trkpt>
      <trkpt lat="46.212300" lon="6.104940">
        <ele>474.900538</ele>
        <time>2017-06-01T10:16:17.000Z</time>
      </trkpt>
      <trkpt lat="46.212240" lon="6.105074">
        <ele>475.086157</ele>
        <time>2017-06-01T10:16:20.000Z</time>
      </trkpt>
      <trkpt lat="46.212185" lon="6.105226">
        <ele>475.285639</ele>
        <time>2017-06-01T10:16:23.000Z</time>
      </trkpt>
      <trkpt lat="46.212128" lon="6.105399">
        <ele>475.508478</ele>
        <time>2017-06-01T10:16:26.000Z</time>
      </trkpt>
      <trkpt lat="46.212050" lon="6.105547">
        <ele>475.724835</ele>
        <time>2017-06-01T10:16:29.000Z</time>
      </trkpt>
      <trkpt lat="46.212017" lon="6.105723">
        <ele>475.936902</ele>
        <time>2017-06-01T10:16:32.000Z</time>
      </trkpt>
      <trkpt lat="46.211980" lon="6.105898">
        <ele>476.149713</ele>
        <time>2017-06-01T10:16:35.000Z</time>
      </trkpt>
      <trkpt lat="46.211950" lon="6.106084">
        <ele>476.371827</ele>
        <time>2017-06-01T10:16:38.000Z</time>
      </trkpt>
      <trkpt lat="46.211910" lon="6.106205">
        <ele>476.527782</ele>
        <time>2017-06-01T10:16:40.000Z</time>
      </trkpt>
      <trkpt lat="46.211857" lon="6.106320">
        <ele>476.688473</ele>
        <time>2017-06-01T10:16:42.000Z</time>
      </trkpt>
      <trkpt lat="46.211820" lon="6.106442">
        <ele>476.843386</ele>
        <time>2017-06-01T10:16:44.000Z</time>
      </trkpt>
      <trkpt lat="46.211777" lon="6.106563">
        <ele>477.001580</ele>
        <time>2017-06-01T10:16:46.000Z</time>
      </trkpt>
      <trkpt lat="46.211720" lon="6.106740">
        <ele>477.228629</ele>
        <time>2017-06-01T10:16:49.000Z</time>
      </trkpt>
      <trkpt lat="46.211685" lon="6.106859">
        <ele>477.368474</ele>
        <time>2017-06-01T10:16:51.000Z</time>
      </trkpt>
      <trkpt lat="46.211620" lon="6.107034">
        <ele>477.530233</ele>
        <time>2017-06-01T10:16:54.000Z</time>
      </trkpt>
      <trkpt lat="46.211586" lon="6.107163">
        <ele>477.642658</ele>
        <time>2017-06-01T10:16:56.000Z</time>
      </trkpt>
      <trkpt lat="46.211533" lon="6.107340">
        <ele>477.799730</ele>
        <time>2017-06-01T10:16:59.000Z</time>
      </trkpt>
      <trkpt lat="46.211502" lon="6.107468">
        <ele>477.910178</ele>
        <time>2017-06-01T10:17:01.000Z</time>
      </trkpt>
      <trkpt lat="46.211445" lon="6.107641">
        <ele>478.066230</ele>
        <time>2017-06-01T10:17:04.000Z</time>
      </trkpt>
      <trkpt lat="46.211384" lon="6.107805">
        <ele>478.217870</ele>
        <time>2017-06-01T10:17:07.000Z</time>
      </trkpt>
      <trkpt lat="46.211346" lon="6.107931">
        <ele>478.329811</ele>
        <time>2017-06-01T10:17:09.000Z</time>
      </trkpt>
      <trkpt lat="46.211296" lon="6.108101">
        <ele>478.480253</ele>
        <time>2017-06-01T10:17:12.000Z</time>
      </trkpt>
      <trkpt lat="46.211254" lon="6.108272">
        <ele>478.628034</ele>
        <time>2017-06-01T10:17:15.000Z</time>
      </trkpt>
      <trkpt lat="46.211220" lon="6.108439">
        <ele>478.769810</ele>
        <time>2017-06-01T10:17:18.000Z</time>
      </trkpt>
      <trkpt lat="46.211193" lon="6.108597">
        <ele>478.902357</ele>
        <time>2017-06-01T10:17:21.000Z</time>
      </trkpt>
      <trkpt lat="46.211124" lon="6.108709">
        <ele>479.024485</ele>
        <time>2017-06-01T10:17:24.000Z</time>
      </trkpt>
      <trkpt lat="46.211037" lon="6.108769">
        <ele>479.137942</ele>
        <time>2017-06-01T10:17:27.000Z</time>
      </trkpt>
      <trkpt lat="46.210922" lon="6.108797">
        <ele>479.275197</ele>
        <time>2017-06-01T10:17:30.000Z</time>
      </trkpt>
      <trkpt lat="46.210793" lon="6.108842">
        <ele>479.431382</ele>
        <time>2017-06-01T10:17:33.000Z</time>
      </trkpt>
      <trkpt lat="46.210674" lon="6.108897">
        <ele>479.386979</ele>
        <time>2017-06-01T10:17:36.000Z</time>
      </trkpt>
      <trkpt lat="46.210583" lon="6.108948">
        <ele>479.314971</ele>
        <time>2017-06-01T10:17:38.000Z</time>
      </trkpt>
      <trkpt lat="46.210484" lon="6.108975">
        <ele>479.240643</ele>
        <time>2017-06-01T10:17:40.000Z</time>
      </trkpt>
      <trkpt lat="46.210365" lon="6.109001">
        <ele>479.151853</ele>
        <time>2017-06-01T10:17:42.000Z</time>
      </trkpt>
      <trkpt lat="46.210250" lon="6.109017">
        <ele>479.066618</ele>
        <time>2017-06-01T10:17:44.000Z</time>
      </trkpt>
      <trkpt lat="46.210150" lon="6.109051">
        <ele>478.990828</ele>
        <time>2017-06-01T10:17:46.000Z</time>
      </trkpt>
      <trkpt lat="46.210052" lon="6.109082">
        <ele>478.916816</ele>
        <time>2017-06-01T10:17:48.000Z</time>
      </trkpt>
      <trkpt lat="46.209953" lon="6.109114">
        <ele>478.841973</ele>
        <time>2017-06-01T10:17:50.000Z</time>
      </trkpt>
      <trkpt lat="46.209846" lon="6.109137">
        <ele>478.762165</ele>
        <time>2017-06-01T10:17:52.000Z</time>
      </trkpt>
      <trkpt lat="46.209736" lon="6.109151">
        <ele>478.680698</ele>
        <time>2017-06-01T10:17:54.000Z</time>
      </trkpt>
      <trkpt lat="46.209625" lon="6.109186">
        <ele>478.596880</ele>
        <time>2017-06-01T10:17:56.000Z</time>
      </trkpt>
      <trkpt lat="46.209500" lon="6.109209">
        <ele>478.503916</ele>
        <time>2017-06-01T10:17:58.000Z</time>
      </trkpt>
      <trkpt lat="46.209377" lon="6.109242">
        <ele>478.411621</ele>
        <time>2017-06-01T10:18:00.000Z</time>
      </trkpt>
      <trkpt lat="46.209255" lon="6.109266">
        <ele>478.320785</ele>
        <time>2017-06-01T10:18:02.000Z</time>
      </trkpt>
      <trkpt lat="46.209140" lon="6.109296">
        <ele>478.234571</ele>
        <time>2017-06-01T10:18:04.000Z</time>
      </trkpt>
      <trkpt lat="46.209020" lon="6.109322">
        <ele>478.145051</ele>
        <time>2017-06-01T10:18:06.000Z</time>
      </trkpt>
      <trkpt lat="46.208900" lon="6.109343">
        <ele>478.271022</ele>
        <time>2017-06-01T10:18:08.000Z</time>
      </trkpt>
      <trkpt lat="46.208780" lon="6.109366">
        <ele>478.428326</ele>
        <time>2017-06-01T10:18:10.000Z</time>
      </trkpt>
      <trkpt lat="46.208656" lon="6.109392">
        <ele>478.591149</ele>
        <time>2017-06-01T10:18:12.000Z</time>
      </trkpt>
      <trkpt lat="46.208534" lon="6.109425">
        <ele>478.752439</ele>
        <time>2017-06-01T10:18:14.000Z</time>
      </trkpt>
      <trkpt lat="46.208410" lon="6.109457">
        <ele>478.916125</ele>
        <time>2017-06-01T10:18:16.000Z</time>
      </trkpt>
      <trkpt lat="46.208280" lon="6.109469">
        <ele>479.085402</ele>
        <time>2017-06-01T10:18:18.000Z</time>
      </trkpt>
      <trkpt lat="46.208153" lon="6.109489">
        <ele>479.251413</ele>
        <time>2017-06-01T10:18:20.000Z</time>
      </trkpt>
      <trkpt lat="46.208027" lon="6.109501">
        <ele>479.415503</ele>
        <time>2017-06-01T10:18:22.000Z</time>
      </trkpt>
      <trkpt lat="46.207905" lon="6.109524">
        <ele>479.575383</ele>
        <time>2017-06-01T10:18:24.000Z</time>
      </trkpt>
      <trkpt lat="46.207780" lon="6.109544">
        <ele>479.738811</ele>
        <time>2017-06-01T10:18:26.000Z</time>
      </trkpt>
      <trkpt lat="46.207653" lon="6.109563">
        <ele>479.904728</ele>
        <time>2017-06-01T10:18:28.000Z</time>
      </trkpt>
      <trkpt lat="46.207540" lon="6.109582">
        <ele>480.052560</ele>
        <time>2017-06-01T10:18:30.000Z</time>
      </trkpt>
      <trkpt lat="46.207428" lon="6.109601">
        <ele>480.199102</ele>
        <time>2017-06-01T10:18:32.000Z</time>
      </trkpt>
      <trkpt lat="46.207325" lon="6.109621">
        <ele>480.334151</ele>
        <time>2017-06-01T10:18:34.000Z</time>
      </trkpt>
      <trkpt lat="46.207233" lon="6.109640">
        <ele>480.454919</ele>
        <time>2017-06-01T10:18:36.000Z</time>
      </trkpt>
      <trkpt lat="46.207104" lon="6.109669">
        <ele>480.388108</ele>
        <time>2017-06-01T10:18:39.000Z</time>
      </trkpt>
      <trkpt lat="46.206997" lon="6.109693">
        <ele>480.312028</ele>
        <time>2017-06-01T10:18:42.000Z</time>
      </trkpt>
      <trkpt lat="46.206882" lon="6.109718">
        <ele>480.230318</ele>
        <time>2017-06-01T10:18:46.000Z</time>
      </trkpt>
      <trkpt lat="46.206790" lon="6.109729">
        <ele>480.165457</ele>
        <time>2017-06-01T10:18:49.000Z</time>
      </trkpt>
      <trkpt lat="46.206690" lon="6.109754">
        <ele>480.094152</ele>
        <time>2017-06-01T10:18:52.000Z</time>
      </trkpt>
      <trkpt lat="46.206590" lon="6.109775">
        <ele>480.023153</ele>
        <time>2017-06-01T10:18:55.000Z</time>
      </trkpt>
      <trkpt lat="46.206463" lon="6.109792">
        <ele>479.933539</ele>
        <time>2017-06-01T10:18:58.000Z</time>
      </trkpt>
      <trkpt lat="46.206340" lon="6.109819">
        <ele>479.846126</ele>
        <time>2017-06-01T10:19:01.000Z</time>
      </trkpt>
      <trkpt lat="46.206220" lon="6.109812">
        <ele>479.761744</ele>
        <time>2017-06-01T10:19:04.000Z</time>
      </trkpt>
      <trkpt lat="46.206080" lon="6.109829">
        <ele>479.663032</ele>
        <time>2017-06-01T10:19:07.000Z</time>
      </trkpt>
      <trkpt lat="46.205948" lon="6.109839">
        <ele>479.570160</ele>
        <time>2017-06-01T10:19:10.000Z</time>
      </trkpt>
      <trkpt lat="46.205850" lon="6.109882">
        <ele>479.498199</ele>
        <time>2017-06-01T10:19:12.000Z</time>
      </trkpt>
      <trkpt lat="46.205730" lon="6.109888">
        <ele>479.413835</ele>
        <time>2017-06-01T10:19:15.000Z</time>
      </trkpt>
      <trkpt lat="46.205612" lon="6.109897">
        <ele>479.330812</ele>
        <time>2017-06-01T10:19:18.000Z</time>
      </trkpt>
      <trkpt lat="46.205494" lon="6.109888">
        <ele>479.247788</ele>
        <time>2017-06-01T10:19:21.000Z</time>
      </trkpt>
      <trkpt lat="46.205390" lon="6.109920">
        <ele>479.086723</ele>
        <time>2017-06-01T10:19:24.000Z</time>
      </trkpt>
      <trkpt lat="46.205284" lon="6.109960">
        <ele>478.815756</ele>
        <time>2017-06-01T10:19:27.000Z</time>
      </trkpt>
      <trkpt lat="46.205154" lon="6.109991">
        <ele>478.489874</ele>
        <time>2017-06-01T10:19:30.000Z</time>
      </trkpt>
      <trkpt lat="46.205036" lon="6.109984">
        <ele>478.197774</ele>
        <time>2017-06-01T10:19:33.000Z</time>
      </trkpt>
      <trkpt lat="46.204937" lon="6.109996">
        <ele>477.952054</ele>
        <time>2017-06-01T10:19:36.000Z</time>
      </trkpt>
      <trkpt lat="46.204840" lon="6.110052">
        <ele>477.693699</ele>
        <time>2017-06-01T10:19:39.000Z</time>
      </trkpt>
      <trkpt lat="46.204662" lon="6.110130">
        <ele>477.233645</ele>
        <time>2017-06-01T10:23:02.000Z</time>
      </trkpt>
      <trkpt lat="46.204563" lon="6.110142">
        <ele>476.987925</ele>
        <time>2017-06-01T10:23:05.000Z</time>
      </trkpt>
      <trkpt lat="46.204430" lon="6.110158">
        <ele>476.657833</ele>
        <time>2017-06-01T10:23:08.000Z</time>
      </trkpt>
      <trkpt lat="46.204327" lon="6.110187">
        <ele>476.398288</ele>
        <time>2017-06-01T10:23:10.000Z</time>
      </trkpt>
      <trkpt lat="46.204220" lon="6.110210">
        <ele>476.130729</ele>
        <time>2017-06-01T10:23:12.000Z</time>
      </trkpt>
      <trkpt lat="46.204110" lon="6.110235">
        <ele>475.855317</ele>
        <time>2017-06-01T10:23:14.000Z</time>
      </trkpt>
      <trkpt lat="46.203983" lon="6.110257">
        <ele>475.538954</ele>
        <time>2017-06-01T10:23:16.000Z</time>
      </trkpt>
      <trkpt lat="46.203865" lon="6.110284">
        <ele>475.243463</ele>
        <time>2017-06-01T10:23:18.000Z</time>
      </trkpt>
      <trkpt lat="46.203743" lon="6.110292">
        <ele>474.941406</ele>
        <time>2017-06-01T10:23:20.000Z</time>
      </trkpt>
      <trkpt lat="46.203620" lon="6.110302">
        <ele>474.649887</ele>
        <time>2017-06-01T10:23:22.000Z</time>
      </trkpt>
      <trkpt lat="46.203503" lon="6.110317">
        <ele>474.390762</ele>
        <time>2017-06-01T10:23:24.000Z</time>
      </trkpt>
      <trkpt lat="46.203392" lon="6.110338">
        <ele>474.143797</ele>
        <time>2017-06-01T10:23:26.000Z</time>
      </trkpt>
      <trkpt lat="46.203280" lon="6.110359">
        <ele>473.894645</ele>
        <time>2017-06-01T10:23:28.000Z</time>
      </trkpt>
      <trkpt lat="46.203167" lon="6.110375">
        <ele>473.644164</ele>
        <time>2017-06-01T10:23:30.000Z</time>
      </trkpt>
      <trkpt lat="46.203053" lon="6.110392">
        <ele>473.391335</ele>
        <time>2017-06-01T10:23:32.000Z</time>
      </trkpt>
      <trkpt lat="46.202940" lon="6.110416">
        <ele>473.139370</ele>
        <time>2017-06-01T10:23:34.000Z</time>
      </trkpt>
      <trkpt lat="46.202835" lon="6.110436">
        <ele>472.905727</ele>
        <time>2017-06-01T10:23:36.000Z</time>
      </trkpt>
      <trkpt lat="46.202724" lon="6.110460">
        <ele>472.658126</ele>
        <time>2017-06-01T10:23:38.000Z</time>
      </trkpt>
      <trkpt lat="46.202602" lon="6.110479">
        <ele>472.387426</ele>
        <time>2017-06-01T10:23:40.000Z</time>
      </trkpt>
      <trkpt lat="46.202484" lon="6.110501">
        <ele>472.124951</ele>
        <time>2017-06-01T10:23:42.000Z</time>
      </trkpt>
      <trkpt lat="46.202362" lon="6.110521">
        <ele>471.854083</ele>
        <time>2017-06-01T10:23:44.000Z</time>
      </trkpt>
      <trkpt lat="46.202248" lon="6.110547">
        <ele>471.599476</ele>
        <time>2017-06-01T10:23:46.000Z</time>
      </trkpt>
      <trkpt lat="46.202130" lon="6.110568">
        <ele>471.337192</ele>
        <time>2017-06-01T10:23:48.000Z</time>
      </trkpt>
      <trkpt lat="46.202015" lon="6.110581">
        <ele>471.082718</ele>
        <time>2017-06-01T10:23:50.000Z</time>
      </trkpt>
      <trkpt lat="46.201893" lon="6.110599">
        <ele>470.812177</ele>
        <time>2017-06-01T10:23:52.000Z</time>
      </trkpt>
      <trkpt lat="46.201770" lon="6.110620">
        <ele>470.665642</ele>
        <time>2017-06-01T10:23:54.000Z</time>
      </trkpt>
      <trkpt lat="46.201640" lon="6.110642">
        <ele>470.522178</ele>
        <time>2017-06-01T10:23:56.000Z</time>
      </trkpt>
      <trkpt lat="46.201508" lon="6.110661">
        <ele>470.376780</ele>
        <time>2017-06-01T10:23:58.000Z</time>
      </trkpt>
      <trkpt lat="46.201374" lon="6.110685">
        <ele>470.228782</ele>
        <time>2017-06-01T10:24:00.000Z</time>
      </trkpt>
      <trkpt lat="46.201233" lon="6.110714">
        <ele>470.072678</ele>
        <time>2017-06-01T10:24:02.000Z</time>
      </trkpt>
      <trkpt lat="46.201090" lon="6.110747">
        <ele>469.913952</ele>
        <time>2017-06-01T10:24:04.000Z</time>
      </trkpt>
      <trkpt lat="46.200954" lon="6.110773">
        <ele>469.763587</ele>
        <time>2017-06-01T10:24:06.000Z</time>
      </trkpt>
      <trkpt lat="46.200820" lon="6.110792">
        <ele>469.616008</ele>
        <time>2017-06-01T10:24:08.000Z</time>
      </trkpt>
      <trkpt lat="46.200684" lon="6.110810">
        <ele>469.466317</ele>
        <time>2017-06-01T10:24:10.000Z</time>
      </trkpt>
      <trkpt lat="46.200554" lon="6.110826">
        <ele>469.323312</ele>
        <time>2017-06-01T10:24:12.000Z</time>
      </trkpt>
      <trkpt lat="46.200424" lon="6.110859">
        <ele>469.178640</ele>
        <time>2017-06-01T10:24:14.000Z</time>
      </trkpt>
      <trkpt lat="46.200302" lon="6.110876">
        <ele>469.044298</ele>
        <time>2017-06-01T10:24:16.000Z</time>
      </trkpt>
      <trkpt lat="46.200170" lon="6.110898">
        <ele>468.898657</ele>
        <time>2017-06-01T10:24:18.000Z</time>
      </trkpt>
      <trkpt lat="46.200040" lon="6.110917">
        <ele>468.786765</ele>
        <time>2017-06-01T10:24:20.000Z</time>
      </trkpt>
      <trkpt lat="46.199905" lon="6.110943">
        <ele>468.710702</ele>
        <time>2017-06-01T10:24:22.000Z</time>
      </trkpt>
      <trkpt lat="46.199770" lon="6.110972">
        <ele>468.634477</ele>
        <time>2017-06-01T10:24:24.000Z</time>
      </trkpt>
      <trkpt lat="46.199640" lon="6.110994">
        <ele>468.561378</ele>
        <time>2017-06-01T10:24:26.000Z</time>
      </trkpt>
      <trkpt lat="46.199500" lon="6.111014">
        <ele>468.482808</ele>
        <time>2017-06-01T10:24:28.000Z</time>
      </trkpt>
      <trkpt lat="46.199368" lon="6.111043">
        <ele>468.408241</ele>
        <time>2017-06-01T10:24:30.000Z</time>
      </trkpt>
      <trkpt lat="46.199230" lon="6.111069">
        <ele>468.330517</ele>
        <time>2017-06-01T10:24:32.000Z</time>
      </trkpt>
      <trkpt lat="46.199100" lon="6.111090">
        <ele>468.257461</ele>
        <time>2017-06-01T10:24:34.000Z</time>
      </trkpt>
      <trkpt lat="46.198967" lon="6.111113">
        <ele>468.182653</ele>
        <time>2017-06-01T10:24:36.000Z</time>
      </trkpt>
      <trkpt lat="46.198837" lon="6.111136">
        <ele>468.109507</ele>
        <time>2017-06-01T10:24:38.000Z</time>
      </trkpt>
      <trkpt lat="46.198715" lon="6.111155">
        <ele>468.040977</ele>
        <time>2017-06-01T10:24:40.000Z</time>
      </trkpt>
      <trkpt lat="46.198597" lon="6.111172">
        <ele>467.974749</ele>
        <time>2017-06-01T10:24:42.000Z</time>
      </trkpt>
      <trkpt lat="46.198498" lon="6.111198">
        <ele>467.918552</ele>
        <time>2017-06-01T10:24:44.000Z</time>
      </trkpt>
      <trkpt lat="46.198402" lon="6.111215">
        <ele>467.864536</ele>
        <time>2017-06-01T10:24:46.000Z</time>
      </trkpt>
      <trkpt lat="46.198296" lon="6.111237">
        <ele>467.816179</ele>
        <time>2017-06-01T10:24:48.000Z</time>
      </trkpt>
      <trkpt lat="46.198193" lon="6.111256">
        <ele>467.824194</ele>
        <time>2017-06-01T10:24:50.000Z</time>
      </trkpt>
      <trkpt lat="46.198086" lon="6.111286">
        <ele>467.832606</ele>
        <time>2017-06-01T10:24:52.000Z</time>
      </trkpt>
      <trkpt lat="46.197970" lon="6.111302">
        <ele>467.841600</ele>
        <time>2017-06-01T10:24:54.000Z</time>
      </trkpt>
      <trkpt lat="46.197860" lon="6.111321">
        <ele>467.850151</ele>
        <time>2017-06-01T10:24:56.000Z</time>
      </trkpt>
      <trkpt lat="46.197740" lon="6.111339">
        <ele>467.859463</ele>
        <time>2017-06-01T10:24:58.000Z</time>
      </trkpt>
      <trkpt lat="46.197624" lon="6.111362">
        <ele>467.868500</ele>
        <time>2017-06-01T10:25:00.000Z</time>
      </trkpt>
      <trkpt lat="46.197514" lon="6.111388">
        <ele>467.877104</ele>
        <time>2017-06-01T10:25:02.000Z</time>
      </trkpt>
      <trkpt lat="46.197410" lon="6.111410">
        <ele>467.885216</ele>
        <time>2017-06-01T10:25:04.000Z</time>
      </trkpt>
      <trkpt lat="46.197308" lon="6.111443">
        <ele>467.893284</ele>
        <time>2017-06-01T10:25:06.000Z</time>
      </trkpt>
      <trkpt lat="46.197212" lon="6.111476">
        <ele>467.900901</ele>
        <time>2017-06-01T10:25:08.000Z</time>
      </trkpt>
      <trkpt lat="46.197120" lon="6.111509">
        <ele>467.908217</ele>
        <time>2017-06-01T10:25:10.000Z</time>
      </trkpt>
      <trkpt lat="46.197002" lon="6.111558">
        <ele>467.917694</ele>
        <time>2017-06-01T10:25:13.000Z</time>
      </trkpt>
      <trkpt lat="46.196896" lon="6.111613">
        <ele>467.926387</ele>
        <time>2017-06-01T10:25:16.000Z</time>
      </trkpt>
      <trkpt lat="46.196804" lon="6.111674">
        <ele>467.934200</ele>
        <time>2017-06-01T10:25:19.000Z</time>
      </trkpt>
      <trkpt lat="46.196712" lon="6.111733">
        <ele>467.941969</ele>
        <time>2017-06-01T10:25:23.000Z</time>
      </trkpt>
      <trkpt lat="46.196613" lon="6.111825">
        <ele>467.951055</ele>
        <time>2017-06-01T10:27:02.000Z</time>
      </trkpt>
      <trkpt lat="46.196625" lon="6.111978">
        <ele>468.147884</ele>
        <time>2017-06-01T10:27:09.000Z</time>
      </trkpt>
      <trkpt lat="46.196632" lon="6.112112">
        <ele>468.394070</ele>
        <time>2017-06-01T10:27:13.000Z</time>
      </trkpt>
      <trkpt lat="46.196632" lon="6.112246">
        <ele>468.639558</ele>
        <time>2017-06-01T10:27:17.000Z</time>
      </trkpt>
      <trkpt lat="46.196648" lon="6.112410">
        <ele>468.942975</ele>
        <time>2017-06-01T10:27:21.000Z</time>
      </trkpt>
      <trkpt lat="46.196697" lon="6.112577">
        <ele>469.275271</ele>
        <time>2017-06-01T10:27:24.000Z</time>
      </trkpt>
      <trkpt lat="46.196720" lon="6.112759">
        <ele>469.614205</ele>
        <time>2017-06-01T10:27:27.000Z</time>
      </trkpt>
      <trkpt lat="46.196747" lon="6.112948">
        <ele>469.967749</ele>
        <time>2017-06-01T10:27:30.000Z</time>
      </trkpt>
      <trkpt lat="46.196712" lon="6.113098">
        <ele>470.257742</ele>
        <time>2017-06-01T10:27:33.000Z</time>
      </trkpt>
      <trkpt lat="46.196617" lon="6.113197">
        <ele>470.567764</ele>
        <time>2017-06-01T10:27:36.000Z</time>
      </trkpt>
      <trkpt lat="46.196495" lon="6.113244">
        <ele>470.901943</ele>
        <time>2017-06-01T10:27:39.000Z</time>
      </trkpt>
      <trkpt lat="46.196370" lon="6.113261">
        <ele>471.234242</ele>
        <time>2017-06-01T10:27:42.000Z</time>
      </trkpt>
      <trkpt lat="46.196243" lon="6.113298">
        <ele>471.577138</ele>
        <time>2017-06-01T10:27:45.000Z</time>
      </trkpt>
      <trkpt lat="46.196140" lon="6.113339">
        <ele>471.859905</ele>
        <time>2017-06-01T10:27:48.000Z</time>
      </trkpt>
      <trkpt lat="46.196022" lon="6.113359">
        <ele>472.174356</ele>
        <time>2017-06-01T10:27:51.000Z</time>
      </trkpt>
      <trkpt lat="46.195892" lon="6.113397">
        <ele>472.525397</ele>
        <time>2017-06-01T10:27:54.000Z</time>
      </trkpt>
      <trkpt lat="46.195766" lon="6.113437">
        <ele>472.824148</ele>
        <time>2017-06-01T10:27:57.000Z</time>
      </trkpt>
      <trkpt lat="46.195656" lon="6.113482">
        <ele>473.042185</ele>
        <time>2017-06-01T10:28:00.000Z</time>
      </trkpt>
      <trkpt lat="46.195568" lon="6.113515">
        <ele>473.215577</ele>
        <time>2017-06-01T10:28:03.000Z</time>
      </trkpt>
      <trkpt lat="46.195450" lon="6.113548">
        <ele>473.444799</ele>
        <time>2017-06-01T10:28:07.000Z</time>
      </trkpt>
      <trkpt lat="46.195354" lon="6.113586">
        <ele>473.634635</ele>
        <time>2017-06-01T10:28:10.000Z</time>
      </trkpt>
      <trkpt lat="46.195250" lon="6.113626">
        <ele>473.839888</ele>
        <time>2017-06-01T10:28:13.000Z</time>
      </trkpt>
      <trkpt lat="46.195160" lon="6.113656">
        <ele>474.016043</ele>
        <time>2017-06-01T10:28:16.000Z</time>
      </trkpt>
      <trkpt lat="46.195057" lon="6.113690">
        <ele>474.217543</ele>
        <time>2017-06-01T10:28:19.000Z</time>
      </trkpt>
      <trkpt lat="46.194958" lon="6.113712">
        <ele>474.408572</ele>
        <time>2017-06-01T10:28:22.000Z</time>
      </trkpt>
      <trkpt lat="46.194866" lon="6.113697">
        <ele>474.585145</ele>
        <time>2017-06-01T10:28:28.000Z</time>
      </trkpt>
      <trkpt lat="46.194767" lon="6.113710">
        <ele>474.774732</ele>
        <time>2017-06-01T10:28:33.000Z</time>
      </trkpt>
      <trkpt lat="46.194683" lon="6.113761">
        <ele>474.948506</ele>
        <time>2017-06-01T10:28:37.000Z</time>
      </trkpt>
      <trkpt lat="46.194584" lon="6.113817">
        <ele>475.151273</ele>
        <time>2017-06-01T10:28:42.000Z</time>
      </trkpt>
      <trkpt lat="46.194480" lon="6.113813">
        <ele>475.349688</ele>
        <time>2017-06-01T10:28:47.000Z</time>
      </trkpt>
      <trkpt lat="46.194374" lon="6.113836">
        <ele>475.554114</ele>
        <time>2017-06-01T10:28:51.000Z</time>
      </trkpt>
      <trkpt lat="46.194256" lon="6.113865">
        <ele>475.782392</ele>
        <time>2017-06-01T10:28:55.000Z</time>
      </trkpt>
      <trkpt lat="46.194164" lon="6.113890">
        <ele>475.960928</ele>
        <time>2017-06-01T10:28:58.000Z</time>
      </trkpt>
      <trkpt lat="46.194046" lon="6.113944">
        <ele>476.203918</ele>
        <time>2017-06-01T10:29:02.000Z</time>
      </trkpt>
      <trkpt lat="46.193954" lon="6.113987">
        <ele>476.412588</ele>
        <time>2017-06-01T10:29:05.000Z</time>
      </trkpt>
      <trkpt lat="46.193855" lon="6.114020">
        <ele>476.631845</ele>
        <time>2017-06-01T10:29:08.000Z</time>
      </trkpt>
      <trkpt lat="46.193750" lon="6.114046">
        <ele>476.861741</ele>
        <time>2017-06-01T10:29:11.000Z</time>
      </trkpt>
      <trkpt lat="46.193650" lon="6.114070">
        <ele>477.080500</ele>
        <time>2017-06-01T10:29:14.000Z</time>
      </trkpt>
      <trkpt lat="46.193558" lon="6.114070">
        <ele>477.279038</ele>
        <time>2017-06-01T10:29:17.000Z</time>
      </trkpt>
      <trkpt lat="46.193447" lon="6.114040">
        <ele>477.522734</ele>
        <time>2017-06-01T10:29:21.000Z</time>
      </trkpt>
      <trkpt lat="46.193360" lon="6.114006">
        <ele>477.717230</ele>
        <time>2017-06-01T10:29:24.000Z</time>
      </trkpt>
      <trkpt lat="46.193264" lon="6.113965">
        <ele>477.933263</ele>
        <time>2017-06-01T10:29:27.000Z</time>
      </trkpt>
      <trkpt lat="46.193165" lon="6.113921">
        <ele>478.156789</ele>
        <time>2017-06-01T10:29:30.000Z</time>
      </trkpt>
      <trkpt lat="46.193054" lon="6.113863">
        <ele>478.411517</ele>
        <time>2017-06-01T10:29:33.000Z</time>
      </trkpt>
      <trkpt lat="46.192955" lon="6.113800">
        <ele>478.644971</ele>
        <time>2017-06-01T10:29:36.000Z</time>
      </trkpt>
      <trkpt lat="46.192850" lon="6.113736">
        <ele>478.890907</ele>
        <time>2017-06-01T10:29:39.000Z</time>
      </trkpt>
      <trkpt lat="46.192757" lon="6.113702">
        <ele>479.097929</ele>
        <time>2017-06-01T10:29:42.000Z</time>
      </trkpt>
      <trkpt lat="46.192642" lon="6.113669">
        <ele>479.350950</ele>
        <time>2017-06-01T10:29:45.000Z</time>
      </trkpt>
      <trkpt lat="46.192510" lon="6.113646">
        <ele>479.637873</ele>
        <time>2017-06-01T10:29:48.000Z</time>
      </trkpt>
      <trkpt lat="46.192383" lon="6.113605">
        <ele>479.918701</ele>
        <time>2017-06-01T10:29:51.000Z</time>
      </trkpt>
      <trkpt lat="46.192253" lon="6.113558">
        <ele>479.957923</ele>
        <time>2017-06-01T10:29:54.000Z</time>
      </trkpt>
      <trkpt lat="46.192140" lon="6.113494">
        <ele>479.860169</ele>
        <time>2017-06-01T10:29:57.000Z</time>
      </trkpt>
      <trkpt lat="46.192030" lon="6.113416">
        <ele>479.761479</ele>
        <time>2017-06-01T10:30:00.000Z</time>
      </trkpt>
      <trkpt lat="46.191936" lon="6.113382">
        <ele>479.683435</ele>
        <time>2017-06-01T10:30:03.000Z</time>
      </trkpt>
      <trkpt lat="46.191826" lon="6.113328">
        <ele>479.589867</ele>
        <time>2017-06-01T10:30:07.000Z</time>
      </trkpt>
      <trkpt lat="46.191734" lon="6.113219">
        <ele>479.494037</ele>
        <time>2017-06-01T10:30:11.000Z</time>
      </trkpt>
      <trkpt lat="46.191640" lon="6.113248">
        <ele>479.416623</ele>
        <time>2017-06-01T10:30:14.000Z</time>
      </trkpt>
      <trkpt lat="46.191628" lon="6.113426">
        <ele>479.316914</ele>
        <time>2017-06-01T10:30:17.000Z</time>
      </trkpt>
      <trkpt lat="46.191635" lon="6.113557">
        <ele>479.243660</ele>
        <time>2017-06-01T10:30:19.000Z</time>
      </trkpt>
      <trkpt lat="46.191612" lon="6.113719">
        <ele>479.151460</ele>
        <time>2017-06-01T10:30:22.000Z</time>
      </trkpt>
      <trkpt lat="46.191574" lon="6.113839">
        <ele>479.077889</ele>
        <time>2017-06-01T10:30:25.000Z</time>
      </trkpt>
      <trkpt lat="46.191517" lon="6.113954">
        <ele>478.999032</ele>
        <time>2017-06-01T10:30:28.000Z</time>
      </trkpt>
      <trkpt lat="46.191480" lon="6.114081">
        <ele>478.922211</ele>
        <time>2017-06-01T10:30:31.000Z</time>
      </trkpt>
      <trkpt lat="46.191440" lon="6.114210">
        <ele>478.843404</ele>
        <time>2017-06-01T10:30:34.000Z</time>
      </trkpt>
      <trkpt lat="46.191402" lon="6.114347">
        <ele>478.761119</ele>
        <time>2017-06-01T10:30:38.000Z</time>
      </trkpt>
      <trkpt lat="46.191370" lon="6.114467">
        <ele>478.689422</ele>
        <time>2017-06-01T10:30:41.000Z</time>
      </trkpt>
      <trkpt lat="46.191326" lon="6.114605">
        <ele>478.604714</ele>
        <time>2017-06-01T10:30:44.000Z</time>
      </trkpt>
      <trkpt lat="46.191284" lon="6.114756">
        <ele>478.543486</ele>
        <time>2017-06-01T10:30:47.000Z</time>
      </trkpt>
      <trkpt lat="46.191230" lon="6.114910">
        <ele>478.492119</ele>
        <time>2017-06-01T10:30:50.000Z</time>
      </trkpt>
      <trkpt lat="46.191193" lon="6.115076">
        <ele>478.440227</ele>
        <time>2017-06-01T10:30:53.000Z</time>
      </trkpt>
      <trkpt lat="46.191140" lon="6.115233">
        <ele>478.388252</ele>
        <time>2017-06-01T10:30:56.000Z</time>
      </trkpt>
      <trkpt lat="46.191090" lon="6.115385">
        <ele>478.338176</ele>
        <time>2017-06-01T10:30:59.000Z</time>
      </trkpt>
      <trkpt lat="46.191050" lon="6.115541">
        <ele>478.288675</ele>
        <time>2017-06-01T10:31:02.000Z</time>
      </trkpt>
      <trkpt lat="46.191000" lon="6.115697">
        <ele>478.237522</ele>
        <time>2017-06-01T10:31:05.000Z</time>
      </trkpt>
      <trkpt lat="46.190945" lon="6.115842">
        <ele>478.188324</ele>
        <time>2017-06-01T10:31:08.000Z</time>
      </trkpt>
      <trkpt lat="46.190887" lon="6.115966">
        <ele>478.143793</ele>
        <time>2017-06-01T10:31:11.000Z</time>
      </trkpt>
      <trkpt lat="46.190780" lon="6.115978">
        <ele>478.097662</ele>
        <time>2017-06-01T10:31:14.000Z</time>
      </trkpt>
      <trkpt lat="46.190674" lon="6.115872">
        <ele>478.042247</ele>
        <time>2017-06-01T10:31:17.000Z</time>
      </trkpt>
      <trkpt lat="46.190582" lon="6.115757">
        <ele>477.989951</ele>
        <time>2017-06-01T10:31:20.000Z</time>
      </trkpt>
      <trkpt lat="46.190502" lon="6.115622">
        <ele>477.937073</ele>
        <time>2017-06-01T10:31:23.000Z</time>
      </trkpt>
      <trkpt lat="46.190403" lon="6.115491">
        <ele>477.879363</ele>
        <time>2017-06-01T10:31:26.000Z</time>
      </trkpt>
      <trkpt lat="46.190315" lon="6.115378">
        <ele>477.828753</ele>
        <time>2017-06-01T10:31:29.000Z</time>
      </trkpt>
      <trkpt lat="46.190220" lon="6.115269">
        <ele>478.097700</ele>
        <time>2017-06-01T10:31:32.000Z</time>
      </trkpt>
      <trkpt lat="46.190130" lon="6.115173">
        <ele>478.610707</ele>
        <time>2017-06-01T10:31:35.000Z</time>
      </trkpt>
      <trkpt lat="46.190040" lon="6.115066">
        <ele>479.145195</ele>
        <time>2017-06-01T10:31:38.000Z</time>
      </trkpt>
      <trkpt lat="46.189970" lon="6.114946">
        <ele>479.643322</ele>
        <time>2017-06-01T10:31:41.000Z</time>
      </trkpt>
      <trkpt lat="46.189896" lon="6.114842">
        <ele>480.116742</ele>
        <time>2017-06-01T10:31:45.000Z</time>
      </trkpt>
      <trkpt lat="46.189796" lon="6.114795">
        <ele>480.598946</ele>
        <time>2017-06-01T10:31:51.000Z</time>
      </trkpt>
      <trkpt lat="46.189724" lon="6.114876">
        <ele>481.017410</ele>
        <time>2017-06-01T10:31:55.000Z</time>
      </trkpt>
      <trkpt lat="46.189663" lon="6.115007">
        <ele>481.518572</ele>
        <time>2017-06-01T10:31:59.000Z</time>
      </trkpt>
      <trkpt lat="46.189587" lon="6.115126">
        <ele>482.032520</ele>
        <time>2017-06-01T10:32:03.000Z</time>
      </trkpt>
      <trkpt lat="46.189514" lon="6.115243">
        <ele>482.532508</ele>
        <time>2017-06-01T10:32:07.000Z</time>
      </trkpt>
      <trkpt lat="46.189434" lon="6.115333">
        <ele>482.997470</ele>
        <time>2017-06-01T10:32:10.000Z</time>
      </trkpt>
      <trkpt lat="46.189346" lon="6.115422">
        <ele>483.490059</ele>
        <time>2017-06-01T10:32:13.000Z</time>
      </trkpt>
      <trkpt lat="46.189274" lon="6.115522">
        <ele>483.948063</ele>
        <time>2017-06-01T10:32:16.000Z</time>
      </trkpt>
      <trkpt lat="46.189194" lon="6.115599">
        <ele>484.388872</ele>
        <time>2017-06-01T10:32:19.000Z</time>
      </trkpt>
      <trkpt lat="46.189120" lon="6.115694">
        <ele>484.842835</ele>
        <time>2017-06-01T10:32:22.000Z</time>
      </trkpt>
      <trkpt lat="46.189053" lon="6.115817">
        <ele>485.339664</ele>
        <time>2017-06-01T10:32:25.000Z</time>
      </trkpt>
      <trkpt lat="46.188990" lon="6.115936">
        <ele>485.815218</ele>
        <time>2017-06-01T10:32:28.000Z</time>
      </trkpt>
      <trkpt lat="46.188923" lon="6.116065">
        <ele>485.992566</ele>
        <time>2017-06-01T10:32:31.000Z</time>
      </trkpt>
      <trkpt lat="46.188847" lon="6.116146">
        <ele>485.899635</ele>
        <time>2017-06-01T10:32:34.000Z</time>
      </trkpt>
      <trkpt lat="46.188740" lon="6.116262">
        <ele>485.768000</ele>
        <time>2017-06-01T10:32:37.000Z</time>
      </trkpt>
      <trkpt lat="46.188670" lon="6.116359">
        <ele>485.672556</ele>
        <time>2017-06-01T10:32:39.000Z</time>
      </trkpt>
      <trkpt lat="46.188606" lon="6.116469">
        <ele>485.574679</ele>
        <time>2017-06-01T10:32:41.000Z</time>
      </trkpt>
      <trkpt lat="46.188538" lon="6.116572">
        <ele>485.477730</ele>
        <time>2017-06-01T10:32:43.000Z</time>
      </trkpt>
      <trkpt lat="46.188457" lon="6.116654">
        <ele>485.380406</ele>
        <time>2017-06-01T10:32:45.000Z</time>
      </trkpt>
      <trkpt lat="46.188362" lon="6.116773">
        <ele>485.256680</ele>
        <time>2017-06-01T10:32:48.000Z</time>
      </trkpt>
      <trkpt lat="46.188270" lon="6.116870">
        <ele>485.144608</ele>
        <time>2017-06-01T10:32:51.000Z</time>
      </trkpt>
      <trkpt lat="46.188164" lon="6.116965">
        <ele>485.021866</ele>
        <time>2017-06-01T10:32:54.000Z</time>
      </trkpt>
      <trkpt lat="46.188080" lon="6.117039">
        <ele>484.925056</ele>
        <time>2017-06-01T10:32:56.000Z</time>
      </trkpt>
      <trkpt lat="46.188007" lon="6.117123">
        <ele>484.833224</ele>
        <time>2017-06-01T10:32:58.000Z</time>
      </trkpt>
      <trkpt lat="46.187923" lon="6.117249">
        <ele>484.714069</ele>
        <time>2017-06-01T10:33:01.000Z</time>
      </trkpt>
      <trkpt lat="46.187843" lon="6.117338">
        <ele>484.614714</ele>
        <time>2017-06-01T10:33:05.000Z</time>
      </trkpt>
      <trkpt lat="46.187740" lon="6.117358">
        <ele>484.512456</ele>
        <time>2017-06-01T10:33:10.000Z</time>
      </trkpt>
      <trkpt lat="46.187660" lon="6.117453">
        <ele>484.410555</ele>
        <time>2017-06-01T10:33:15.000Z</time>
      </trkpt>
      <trkpt lat="46.187580" lon="6.117519">
        <ele>484.319906</ele>
        <time>2017-06-01T10:33:18.000Z</time>
      </trkpt>
      <trkpt lat="46.187492" lon="6.117608">
        <ele>483.545881</ele>
        <time>2017-06-01T10:33:21.000Z</time>
      </trkpt>
      <trkpt lat="46.187378" lon="6.117698">
        <ele>482.156338</ele>
        <time>2017-06-01T10:33:24.000Z</time>
      </trkpt>
      <trkpt lat="46.187270" lon="6.117797">
        <ele>480.788232</ele>
        <time>2017-06-01T10:33:27.000Z</time>
      </trkpt>
      <trkpt lat="46.187183" lon="6.117903">
        <ele>479.570883</ele>
        <time>2017-06-01T10:33:30.000Z</time>
      </trkpt>
      <trkpt lat="46.187120" lon="6.118010">
        <ele>478.530793</ele>
        <time>2017-06-01T10:33:33.000Z</time>
      </trkpt>
      <trkpt lat="46.187035" lon="6.118115">
        <ele>477.334541</ele>
        <time>2017-06-01T10:33:36.000Z</time>
      </trkpt>
      <trkpt lat="46.186935" lon="6.118221">
        <ele>476.007874</ele>
        <time>2017-06-01T10:33:39.000Z</time>
      </trkpt>
      <trkpt lat="46.186855" lon="6.118301">
        <ele>474.967173</ele>
        <time>2017-06-01T10:33:41.000Z</time>
      </trkpt>
      <trkpt lat="46.186764" lon="6.118402">
        <ele>473.739717</ele>
        <time>2017-06-01T10:33:44.000Z</time>
      </trkpt>
      <trkpt lat="46.186687" lon="6.118505">
        <ele>472.617238</ele>
        <time>2017-06-01T10:33:47.000Z</time>
      </trkpt>
      <trkpt lat="46.186610" lon="6.118621">
        <ele>471.427254</ele>
        <time>2017-06-01T10:33:50.000Z</time>
      </trkpt>
      <trkpt lat="46.186530" lon="6.118700">
        <ele>470.390749</ele>
        <time>2017-06-01T10:33:53.000Z</time>
      </trkpt>
      <trkpt lat="46.186450" lon="6.118645">
        <ele>469.443115</ele>
        <time>2017-06-01T10:33:56.000Z</time>
      </trkpt>
      <trkpt lat="46.186394" lon="6.118523">
        <ele>468.359209</ele>
        <time>2017-06-01T10:34:02.000Z</time>
      </trkpt>
      <trkpt lat="46.186400" lon="6.118653">
        <ele>467.394450</ele>
        <time>2017-06-01T10:34:15.000Z</time>
      </trkpt>
      <trkpt lat="46.186375" lon="6.118790">
        <ele>466.345346</ele>
        <time>2017-06-01T10:34:46.000Z</time>
      </trkpt>
      <trkpt lat="46.186386" lon="6.118941">
        <ele>465.221050</ele>
        <time>2017-06-01T10:34:51.000Z</time>
      </trkpt>
      <trkpt lat="46.186317" lon="6.119068">
        <ele>463.833976</ele>
        <time>2017-06-01T10:34:55.000Z</time>
      </trkpt>
      <trkpt lat="46.186264" lon="6.119184">
        <ele>462.611170</ele>
        <time>2017-06-01T10:34:58.000Z</time>
      </trkpt>
      <trkpt lat="46.186203" lon="6.119283">
        <ele>461.445142</ele>
        <time>2017-06-01T10:35:01.000Z</time>
      </trkpt>
      <trkpt lat="46.186134" lon="6.119371">
        <ele>460.275375</ele>
        <time>2017-06-01T10:35:04.000Z</time>
      </trkpt>
      <trkpt lat="46.186060" lon="6.119492">
        <ele>458.854912</ele>
        <time>2017-06-01T10:35:08.000Z</time>
      </trkpt>
      <trkpt lat="46.185993" lon="6.119591">
        <ele>457.636856</ele>
        <time>2017-06-01T10:35:11.000Z</time>
      </trkpt>
      <trkpt lat="46.185936" lon="6.119694">
        <ele>456.476707</ele>
        <time>2017-06-01T10:35:14.000Z</time>
      </trkpt>
      <trkpt lat="46.185875" lon="6.119826">
        <ele>455.080385</ele>
        <time>2017-06-01T10:35:17.000Z</time>
      </trkpt>
      <trkpt lat="46.185833" lon="6.119971">
        <ele>453.697485</ele>
        <time>2017-06-01T10:35:19.000Z</time>
      </trkpt>
      <trkpt lat="46.185790" lon="6.120124">
        <ele>452.244666</ele>
        <time>2017-06-01T10:35:21.000Z</time>
      </trkpt>
      <trkpt lat="46.185740" lon="6.120260">
        <ele>450.889854</ele>
        <time>2017-06-01T10:35:23.000Z</time>
      </trkpt>
      <trkpt lat="46.185673" lon="6.120399">
        <ele>449.399685</ele>
        <time>2017-06-01T10:35:25.000Z</time>
      </trkpt>
      <trkpt lat="46.185604" lon="6.120543">
        <ele>447.858882</ele>
        <time>2017-06-01T10:35:27.000Z</time>
      </trkpt>
      <trkpt lat="46.185528" lon="6.120671">
        <ele>446.375268</ele>
        <time>2017-06-01T10:35:29.000Z</time>
      </trkpt>
      <trkpt lat="46.185440" lon="6.120775">
        <ele>444.930300</ele>
        <time>2017-06-01T10:35:31.000Z</time>
      </trkpt>
      <trkpt lat="46.185352" lon="6.120879">
        <ele>443.485331</ele>
        <time>2017-06-01T10:35:33.000Z</time>
      </trkpt>
      <trkpt lat="46.185284" lon="6.120976">
        <ele>442.270779</ele>
        <time>2017-06-01T10:35:35.000Z</time>
      </trkpt>
      <trkpt lat="46.185180" lon="6.121103">
        <ele>442.921606</ele>
        <time>2017-06-01T10:35:38.000Z</time>
      </trkpt>
      <trkpt lat="46.185085" lon="6.121128">
        <ele>443.469562</ele>
        <time>2017-06-01T10:35:44.000Z</time>
      </trkpt>
      <trkpt lat="46.185017" lon="6.121017">
        <ele>444.051853</ele>
        <time>2017-06-01T10:36:05.000Z</time>
      </trkpt>
      <trkpt lat="46.184933" lon="6.120949">
        <ele>444.598273</ele>
        <time>2017-06-01T10:36:15.000Z</time>
      </trkpt>
      <trkpt lat="46.184853" lon="6.120874">
        <ele>445.139477</ele>
        <time>2017-06-01T10:36:24.000Z</time>
      </trkpt>
      <trkpt lat="46.184760" lon="6.120898">
        <ele>445.675567</ele>
        <time>2017-06-01T10:36:39.000Z</time>
      </trkpt>
      <trkpt lat="46.184670" lon="6.120868">
        <ele>446.199699</ele>
        <time>2017-06-01T10:36:53.000Z</time>
      </trkpt>
      <trkpt lat="46.184580" lon="6.120811">
        <ele>446.757347</ele>
        <time>2017-06-01T10:36:59.000Z</time>
      </trkpt>
      <trkpt lat="46.184513" lon="6.120682">
        <ele>447.390906</ele>
        <time>2017-06-01T10:37:05.000Z</time>
      </trkpt>
      <trkpt lat="46.184414" lon="6.120705">
        <ele>447.959906</ele>
        <time>2017-06-01T10:37:11.000Z</time>
      </trkpt>
      <trkpt lat="46.184338" lon="6.120780">
        <ele>448.482219</ele>
        <time>2017-06-01T10:37:16.000Z</time>
      </trkpt>
      <trkpt lat="46.184242" lon="6.120825">
        <ele>449.054945</ele>
        <time>2017-06-01T10:37:24.000Z</time>
      </trkpt>
      <trkpt lat="46.184162" lon="6.120740">
        <ele>449.618505</ele>
        <time>2017-06-01T10:37:29.000Z</time>
      </trkpt>
      <trkpt lat="46.184097" lon="6.120643">
        <ele>450.148858</ele>
        <time>2017-06-01T10:37:33.000Z</time>
      </trkpt>
      <trkpt lat="46.184020" lon="6.120550">
        <ele>450.718431</ele>
        <time>2017-06-01T10:37:37.000Z</time>
      </trkpt>
      <trkpt lat="46.183952" lon="6.120439">
        <ele>451.300728</ele>
        <time>2017-06-01T10:37:41.000Z</time>
      </trkpt>
      <trkpt lat="46.183870" lon="6.120365">
        <ele>451.849397</ele>
        <time>2017-06-01T10:37:45.000Z</time>
      </trkpt>
      <trkpt lat="46.183754" lon="6.120378">
        <ele>452.422144</ele>
        <time>2017-06-01T10:37:49.000Z</time>
      </trkpt>
      <trkpt lat="46.183630" lon="6.120382">
        <ele>452.598305</ele>
        <time>2017-06-01T10:37:53.000Z</time>
      </trkpt>
      <trkpt lat="46.183540" lon="6.120400">
        <ele>452.727352</ele>
        <time>2017-06-01T10:37:56.000Z</time>
      </trkpt>
      <trkpt lat="46.183453" lon="6.120402">
        <ele>452.850934</ele>
        <time>2017-06-01T10:37:59.000Z</time>
      </trkpt>
      <trkpt lat="46.183360" lon="6.120432">
        <ele>452.986277</ele>
        <time>2017-06-01T10:38:03.000Z</time>
      </trkpt>
      <trkpt lat="46.183277" lon="6.120514">
        <ele>453.129101</ele>
        <time>2017-06-01T10:38:54.000Z</time>
      </trkpt>
      <trkpt lat="46.183178" lon="6.120522">
        <ele>453.269931</ele>
        <time>2017-06-01T10:38:58.000Z</time>
      </trkpt>
      <trkpt lat="46.183083" lon="6.120487">
        <ele>453.409180</ele>
        <time>2017-06-01T10:39:03.000Z</time>
      </trkpt>
      <trkpt lat="46.182987" lon="6.120512">
        <ele>453.547728</ele>
        <time>2017-06-01T10:39:06.000Z</time>
      </trkpt>
      <trkpt lat="46.182890" lon="6.120550">
        <ele>453.690475</ele>
        <time>2017-06-01T10:39:10.000Z</time>
      </trkpt>
      <trkpt lat="46.182785" lon="6.120585">
        <ele>453.843527</ele>
        <time>2017-06-01T10:39:14.000Z</time>
      </trkpt>
      <trkpt lat="46.182667" lon="6.120615">
        <ele>454.013699</ele>
        <time>2017-06-01T10:39:18.000Z</time>
      </trkpt>
      <trkpt lat="46.182550" lon="6.120580">
        <ele>454.183401</ele>
        <time>2017-06-01T10:39:22.000Z</time>
      </trkpt>
      <trkpt lat="46.182453" lon="6.120560">
        <ele>454.322567</ele>
        <time>2017-06-01T10:39:25.000Z</time>
      </trkpt>
      <trkpt lat="46.182350" lon="6.120582">
        <ele>454.470449</ele>
        <time>2017-06-01T10:39:28.000Z</time>
      </trkpt>
      <trkpt lat="46.182250" lon="6.120635">
        <ele>454.621740</ele>
        <time>2017-06-01T10:39:32.000Z</time>
      </trkpt>
      <trkpt lat="46.182160" lon="6.120696">
        <ele>454.762942</ele>
        <time>2017-06-01T10:39:38.000Z</time>
      </trkpt>
      <trkpt lat="46.182045" lon="6.120738">
        <ele>454.931418</ele>
        <time>2017-06-01T10:39:42.000Z</time>
      </trkpt>
      <trkpt lat="46.181946" lon="6.120780">
        <ele>454.893549</ele>
        <time>2017-06-01T10:39:45.000Z</time>
      </trkpt>
      <trkpt lat="46.181843" lon="6.120814">
        <ele>454.831405</ele>
        <time>2017-06-01T10:39:48.000Z</time>
      </trkpt>
      <trkpt lat="46.181740" lon="6.120843">
        <ele>454.769682</ele>
        <time>2017-06-01T10:39:51.000Z</time>
      </trkpt>
      <trkpt lat="46.181637" lon="6.120857">
        <ele>454.708832</ele>
        <time>2017-06-01T10:39:54.000Z</time>
      </trkpt>
      <trkpt lat="46.181545" lon="6.120789">
        <ele>454.648045</ele>
        <time>2017-06-01T10:39:59.000Z</time>
      </trkpt>
      <trkpt lat="46.181440" lon="6.120809">
        <ele>454.585752</ele>
        <time>2017-06-01T10:40:05.000Z</time>
      </trkpt>
      <trkpt lat="46.181330" lon="6.120858">
        <ele>454.518045</ele>
        <time>2017-06-01T10:40:09.000Z</time>
      </trkpt>
      <trkpt lat="46.181236" lon="6.120899">
        <ele>454.460290</ele>
        <time>2017-06-01T10:40:12.000Z</time>
      </trkpt>
      <trkpt lat="46.181130" lon="6.120946">
        <ele>454.395071</ele>
        <time>2017-06-01T10:40:15.000Z</time>
      </trkpt>
      <trkpt lat="46.181010" lon="6.120984">
        <ele>454.322813</ele>
        <time>2017-06-01T10:40:18.000Z</time>
      </trkpt>
      <trkpt lat="46.180880" lon="6.121022">
        <ele>454.244800</ele>
        <time>2017-06-01T10:40:21.000Z</time>
      </trkpt>
      <trkpt lat="46.180750" lon="6.121059">
        <ele>454.166866</ele>
        <time>2017-06-01T10:40:24.000Z</time>
      </trkpt>
      <trkpt lat="46.180660" lon="6.121082">
        <ele>454.113108</ele>
        <time>2017-06-01T10:40:26.000Z</time>
      </trkpt>
      <trkpt lat="46.180573" lon="6.121110">
        <ele>454.060681</ele>
        <time>2017-06-01T10:40:28.000Z</time>
      </trkpt>
      <trkpt lat="46.180440" lon="6.121121">
        <ele>453.982326</ele>
        <time>2017-06-01T10:40:31.000Z</time>
      </trkpt>
      <trkpt lat="46.180347" lon="6.121127">
        <ele>453.927570</ele>
        <time>2017-06-01T10:40:33.000Z</time>
      </trkpt>
      <trkpt lat="46.180244" lon="6.121154">
        <ele>453.938368</ele>
        <time>2017-06-01T10:40:35.000Z</time>
      </trkpt>
      <trkpt lat="46.180150" lon="6.121179">
        <ele>454.054286</ele>
        <time>2017-06-01T10:40:37.000Z</time>
      </trkpt>
      <trkpt lat="46.180054" lon="6.121206">
        <ele>454.172901</ele>
        <time>2017-06-01T10:40:39.000Z</time>
      </trkpt>
      <trkpt lat="46.179962" lon="6.121233">
        <ele>454.286757</ele>
        <time>2017-06-01T10:40:41.000Z</time>
      </trkpt>
      <trkpt lat="46.179874" lon="6.121279">
        <ele>454.400257</ele>
        <time>2017-06-01T10:40:43.000Z</time>
      </trkpt>
      <trkpt lat="46.179745" lon="6.121320">
        <ele>454.560450</ele>
        <time>2017-06-01T10:40:46.000Z</time>
      </trkpt>
      <trkpt lat="46.179638" lon="6.121360">
        <ele>454.694495</ele>
        <time>2017-06-01T10:40:48.000Z</time>
      </trkpt>
      <trkpt lat="46.179540" lon="6.121368">
        <ele>454.813537</ele>
        <time>2017-06-01T10:40:50.000Z</time>
      </trkpt>
      <trkpt lat="46.179410" lon="6.121374">
        <ele>454.971280</ele>
        <time>2017-06-01T10:40:53.000Z</time>
      </trkpt>
      <trkpt lat="46.179317" lon="6.121391">
        <ele>455.084968</ele>
        <time>2017-06-01T10:40:55.000Z</time>
      </trkpt>
      <trkpt lat="46.179220" lon="6.121409">
        <ele>455.203575</ele>
        <time>2017-06-01T10:40:57.000Z</time>
      </trkpt>
      <trkpt lat="46.179120" lon="6.121440">
        <ele>455.327616</ele>
        <time>2017-06-01T10:40:59.000Z</time>
      </trkpt>
      <trkpt lat="46.179010" lon="6.121507">
        <ele>455.472401</ele>
        <time>2017-06-01T10:41:02.000Z</time>
      </trkpt>
      <trkpt lat="46.178913" lon="6.121532">
        <ele>455.591900</ele>
        <time>2017-06-01T10:41:04.000Z</time>
      </trkpt>
      <trkpt lat="46.178806" lon="6.121559">
        <ele>455.723634</ele>
        <time>2017-06-01T10:41:06.000Z</time>
      </trkpt>
      <trkpt lat="46.178710" lon="6.121574">
        <ele>455.840740</ele>
        <time>2017-06-01T10:41:08.000Z</time>
      </trkpt>
      <trkpt lat="46.178608" lon="6.121602">
        <ele>455.966659</ele>
        <time>2017-06-01T10:41:10.000Z</time>
      </trkpt>
      <trkpt lat="46.178510" lon="6.121642">
        <ele>456.049579</ele>
        <time>2017-06-01T10:41:12.000Z</time>
      </trkpt>
      <trkpt lat="46.178410" lon="6.121671">
        <ele>455.911341</ele>
        <time>2017-06-01T10:41:14.000Z</time>
      </trkpt>
      <trkpt lat="46.178310" lon="6.121703">
        <ele>455.772521</ele>
        <time>2017-06-01T10:41:16.000Z</time>
      </trkpt>
      <trkpt lat="46.178204" lon="6.121741">
        <ele>455.624496</ele>
        <time>2017-06-01T10:41:18.000Z</time>
      </trkpt>
      <trkpt lat="46.178100" lon="6.121774">
        <ele>455.480180</ele>
        <time>2017-06-01T10:41:20.000Z</time>
      </trkpt>
      <trkpt lat="46.178000" lon="6.121796">
        <ele>455.343084</ele>
        <time>2017-06-01T10:41:22.000Z</time>
      </trkpt>
      <trkpt lat="46.177910" lon="6.121813">
        <ele>455.220066</ele>
        <time>2017-06-01T10:41:24.000Z</time>
      </trkpt>
      <trkpt lat="46.177788" lon="6.121855">
        <ele>455.050083</ele>
        <time>2017-06-01T10:41:27.000Z</time>
      </trkpt>
      <trkpt lat="46.177660" lon="6.121884">
        <ele>454.874479</ele>
        <time>2017-06-01T10:41:30.000Z</time>
      </trkpt>
      <trkpt lat="46.177570" lon="6.121896">
        <ele>454.751981</ele>
        <time>2017-06-01T10:41:32.000Z</time>
      </trkpt>
      <trkpt lat="46.177480" lon="6.121917">
        <ele>454.628419</ele>
        <time>2017-06-01T10:41:34.000Z</time>
      </trkpt>
      <trkpt lat="46.177383" lon="6.121947">
        <ele>454.493972</ele>
        <time>2017-06-01T10:41:37.000Z</time>
      </trkpt>
      <trkpt lat="46.177425" lon="6.122072">
        <ele>454.363581</ele>
        <time>2017-06-01T10:41:57.000Z</time>
      </trkpt>
      <trkpt lat="46.177320" lon="6.122129">
        <ele>454.211550</ele>
        <time>2017-06-01T10:42:01.000Z</time>
      </trkpt>
      <trkpt lat="46.177200" lon="6.122160">
        <ele>454.046329</ele>
        <time>2017-06-01T10:42:04.000Z</time>
      </trkpt>
      <trkpt lat="46.177113" lon="6.122173">
        <ele>453.927786</ele>
        <time>2017-06-01T10:42:06.000Z</time>
      </trkpt>
      <trkpt lat="46.176980" lon="6.122211">
        <ele>453.744034</ele>
        <time>2017-06-01T10:42:09.000Z</time>
      </trkpt>
      <trkpt lat="46.176888" lon="6.122242">
        <ele>453.638779</ele>
        <time>2017-06-01T10:42:11.000Z</time>
      </trkpt>
      <trkpt lat="46.176796" lon="6.122269">
        <ele>453.679569</ele>
        <time>2017-06-01T10:42:13.000Z</time>
      </trkpt>
      <trkpt lat="46.176700" lon="6.122293">
        <ele>453.721900</ele>
        <time>2017-06-01T10:42:15.000Z</time>
      </trkpt>
      <trkpt lat="46.176600" lon="6.122326">
        <ele>453.766469</ele>
        <time>2017-06-01T10:42:17.000Z</time>
      </trkpt>
      <trkpt lat="46.176480" lon="6.122347">
        <ele>453.818990</ele>
        <time>2017-06-01T10:42:20.000Z</time>
      </trkpt>
      <trkpt lat="46.176384" lon="6.122380">
        <ele>453.861866</ele>
        <time>2017-06-01T10:42:23.000Z</time>
      </trkpt>
      <trkpt lat="46.176270" lon="6.122416">
        <ele>453.912569</ele>
        <time>2017-06-01T10:42:27.000Z</time>
      </trkpt>
      <trkpt lat="46.176178" lon="6.122448">
        <ele>453.953685</ele>
        <time>2017-06-01T10:42:30.000Z</time>
      </trkpt>
      <trkpt lat="46.176083" lon="6.122467">
        <ele>453.995355</ele>
        <time>2017-06-01T10:42:34.000Z</time>
      </trkpt>
      <trkpt lat="46.175995" lon="6.122379">
        <ele>454.041862</ele>
        <time>2017-06-01T10:42:39.000Z</time>
      </trkpt>
      <trkpt lat="46.175880" lon="6.122322">
        <ele>454.094690</ele>
        <time>2017-06-01T10:42:43.000Z</time>
      </trkpt>
      <trkpt lat="46.175790" lon="6.122340">
        <ele>454.134167</ele>
        <time>2017-06-01T10:42:46.000Z</time>
      </trkpt>
      <trkpt lat="46.175710" lon="6.122406">
        <ele>454.174198</ele>
        <time>2017-06-01T10:42:49.000Z</time>
      </trkpt>
      <trkpt lat="46.175655" lon="6.122533">
        <ele>454.219266</ele>
        <time>2017-06-01T10:42:53.000Z</time>
      </trkpt>
      <trkpt lat="46.175660" lon="6.122673">
        <ele>454.261442</ele>
        <time>2017-06-01T10:42:58.000Z</time>
      </trkpt>
      <trkpt lat="46.175713" lon="6.122799">
        <ele>454.305797</ele>
        <time>2017-06-01T10:43:03.000Z</time>
      </trkpt>
      <trkpt lat="46.175785" lon="6.122909">
        <ele>454.351338</ele>
        <time>2017-06-01T10:43:07.000Z</time>
      </trkpt>
      <trkpt lat="46.175827" lon="6.123051">
        <ele>454.397794</ele>
        <time>2017-06-01T10:43:15.000Z</time>
      </trkpt>
      <trkpt lat="46.175850" lon="6.123205">
        <ele>454.440326</ele>
        <time>2017-06-01T10:43:19.000Z</time>
      </trkpt>
      <trkpt lat="46.175865" lon="6.123353">
        <ele>454.478136</ele>
        <time>2017-06-01T10:43:22.000Z</time>
      </trkpt>
      <trkpt lat="46.175888" lon="6.123500">
        <ele>454.516232</ele>
        <time>2017-06-01T10:43:25.000Z</time>
      </trkpt>
      <trkpt lat="46.175903" lon="6.123667">
        <ele>454.558800</ele>
        <time>2017-06-01T10:43:28.000Z</time>
      </trkpt>
      <trkpt lat="46.175926" lon="6.123853">
        <ele>454.606561</ele>
        <time>2017-06-01T10:43:31.000Z</time>
      </trkpt>
      <trkpt lat="46.175950" lon="6.123985">
        <ele>454.641059</ele>
        <time>2017-06-01T10:43:33.000Z</time>
      </trkpt>
      <trkpt lat="46.175960" lon="6.124124">
        <ele>454.676385</ele>
        <time>2017-06-01T10:43:35.000Z</time>
      </trkpt>
      <trkpt lat="46.175980" lon="6.124267">
        <ele>454.713262</ele>
        <time>2017-06-01T10:43:37.000Z</time>
      </trkpt>
      <trkpt lat="46.175990" lon="6.124405">
        <ele>454.748336</ele>
        <time>2017-06-01T10:43:39.000Z</time>
      </trkpt>
      <trkpt lat="46.176010" lon="6.124538">
        <ele>454.782740</ele>
        <time>2017-06-01T10:43:41.000Z</time>
      </trkpt>
      <trkpt lat="46.176020" lon="6.124689">
        <ele>454.821084</ele>
        <time>2017-06-01T10:43:43.000Z</time>
      </trkpt>
      <trkpt lat="46.176044" lon="6.124825">
        <ele>454.856561</ele>
        <time>2017-06-01T10:43:45.000Z</time>
      </trkpt>
      <trkpt lat="46.176075" lon="6.124977">
        <ele>454.896615</ele>
        <time>2017-06-01T10:43:48.000Z</time>
      </trkpt>
      <trkpt lat="46.176033" lon="6.125104">
        <ele>454.932191</ele>
        <time>2017-06-01T10:43:51.000Z</time>
      </trkpt>
      <trkpt lat="46.175938" lon="6.125195">
        <ele>454.973807</ele>
        <time>2017-06-01T10:43:54.000Z</time>
      </trkpt>
      <trkpt lat="46.175820" lon="6.125280">
        <ele>455.021945</ele>
        <time>2017-06-01T10:43:57.000Z</time>
      </trkpt>
      <trkpt lat="46.175694" lon="6.125348">
        <ele>455.071048</ele>
        <time>2017-06-01T10:44:00.000Z</time>
      </trkpt>
      <trkpt lat="46.175575" lon="6.125453">
        <ele>455.127349</ele>
        <time>2017-06-01T10:44:03.000Z</time>
      </trkpt>
      <trkpt lat="46.175500" lon="6.125549">
        <ele>455.167833</ele>
        <time>2017-06-01T10:44:05.000Z</time>
      </trkpt>
      <trkpt lat="46.175440" lon="6.125663">
        <ele>455.207887</ele>
        <time>2017-06-01T10:44:07.000Z</time>
      </trkpt>
      <trkpt lat="46.175380" lon="6.125766">
        <ele>455.245536</ele>
        <time>2017-06-01T10:44:09.000Z</time>
      </trkpt>
      <trkpt lat="46.175316" lon="6.125876">
        <ele>455.285725</ele>
        <time>2017-06-01T10:44:11.000Z</time>
      </trkpt>
      <trkpt lat="46.175243" lon="6.125972">
        <ele>455.325608</ele>
        <time>2017-06-01T10:44:13.000Z</time>
      </trkpt>
      <trkpt lat="46.175180" lon="6.126077">
        <ele>455.364470</ele>
        <time>2017-06-01T10:44:15.000Z</time>
      </trkpt>
      <trkpt lat="46.175114" lon="6.126171">
        <ele>455.401915</ele>
        <time>2017-06-01T10:44:17.000Z</time>
      </trkpt>
      <trkpt lat="46.175056" lon="6.126278">
        <ele>455.439925</ele>
        <time>2017-06-01T10:44:19.000Z</time>
      </trkpt>
      <trkpt lat="46.174988" lon="6.126403">
        <ele>455.484389</ele>
        <time>2017-06-01T10:44:21.000Z</time>
      </trkpt>
      <trkpt lat="46.174927" lon="6.126518">
        <ele>455.524910</ele>
        <time>2017-06-01T10:44:23.000Z</time>
      </trkpt>
      <trkpt lat="46.174847" lon="6.126605">
        <ele>455.565365</ele>
        <time>2017-06-01T10:44:25.000Z</time>
      </trkpt>
      <trkpt lat="46.174760" lon="6.126689">
        <ele>455.607640</ele>
        <time>2017-06-01T10:44:27.000Z</time>
      </trkpt>
      <trkpt lat="46.174690" lon="6.126806">
        <ele>455.650890</ele>
        <time>2017-06-01T10:44:29.000Z</time>
      </trkpt>
      <trkpt lat="46.174630" lon="6.126928">
        <ele>455.692748</ele>
        <time>2017-06-01T10:44:31.000Z</time>
      </trkpt>
      <trkpt lat="46.174603" lon="6.127070">
        <ele>455.733938</ele>
        <time>2017-06-01T10:44:33.000Z</time>
      </trkpt>
      <trkpt lat="46.174587" lon="6.127210">
        <ele>455.773629</ele>
        <time>2017-06-01T10:44:35.000Z</time>
      </trkpt>
      <trkpt lat="46.174557" lon="6.127352">
        <ele>455.660630</ele>
        <time>2017-06-01T10:44:37.000Z</time>
      </trkpt>
      <trkpt lat="46.174520" lon="6.127493">
        <ele>455.324927</ele>
        <time>2017-06-01T10:44:39.000Z</time>
      </trkpt>
      <trkpt lat="46.174473" lon="6.127623">
        <ele>454.998425</ele>
        <time>2017-06-01T10:44:41.000Z</time>
      </trkpt>
      <trkpt lat="46.174423" lon="6.127763">
        <ele>454.647718</ele>
        <time>2017-06-01T10:44:43.000Z</time>
      </trkpt>
      <trkpt lat="46.174385" lon="6.127900">
        <ele>454.319145</ele>
        <time>2017-06-01T10:44:45.000Z</time>
      </trkpt>
      <trkpt lat="46.174340" lon="6.128023">
        <ele>454.009429</ele>
        <time>2017-06-01T10:44:47.000Z</time>
      </trkpt>
      <trkpt lat="46.174263" lon="6.128153">
        <ele>453.628563</ele>
        <time>2017-06-01T10:44:50.000Z</time>
      </trkpt>
      <trkpt lat="46.174213" lon="6.128265">
        <ele>453.331880</ele>
        <time>2017-06-01T10:44:54.000Z</time>
      </trkpt>
      <trkpt lat="46.174187" lon="6.128390">
        <ele>453.041298</ele>
        <time>2017-06-01T10:44:58.000Z</time>
      </trkpt>
      <trkpt lat="46.174168" lon="6.128525">
        <ele>452.734591</ele>
        <time>2017-06-01T10:45:04.000Z</time>
      </trkpt>
      <trkpt lat="46.174137" lon="6.128676">
        <ele>452.383942</ele>
        <time>2017-06-01T10:45:09.000Z</time>
      </trkpt>
      <trkpt lat="46.174168" lon="6.128523">
        <ele>452.029023</ele>
        <time>2017-06-01T10:45:20.000Z</time>
      </trkpt>
      <trkpt lat="46.174213" lon="6.128375">
        <ele>451.669152</ele>
        <time>2017-06-01T10:45:23.000Z</time>
      </trkpt>
      <trkpt lat="46.174240" lon="6.128243">
        <ele>451.362716</ele>
        <time>2017-06-01T10:45:27.000Z</time>
      </trkpt>
      <trkpt lat="46.174164" lon="6.128352">
        <ele>451.018334</ele>
        <time>2017-06-01T10:45:34.000Z</time>
      </trkpt>
      <trkpt lat="46.174118" lon="6.128506">
        <ele>450.644932</ele>
        <time>2017-06-01T10:45:38.000Z</time>
      </trkpt>
      <trkpt lat="46.174053" lon="6.128615">
        <ele>450.324672</ele>
        <time>2017-06-01T10:45:41.000Z</time>
      </trkpt>
      <trkpt lat="46.173965" lon="6.128695">
        <ele>450.017413</ele>
        <time>2017-06-01T10:45:45.000Z</time>
      </trkpt>
      <trkpt lat="46.173683" lon="6.128721">
        <ele>450.106105</ele>
        <time>2017-06-01T10:45:52.000Z</time>
      </trkpt>
      <trkpt lat="46.173590" lon="6.128742">
        <ele>450.135650</ele>
        <time>2017-06-01T10:45:54.000Z</time>
      </trkpt>
      <trkpt lat="46.173515" lon="6.128874">
        <ele>450.172762</ele>
        <time>2017-06-01T10:45:58.000Z</time>
      </trkpt>
      <trkpt lat="46.173523" lon="6.129016">
        <ele>450.203727</ele>
        <time>2017-06-01T10:46:02.000Z</time>
      </trkpt>
      <trkpt lat="46.173485" lon="6.129155">
        <ele>450.236208</ele>
        <time>2017-06-01T10:46:08.000Z</time>
      </trkpt>
      <trkpt lat="46.173412" lon="6.129245">
        <ele>450.266335</ele>
        <time>2017-06-01T10:46:12.000Z</time>
      </trkpt>
      <trkpt lat="46.173340" lon="6.129338">
        <ele>450.296655</ele>
        <time>2017-06-01T10:46:17.000Z</time>
      </trkpt>
      <trkpt lat="46.173264" lon="6.129268">
        <ele>450.324948</ele>
        <time>2017-06-01T10:46:34.000Z</time>
      </trkpt>
      <trkpt lat="46.173195" lon="6.129153">
        <ele>450.358021</ele>
        <time>2017-06-01T10:46:38.000Z</time>
      </trkpt>
      <trkpt lat="46.173134" lon="6.129050">
        <ele>450.387478</ele>
        <time>2017-06-01T10:46:41.000Z</time>
      </trkpt>
      <trkpt lat="46.173077" lon="6.128931">
        <ele>450.418928</ele>
        <time>2017-06-01T10:46:44.000Z</time>
      </trkpt>
      <trkpt lat="46.173020" lon="6.128818">
        <ele>450.449313</ele>
        <time>2017-06-01T10:46:47.000Z</time>
      </trkpt>
      <trkpt lat="46.172950" lon="6.128713">
        <ele>450.480993</ele>
        <time>2017-06-01T10:46:50.000Z</time>
      </trkpt>
      <trkpt lat="46.172882" lon="6.128601">
        <ele>450.513367</ele>
        <time>2017-06-01T10:46:53.000Z</time>
      </trkpt>
      <trkpt lat="46.172820" lon="6.128483">
        <ele>450.545562</ele>
        <time>2017-06-01T10:46:56.000Z</time>
      </trkpt>
      <trkpt lat="46.172768" lon="6.128357">
        <ele>450.577443</ele>
        <time>2017-06-01T10:47:00.000Z</time>
      </trkpt>
      <trkpt lat="46.172684" lon="6.128177">
        <ele>450.720124</ele>
        <time>2017-06-01T10:47:28.000Z</time>
      </trkpt>
      <trkpt lat="46.172665" lon="6.128017">
        <ele>450.830172</ele>
        <time>2017-06-01T10:47:32.000Z</time>
      </trkpt>
      <trkpt lat="46.172638" lon="6.127873">
        <ele>450.931306</ele>
        <time>2017-06-01T10:47:35.000Z</time>
      </trkpt>
      <trkpt lat="46.172615" lon="6.127717">
        <ele>451.039429</ele>
        <time>2017-06-01T10:47:38.000Z</time>
      </trkpt>
      <trkpt lat="46.172565" lon="6.127554">
        <ele>451.160283</ele>
        <time>2017-06-01T10:47:41.000Z</time>
      </trkpt>
      <trkpt lat="46.172504" lon="6.127394">
        <ele>451.284100</ele>
        <time>2017-06-01T10:47:44.000Z</time>
      </trkpt>
      <trkpt lat="46.172430" lon="6.127253">
        <ele>451.404034</ele>
        <time>2017-06-01T10:47:47.000Z</time>
      </trkpt>
      <trkpt lat="46.172348" lon="6.127111">
        <ele>451.529375</ele>
        <time>2017-06-01T10:47:50.000Z</time>
      </trkpt>
      <trkpt lat="46.172268" lon="6.126963">
        <ele>451.656653</ele>
        <time>2017-06-01T10:47:53.000Z</time>
      </trkpt>
      <trkpt lat="46.172190" lon="6.126824">
        <ele>451.777936</ele>
        <time>2017-06-01T10:47:56.000Z</time>
      </trkpt>
      <trkpt lat="46.172115" lon="6.126679">
        <ele>451.900626</ele>
        <time>2017-06-01T10:47:59.000Z</time>
      </trkpt>
      <trkpt lat="46.172050" lon="6.126540">
        <ele>452.014328</ele>
        <time>2017-06-01T10:48:02.000Z</time>
      </trkpt>
      <trkpt lat="46.171990" lon="6.126411">
        <ele>452.119673</ele>
        <time>2017-06-01T10:48:05.000Z</time>
      </trkpt>
      <trkpt lat="46.171886" lon="6.126407">
        <ele>452.221519</ele>
        <time>2017-06-01T10:48:11.000Z</time>
      </trkpt>
      <trkpt lat="46.171810" lon="6.126479">
        <ele>452.310501</ele>
        <time>2017-06-01T10:48:14.000Z</time>
      </trkpt>
      <trkpt lat="46.171730" lon="6.126601">
        <ele>452.541014</ele>
        <time>2017-06-01T10:48:17.000Z</time>
      </trkpt>
      <trkpt lat="46.171646" lon="6.126726">
        <ele>452.822846</ele>
        <time>2017-06-01T10:48:20.000Z</time>
      </trkpt>
      <trkpt lat="46.171555" lon="6.126862">
        <ele>453.128843</ele>
        <time>2017-06-01T10:48:23.000Z</time>
      </trkpt>
      <trkpt lat="46.171480" lon="6.127007">
        <ele>453.421682</ele>
        <time>2017-06-01T10:48:26.000Z</time>
      </trkpt>
      <trkpt lat="46.171400" lon="6.127114">
        <ele>453.676467</ele>
        <time>2017-06-01T10:48:29.000Z</time>
      </trkpt>
      <trkpt lat="46.171307" lon="6.127241">
        <ele>453.975542</ele>
        <time>2017-06-01T10:48:32.000Z</time>
      </trkpt>
      <trkpt lat="46.171220" lon="6.127378">
        <ele>454.276311</ele>
        <time>2017-06-01T10:48:35.000Z</time>
      </trkpt>
      <trkpt lat="46.171135" lon="6.127491">
        <ele>454.546266</ele>
        <time>2017-06-01T10:48:38.000Z</time>
      </trkpt>
      <trkpt lat="46.171062" lon="6.127612">
        <ele>454.805930</ele>
        <time>2017-06-01T10:48:41.000Z</time>
      </trkpt>
      <trkpt lat="46.170994" lon="6.127721">
        <ele>455.043313</ele>
        <time>2017-06-01T10:48:45.000Z</time>
      </trkpt>
      <trkpt lat="46.170900" lon="6.127810">
        <ele>455.305949</ele>
        <time>2017-06-01T10:48:50.000Z</time>
      </trkpt>
      <trkpt lat="46.170870" lon="6.127934">
        <ele>455.518483</ele>
        <time>2017-06-01T10:48:53.000Z</time>
      </trkpt>
      <trkpt lat="46.170850" lon="6.128068">
        <ele>455.740284</ele>
        <time>2017-06-01T10:48:56.000Z</time>
      </trkpt>
      <trkpt lat="46.170800" lon="6.128203">
        <ele>455.988003</ele>
        <time>2017-06-01T10:48:59.000Z</time>
      </trkpt>
      <trkpt lat="46.170746" lon="6.128316">
        <ele>456.210154</ele>
        <time>2017-06-01T10:49:02.000Z</time>
      </trkpt>
      <trkpt lat="46.170692" lon="6.128424">
        <ele>456.425696</ele>
        <time>2017-06-01T10:49:05.000Z</time>
      </trkpt>
      <trkpt lat="46.170628" lon="6.128532">
        <ele>456.731552</ele>
        <time>2017-06-01T10:49:08.000Z</time>
      </trkpt>
      <trkpt lat="46.170574" lon="6.128662">
        <ele>457.141823</ele>
        <time>2017-06-01T10:49:11.000Z</time>
      </trkpt>
      <trkpt lat="46.170513" lon="6.128795">
        <ele>457.573558</ele>
        <time>2017-06-01T10:49:14.000Z</time>
      </trkpt>
      <trkpt lat="46.170456" lon="6.128936">
        <ele>458.015421</ele>
        <time>2017-06-01T10:49:18.000Z</time>
      </trkpt>
      <trkpt lat="46.170410" lon="6.129049">
        <ele>458.370169</ele>
        <time>2017-06-01T10:49:21.000Z</time>
      </trkpt>
      <trkpt lat="46.170364" lon="6.129161">
        <ele>458.722586</ele>
        <time>2017-06-01T10:49:24.000Z</time>
      </trkpt>
      <trkpt lat="46.170296" lon="6.129306">
        <ele>459.196531</ele>
        <time>2017-06-01T10:49:28.000Z</time>
      </trkpt>
      <trkpt lat="46.170246" lon="6.129422">
        <ele>459.566319</ele>
        <time>2017-06-01T10:49:31.000Z</time>
      </trkpt>
      <trkpt lat="46.170193" lon="6.129546">
        <ele>459.960687</ele>
        <time>2017-06-01T10:49:34.000Z</time>
      </trkpt>
      <trkpt lat="46.170135" lon="6.129677">
        <ele>460.381493</ele>
        <time>2017-06-01T10:49:37.000Z</time>
      </trkpt>
      <trkpt lat="46.170082" lon="6.129814">
        <ele>460.806204</ele>
        <time>2017-06-01T10:49:40.000Z</time>
      </trkpt>
      <trkpt lat="46.170020" lon="6.129937">
        <ele>461.217939</ele>
        <time>2017-06-01T10:49:43.000Z</time>
      </trkpt>
      <trkpt lat="46.169980" lon="6.130072">
        <ele>461.615343</ele>
        <time>2017-06-01T10:49:46.000Z</time>
      </trkpt>
      <trkpt lat="46.169920" lon="6.130209">
        <ele>462.054047</ele>
        <time>2017-06-01T10:49:49.000Z</time>
      </trkpt>
      <trkpt lat="46.169884" lon="6.130331">
        <ele>462.412956</ele>
        <time>2017-06-01T10:49:52.000Z</time>
      </trkpt>
      <trkpt lat="46.169850" lon="6.130486">
        <ele>462.852994</ele>
        <time>2017-06-01T10:49:56.000Z</time>
      </trkpt>
      <trkpt lat="46.169834" lon="6.130642">
        <ele>463.279803</ele>
        <time>2017-06-01T10:50:01.000Z</time>
      </trkpt>
      <trkpt lat="46.169792" lon="6.130756">
        <ele>463.639106</ele>
        <time>2017-06-01T10:50:05.000Z</time>
      </trkpt>
      <trkpt lat="46.169735" lon="6.130868">
        <ele>464.079976</ele>
        <time>2017-06-01T10:50:09.000Z</time>
      </trkpt>
      <trkpt lat="46.169685" lon="6.131005">
        <ele>464.571182</ele>
        <time>2017-06-01T10:50:14.000Z</time>
      </trkpt>
      <trkpt lat="46.169650" lon="6.131130">
        <ele>464.998854</ele>
        <time>2017-06-01T10:50:18.000Z</time>
      </trkpt>
      <trkpt lat="46.169594" lon="6.131242">
        <ele>465.437028</ele>
        <time>2017-06-01T10:50:22.000Z</time>
      </trkpt>
      <trkpt lat="46.169548" lon="6.131362">
        <ele>465.872081</ele>
        <time>2017-06-01T10:50:26.000Z</time>
      </trkpt>
      <trkpt lat="46.169680" lon="6.131464">
        <ele>466.557797</ele>
        <time>2017-06-01T10:51:27.000Z</time>
      </trkpt>
      <trkpt lat="46.169750" lon="6.131549">
        <ele>466.976708</ele>
        <time>2017-06-01T10:51:30.000Z</time>
      </trkpt>
      <trkpt lat="46.169838" lon="6.131640">
        <ele>467.472464</ele>
        <time>2017-06-01T10:51:33.000Z</time>
      </trkpt>
      <trkpt lat="46.169937" lon="6.131756">
        <ele>468.056410</ele>
        <time>2017-06-01T10:51:36.000Z</time>
      </trkpt>
      <trkpt lat="46.170006" lon="6.131888">
        <ele>468.580988</ele>
        <time>2017-06-01T10:51:39.000Z</time>
      </trkpt>
      <trkpt lat="46.170074" lon="6.132023">
        <ele>469.110484</ele>
        <time>2017-06-01T10:51:43.000Z</time>
      </trkpt>
      <trkpt lat="46.170135" lon="6.132135">
        <ele>469.562442</ele>
        <time>2017-06-01T10:51:49.000Z</time>
      </trkpt>
      <trkpt lat="46.170130" lon="6.132295">
        <ele>470.070463</ele>
        <time>2017-06-01T10:51:55.000Z</time>
      </trkpt>
      <trkpt lat="46.170097" lon="6.132426">
        <ele>470.512619</ele>
        <time>2017-06-01T10:51:59.000Z</time>
      </trkpt>
      <trkpt lat="46.170030" lon="6.132552">
        <ele>471.016505</ele>
        <time>2017-06-01T10:52:03.000Z</time>
      </trkpt>
      <trkpt lat="46.169960" lon="6.132685">
        <ele>471.546376</ele>
        <time>2017-06-01T10:52:07.000Z</time>
      </trkpt>
      <trkpt lat="46.169926" lon="6.132836">
        <ele>471.815171</ele>
        <time>2017-06-01T10:52:11.000Z</time>
      </trkpt>
      <trkpt lat="46.169895" lon="6.132971">
        <ele>471.824227</ele>
        <time>2017-06-01T10:52:15.000Z</time>
      </trkpt>
      <trkpt lat="46.169823" lon="6.133082">
        <ele>471.833910</ele>
        <time>2017-06-01T10:52:19.000Z</time>
      </trkpt>
      <trkpt lat="46.169750" lon="6.133158">
        <ele>471.842184</ele>
        <time>2017-06-01T10:52:22.000Z</time>
      </trkpt>
      <trkpt lat="46.169670" lon="6.133235">
        <ele>471.851023</ele>
        <time>2017-06-01T10:52:25.000Z</time>
      </trkpt>
      <trkpt lat="46.169594" lon="6.133362">
        <ele>471.861710</ele>
        <time>2017-06-01T10:52:29.000Z</time>
      </trkpt>
      <trkpt lat="46.169533" lon="6.133492">
        <ele>471.871708</ele>
        <time>2017-06-01T10:52:33.000Z</time>
      </trkpt>
      <trkpt lat="46.169456" lon="6.133591">
        <ele>471.881187</ele>
        <time>2017-06-01T10:52:38.000Z</time>
      </trkpt>
      <trkpt lat="46.169365" lon="6.133550">
        <ele>471.889951</ele>
        <time>2017-06-01T10:52:42.000Z</time>
      </trkpt>
      <trkpt lat="46.169254" lon="6.133520">
        <ele>471.900333</ele>
        <time>2017-06-01T10:52:46.000Z</time>
      </trkpt>
      <trkpt lat="46.169163" lon="6.133507">
        <ele>471.908740</ele>
        <time>2017-06-01T10:52:49.000Z</time>
      </trkpt>
      <trkpt lat="46.169052" lon="6.133489">
        <ele>471.919010</ele>
        <time>2017-06-01T10:52:53.000Z</time>
      </trkpt>
      <trkpt lat="46.168957" lon="6.133550">
        <ele>471.928569</ele>
        <time>2017-06-01T10:52:58.000Z</time>
      </trkpt>
      <trkpt lat="46.168903" lon="6.133665">
        <ele>471.937415</ele>
        <time>2017-06-01T10:53:01.000Z</time>
      </trkpt>
      <trkpt lat="46.168850" lon="6.133799">
        <ele>471.947240</ele>
        <time>2017-06-01T10:53:04.000Z</time>
      </trkpt>
      <trkpt lat="46.168800" lon="6.133928">
        <ele>471.956653</ele>
        <time>2017-06-01T10:53:07.000Z</time>
      </trkpt>
      <trkpt lat="46.168750" lon="6.134059">
        <ele>471.966176</ele>
        <time>2017-06-01T10:53:11.000Z</time>
      </trkpt>
      <trkpt lat="46.168682" lon="6.134157">
        <ele>471.975009</ele>
        <time>2017-06-01T10:53:16.000Z</time>
      </trkpt>
      <trkpt lat="46.168580" lon="6.134098">
        <ele>472.046957</ele>
        <time>2017-06-01T10:53:21.000Z</time>
      </trkpt>
      <trkpt lat="46.168476" lon="6.134034">
        <ele>472.125830</ele>
        <time>2017-06-01T10:53:25.000Z</time>
      </trkpt>
      <trkpt lat="46.168373" lon="6.133969">
        <ele>472.204255</ele>
        <time>2017-06-01T10:53:29.000Z</time>
      </trkpt>
      <trkpt lat="46.168266" lon="6.133898">
        <ele>472.286411</ele>
        <time>2017-06-01T10:53:33.000Z</time>
      </trkpt>
      <trkpt lat="46.168170" lon="6.133840">
        <ele>472.359015</ele>
        <time>2017-06-01T10:53:37.000Z</time>
      </trkpt>
      <trkpt lat="46.168167" lon="6.133972">
        <ele>472.422829</ele>
        <time>2017-06-01T10:54:26.000Z</time>
      </trkpt>
      <trkpt lat="46.168266" lon="6.133970">
        <ele>472.491906</ele>
        <time>2017-06-01T10:55:00.000Z</time>
      </trkpt>
      <trkpt lat="46.168370" lon="6.134034">
        <ele>472.570779</ele>
        <time>2017-06-01T10:55:05.000Z</time>
      </trkpt>
      <trkpt lat="46.168480" lon="6.134095">
        <ele>472.652989</ele>
        <time>2017-06-01T10:55:09.000Z</time>
      </trkpt>
      <trkpt lat="46.168570" lon="6.134151">
        <ele>472.721362</ele>
        <time>2017-06-01T10:55:12.000Z</time>
      </trkpt>
      <trkpt lat="46.168655" lon="6.134205">
        <ele>472.786151</ele>
        <time>2017-06-01T10:55:15.000Z</time>
      </trkpt>
      <trkpt lat="46.168580" lon="6.134106">
        <ele>472.857046</ele>
        <time>2017-06-01T10:55:27.000Z</time>
      </trkpt>
      <trkpt lat="46.168476" lon="6.134060">
        <ele>472.932932</ele>
        <time>2017-06-01T10:55:30.000Z</time>
      </trkpt>
      <trkpt lat="46.168377" lon="6.134007">
        <ele>473.006597</ele>
        <time>2017-06-01T10:55:33.000Z</time>
      </trkpt>
      <trkpt lat="46.168285" lon="6.133941">
        <ele>473.078269</ele>
        <time>2017-06-01T10:55:36.000Z</time>
      </trkpt>
      <trkpt lat="46.168182" lon="6.133883">
        <ele>473.155401</ele>
        <time>2017-06-01T10:55:40.000Z</time>
      </trkpt>
      <trkpt lat="46.168120" lon="6.133982">
        <ele>473.219893</ele>
        <time>2017-06-01T10:55:45.000Z</time>
      </trkpt>
      <trkpt lat="46.168056" lon="6.134147">
        <ele>473.113800</ele>
        <time>2017-06-01T10:55:48.000Z</time>
      </trkpt>
      <trkpt lat="46.168015" lon="6.134300">
        <ele>472.999024</ele>
        <time>2017-06-01T10:55:50.000Z</time>
      </trkpt>
      <trkpt lat="46.167976" lon="6.134469">
        <ele>472.874395</ele>
        <time>2017-06-01T10:55:52.000Z</time>
      </trkpt>
      <trkpt lat="46.167950" lon="6.134621">
        <ele>472.764857</ele>
        <time>2017-06-01T10:55:54.000Z</time>
      </trkpt>
      <trkpt lat="46.167927" lon="6.134754">
        <ele>472.668949</ele>
        <time>2017-06-01T10:55:56.000Z</time>
      </trkpt>
      <trkpt lat="46.167920" lon="6.134889">
        <ele>472.574235</ele>
        <time>2017-06-01T10:55:58.000Z</time>
      </trkpt>
      <trkpt lat="46.167934" lon="6.135071">
        <ele>472.446120</ele>
        <time>2017-06-01T10:56:01.000Z</time>
      </trkpt>
      <trkpt lat="46.167953" lon="6.135235">
        <ele>472.329787</ele>
        <time>2017-06-01T10:56:04.000Z</time>
      </trkpt>
      <trkpt lat="46.167965" lon="6.135395">
        <ele>472.217192</ele>
        <time>2017-06-01T10:56:07.000Z</time>
      </trkpt>
      <trkpt lat="46.167990" lon="6.135542">
        <ele>472.111292</ele>
        <time>2017-06-01T10:56:10.000Z</time>
      </trkpt>
      <trkpt lat="46.168010" lon="6.135714">
        <ele>471.989272</ele>
        <time>2017-06-01T10:56:13.000Z</time>
      </trkpt>
      <trkpt lat="46.168026" lon="6.135886">
        <ele>471.867856</ele>
        <time>2017-06-01T10:56:16.000Z</time>
      </trkpt>
      <trkpt lat="46.168037" lon="6.136030">
        <ele>471.766499</ele>
        <time>2017-06-01T10:56:19.000Z</time>
      </trkpt>
      <trkpt lat="46.168050" lon="6.136170">
        <ele>471.667674</ele>
        <time>2017-06-01T10:56:22.000Z</time>
      </trkpt>
      <trkpt lat="46.168060" lon="6.136322">
        <ele>471.560853</ele>
        <time>2017-06-01T10:56:25.000Z</time>
      </trkpt>
      <trkpt lat="46.168070" lon="6.136477">
        <ele>471.451941</ele>
        <time>2017-06-01T10:56:28.000Z</time>
      </trkpt>
      <trkpt lat="46.168080" lon="6.136619">
        <ele>471.310791</ele>
        <time>2017-06-01T10:56:31.000Z</time>
      </trkpt>
      <trkpt lat="46.168102" lon="6.136763">
        <ele>471.138344</ele>
        <time>2017-06-01T10:56:34.000Z</time>
      </trkpt>
      <trkpt lat="46.168144" lon="6.136895">
        <ele>470.968467</ele>
        <time>2017-06-01T10:56:37.000Z</time>
      </trkpt>
      <trkpt lat="46.168182" lon="6.137040">
        <ele>470.787165</ele>
        <time>2017-06-01T10:56:40.000Z</time>
      </trkpt>
      <trkpt lat="46.168230" lon="6.137189">
        <ele>470.594992</ele>
        <time>2017-06-01T10:56:43.000Z</time>
      </trkpt>
      <trkpt lat="46.168280" lon="6.137344">
        <ele>470.395032</ele>
        <time>2017-06-01T10:56:46.000Z</time>
      </trkpt>
      <trkpt lat="46.168320" lon="6.137493">
        <ele>470.208154</ele>
        <time>2017-06-01T10:56:49.000Z</time>
      </trkpt>
      <trkpt lat="46.168354" lon="6.137622">
        <ele>470.046743</ele>
        <time>2017-06-01T10:56:51.000Z</time>
      </trkpt>
      <trkpt lat="46.168410" lon="6.137740">
        <ele>469.879460</ele>
        <time>2017-06-01T10:56:53.000Z</time>
      </trkpt>
      <trkpt lat="46.168495" lon="6.137833">
        <ele>469.699379</ele>
        <time>2017-06-01T10:56:55.000Z</time>
      </trkpt>
      <trkpt lat="46.168568" lon="6.137924">
        <ele>469.536531</ele>
        <time>2017-06-01T10:56:57.000Z</time>
      </trkpt>
      <trkpt lat="46.168667" lon="6.138017">
        <ele>469.337097</ele>
        <time>2017-06-01T10:57:00.000Z</time>
      </trkpt>
      <trkpt lat="46.168730" lon="6.138128">
        <ele>469.169269</ele>
        <time>2017-06-01T10:57:04.000Z</time>
      </trkpt>
      <trkpt lat="46.168660" lon="6.138229">
        <ele>469.002170</ele>
        <time>2017-06-01T10:57:07.000Z</time>
      </trkpt>
      <trkpt lat="46.168560" lon="6.138344">
        <ele>468.786302</ele>
        <time>2017-06-01T10:57:10.000Z</time>
      </trkpt>
      <trkpt lat="46.168484" lon="6.138424">
        <ele>468.627488</ele>
        <time>2017-06-01T10:57:12.000Z</time>
      </trkpt>
      <trkpt lat="46.168410" lon="6.138509">
        <ele>468.467818</ele>
        <time>2017-06-01T10:57:14.000Z</time>
      </trkpt>
      <trkpt lat="46.168340" lon="6.138599">
        <ele>468.337862</ele>
        <time>2017-06-01T10:57:16.000Z</time>
      </trkpt>
      <trkpt lat="46.168270" lon="6.138697">
        <ele>468.242959</ele>
        <time>2017-06-01T10:57:18.000Z</time>
      </trkpt>
      <trkpt lat="46.168198" lon="6.138783">
        <ele>468.152007</ele>
        <time>2017-06-01T10:57:20.000Z</time>
      </trkpt>
      <trkpt lat="46.168125" lon="6.138864">
        <ele>468.062395</ele>
        <time>2017-06-01T10:57:22.000Z</time>
      </trkpt>
      <trkpt lat="46.168040" lon="6.138952">
        <ele>467.960591</ele>
        <time>2017-06-01T10:57:24.000Z</time>
      </trkpt>
      <trkpt lat="46.167965" lon="6.139033">
        <ele>467.869428</ele>
        <time>2017-06-01T10:57:26.000Z</time>
      </trkpt>
      <trkpt lat="46.167870" lon="6.139157">
        <ele>467.744778</ele>
        <time>2017-06-01T10:57:29.000Z</time>
      </trkpt>
      <trkpt lat="46.167778" lon="6.139271">
        <ele>467.626775</ele>
        <time>2017-06-01T10:57:32.000Z</time>
      </trkpt>
      <trkpt lat="46.167706" lon="6.139387">
        <ele>467.521770</ele>
        <time>2017-06-01T10:57:35.000Z</time>
      </trkpt>
      <trkpt lat="46.167633" lon="6.139523">
        <ele>467.405779</ele>
        <time>2017-06-01T10:57:38.000Z</time>
      </trkpt>
      <trkpt lat="46.167540" lon="6.139669">
        <ele>467.272060</ele>
        <time>2017-06-01T10:57:41.000Z</time>
      </trkpt>
      <trkpt lat="46.167454" lon="6.139804">
        <ele>467.148412</ele>
        <time>2017-06-01T10:57:44.000Z</time>
      </trkpt>
      <trkpt lat="46.167374" lon="6.139939">
        <ele>467.028640</ele>
        <time>2017-06-01T10:57:47.000Z</time>
      </trkpt>
      <trkpt lat="46.167286" lon="6.140070">
        <ele>466.905614</ele>
        <time>2017-06-01T10:57:50.000Z</time>
      </trkpt>
      <trkpt lat="46.167217" lon="6.140156">
        <ele>466.816892</ele>
        <time>2017-06-01T10:57:53.000Z</time>
      </trkpt>
      <trkpt lat="46.167133" lon="6.140254">
        <ele>466.711776</ele>
        <time>2017-06-01T10:57:57.000Z</time>
      </trkpt>
      <trkpt lat="46.167118" lon="6.140429">
        <ele>466.653122</ele>
        <time>2017-06-01T10:58:01.000Z</time>
      </trkpt>
      <trkpt lat="46.167090" lon="6.140562">
        <ele>466.731699</ele>
        <time>2017-06-01T10:58:04.000Z</time>
      </trkpt>
      <trkpt lat="46.167046" lon="6.140694">
        <ele>466.814507</ele>
        <time>2017-06-01T10:58:07.000Z</time>
      </trkpt>
      <trkpt lat="46.166992" lon="6.140821">
        <ele>466.898746</ele>
        <time>2017-06-01T10:58:10.000Z</time>
      </trkpt>
      <trkpt lat="46.166924" lon="6.140948">
        <ele>466.989488</ele>
        <time>2017-06-01T10:58:13.000Z</time>
      </trkpt>
      <trkpt lat="46.166855" lon="6.141085">
        <ele>467.085242</ele>
        <time>2017-06-01T10:58:16.000Z</time>
      </trkpt>
      <trkpt lat="46.166798" lon="6.141214">
        <ele>467.171739</ele>
        <time>2017-06-01T10:58:19.000Z</time>
      </trkpt>
      <trkpt lat="46.166725" lon="6.141359">
        <ele>467.273071</ele>
        <time>2017-06-01T10:58:22.000Z</time>
      </trkpt>
      <trkpt lat="46.166680" lon="6.141472">
        <ele>467.346754</ele>
        <time>2017-06-01T10:58:24.000Z</time>
      </trkpt>
      <trkpt lat="46.166626" lon="6.141578">
        <ele>467.421137</ele>
        <time>2017-06-01T10:58:26.000Z</time>
      </trkpt>
      <trkpt lat="46.166573" lon="6.141686">
        <ele>467.495959</ele>
        <time>2017-06-01T10:58:28.000Z</time>
      </trkpt>
      <trkpt lat="46.166520" lon="6.141800">
        <ele>467.573573</ele>
        <time>2017-06-01T10:58:30.000Z</time>
      </trkpt>
      <trkpt lat="46.166470" lon="6.141910">
        <ele>467.647949</ele>
        <time>2017-06-01T10:58:32.000Z</time>
      </trkpt>
      <trkpt lat="46.166420" lon="6.142024">
        <ele>467.724225</ele>
        <time>2017-06-01T10:58:34.000Z</time>
      </trkpt>
      <trkpt lat="46.166360" lon="6.142189">
        <ele>467.829570</ele>
        <time>2017-06-01T10:58:37.000Z</time>
      </trkpt>
      <trkpt lat="46.166280" lon="6.142344">
        <ele>467.938843</ele>
        <time>2017-06-01T10:58:40.000Z</time>
      </trkpt>
      <trkpt lat="46.166210" lon="6.142494">
        <ele>468.041087</ele>
        <time>2017-06-01T10:58:43.000Z</time>
      </trkpt>
      <trkpt lat="46.166138" lon="6.142647">
        <ele>468.205226</ele>
        <time>2017-06-01T10:58:46.000Z</time>
      </trkpt>
      <trkpt lat="46.166073" lon="6.142801">
        <ele>468.424106</ele>
        <time>2017-06-01T10:58:49.000Z</time>
      </trkpt>
      <trkpt lat="46.166000" lon="6.142948">
        <ele>468.643641</ele>
        <time>2017-06-01T10:58:52.000Z</time>
      </trkpt>
      <trkpt lat="46.165930" lon="6.143092">
        <ele>468.857164</ele>
        <time>2017-06-01T10:58:55.000Z</time>
      </trkpt>
      <trkpt lat="46.165863" lon="6.143230">
        <ele>469.061707</ele>
        <time>2017-06-01T10:58:58.000Z</time>
      </trkpt>
      <trkpt lat="46.165802" lon="6.143387">
        <ele>469.280192</ele>
        <time>2017-06-01T10:59:01.000Z</time>
      </trkpt>
      <trkpt lat="46.165740" lon="6.143540">
        <ele>469.495336</ele>
        <time>2017-06-01T10:59:04.000Z</time>
      </trkpt>
      <trkpt lat="46.165676" lon="6.143681">
        <ele>469.699943</ele>
        <time>2017-06-01T10:59:07.000Z</time>
      </trkpt>
      <trkpt lat="46.165610" lon="6.143826">
        <ele>469.910532</ele>
        <time>2017-06-01T10:59:10.000Z</time>
      </trkpt>
      <trkpt lat="46.165543" lon="6.143967">
        <ele>470.118068</ele>
        <time>2017-06-01T10:59:13.000Z</time>
      </trkpt>
      <trkpt lat="46.165490" lon="6.144102">
        <ele>470.306409</ele>
        <time>2017-06-01T10:59:16.000Z</time>
      </trkpt>
      <trkpt lat="46.165430" lon="6.144227">
        <ele>470.490994</ele>
        <time>2017-06-01T10:59:19.000Z</time>
      </trkpt>
      <trkpt lat="46.165375" lon="6.144330">
        <ele>470.648846</ele>
        <time>2017-06-01T10:59:21.000Z</time>
      </trkpt>
      <trkpt lat="46.165330" lon="6.144448">
        <ele>470.812338</ele>
        <time>2017-06-01T10:59:23.000Z</time>
      </trkpt>
      <trkpt lat="46.165257" lon="6.144585">
        <ele>471.022131</ele>
        <time>2017-06-01T10:59:26.000Z</time>
      </trkpt>
      <trkpt lat="46.165200" lon="6.144734">
        <ele>471.228724</ele>
        <time>2017-06-01T10:59:29.000Z</time>
      </trkpt>
      <trkpt lat="46.165130" lon="6.144875">
        <ele>471.359043</ele>
        <time>2017-06-01T10:59:32.000Z</time>
      </trkpt>
      <trkpt lat="46.165066" lon="6.145022">
        <ele>471.482435</ele>
        <time>2017-06-01T10:59:35.000Z</time>
      </trkpt>
      <trkpt lat="46.164993" lon="6.145169">
        <ele>471.610979</ele>
        <time>2017-06-01T10:59:38.000Z</time>
      </trkpt>
      <trkpt lat="46.164936" lon="6.145309">
        <ele>471.726388</ele>
        <time>2017-06-01T10:59:41.000Z</time>
      </trkpt>
      <trkpt lat="46.164875" lon="6.145439">
        <ele>471.837979</ele>
        <time>2017-06-01T10:59:44.000Z</time>
      </trkpt>
      <trkpt lat="46.164825" lon="6.145559">
        <ele>471.937500</ele>
        <time>2017-06-01T10:59:47.000Z</time>
      </trkpt>
      <trkpt lat="46.164790" lon="6.145688">
        <ele>472.035958</ele>
        <time>2017-06-01T10:59:51.000Z</time>
      </trkpt>
      <trkpt lat="46.164860" lon="6.145803">
        <ele>472.144760</ele>
        <time>2017-06-01T11:00:02.000Z</time>
      </trkpt>
      <trkpt lat="46.164955" lon="6.145886">
        <ele>472.258695</ele>
        <time>2017-06-01T11:00:06.000Z</time>
      </trkpt>
      <trkpt lat="46.165047" lon="6.145977">
        <ele>472.373121</ele>
        <time>2017-06-01T11:00:09.000Z</time>
      </trkpt>
      <trkpt lat="46.165140" lon="6.146053">
        <ele>472.482771</ele>
        <time>2017-06-01T11:00:12.000Z</time>
      </trkpt>
      <trkpt lat="46.165250" lon="6.146130">
        <ele>472.608206</ele>
        <time>2017-06-01T11:00:15.000Z</time>
      </trkpt>
      <trkpt lat="46.165350" lon="6.146219">
        <ele>472.728741</ele>
        <time>2017-06-01T11:00:18.000Z</time>
      </trkpt>
      <trkpt lat="46.165447" lon="6.146317">
        <ele>472.850217</ele>
        <time>2017-06-01T11:00:21.000Z</time>
      </trkpt>
      <trkpt lat="46.165474" lon="6.146453">
        <ele>472.950757</ele>
        <time>2017-06-01T11:00:25.000Z</time>
      </trkpt>
      <trkpt lat="46.165417" lon="6.146580">
        <ele>473.058303</ele>
        <time>2017-06-01T11:00:29.000Z</time>
      </trkpt>
      <trkpt lat="46.165337" lon="6.146681">
        <ele>473.175838</ele>
        <time>2017-06-01T11:00:32.000Z</time>
      </trkpt>
      <trkpt lat="46.165250" lon="6.146790">
        <ele>473.307223</ele>
        <time>2017-06-01T11:00:35.000Z</time>
      </trkpt>
      <trkpt lat="46.165150" lon="6.146899">
        <ele>473.450139</ele>
        <time>2017-06-01T11:00:38.000Z</time>
      </trkpt>
      <trkpt lat="46.165040" lon="6.146998">
        <ele>473.597987</ele>
        <time>2017-06-01T11:00:41.000Z</time>
      </trkpt>
      <trkpt lat="46.164967" lon="6.147077">
        <ele>473.702045</ele>
        <time>2017-06-01T11:00:43.000Z</time>
      </trkpt>
      <trkpt lat="46.164864" lon="6.147193">
        <ele>473.851043</ele>
        <time>2017-06-01T11:00:46.000Z</time>
      </trkpt>
      <trkpt lat="46.164757" lon="6.147314">
        <ele>474.006067</ele>
        <time>2017-06-01T11:00:49.000Z</time>
      </trkpt>
      <trkpt lat="46.164654" lon="6.147430">
        <ele>474.155065</ele>
        <time>2017-06-01T11:00:52.000Z</time>
      </trkpt>
      <trkpt lat="46.164580" lon="6.147512">
        <ele>474.261464</ele>
        <time>2017-06-01T11:00:54.000Z</time>
      </trkpt>
      <trkpt lat="46.164516" lon="6.147598">
        <ele>474.361188</ele>
        <time>2017-06-01T11:00:56.000Z</time>
      </trkpt>
      <trkpt lat="46.164413" lon="6.147722">
        <ele>474.514154</ele>
        <time>2017-06-01T11:00:59.000Z</time>
      </trkpt>
      <trkpt lat="46.164307" lon="6.147841">
        <ele>474.667308</ele>
        <time>2017-06-01T11:01:02.000Z</time>
      </trkpt>
      <trkpt lat="46.164234" lon="6.147923">
        <ele>474.772805</ele>
        <time>2017-06-01T11:01:04.000Z</time>
      </trkpt>
      <trkpt lat="46.164160" lon="6.148015">
        <ele>474.884191</ele>
        <time>2017-06-01T11:01:06.000Z</time>
      </trkpt>
      <trkpt lat="46.164070" lon="6.148150">
        <ele>475.032220</ele>
        <time>2017-06-01T11:01:09.000Z</time>
      </trkpt>
      <trkpt lat="46.163986" lon="6.148288">
        <ele>475.169753</ele>
        <time>2017-06-01T11:01:12.000Z</time>
      </trkpt>
      <trkpt lat="46.163902" lon="6.148434">
        <ele>475.286656</ele>
        <time>2017-06-01T11:01:15.000Z</time>
      </trkpt>
      <trkpt lat="46.163845" lon="6.148538">
        <ele>475.368341</ele>
        <time>2017-06-01T11:01:17.000Z</time>
      </trkpt>
      <trkpt lat="46.163765" lon="6.148692">
        <ele>475.486908</ele>
        <time>2017-06-01T11:01:20.000Z</time>
      </trkpt>
      <trkpt lat="46.163696" lon="6.148846">
        <ele>475.599877</ele>
        <time>2017-06-01T11:01:23.000Z</time>
      </trkpt>
      <trkpt lat="46.163630" lon="6.148970">
        <ele>475.696198</ele>
        <time>2017-06-01T11:01:26.000Z</time>
      </trkpt>
      <trkpt lat="46.163555" lon="6.149119">
        <ele>475.809647</ele>
        <time>2017-06-01T11:01:29.000Z</time>
      </trkpt>
      <trkpt lat="46.163500" lon="6.149229">
        <ele>475.893208</ele>
        <time>2017-06-01T11:01:31.000Z</time>
      </trkpt>
      <trkpt lat="46.163445" lon="6.149335">
        <ele>475.974784</ele>
        <time>2017-06-01T11:01:33.000Z</time>
      </trkpt>
      <trkpt lat="46.163357" lon="6.149474">
        <ele>476.090775</ele>
        <time>2017-06-01T11:01:36.000Z</time>
      </trkpt>
      <trkpt lat="46.163315" lon="6.149614">
        <ele>476.184746</ele>
        <time>2017-06-01T11:01:39.000Z</time>
      </trkpt>
      <trkpt lat="46.163258" lon="6.149755">
        <ele>476.285301</ele>
        <time>2017-06-01T11:01:42.000Z</time>
      </trkpt>
      <trkpt lat="46.163185" lon="6.149894">
        <ele>476.392744</ele>
        <time>2017-06-01T11:01:45.000Z</time>
      </trkpt>
      <trkpt lat="46.163100" lon="6.150021">
        <ele>476.501522</ele>
        <time>2017-06-01T11:01:48.000Z</time>
      </trkpt>
      <trkpt lat="46.163000" lon="6.150138">
        <ele>476.615983</ele>
        <time>2017-06-01T11:01:51.000Z</time>
      </trkpt>
      <trkpt lat="46.162903" lon="6.150266">
        <ele>476.732844</ele>
        <time>2017-06-01T11:01:54.000Z</time>
      </trkpt>
      <trkpt lat="46.162820" lon="6.150394">
        <ele>476.947014</ele>
        <time>2017-06-01T11:01:57.000Z</time>
      </trkpt>
      <trkpt lat="46.162730" lon="6.150521">
        <ele>477.179566</ele>
        <time>2017-06-01T11:02:00.000Z</time>
      </trkpt>
      <trkpt lat="46.162655" lon="6.150677">
        <ele>477.422615</ele>
        <time>2017-06-01T11:02:03.000Z</time>
      </trkpt>
      <trkpt lat="46.162582" lon="6.150827">
        <ele>477.657252</ele>
        <time>2017-06-01T11:02:06.000Z</time>
      </trkpt>
      <trkpt lat="46.162514" lon="6.150991">
        <ele>477.901891</ele>
        <time>2017-06-01T11:02:09.000Z</time>
      </trkpt>
      <trkpt lat="46.162453" lon="6.151142">
        <ele>478.125625</ele>
        <time>2017-06-01T11:02:12.000Z</time>
      </trkpt>
      <trkpt lat="46.162400" lon="6.151282">
        <ele>478.329829</ele>
        <time>2017-06-01T11:02:15.000Z</time>
      </trkpt>
      <trkpt lat="46.162354" lon="6.151419">
        <ele>478.524692</ele>
        <time>2017-06-01T11:02:18.000Z</time>
      </trkpt>
      <trkpt lat="46.162308" lon="6.151541">
        <ele>478.702476</ele>
        <time>2017-06-01T11:02:21.000Z</time>
      </trkpt>
      <trkpt lat="46.162266" lon="6.151668">
        <ele>478.882601</ele>
        <time>2017-06-01T11:02:24.000Z</time>
      </trkpt>
      <trkpt lat="46.162216" lon="6.151778">
        <ele>479.051000</ele>
        <time>2017-06-01T11:02:27.000Z</time>
      </trkpt>
      <trkpt lat="46.162170" lon="6.151914">
        <ele>479.244713</ele>
        <time>2017-06-01T11:02:32.000Z</time>
      </trkpt>
      <trkpt lat="46.162064" lon="6.151893">
        <ele>479.442426</ele>
        <time>2017-06-01T11:02:37.000Z</time>
      </trkpt>
      <trkpt lat="46.161964" lon="6.151828">
        <ele>479.645080</ele>
        <time>2017-06-01T11:02:41.000Z</time>
      </trkpt>
      <trkpt lat="46.161865" lon="6.151793">
        <ele>479.833427</ele>
        <time>2017-06-01T11:02:45.000Z</time>
      </trkpt>
      <trkpt lat="46.161823" lon="6.151914">
        <ele>480.006655</ele>
        <time>2017-06-01T11:02:49.000Z</time>
      </trkpt>
      <trkpt lat="46.161780" lon="6.152048">
        <ele>479.826915</ele>
        <time>2017-06-01T11:02:53.000Z</time>
      </trkpt>
      <trkpt lat="46.161736" lon="6.152166">
        <ele>479.510407</ele>
        <time>2017-06-01T11:02:56.000Z</time>
      </trkpt>
      <trkpt lat="46.161682" lon="6.152334">
        <ele>479.072987</ele>
        <time>2017-06-01T11:02:59.000Z</time>
      </trkpt>
      <trkpt lat="46.161644" lon="6.152527">
        <ele>478.599107</ele>
        <time>2017-06-01T11:03:02.000Z</time>
      </trkpt>
      <trkpt lat="46.161602" lon="6.152684">
        <ele>478.201614</ele>
        <time>2017-06-01T11:03:04.000Z</time>
      </trkpt>
      <trkpt lat="46.161550" lon="6.152859">
        <ele>477.751875</ele>
        <time>2017-06-01T11:03:06.000Z</time>
      </trkpt>
      <trkpt lat="46.161503" lon="6.153042">
        <ele>477.290914</ele>
        <time>2017-06-01T11:03:08.000Z</time>
      </trkpt>
      <trkpt lat="46.161453" lon="6.153228">
        <ele>476.819699</ele>
        <time>2017-06-01T11:03:10.000Z</time>
      </trkpt>
      <trkpt lat="46.161407" lon="6.153430">
        <ele>476.317497</ele>
        <time>2017-06-01T11:03:12.000Z</time>
      </trkpt>
      <trkpt lat="46.161373" lon="6.153644">
        <ele>475.798951</ele>
        <time>2017-06-01T11:03:14.000Z</time>
      </trkpt>
      <trkpt lat="46.161343" lon="6.153862">
        <ele>475.274019</ele>
        <time>2017-06-01T11:03:16.000Z</time>
      </trkpt>
      <trkpt lat="46.161340" lon="6.154084">
        <ele>474.749604</ele>
        <time>2017-06-01T11:03:18.000Z</time>
      </trkpt>
      <trkpt lat="46.161343" lon="6.154306">
        <ele>474.225190</ele>
        <time>2017-06-01T11:03:20.000Z</time>
      </trkpt>
      <trkpt lat="46.161370" lon="6.154520">
        <ele>473.895681</ele>
        <time>2017-06-01T11:03:22.000Z</time>
      </trkpt>
      <trkpt lat="46.161390" lon="6.154707">
        <ele>473.820523</ele>
        <time>2017-06-01T11:03:24.000Z</time>
      </trkpt>
      <trkpt lat="46.161370" lon="6.154877">
        <ele>473.752030</ele>
        <time>2017-06-01T11:03:26.000Z</time>
      </trkpt>
      <trkpt lat="46.161335" lon="6.155033">
        <ele>473.686896</ele>
        <time>2017-06-01T11:03:28.000Z</time>
      </trkpt>
      <trkpt lat="46.161285" lon="6.155173">
        <ele>473.624329</ele>
        <time>2017-06-01T11:03:30.000Z</time>
      </trkpt>
      <trkpt lat="46.161236" lon="6.155304">
        <ele>473.565192</ele>
        <time>2017-06-01T11:03:32.000Z</time>
      </trkpt>
      <trkpt lat="46.161182" lon="6.155423">
        <ele>473.508683</ele>
        <time>2017-06-01T11:03:34.000Z</time>
      </trkpt>
      <trkpt lat="46.161130" lon="6.155530">
        <ele>473.456763</ele>
        <time>2017-06-01T11:03:36.000Z</time>
      </trkpt>
      <trkpt lat="46.161050" lon="6.155688">
        <ele>473.379023</ele>
        <time>2017-06-01T11:03:39.000Z</time>
      </trkpt>
      <trkpt lat="46.160995" lon="6.155798">
        <ele>473.325134</ele>
        <time>2017-06-01T11:03:41.000Z</time>
      </trkpt>
      <trkpt lat="46.160946" lon="6.155917">
        <ele>473.270144</ele>
        <time>2017-06-01T11:03:43.000Z</time>
      </trkpt>
      <trkpt lat="46.160892" lon="6.156035">
        <ele>473.213967</ele>
        <time>2017-06-01T11:03:45.000Z</time>
      </trkpt>
      <trkpt lat="46.160840" lon="6.156158">
        <ele>473.156728</ele>
        <time>2017-06-01T11:03:47.000Z</time>
      </trkpt>
      <trkpt lat="46.160774" lon="6.156272">
        <ele>473.097710</ele>
        <time>2017-06-01T11:03:49.000Z</time>
      </trkpt>
      <trkpt lat="46.160713" lon="6.156393">
        <ele>473.038264</ele>
        <time>2017-06-01T11:03:51.000Z</time>
      </trkpt>
      <trkpt lat="46.160656" lon="6.156512">
        <ele>472.980794</ele>
        <time>2017-06-01T11:03:53.000Z</time>
      </trkpt>
      <trkpt lat="46.160600" lon="6.156624">
        <ele>472.925926</ele>
        <time>2017-06-01T11:03:55.000Z</time>
      </trkpt>
      <trkpt lat="46.160540" lon="6.156735">
        <ele>472.964722</ele>
        <time>2017-06-01T11:03:57.000Z</time>
      </trkpt>
      <trkpt lat="46.160465" lon="6.156885">
        <ele>473.112585</ele>
        <time>2017-06-01T11:04:00.000Z</time>
      </trkpt>
      <trkpt lat="46.160378" lon="6.157035">
        <ele>473.268956</ele>
        <time>2017-06-01T11:04:03.000Z</time>
      </trkpt>
      <trkpt lat="46.160282" lon="6.157160">
        <ele>473.418131</ele>
        <time>2017-06-01T11:04:06.000Z</time>
      </trkpt>
      <trkpt lat="46.160183" lon="6.157267">
        <ele>473.560836</ele>
        <time>2017-06-01T11:04:09.000Z</time>
      </trkpt>
      <trkpt lat="46.160072" lon="6.157371">
        <ele>473.713530</ele>
        <time>2017-06-01T11:04:12.000Z</time>
      </trkpt>
      <trkpt lat="46.160004" lon="6.157454">
        <ele>473.816283</ele>
        <time>2017-06-01T11:04:14.000Z</time>
      </trkpt>
      <trkpt lat="46.159927" lon="6.157529">
        <ele>473.923466</ele>
        <time>2017-06-01T11:04:16.000Z</time>
      </trkpt>
      <trkpt lat="46.159824" lon="6.157643">
        <ele>474.073228</ele>
        <time>2017-06-01T11:04:19.000Z</time>
      </trkpt>
      <trkpt lat="46.159733" lon="6.157764">
        <ele>474.215986</ele>
        <time>2017-06-01T11:04:22.000Z</time>
      </trkpt>
      <trkpt lat="46.159637" lon="6.157888">
        <ele>474.364628</ele>
        <time>2017-06-01T11:04:25.000Z</time>
      </trkpt>
      <trkpt lat="46.159546" lon="6.158003">
        <ele>474.504182</ele>
        <time>2017-06-01T11:04:28.000Z</time>
      </trkpt>
      <trkpt lat="46.159462" lon="6.158122">
        <ele>474.639983</ele>
        <time>2017-06-01T11:04:31.000Z</time>
      </trkpt>
      <trkpt lat="46.159370" lon="6.158235">
        <ele>474.779367</ele>
        <time>2017-06-01T11:04:34.000Z</time>
      </trkpt>
      <trkpt lat="46.159280" lon="6.158349">
        <ele>474.917526</ele>
        <time>2017-06-01T11:04:37.000Z</time>
      </trkpt>
      <trkpt lat="46.159180" lon="6.158447">
        <ele>475.161494</ele>
        <time>2017-06-01T11:04:40.000Z</time>
      </trkpt>
      <trkpt lat="46.159092" lon="6.158527">
        <ele>475.438176</ele>
        <time>2017-06-01T11:04:43.000Z</time>
      </trkpt>
      <trkpt lat="46.159010" lon="6.158612">
        <ele>475.706755</ele>
        <time>2017-06-01T11:04:46.000Z</time>
      </trkpt>
      <trkpt lat="46.158916" lon="6.158696">
        <ele>476.000883</ele>
        <time>2017-06-01T11:04:49.000Z</time>
      </trkpt>
      <trkpt lat="46.158825" lon="6.158792">
        <ele>476.300747</ele>
        <time>2017-06-01T11:04:52.000Z</time>
      </trkpt>
      <trkpt lat="46.158737" lon="6.158869">
        <ele>476.574523</ele>
        <time>2017-06-01T11:04:55.000Z</time>
      </trkpt>
      <trkpt lat="46.158638" lon="6.158954">
        <ele>476.880981</ele>
        <time>2017-06-01T11:04:59.000Z</time>
      </trkpt>
      <trkpt lat="46.158560" lon="6.159031">
        <ele>477.132383</ele>
        <time>2017-06-01T11:05:02.000Z</time>
      </trkpt>
      <trkpt lat="46.158478" lon="6.159113">
        <ele>477.397777</ele>
        <time>2017-06-01T11:05:05.000Z</time>
      </trkpt>
      <trkpt lat="46.158394" lon="6.159192">
        <ele>477.664504</ele>
        <time>2017-06-01T11:05:08.000Z</time>
      </trkpt>
      <trkpt lat="46.158306" lon="6.159276">
        <ele>477.945185</ele>
        <time>2017-06-01T11:05:11.000Z</time>
      </trkpt>
      <trkpt lat="46.158220" lon="6.159345">
        <ele>478.206955</ele>
        <time>2017-06-01T11:05:14.000Z</time>
      </trkpt>
      <trkpt lat="46.158120" lon="6.159420">
        <ele>478.506774</ele>
        <time>2017-06-01T11:05:18.000Z</time>
      </trkpt>
      <trkpt lat="46.158028" lon="6.159505">
        <ele>478.797381</ele>
        <time>2017-06-01T11:05:22.000Z</time>
      </trkpt>
      <trkpt lat="46.157950" lon="6.159603">
        <ele>479.072490</ele>
        <time>2017-06-01T11:05:25.000Z</time>
      </trkpt>
      <trkpt lat="46.157860" lon="6.159677">
        <ele>479.348055</ele>
        <time>2017-06-01T11:05:28.000Z</time>
      </trkpt>
      <trkpt lat="46.157770" lon="6.159759">
        <ele>479.631206</ele>
        <time>2017-06-01T11:05:31.000Z</time>
      </trkpt>
      <trkpt lat="46.157680" lon="6.159844">
        <ele>479.957502</ele>
        <time>2017-06-01T11:05:34.000Z</time>
      </trkpt>
      <trkpt lat="46.157580" lon="6.159915">
        <ele>480.330834</ele>
        <time>2017-06-01T11:05:37.000Z</time>
      </trkpt>
      <trkpt lat="46.157486" lon="6.160000">
        <ele>480.702416</ele>
        <time>2017-06-01T11:05:40.000Z</time>
      </trkpt>
      <trkpt lat="46.157383" lon="6.160058">
        <ele>481.072796</ele>
        <time>2017-06-01T11:05:43.000Z</time>
      </trkpt>
      <trkpt lat="46.157280" lon="6.160131">
        <ele>481.457195</ele>
        <time>2017-06-01T11:05:46.000Z</time>
      </trkpt>
      <trkpt lat="46.157173" lon="6.160209">
        <ele>481.858761</ele>
        <time>2017-06-01T11:05:49.000Z</time>
      </trkpt>
      <trkpt lat="46.157070" lon="6.160286">
        <ele>482.247340</ele>
        <time>2017-06-01T11:05:52.000Z</time>
      </trkpt>
      <trkpt lat="46.156960" lon="6.160368">
        <ele>482.662079</ele>
        <time>2017-06-01T11:05:55.000Z</time>
      </trkpt>
      <trkpt lat="46.156837" lon="6.160430">
        <ele>483.098536</ele>
        <time>2017-06-01T11:05:58.000Z</time>
      </trkpt>
      <trkpt lat="46.156710" lon="6.160475">
        <ele>483.536626</ele>
        <time>2017-06-01T11:06:01.000Z</time>
      </trkpt>
      <trkpt lat="46.156600" lon="6.160513">
        <ele>483.915540</ele>
        <time>2017-06-01T11:06:04.000Z</time>
      </trkpt>
      <trkpt lat="46.156487" lon="6.160553">
        <ele>484.305314</ele>
        <time>2017-06-01T11:06:07.000Z</time>
      </trkpt>
      <trkpt lat="46.156372" lon="6.160595">
        <ele>484.702713</ele>
        <time>2017-06-01T11:06:10.000Z</time>
      </trkpt>
      <trkpt lat="46.156260" lon="6.160641">
        <ele>485.092812</ele>
        <time>2017-06-01T11:06:13.000Z</time>
      </trkpt>
      <trkpt lat="46.156143" lon="6.160678">
        <ele>485.494067</ele>
        <time>2017-06-01T11:06:16.000Z</time>
      </trkpt>
      <trkpt lat="46.156017" lon="6.160727">
        <ele>485.916468</ele>
        <time>2017-06-01T11:06:19.000Z</time>
      </trkpt>
      <trkpt lat="46.155900" lon="6.160768">
        <ele>486.278243</ele>
        <time>2017-06-01T11:06:22.000Z</time>
      </trkpt>
      <trkpt lat="46.155777" lon="6.160806">
        <ele>486.656206</ele>
        <time>2017-06-01T11:06:25.000Z</time>
      </trkpt>
      <trkpt lat="46.155666" lon="6.160835">
        <ele>486.995160</ele>
        <time>2017-06-01T11:06:28.000Z</time>
      </trkpt>
      <trkpt lat="46.155552" lon="6.160879">
        <ele>487.349743</ele>
        <time>2017-06-01T11:06:31.000Z</time>
      </trkpt>
      <trkpt lat="46.155440" lon="6.160916">
        <ele>487.694983</ele>
        <time>2017-06-01T11:06:34.000Z</time>
      </trkpt>
      <trkpt lat="46.155330" lon="6.160960">
        <ele>488.037969</ele>
        <time>2017-06-01T11:06:37.000Z</time>
      </trkpt>
      <trkpt lat="46.155230" lon="6.161001">
        <ele>488.350336</ele>
        <time>2017-06-01T11:06:40.000Z</time>
      </trkpt>
      <trkpt lat="46.155125" lon="6.161038">
        <ele>488.675107</ele>
        <time>2017-06-01T11:06:43.000Z</time>
      </trkpt>
      <trkpt lat="46.155018" lon="6.161076">
        <ele>489.006210</ele>
        <time>2017-06-01T11:06:46.000Z</time>
      </trkpt>
      <trkpt lat="46.154915" lon="6.161093">
        <ele>489.317724</ele>
        <time>2017-06-01T11:06:49.000Z</time>
      </trkpt>
      <trkpt lat="46.154808" lon="6.161129">
        <ele>489.647858</ele>
        <time>2017-06-01T11:06:52.000Z</time>
      </trkpt>
      <trkpt lat="46.154700" lon="6.161175">
        <ele>489.986210</ele>
        <time>2017-06-01T11:06:55.000Z</time>
      </trkpt>
      <trkpt lat="46.154602" lon="6.161210">
        <ele>490.289561</ele>
        <time>2017-06-01T11:06:58.000Z</time>
      </trkpt>
      <trkpt lat="46.154503" lon="6.161236">
        <ele>490.591922</ele>
        <time>2017-06-01T11:07:02.000Z</time>
      </trkpt>
      <trkpt lat="46.154404" lon="6.161231">
        <ele>490.889583</ele>
        <time>2017-06-01T11:07:08.000Z</time>
      </trkpt>
      <trkpt lat="46.154310" lon="6.161324">
        <ele>491.256917</ele>
        <time>2017-06-01T11:07:13.000Z</time>
      </trkpt>
      <trkpt lat="46.154236" lon="6.161453">
        <ele>491.826174</ele>
        <time>2017-06-01T11:07:17.000Z</time>
      </trkpt>
      <trkpt lat="46.154125" lon="6.161526">
        <ele>492.424640</ele>
        <time>2017-06-01T11:07:21.000Z</time>
      </trkpt>
      <trkpt lat="46.154010" lon="6.161581">
        <ele>493.019038</ele>
        <time>2017-06-01T11:07:25.000Z</time>
      </trkpt>
      <trkpt lat="46.153915" lon="6.161607">
        <ele>493.493451</ele>
        <time>2017-06-01T11:07:28.000Z</time>
      </trkpt>
      <trkpt lat="46.153805" lon="6.161541">
        <ele>494.077918</ele>
        <time>2017-06-01T11:07:33.000Z</time>
      </trkpt>
      <trkpt lat="46.153700" lon="6.161497">
        <ele>494.614359</ele>
        <time>2017-06-01T11:07:36.000Z</time>
      </trkpt>
      <trkpt lat="46.153618" lon="6.161439">
        <ele>495.062385</ele>
        <time>2017-06-01T11:07:39.000Z</time>
      </trkpt>
      <trkpt lat="46.153538" lon="6.161333">
        <ele>495.595174</ele>
        <time>2017-06-01T11:07:43.000Z</time>
      </trkpt>
      <trkpt lat="46.153477" lon="6.161233">
        <ele>496.048048</ele>
        <time>2017-06-01T11:07:47.000Z</time>
      </trkpt>
      <trkpt lat="46.153420" lon="6.161109">
        <ele>496.553851</ele>
        <time>2017-06-01T11:07:51.000Z</time>
      </trkpt>
      <trkpt lat="46.153362" lon="6.160982">
        <ele>497.070865</ele>
        <time>2017-06-01T11:07:55.000Z</time>
      </trkpt>
      <trkpt lat="46.153310" lon="6.160858">
        <ele>497.563528</ele>
        <time>2017-06-01T11:07:59.000Z</time>
      </trkpt>
      <trkpt lat="46.153255" lon="6.160734">
        <ele>498.063973</ele>
        <time>2017-06-01T11:08:03.000Z</time>
      </trkpt>
      <trkpt lat="46.153200" lon="6.160620">
        <ele>498.536151</ele>
        <time>2017-06-01T11:08:07.000Z</time>
      </trkpt>
      <trkpt lat="46.153150" lon="6.160509">
        <ele>498.986168</ele>
        <time>2017-06-01T11:08:11.000Z</time>
      </trkpt>
      <trkpt lat="46.153100" lon="6.160391">
        <ele>499.456311</ele>
        <time>2017-06-01T11:08:15.000Z</time>
      </trkpt>
      <trkpt lat="46.153057" lon="6.160275">
        <ele>499.903476</ele>
        <time>2017-06-01T11:08:19.000Z</time>
      </trkpt>
      <trkpt lat="46.153004" lon="6.160135">
        <ele>500.983914</ele>
        <time>2017-06-01T11:08:24.000Z</time>
      </trkpt>
      <trkpt lat="46.152960" lon="6.160019">
        <ele>501.998377</ele>
        <time>2017-06-01T11:08:28.000Z</time>
      </trkpt>
      <trkpt lat="46.152924" lon="6.159894">
        <ele>503.036785</ele>
        <time>2017-06-01T11:08:32.000Z</time>
      </trkpt>
      <trkpt lat="46.152885" lon="6.159776">
        <ele>504.039676</ele>
        <time>2017-06-01T11:08:36.000Z</time>
      </trkpt>
      <trkpt lat="46.152830" lon="6.159648">
        <ele>505.195077</ele>
        <time>2017-06-01T11:08:41.000Z</time>
      </trkpt>
      <trkpt lat="46.152750" lon="6.159575">
        <ele>506.243072</ele>
        <time>2017-06-01T11:08:45.000Z</time>
      </trkpt>
      <trkpt lat="46.152645" lon="6.159565">
        <ele>507.408278</ele>
        <time>2017-06-01T11:08:50.000Z</time>
      </trkpt>
      <trkpt lat="46.152550" lon="6.159599">
        <ele>508.492074</ele>
        <time>2017-06-01T11:08:55.000Z</time>
      </trkpt>
      <trkpt lat="46.152466" lon="6.159649">
        <ele>509.498189</ele>
        <time>2017-06-01T11:09:00.000Z</time>
      </trkpt>
      <trkpt lat="46.152386" lon="6.159585">
        <ele>510.510980</ele>
        <time>2017-06-01T11:09:05.000Z</time>
      </trkpt>
      <trkpt lat="46.152294" lon="6.159544">
        <ele>511.577151</ele>
        <time>2017-06-01T11:09:10.000Z</time>
      </trkpt>
      <trkpt lat="46.152200" lon="6.159609">
        <ele>512.731285</ele>
        <time>2017-06-01T11:09:16.000Z</time>
      </trkpt>
      <trkpt lat="46.152130" lon="6.159714">
        <ele>513.849115</ele>
        <time>2017-06-01T11:09:22.000Z</time>
      </trkpt>
      <trkpt lat="46.152100" lon="6.159845">
        <ele>514.907483</ele>
        <time>2017-06-01T11:09:28.000Z</time>
      </trkpt>
      <trkpt lat="46.152100" lon="6.159986">
        <ele>515.989075</ele>
        <time>2017-06-01T11:09:34.000Z</time>
      </trkpt>
      <trkpt lat="46.152126" lon="6.160116">
        <ele>517.027016</ele>
        <time>2017-06-01T11:09:40.000Z</time>
      </trkpt>
      <trkpt lat="46.152170" lon="6.160248">
        <ele>518.150691</ele>
        <time>2017-06-01T11:09:46.000Z</time>
      </trkpt>
      <trkpt lat="46.152150" lon="6.160385">
        <ele>519.224680</ele>
        <time>2017-06-01T11:09:52.000Z</time>
      </trkpt>
      <trkpt lat="46.152190" lon="6.160514">
        <ele>520.229191</ele>
        <time>2017-06-01T11:09:58.000Z</time>
      </trkpt>
      <trkpt lat="46.152195" lon="6.160645">
        <ele>521.021694</ele>
        <time>2017-06-01T11:10:04.000Z</time>
      </trkpt>
      <trkpt lat="46.152190" lon="6.160783">
        <ele>521.856419</ele>
        <time>2017-06-01T11:10:09.000Z</time>
      </trkpt>
      <trkpt lat="46.152180" lon="6.160913">
        <ele>522.646508</ele>
        <time>2017-06-01T11:10:14.000Z</time>
      </trkpt>
      <trkpt lat="46.152187" lon="6.161062">
        <ele>523.548606</ele>
        <time>2017-06-01T11:10:20.000Z</time>
      </trkpt>
      <trkpt lat="46.152176" lon="6.161195">
        <ele>524.357696</ele>
        <time>2017-06-01T11:10:25.000Z</time>
      </trkpt>
      <trkpt lat="46.152180" lon="6.161332">
        <ele>525.185976</ele>
        <time>2017-06-01T11:10:30.000Z</time>
      </trkpt>
      <trkpt lat="46.152170" lon="6.161470">
        <ele>526.024110</ele>
        <time>2017-06-01T11:10:35.000Z</time>
      </trkpt>
      <trkpt lat="46.152115" lon="6.161577">
        <ele>526.828934</ele>
        <time>2017-06-01T11:10:40.000Z</time>
      </trkpt>
      <trkpt lat="46.152107" lon="6.161706">
        <ele>527.611273</ele>
        <time>2017-06-01T11:10:45.000Z</time>
      </trkpt>
      <trkpt lat="46.152046" lon="6.161814">
        <ele>528.453000</ele>
        <time>2017-06-01T11:10:50.000Z</time>
      </trkpt>
      <trkpt lat="46.152010" lon="6.161948">
        <ele>529.321164</ele>
        <time>2017-06-01T11:10:55.000Z</time>
      </trkpt>
      <trkpt lat="46.151970" lon="6.162079">
        <ele>530.185927</ele>
        <time>2017-06-01T11:11:00.000Z</time>
      </trkpt>
      <trkpt lat="46.151947" lon="6.162223">
        <ele>531.078580</ele>
        <time>2017-06-01T11:11:06.000Z</time>
      </trkpt>
      <trkpt lat="46.151928" lon="6.162370">
        <ele>531.981858</ele>
        <time>2017-06-01T11:11:12.000Z</time>
      </trkpt>
      <trkpt lat="46.151920" lon="6.162524">
        <ele>532.914708</ele>
        <time>2017-06-01T11:11:18.000Z</time>
      </trkpt>
      <trkpt lat="46.151928" lon="6.162663">
        <ele>533.757231</ele>
        <time>2017-06-01T11:11:23.000Z</time>
      </trkpt>
      <trkpt lat="46.151955" lon="6.162810">
        <ele>534.675866</ele>
        <time>2017-06-01T11:11:28.000Z</time>
      </trkpt>
      <trkpt lat="46.151980" lon="6.162964">
        <ele>535.626556</ele>
        <time>2017-06-01T11:11:33.000Z</time>
      </trkpt>
      <trkpt lat="46.151980" lon="6.163127">
        <ele>536.269048</ele>
        <time>2017-06-01T11:11:38.000Z</time>
      </trkpt>
      <trkpt lat="46.151974" lon="6.163269">
        <ele>536.829805</ele>
        <time>2017-06-01T11:11:44.000Z</time>
      </trkpt>
      <trkpt lat="46.152016" lon="6.163385">
        <ele>537.345723</ele>
        <time>2017-06-01T11:11:51.000Z</time>
      </trkpt>
      <trkpt lat="46.152077" lon="6.163508">
        <ele>537.941980</ele>
        <time>2017-06-01T11:11:58.000Z</time>
      </trkpt>
      <trkpt lat="46.152157" lon="6.163591">
        <ele>538.502545</ele>
        <time>2017-06-01T11:12:06.000Z</time>
      </trkpt>
      <trkpt lat="46.152065" lon="6.163636">
        <ele>539.055251</ele>
        <time>2017-06-01T11:14:14.000Z</time>
      </trkpt>
      <trkpt lat="46.152073" lon="6.163786">
        <ele>539.648249</ele>
        <time>2017-06-01T11:14:21.000Z</time>
      </trkpt>
      <trkpt lat="46.152110" lon="6.163913">
        <ele>540.191308</ele>
        <time>2017-06-01T11:14:26.000Z</time>
      </trkpt>
      <trkpt lat="46.152140" lon="6.164036">
        <ele>540.705304</ele>
        <time>2017-06-01T11:14:30.000Z</time>
      </trkpt>
      <trkpt lat="46.152164" lon="6.164186">
        <ele>541.312118</ele>
        <time>2017-06-01T11:14:35.000Z</time>
      </trkpt>
      <trkpt lat="46.152180" lon="6.164324">
        <ele>541.863632</ele>
        <time>2017-06-01T11:14:41.000Z</time>
      </trkpt>
      <trkpt lat="46.152200" lon="6.164474">
        <ele>542.465732</ele>
        <time>2017-06-01T11:14:48.000Z</time>
      </trkpt>
      <trkpt lat="46.152225" lon="6.164615">
        <ele>543.039420</ele>
        <time>2017-06-01T11:14:54.000Z</time>
      </trkpt>
      <trkpt lat="46.152264" lon="6.164750">
        <ele>543.615958</ele>
        <time>2017-06-01T11:15:00.000Z</time>
      </trkpt>
      <trkpt lat="46.152290" lon="6.164887">
        <ele>544.175862</ele>
        <time>2017-06-01T11:15:06.000Z</time>
      </trkpt>
      <trkpt lat="46.152320" lon="6.165015">
        <ele>544.708486</ele>
        <time>2017-06-01T11:15:12.000Z</time>
      </trkpt>
      <trkpt lat="46.152344" lon="6.165141">
        <ele>545.223565</ele>
        <time>2017-06-01T11:15:19.000Z</time>
      </trkpt>
      <trkpt lat="46.152360" lon="6.165270">
        <ele>545.740122</ele>
        <time>2017-06-01T11:15:24.000Z</time>
      </trkpt>
      <trkpt lat="46.152378" lon="6.165419">
        <ele>545.932365</ele>
        <time>2017-06-01T11:15:29.000Z</time>
      </trkpt>
      <trkpt lat="46.152400" lon="6.165572">
        <ele>546.034843</ele>
        <time>2017-06-01T11:15:33.000Z</time>
      </trkpt>
      <trkpt lat="46.152424" lon="6.165700">
        <ele>546.121807</ele>
        <time>2017-06-01T11:15:37.000Z</time>
      </trkpt>
      <trkpt lat="46.152454" lon="6.165837">
        <ele>546.216035</ele>
        <time>2017-06-01T11:15:41.000Z</time>
      </trkpt>
      <trkpt lat="46.152470" lon="6.165972">
        <ele>546.305856</ele>
        <time>2017-06-01T11:15:45.000Z</time>
      </trkpt>
      <trkpt lat="46.152550" lon="6.166053">
        <ele>546.398364</ele>
        <time>2017-06-01T11:15:51.000Z</time>
      </trkpt>
      <trkpt lat="46.152573" lon="6.166201">
        <ele>546.497836</ele>
        <time>2017-06-01T11:15:56.000Z</time>
      </trkpt>
      <trkpt lat="46.152550" lon="6.166333">
        <ele>546.587099</ele>
        <time>2017-06-01T11:16:00.000Z</time>
      </trkpt>
      <trkpt lat="46.152576" lon="6.166469">
        <ele>546.679623</ele>
        <time>2017-06-01T11:16:04.000Z</time>
      </trkpt>
      <trkpt lat="46.152626" lon="6.166618">
        <ele>546.788200</ele>
        <time>2017-06-01T11:16:08.000Z</time>
      </trkpt>
      <trkpt lat="46.152650" lon="6.166777">
        <ele>546.894920</ele>
        <time>2017-06-01T11:16:12.000Z</time>
      </trkpt>
      <trkpt lat="46.152687" lon="6.166921">
        <ele>546.995644</ele>
        <time>2017-06-01T11:16:16.000Z</time>
      </trkpt>
      <trkpt lat="46.152740" lon="6.167024">
        <ele>547.079788</ele>
        <time>2017-06-01T11:16:19.000Z</time>
      </trkpt>
      <trkpt lat="46.152813" lon="6.167153">
        <ele>547.189026</ele>
        <time>2017-06-01T11:16:23.000Z</time>
      </trkpt>
      <trkpt lat="46.152880" lon="6.167297">
        <ele>547.302786</ele>
        <time>2017-06-01T11:16:27.000Z</time>
      </trkpt>
      <trkpt lat="46.152950" lon="6.167440">
        <ele>547.417617</ele>
        <time>2017-06-01T11:16:31.000Z</time>
      </trkpt>
      <trkpt lat="46.153015" lon="6.167546">
        <ele>547.510456</ele>
        <time>2017-06-01T11:16:34.000Z</time>
      </trkpt>
      <trkpt lat="46.153060" lon="6.167663">
        <ele>547.552230</ele>
        <time>2017-06-01T11:16:37.000Z</time>
      </trkpt>
      <trkpt lat="46.153120" lon="6.167816">
        <ele>547.546237</ele>
        <time>2017-06-01T11:16:40.000Z</time>
      </trkpt>
      <trkpt lat="46.153156" lon="6.167944">
        <ele>547.541527</ele>
        <time>2017-06-01T11:16:42.000Z</time>
      </trkpt>
      <trkpt lat="46.153190" lon="6.168092">
        <ele>547.536212</ele>
        <time>2017-06-01T11:16:44.000Z</time>
      </trkpt>
      <trkpt lat="46.153210" lon="6.168249">
        <ele>547.530770</ele>
        <time>2017-06-01T11:16:46.000Z</time>
      </trkpt>
      <trkpt lat="46.153220" lon="6.168396">
        <ele>547.525735</ele>
        <time>2017-06-01T11:16:48.000Z</time>
      </trkpt>
      <trkpt lat="46.153240" lon="6.168534">
        <ele>547.520928</ele>
        <time>2017-06-01T11:16:50.000Z</time>
      </trkpt>
      <trkpt lat="46.153260" lon="6.168688">
        <ele>547.515587</ele>
        <time>2017-06-01T11:16:52.000Z</time>
      </trkpt>
      <trkpt lat="46.153255" lon="6.168819">
        <ele>547.511114</ele>
        <time>2017-06-01T11:16:54.000Z</time>
      </trkpt>
      <trkpt lat="46.153202" lon="6.168987">
        <ele>547.504821</ele>
        <time>2017-06-01T11:16:57.000Z</time>
      </trkpt>
      <trkpt lat="46.153130" lon="6.169131">
        <ele>547.498767</ele>
        <time>2017-06-01T11:17:00.000Z</time>
      </trkpt>
      <trkpt lat="46.153070" lon="6.169270">
        <ele>547.493184</ele>
        <time>2017-06-01T11:17:03.000Z</time>
      </trkpt>
      <trkpt lat="46.153023" lon="6.169421">
        <ele>547.487540</ele>
        <time>2017-06-01T11:17:06.000Z</time>
      </trkpt>
      <trkpt lat="46.153004" lon="6.169576">
        <ele>547.482174</ele>
        <time>2017-06-01T11:17:09.000Z</time>
      </trkpt>
      <trkpt lat="46.152973" lon="6.169735">
        <ele>547.476543</ele>
        <time>2017-06-01T11:17:12.000Z</time>
      </trkpt>
      <trkpt lat="46.152958" lon="6.169909">
        <ele>547.470566</ele>
        <time>2017-06-01T11:17:15.000Z</time>
      </trkpt>
      <trkpt lat="46.152985" lon="6.170096">
        <ele>547.298580</ele>
        <time>2017-06-01T11:17:18.000Z</time>
      </trkpt>
      <trkpt lat="46.153027" lon="6.170219">
        <ele>546.894195</ele>
        <time>2017-06-01T11:17:20.000Z</time>
      </trkpt>
      <trkpt lat="46.153103" lon="6.170334">
        <ele>546.425503</ele>
        <time>2017-06-01T11:17:22.000Z</time>
      </trkpt>
      <trkpt lat="46.153187" lon="6.170449">
        <ele>545.932688</ele>
        <time>2017-06-01T11:17:24.000Z</time>
      </trkpt>
      <trkpt lat="46.153275" lon="6.170580">
        <ele>545.394580</ele>
        <time>2017-06-01T11:17:26.000Z</time>
      </trkpt>
      <trkpt lat="46.153360" lon="6.170710">
        <ele>544.867431</ele>
        <time>2017-06-01T11:17:28.000Z</time>
      </trkpt>
      <trkpt lat="46.153442" lon="6.170838">
        <ele>544.353311</ele>
        <time>2017-06-01T11:17:30.000Z</time>
      </trkpt>
      <trkpt lat="46.153526" lon="6.170945">
        <ele>543.876424</ele>
        <time>2017-06-01T11:17:32.000Z</time>
      </trkpt>
      <trkpt lat="46.153606" lon="6.171053">
        <ele>543.410159</ele>
        <time>2017-06-01T11:17:34.000Z</time>
      </trkpt>
      <trkpt lat="46.153687" lon="6.171160">
        <ele>542.942772</ele>
        <time>2017-06-01T11:17:36.000Z</time>
      </trkpt>
      <trkpt lat="46.153770" lon="6.171279">
        <ele>542.444799</ele>
        <time>2017-06-01T11:17:38.000Z</time>
      </trkpt>
      <trkpt lat="46.153854" lon="6.171418">
        <ele>541.900857</ele>
        <time>2017-06-01T11:17:40.000Z</time>
      </trkpt>
      <trkpt lat="46.153946" lon="6.171569">
        <ele>541.307858</ele>
        <time>2017-06-01T11:17:42.000Z</time>
      </trkpt>
      <trkpt lat="46.154045" lon="6.171711">
        <ele>540.713766</ele>
        <time>2017-06-01T11:17:44.000Z</time>
      </trkpt>
      <trkpt lat="46.154152" lon="6.171845">
        <ele>540.110767</ele>
        <time>2017-06-01T11:17:46.000Z</time>
      </trkpt>
      <trkpt lat="46.154280" lon="6.171946">
        <ele>539.232894</ele>
        <time>2017-06-01T11:17:48.000Z</time>
      </trkpt>
      <trkpt lat="46.154415" lon="6.172015">
        <ele>538.133150</ele>
        <time>2017-06-01T11:17:50.000Z</time>
      </trkpt>
      <trkpt lat="46.154540" lon="6.172077">
        <ele>537.118179</ele>
        <time>2017-06-01T11:17:52.000Z</time>
      </trkpt>
      <trkpt lat="46.154675" lon="6.172147">
        <ele>536.016649</ele>
        <time>2017-06-01T11:17:54.000Z</time>
      </trkpt>
      <trkpt lat="46.154804" lon="6.172210">
        <ele>534.970888</ele>
        <time>2017-06-01T11:17:56.000Z</time>
      </trkpt>
      <trkpt lat="46.154926" lon="6.172272">
        <ele>533.977676</ele>
        <time>2017-06-01T11:17:58.000Z</time>
      </trkpt>
      <trkpt lat="46.155025" lon="6.172327">
        <ele>533.163088</ele>
        <time>2017-06-01T11:18:00.000Z</time>
      </trkpt>
      <trkpt lat="46.155136" lon="6.172365">
        <ele>532.287063</ele>
        <time>2017-06-01T11:18:03.000Z</time>
      </trkpt>
      <trkpt lat="46.155243" lon="6.172422">
        <ele>531.411237</ele>
        <time>2017-06-01T11:18:06.000Z</time>
      </trkpt>
      <trkpt lat="46.155350" lon="6.172509">
        <ele>530.468204</ele>
        <time>2017-06-01T11:18:09.000Z</time>
      </trkpt>
      <trkpt lat="46.155420" lon="6.172636">
        <ele>529.604878</ele>
        <time>2017-06-01T11:18:12.000Z</time>
      </trkpt>
      <trkpt lat="46.155468" lon="6.172764">
        <ele>528.830628</ele>
        <time>2017-06-01T11:18:15.000Z</time>
      </trkpt>
      <trkpt lat="46.155552" lon="6.172844">
        <ele>528.057854</ele>
        <time>2017-06-01T11:18:18.000Z</time>
      </trkpt>
      <trkpt lat="46.155620" lon="6.172716">
        <ele>527.199793</ele>
        <time>2017-06-01T11:18:22.000Z</time>
      </trkpt>
      <trkpt lat="46.155594" lon="6.172592">
        <ele>526.510637</ele>
        <time>2017-06-01T11:18:24.000Z</time>
      </trkpt>
      <trkpt lat="46.155560" lon="6.172449">
        <ele>525.754050</ele>
        <time>2017-06-01T11:18:28.000Z</time>
      </trkpt>
      <trkpt lat="46.155514" lon="6.172309">
        <ele>525.064794</ele>
        <time>2017-06-01T11:18:33.000Z</time>
      </trkpt>
      <trkpt lat="46.155476" lon="6.172153">
        <ele>524.329217</ele>
        <time>2017-06-01T11:18:37.000Z</time>
      </trkpt>
      <trkpt lat="46.155440" lon="6.172027">
        <ele>523.722937</ele>
        <time>2017-06-01T11:18:40.000Z</time>
      </trkpt>
      <trkpt lat="46.155420" lon="6.171885">
        <ele>523.078364</ele>
        <time>2017-06-01T11:18:43.000Z</time>
      </trkpt>
      <trkpt lat="46.155453" lon="6.171745">
        <ele>522.420545</ele>
        <time>2017-06-01T11:18:46.000Z</time>
      </trkpt>
      <trkpt lat="46.155544" lon="6.171659">
        <ele>521.722105</ele>
        <time>2017-06-01T11:18:49.000Z</time>
      </trkpt>
      <trkpt lat="46.155647" lon="6.171665">
        <ele>521.060148</ele>
        <time>2017-06-01T11:18:52.000Z</time>
      </trkpt>
      <trkpt lat="46.155735" lon="6.171781">
        <ele>520.294916</ele>
        <time>2017-06-01T11:18:55.000Z</time>
      </trkpt>
      <trkpt lat="46.155760" lon="6.171917">
        <ele>519.669022</ele>
        <time>2017-06-01T11:18:57.000Z</time>
      </trkpt>
      <trkpt lat="46.155792" lon="6.172059">
        <ele>519.004793</ele>
        <time>2017-06-01T11:18:59.000Z</time>
      </trkpt>
      <trkpt lat="46.155815" lon="6.172208">
        <ele>518.325755</ele>
        <time>2017-06-01T11:19:01.000Z</time>
      </trkpt>
      <trkpt lat="46.155834" lon="6.172352">
        <ele>517.673698</ele>
        <time>2017-06-01T11:19:03.000Z</time>
      </trkpt>
      <trkpt lat="46.155850" lon="6.172486">
        <ele>517.068849</ele>
        <time>2017-06-01T11:19:05.000Z</time>
      </trkpt>
      <trkpt lat="46.155870" lon="6.172616">
        <ele>516.476494</ele>
        <time>2017-06-01T11:19:07.000Z</time>
      </trkpt>
      <trkpt lat="46.155884" lon="6.172745">
        <ele>515.895678</ele>
        <time>2017-06-01T11:19:09.000Z</time>
      </trkpt>
      <trkpt lat="46.155903" lon="6.172875">
        <ele>515.304682</ele>
        <time>2017-06-01T11:19:11.000Z</time>
      </trkpt>
      <trkpt lat="46.155930" lon="6.173004">
        <ele>514.705243</ele>
        <time>2017-06-01T11:19:13.000Z</time>
      </trkpt>
      <trkpt lat="46.155968" lon="6.173155">
        <ele>514.309019</ele>
        <time>2017-06-01T11:19:15.000Z</time>
      </trkpt>
      <trkpt lat="46.156010" lon="6.173337">
        <ele>514.050680</ele>
        <time>2017-06-01T11:19:17.000Z</time>
      </trkpt>
      <trkpt lat="46.156060" lon="6.173558">
        <ele>513.737593</ele>
        <time>2017-06-01T11:19:19.000Z</time>
      </trkpt>
      <trkpt lat="46.156082" lon="6.173687">
        <ele>513.558685</ele>
        <time>2017-06-01T11:19:20.000Z</time>
      </trkpt>
      <trkpt lat="46.156105" lon="6.173822">
        <ele>513.371466</ele>
        <time>2017-06-01T11:19:21.000Z</time>
      </trkpt>
      <trkpt lat="46.156124" lon="6.173957">
        <ele>513.185950</ele>
        <time>2017-06-01T11:19:22.000Z</time>
      </trkpt>
      <trkpt lat="46.156136" lon="6.174091">
        <ele>513.003994</ele>
        <time>2017-06-01T11:19:23.000Z</time>
      </trkpt>
      <trkpt lat="46.156143" lon="6.174221">
        <ele>512.828399</ele>
        <time>2017-06-01T11:19:24.000Z</time>
      </trkpt>
      <trkpt lat="46.156155" lon="6.174459">
        <ele>512.507043</ele>
        <time>2017-06-01T11:19:26.000Z</time>
      </trkpt>
      <trkpt lat="46.156166" lon="6.174673">
        <ele>512.218063</ele>
        <time>2017-06-01T11:19:28.000Z</time>
      </trkpt>
      <trkpt lat="46.156166" lon="6.174875">
        <ele>511.946035</ele>
        <time>2017-06-01T11:19:30.000Z</time>
      </trkpt>
      <trkpt lat="46.156162" lon="6.175060">
        <ele>511.696780</ele>
        <time>2017-06-01T11:19:32.000Z</time>
      </trkpt>
      <trkpt lat="46.156162" lon="6.175209">
        <ele>511.496126</ele>
        <time>2017-06-01T11:19:34.000Z</time>
      </trkpt>
      <trkpt lat="46.156160" lon="6.175386">
        <ele>511.257733</ele>
        <time>2017-06-01T11:19:37.000Z</time>
      </trkpt>
      <trkpt lat="46.156155" lon="6.175549">
        <ele>511.038010</ele>
        <time>2017-06-01T11:19:40.000Z</time>
      </trkpt>
      <trkpt lat="46.156150" lon="6.175680">
        <ele>510.961363</ele>
        <time>2017-06-01T11:19:43.000Z</time>
      </trkpt>
      <trkpt lat="46.156155" lon="6.175845">
        <ele>510.988403</ele>
        <time>2017-06-01T11:19:47.000Z</time>
      </trkpt>
      <trkpt lat="46.156160" lon="6.175977">
        <ele>511.010047</ele>
        <time>2017-06-01T11:19:50.000Z</time>
      </trkpt>
      <trkpt lat="46.156162" lon="6.176114">
        <ele>511.032482</ele>
        <time>2017-06-01T11:19:53.000Z</time>
      </trkpt>
      <trkpt lat="46.156174" lon="6.176255">
        <ele>511.055740</ele>
        <time>2017-06-01T11:19:56.000Z</time>
      </trkpt>
      <trkpt lat="46.156193" lon="6.176444">
        <ele>511.087008</ele>
        <time>2017-06-01T11:19:59.000Z</time>
      </trkpt>
      <trkpt lat="46.156230" lon="6.176594">
        <ele>511.113077</ele>
        <time>2017-06-01T11:20:01.000Z</time>
      </trkpt>
      <trkpt lat="46.156280" lon="6.176777">
        <ele>511.145285</ele>
        <time>2017-06-01T11:20:03.000Z</time>
      </trkpt>
      <trkpt lat="46.156320" lon="6.177000">
        <ele>511.182999</ele>
        <time>2017-06-01T11:20:05.000Z</time>
      </trkpt>
      <trkpt lat="46.156338" lon="6.177246">
        <ele>511.223499</ele>
        <time>2017-06-01T11:20:07.000Z</time>
      </trkpt>
      <trkpt lat="46.156357" lon="6.177495">
        <ele>511.264512</ele>
        <time>2017-06-01T11:20:09.000Z</time>
      </trkpt>
      <trkpt lat="46.156376" lon="6.177707">
        <ele>511.299510</ele>
        <time>2017-06-01T11:20:11.000Z</time>
      </trkpt>
      <trkpt lat="46.156395" lon="6.177874">
        <ele>511.327218</ele>
        <time>2017-06-01T11:20:13.000Z</time>
      </trkpt>
      <trkpt lat="46.156437" lon="6.178035">
        <ele>511.355385</ele>
        <time>2017-06-01T11:20:16.000Z</time>
      </trkpt>
      <trkpt lat="46.156456" lon="6.178166">
        <ele>511.382346</ele>
        <time>2017-06-01T11:20:19.000Z</time>
      </trkpt>
      <trkpt lat="46.156490" lon="6.178326">
        <ele>511.493193</ele>
        <time>2017-06-01T11:20:23.000Z</time>
      </trkpt>
      <trkpt lat="46.156520" lon="6.178464">
        <ele>511.588990</ele>
        <time>2017-06-01T11:20:26.000Z</time>
      </trkpt>
      <trkpt lat="46.156544" lon="6.178619">
        <ele>511.694184</ele>
        <time>2017-06-01T11:20:29.000Z</time>
      </trkpt>
      <trkpt lat="46.156563" lon="6.178769">
        <ele>511.795180</ele>
        <time>2017-06-01T11:20:32.000Z</time>
      </trkpt>
      <trkpt lat="46.156593" lon="6.178937">
        <ele>511.910088</ele>
        <time>2017-06-01T11:20:35.000Z</time>
      </trkpt>
      <trkpt lat="46.156624" lon="6.179092">
        <ele>512.016942</ele>
        <time>2017-06-01T11:20:38.000Z</time>
      </trkpt>
      <trkpt lat="46.156650" lon="6.179243">
        <ele>512.119997</ele>
        <time>2017-06-01T11:20:41.000Z</time>
      </trkpt>
      <trkpt lat="46.156677" lon="6.179388">
        <ele>512.219443</ele>
        <time>2017-06-01T11:20:44.000Z</time>
      </trkpt>
      <trkpt lat="46.156700" lon="6.179550">
        <ele>512.328970</ele>
        <time>2017-06-01T11:20:47.000Z</time>
      </trkpt>
      <trkpt lat="46.156723" lon="6.179719">
        <ele>512.443042</ele>
        <time>2017-06-01T11:20:50.000Z</time>
      </trkpt>
      <trkpt lat="46.156750" lon="6.179875">
        <ele>512.549541</ele>
        <time>2017-06-01T11:20:53.000Z</time>
      </trkpt>
      <trkpt lat="46.156780" lon="6.180019">
        <ele>512.649136</ele>
        <time>2017-06-01T11:20:56.000Z</time>
      </trkpt>
      <trkpt lat="46.156810" lon="6.180175">
        <ele>512.756366</ele>
        <time>2017-06-01T11:20:59.000Z</time>
      </trkpt>
      <trkpt lat="46.156850" lon="6.180372">
        <ele>512.892334</ele>
        <time>2017-06-01T11:21:02.000Z</time>
      </trkpt>
      <trkpt lat="46.156895" lon="6.180543">
        <ele>513.013489</ele>
        <time>2017-06-01T11:21:04.000Z</time>
      </trkpt>
      <trkpt lat="46.156948" lon="6.180732">
        <ele>512.861879</ele>
        <time>2017-06-01T11:21:06.000Z</time>
      </trkpt>
      <trkpt lat="46.157005" lon="6.180937">
        <ele>512.218349</ele>
        <time>2017-06-01T11:21:08.000Z</time>
      </trkpt>
      <trkpt lat="46.157070" lon="6.181147">
        <ele>511.548273</ele>
        <time>2017-06-01T11:21:10.000Z</time>
      </trkpt>
      <trkpt lat="46.157140" lon="6.181356">
        <ele>510.871970</ele>
        <time>2017-06-01T11:21:12.000Z</time>
      </trkpt>
      <trkpt lat="46.157204" lon="6.181573">
        <ele>510.184884</ele>
        <time>2017-06-01T11:21:14.000Z</time>
      </trkpt>
      <trkpt lat="46.157272" lon="6.181784">
        <ele>509.506924</ele>
        <time>2017-06-01T11:21:16.000Z</time>
      </trkpt>
      <trkpt lat="46.157352" lon="6.181995">
        <ele>508.806179</ele>
        <time>2017-06-01T11:21:18.000Z</time>
      </trkpt>
      <trkpt lat="46.157433" lon="6.182209">
        <ele>508.095749</ele>
        <time>2017-06-01T11:21:20.000Z</time>
      </trkpt>
      <trkpt lat="46.157510" lon="6.182421">
        <ele>507.398397</ele>
        <time>2017-06-01T11:21:22.000Z</time>
      </trkpt>
      <trkpt lat="46.157570" lon="6.182613">
        <ele>506.784775</ele>
        <time>2017-06-01T11:21:24.000Z</time>
      </trkpt>
      <trkpt lat="46.157616" lon="6.182778">
        <ele>506.266626</ele>
        <time>2017-06-01T11:21:26.000Z</time>
      </trkpt>
      <trkpt lat="46.157696" lon="6.182865">
        <ele>505.845392</ele>
        <time>2017-06-01T11:21:29.000Z</time>
      </trkpt>
      <trkpt lat="46.157790" lon="6.182781">
        <ele>505.283776</ele>
        <time>2017-06-01T11:21:32.000Z</time>
      </trkpt>
      <trkpt lat="46.157860" lon="6.182692">
        <ele>504.639379</ele>
        <time>2017-06-01T11:21:34.000Z</time>
      </trkpt>
      <trkpt lat="46.157920" lon="6.182580">
        <ele>503.961834</ele>
        <time>2017-06-01T11:21:36.000Z</time>
      </trkpt>
      <trkpt lat="46.157980" lon="6.182472">
        <ele>503.299328</ele>
        <time>2017-06-01T11:21:38.000Z</time>
      </trkpt>
      <trkpt lat="46.158054" lon="6.182373">
        <ele>502.602343</ele>
        <time>2017-06-01T11:21:40.000Z</time>
      </trkpt>
      <trkpt lat="46.158127" lon="6.182260">
        <ele>501.862927</ele>
        <time>2017-06-01T11:21:42.000Z</time>
      </trkpt>
      <trkpt lat="46.158195" lon="6.182143">
        <ele>501.132067</ele>
        <time>2017-06-01T11:21:44.000Z</time>
      </trkpt>
      <trkpt lat="46.158268" lon="6.182040">
        <ele>500.426891</ele>
        <time>2017-06-01T11:21:46.000Z</time>
      </trkpt>
      <trkpt lat="46.158348" lon="6.181945">
        <ele>499.711268</ele>
        <time>2017-06-01T11:21:48.000Z</time>
      </trkpt>
      <trkpt lat="46.158430" lon="6.181870">
        <ele>499.040654</ele>
        <time>2017-06-01T11:21:50.000Z</time>
      </trkpt>
      <trkpt lat="46.158520" lon="6.181817">
        <ele>498.369154</ele>
        <time>2017-06-01T11:21:52.000Z</time>
      </trkpt>
      <trkpt lat="46.158623" lon="6.181786">
        <ele>497.642283</ele>
        <time>2017-06-01T11:21:54.000Z</time>
      </trkpt>
      <trkpt lat="46.158760" lon="6.181774">
        <ele>496.694080</ele>
        <time>2017-06-01T11:21:56.000Z</time>
      </trkpt>
      <trkpt lat="46.158894" lon="6.181782">
        <ele>495.767553</ele>
        <time>2017-06-01T11:21:58.000Z</time>
      </trkpt>
      <trkpt lat="46.159020" lon="6.181794">
        <ele>494.895193</ele>
        <time>2017-06-01T11:22:00.000Z</time>
      </trkpt>
      <trkpt lat="46.159134" lon="6.181801">
        <ele>494.106914</ele>
        <time>2017-06-01T11:22:02.000Z</time>
      </trkpt>
      <trkpt lat="46.159245" lon="6.181768">
        <ele>493.323982</ele>
        <time>2017-06-01T11:22:04.000Z</time>
      </trkpt>
      <trkpt lat="46.159336" lon="6.181727">
        <ele>492.870266</ele>
        <time>2017-06-01T11:22:06.000Z</time>
      </trkpt>
      <trkpt lat="46.159443" lon="6.181697">
        <ele>492.468179</ele>
        <time>2017-06-01T11:22:09.000Z</time>
      </trkpt>
      <trkpt lat="46.159550" lon="6.181764">
        <ele>492.037940</ele>
        <time>2017-06-01T11:22:12.000Z</time>
      </trkpt>
      <trkpt lat="46.159634" lon="6.181839">
        <ele>491.673602</ele>
        <time>2017-06-01T11:22:14.000Z</time>
      </trkpt>
      <trkpt lat="46.159730" lon="6.181904">
        <ele>491.282457</ele>
        <time>2017-06-01T11:22:16.000Z</time>
      </trkpt>
      <trkpt lat="46.159832" lon="6.181999">
        <ele>490.834686</ele>
        <time>2017-06-01T11:22:18.000Z</time>
      </trkpt>
      <trkpt lat="46.159927" lon="6.182121">
        <ele>490.365662</ele>
        <time>2017-06-01T11:22:20.000Z</time>
      </trkpt>
      <trkpt lat="46.159996" lon="6.182280">
        <ele>489.886249</ele>
        <time>2017-06-01T11:22:22.000Z</time>
      </trkpt>
      <trkpt lat="46.160053" lon="6.182432">
        <ele>489.444606</ele>
        <time>2017-06-01T11:22:24.000Z</time>
      </trkpt>
      <trkpt lat="46.160095" lon="6.182578">
        <ele>489.040667</ele>
        <time>2017-06-01T11:22:26.000Z</time>
      </trkpt>
      <trkpt lat="46.160137" lon="6.182720">
        <ele>488.646147</ele>
        <time>2017-06-01T11:22:28.000Z</time>
      </trkpt>
      <trkpt lat="46.160168" lon="6.182852">
        <ele>488.290014</ele>
        <time>2017-06-01T11:22:30.000Z</time>
      </trkpt>
      <trkpt lat="46.160213" lon="6.182971">
        <ele>487.943594</ele>
        <time>2017-06-01T11:22:32.000Z</time>
      </trkpt>
      <trkpt lat="46.160248" lon="6.183090">
        <ele>487.613261</ele>
        <time>2017-06-01T11:22:34.000Z</time>
      </trkpt>
      <trkpt lat="46.160300" lon="6.183263">
        <ele>487.131402</ele>
        <time>2017-06-01T11:22:37.000Z</time>
      </trkpt>
      <trkpt lat="46.160340" lon="6.183384">
        <ele>486.788829</ele>
        <time>2017-06-01T11:22:39.000Z</time>
      </trkpt>
      <trkpt lat="46.160380" lon="6.183504">
        <ele>486.463872</ele>
        <time>2017-06-01T11:22:41.000Z</time>
      </trkpt>
      <trkpt lat="46.160423" lon="6.183638">
        <ele>486.356445</ele>
        <time>2017-06-01T11:22:43.000Z</time>
      </trkpt>
      <trkpt lat="46.160465" lon="6.183775">
        <ele>486.247465</ele>
        <time>2017-06-01T11:22:45.000Z</time>
      </trkpt>
      <trkpt lat="46.160510" lon="6.183913">
        <ele>486.136513</ele>
        <time>2017-06-01T11:22:47.000Z</time>
      </trkpt>
      <trkpt lat="46.160553" lon="6.184057">
        <ele>486.022446</ele>
        <time>2017-06-01T11:22:49.000Z</time>
      </trkpt>
      <trkpt lat="46.160600" lon="6.184199">
        <ele>485.907966</ele>
        <time>2017-06-01T11:22:51.000Z</time>
      </trkpt>
      <trkpt lat="46.160640" lon="6.184341">
        <ele>485.796458</ele>
        <time>2017-06-01T11:22:53.000Z</time>
      </trkpt>
      <trkpt lat="46.160686" lon="6.184477">
        <ele>485.686365</ele>
        <time>2017-06-01T11:22:55.000Z</time>
      </trkpt>
      <trkpt lat="46.160732" lon="6.184612">
        <ele>485.576925</ele>
        <time>2017-06-01T11:22:57.000Z</time>
      </trkpt>
      <trkpt lat="46.160774" lon="6.184740">
        <ele>485.473897</ele>
        <time>2017-06-01T11:22:59.000Z</time>
      </trkpt>
      <trkpt lat="46.160812" lon="6.184867">
        <ele>485.373265</ele>
        <time>2017-06-01T11:23:01.000Z</time>
      </trkpt>
      <trkpt lat="46.160866" lon="6.185041">
        <ele>485.234571</ele>
        <time>2017-06-01T11:23:04.000Z</time>
      </trkpt>
      <trkpt lat="46.160915" lon="6.185205">
        <ele>485.104651</ele>
        <time>2017-06-01T11:23:07.000Z</time>
      </trkpt>
      <trkpt lat="46.160954" lon="6.185361">
        <ele>484.984010</ele>
        <time>2017-06-01T11:23:10.000Z</time>
      </trkpt>
      <trkpt lat="46.161000" lon="6.185504">
        <ele>484.869320</ele>
        <time>2017-06-01T11:23:13.000Z</time>
      </trkpt>
      <trkpt lat="46.161045" lon="6.185639">
        <ele>484.760340</ele>
        <time>2017-06-01T11:23:16.000Z</time>
      </trkpt>
      <trkpt lat="46.161102" lon="6.185784">
        <ele>484.639063</ele>
        <time>2017-06-01T11:23:20.000Z</time>
      </trkpt>
      <trkpt lat="46.161163" lon="6.185896">
        <ele>484.580216</ele>
        <time>2017-06-01T11:23:23.000Z</time>
      </trkpt>
      <trkpt lat="46.161232" lon="6.186026">
        <ele>484.578100</ele>
        <time>2017-06-01T11:23:26.000Z</time>
      </trkpt>
      <trkpt lat="46.161297" lon="6.186126">
        <ele>484.576328</ele>
        <time>2017-06-01T11:23:29.000Z</time>
      </trkpt>
      <trkpt lat="46.161370" lon="6.186209">
        <ele>484.574595</ele>
        <time>2017-06-01T11:23:34.000Z</time>
      </trkpt>
      <trkpt lat="46.161324" lon="6.186091">
        <ele>484.572845</ele>
        <time>2017-06-01T11:23:45.000Z</time>
      </trkpt>
      <trkpt lat="46.161247" lon="6.185958">
        <ele>484.570606</ele>
        <time>2017-06-01T11:23:49.000Z</time>
      </trkpt>
      <trkpt lat="46.161150" lon="6.185855">
        <ele>484.568359</ele>
        <time>2017-06-01T11:23:53.000Z</time>
      </trkpt>
      <trkpt lat="46.161053" lon="6.185829">
        <ele>484.566519</ele>
        <time>2017-06-01T11:23:58.000Z</time>
      </trkpt>
      <trkpt lat="46.160970" lon="6.185894">
        <ele>484.564758</ele>
        <time>2017-06-01T11:24:02.000Z</time>
      </trkpt>
      <trkpt lat="46.160890" lon="6.185952">
        <ele>484.563088</ele>
        <time>2017-06-01T11:24:06.000Z</time>
      </trkpt>
      <trkpt lat="46.160824" lon="6.186043">
        <ele>484.561385</ele>
        <time>2017-06-01T11:24:10.000Z</time>
      </trkpt>
      <trkpt lat="46.160767" lon="6.186151">
        <ele>484.559631</ele>
        <time>2017-06-01T11:24:14.000Z</time>
      </trkpt>
      <trkpt lat="46.160713" lon="6.186271">
        <ele>484.557782</ele>
        <time>2017-06-01T11:24:19.000Z</time>
      </trkpt>
      <trkpt lat="46.160748" lon="6.186408">
        <ele>484.555895</ele>
        <time>2017-06-01T11:24:23.000Z</time>
      </trkpt>
      <trkpt lat="46.160793" lon="6.186537">
        <ele>484.554029</ele>
        <time>2017-06-01T11:24:26.000Z</time>
      </trkpt>
      <trkpt lat="46.160843" lon="6.186678">
        <ele>484.551983</ele>
        <time>2017-06-01T11:24:29.000Z</time>
      </trkpt>
      <trkpt lat="46.160880" lon="6.186848">
        <ele>484.549680</ele>
        <time>2017-06-01T11:24:32.000Z</time>
      </trkpt>
      <trkpt lat="46.160923" lon="6.186973">
        <ele>484.547877</ele>
        <time>2017-06-01T11:24:34.000Z</time>
      </trkpt>
      <trkpt lat="46.160965" lon="6.187105">
        <ele>484.601814</ele>
        <time>2017-06-01T11:24:36.000Z</time>
      </trkpt>
      <trkpt lat="46.161007" lon="6.187232">
        <ele>484.668847</ele>
        <time>2017-06-01T11:24:38.000Z</time>
      </trkpt>
      <trkpt lat="46.161045" lon="6.187365">
        <ele>484.737374</ele>
        <time>2017-06-01T11:24:40.000Z</time>
      </trkpt>
      <trkpt lat="46.161076" lon="6.187493">
        <ele>484.801961</ele>
        <time>2017-06-01T11:24:42.000Z</time>
      </trkpt>
      <trkpt lat="46.161106" lon="6.187623">
        <ele>484.867228</ele>
        <time>2017-06-01T11:24:44.000Z</time>
      </trkpt>
      <trkpt lat="46.161148" lon="6.187747">
        <ele>484.932974</ele>
        <time>2017-06-01T11:24:46.000Z</time>
      </trkpt>
      <trkpt lat="46.161180" lon="6.187872">
        <ele>484.996449</ele>
        <time>2017-06-01T11:24:48.000Z</time>
      </trkpt>
      <trkpt lat="46.161220" lon="6.188044">
        <ele>485.082869</ele>
        <time>2017-06-01T11:24:51.000Z</time>
      </trkpt>
      <trkpt lat="46.161270" lon="6.188205">
        <ele>485.166910</ele>
        <time>2017-06-01T11:24:54.000Z</time>
      </trkpt>
      <trkpt lat="46.161330" lon="6.188355">
        <ele>485.249415</ele>
        <time>2017-06-01T11:24:57.000Z</time>
      </trkpt>
      <trkpt lat="46.161400" lon="6.188502">
        <ele>485.334383</ele>
        <time>2017-06-01T11:25:00.000Z</time>
      </trkpt>
      <trkpt lat="46.161480" lon="6.188654">
        <ele>485.425312</ele>
        <time>2017-06-01T11:25:03.000Z</time>
      </trkpt>
      <trkpt lat="46.161550" lon="6.188800">
        <ele>485.509888</ele>
        <time>2017-06-01T11:25:06.000Z</time>
      </trkpt>
      <trkpt lat="46.161620" lon="6.188958">
        <ele>485.599223</ele>
        <time>2017-06-01T11:25:09.000Z</time>
      </trkpt>
      <trkpt lat="46.161697" lon="6.189122">
        <ele>485.693593</ele>
        <time>2017-06-01T11:25:12.000Z</time>
      </trkpt>
      <trkpt lat="46.161755" lon="6.189231">
        <ele>485.759062</ele>
        <time>2017-06-01T11:25:14.000Z</time>
      </trkpt>
      <trkpt lat="46.161804" lon="6.189345">
        <ele>487.497929</ele>
        <time>2017-06-01T11:25:16.000Z</time>
      </trkpt>
      <trkpt lat="46.161858" lon="6.189464">
        <ele>490.505816</ele>
        <time>2017-06-01T11:25:18.000Z</time>
      </trkpt>
      <trkpt lat="46.161907" lon="6.189570">
        <ele>493.200248</ele>
        <time>2017-06-01T11:25:20.000Z</time>
      </trkpt>
      <trkpt lat="46.162003" lon="6.189680">
        <ele>496.941436</ele>
        <time>2017-06-01T11:25:23.000Z</time>
      </trkpt>
      <trkpt lat="46.162117" lon="6.189641">
        <ele>500.517715</ele>
        <time>2017-06-01T11:25:26.000Z</time>
      </trkpt>
      <trkpt lat="46.162212" lon="6.189546">
        <ele>504.045308</ele>
        <time>2017-06-01T11:25:29.000Z</time>
      </trkpt>
      <trkpt lat="46.162310" lon="6.189447">
        <ele>507.696376</ele>
        <time>2017-06-01T11:25:32.000Z</time>
      </trkpt>
      <trkpt lat="46.162420" lon="6.189364">
        <ele>511.485096</ele>
        <time>2017-06-01T11:25:35.000Z</time>
      </trkpt>
      <trkpt lat="46.162510" lon="6.189327">
        <ele>514.341606</ele>
        <time>2017-06-01T11:25:38.000Z</time>
      </trkpt>
      <trkpt lat="46.162610" lon="6.189292">
        <ele>517.482581</ele>
        <time>2017-06-01T11:25:42.000Z</time>
      </trkpt>
      <trkpt lat="46.154250" lon="6.194107">
        <ele>1115.744703</ele>
        <time>2017-06-01T12:41:44.000Z</time>
      </trkpt>
      <trkpt lat="46.154232" lon="6.194236">
        <ele>1119.792863</ele>
        <time>2017-06-01T12:41:50.000Z</time>
      </trkpt>
      <trkpt lat="46.154140" lon="6.194284">
        <ele>1124.137174</ele>
        <time>2017-06-01T12:42:01.000Z</time>
      </trkpt>
      <trkpt lat="46.154050" lon="6.194274">
        <ele>1128.145833</ele>
        <time>2017-06-01T12:42:06.000Z</time>
      </trkpt>
      <trkpt lat="46.153970" lon="6.194349">
        <ele>1132.382034</ele>
        <time>2017-06-01T12:42:10.000Z</time>
      </trkpt>
      <trkpt lat="46.153893" lon="6.194446">
        <ele>1136.920495</ele>
        <time>2017-06-01T12:42:15.000Z</time>
      </trkpt>
      <trkpt lat="46.153812" lon="6.194529">
        <ele>1141.331751</ele>
        <time>2017-06-01T12:42:20.000Z</time>
      </trkpt>
      <trkpt lat="46.153744" lon="6.194616">
        <ele>1145.366923</ele>
        <time>2017-06-01T12:42:25.000Z</time>
      </trkpt>
      <trkpt lat="46.153667" lon="6.194687">
        <ele>1149.213834</ele>
        <time>2017-06-01T12:42:30.000Z</time>
      </trkpt>
      <trkpt lat="46.153572" lon="6.194756">
        <ele>1149.989493</ele>
        <time>2017-06-01T12:42:36.000Z</time>
      </trkpt>
      <trkpt lat="46.153484" lon="6.194817">
        <ele>1150.701500</ele>
        <time>2017-06-01T12:42:42.000Z</time>
      </trkpt>
      <trkpt lat="46.153324" lon="6.194931">
        <ele>1152.002893</ele>
        <time>2017-06-01T12:43:35.000Z</time>
      </trkpt>
      <trkpt lat="46.153244" lon="6.195004">
        <ele>1152.693187</ele>
        <time>2017-06-01T12:43:39.000Z</time>
      </trkpt>
      <trkpt lat="46.153168" lon="6.195072">
        <ele>1153.345348</ele>
        <time>2017-06-01T12:43:43.000Z</time>
      </trkpt>
      <trkpt lat="46.153095" lon="6.195158">
        <ele>1154.032588</ele>
        <time>2017-06-01T12:43:47.000Z</time>
      </trkpt>
      <trkpt lat="46.153010" lon="6.195203">
        <ele>1154.692928</ele>
        <time>2017-06-01T12:43:51.000Z</time>
      </trkpt>
      <trkpt lat="46.152905" lon="6.195190">
        <ele>1155.461575</ele>
        <time>2017-06-01T12:43:56.000Z</time>
      </trkpt>
      <trkpt lat="46.152855" lon="6.195064">
        <ele>1156.195257</ele>
        <time>2017-06-01T12:44:01.000Z</time>
      </trkpt>
      <trkpt lat="46.152885" lon="6.194915">
        <ele>1156.979247</ele>
        <time>2017-06-01T12:44:06.000Z</time>
      </trkpt>
      <trkpt lat="46.152960" lon="6.194840">
        <ele>1157.644706</ele>
        <time>2017-06-01T12:44:10.000Z</time>
      </trkpt>
      <trkpt lat="46.153072" lon="6.194804">
        <ele>1158.481603</ele>
        <time>2017-06-01T12:44:15.000Z</time>
      </trkpt>
      <trkpt lat="46.153160" lon="6.194736">
        <ele>1159.209619</ele>
        <time>2017-06-01T12:44:20.000Z</time>
      </trkpt>
      <trkpt lat="46.153240" lon="6.194631">
        <ele>1159.998236</ele>
        <time>2017-06-01T12:44:25.000Z</time>
      </trkpt>
      <trkpt lat="46.153300" lon="6.194503">
        <ele>1160.779112</ele>
        <time>2017-06-01T12:44:30.000Z</time>
      </trkpt>
      <trkpt lat="46.153343" lon="6.194371">
        <ele>1161.516111</ele>
        <time>2017-06-01T12:44:35.000Z</time>
      </trkpt>
      <trkpt lat="46.153380" lon="6.194233">
        <ele>1162.263766</ele>
        <time>2017-06-01T12:44:40.000Z</time>
      </trkpt>
      <trkpt lat="46.153408" lon="6.194097">
        <ele>1162.873277</ele>
        <time>2017-06-01T12:44:45.000Z</time>
      </trkpt>
      <trkpt lat="46.153416" lon="6.193947">
        <ele>1163.515058</ele>
        <time>2017-06-01T12:44:50.000Z</time>
      </trkpt>
      <trkpt lat="46.153427" lon="6.193801">
        <ele>1164.141555</ele>
        <time>2017-06-01T12:44:56.000Z</time>
      </trkpt>
      <trkpt lat="46.153385" lon="6.193665">
        <ele>1164.776761</ele>
        <time>2017-06-01T12:45:01.000Z</time>
      </trkpt>
      <trkpt lat="46.153350" lon="6.193524">
        <ele>1165.415706</ele>
        <time>2017-06-01T12:45:06.000Z</time>
      </trkpt>
      <trkpt lat="46.153324" lon="6.193388">
        <ele>1166.017560</ele>
        <time>2017-06-01T12:45:11.000Z</time>
      </trkpt>
      <trkpt lat="46.153300" lon="6.193239">
        <ele>1166.670140</ele>
        <time>2017-06-01T12:45:16.000Z</time>
      </trkpt>
      <trkpt lat="46.153267" lon="6.193101">
        <ele>1167.292926</ele>
        <time>2017-06-01T12:45:21.000Z</time>
      </trkpt>
      <trkpt lat="46.153230" lon="6.192966">
        <ele>1167.912262</ele>
        <time>2017-06-01T12:45:26.000Z</time>
      </trkpt>
      <trkpt lat="46.153180" lon="6.192855">
        <ele>1168.477087</ele>
        <time>2017-06-01T12:45:31.000Z</time>
      </trkpt>
      <trkpt lat="46.153130" lon="6.192730">
        <ele>1169.092841</ele>
        <time>2017-06-01T12:45:36.000Z</time>
      </trkpt>
      <trkpt lat="46.153057" lon="6.192618">
        <ele>1169.748866</ele>
        <time>2017-06-01T12:45:41.000Z</time>
      </trkpt>
      <trkpt lat="46.153000" lon="6.192491">
        <ele>1170.394413</ele>
        <time>2017-06-01T12:45:46.000Z</time>
      </trkpt>
      <trkpt lat="46.152954" lon="6.192348">
        <ele>1171.067006</ele>
        <time>2017-06-01T12:45:51.000Z</time>
      </trkpt>
      <trkpt lat="46.152927" lon="6.192223">
        <ele>1171.625571</ele>
        <time>2017-06-01T12:45:55.000Z</time>
      </trkpt>
      <trkpt lat="46.152880" lon="6.192083">
        <ele>1172.289243</ele>
        <time>2017-06-01T12:46:00.000Z</time>
      </trkpt>
      <trkpt lat="46.152836" lon="6.191956">
        <ele>1172.894999</ele>
        <time>2017-06-01T12:46:05.000Z</time>
      </trkpt>
      <trkpt lat="46.152756" lon="6.191877">
        <ele>1173.508902</ele>
        <time>2017-06-01T12:46:10.000Z</time>
      </trkpt>
      <trkpt lat="46.152664" lon="6.191876">
        <ele>1174.152900</ele>
        <time>2017-06-01T12:46:14.000Z</time>
      </trkpt>
      <trkpt lat="46.152580" lon="6.191933">
        <ele>1174.802605</ele>
        <time>2017-06-01T12:46:18.000Z</time>
      </trkpt>
      <trkpt lat="46.152527" lon="6.192065">
        <ele>1175.542419</ele>
        <time>2017-06-01T12:46:24.000Z</time>
      </trkpt>
      <trkpt lat="46.152523" lon="6.192196">
        <ele>1176.178259</ele>
        <time>2017-06-01T12:46:28.000Z</time>
      </trkpt>
      <trkpt lat="46.152565" lon="6.192314">
        <ele>1176.821553</ele>
        <time>2017-06-01T12:46:32.000Z</time>
      </trkpt>
      <trkpt lat="46.152630" lon="6.192432">
        <ele>1177.552585</ele>
        <time>2017-06-01T12:46:36.000Z</time>
      </trkpt>
      <trkpt lat="46.152670" lon="6.192555">
        <ele>1178.211466</ele>
        <time>2017-06-01T12:46:39.000Z</time>
      </trkpt>
      <trkpt lat="46.152706" lon="6.192699">
        <ele>1178.953804</ele>
        <time>2017-06-01T12:46:44.000Z</time>
      </trkpt>
      <trkpt lat="46.152710" lon="6.192850">
        <ele>1179.686541</ele>
        <time>2017-06-01T12:46:49.000Z</time>
      </trkpt>
      <trkpt lat="46.152702" lon="6.192982">
        <ele>1180.329056</ele>
        <time>2017-06-01T12:46:53.000Z</time>
      </trkpt>
      <trkpt lat="46.152670" lon="6.193129">
        <ele>1181.076228</ele>
        <time>2017-06-01T12:46:58.000Z</time>
      </trkpt>
      <trkpt lat="46.152634" lon="6.193269">
        <ele>1181.800352</ele>
        <time>2017-06-01T12:47:03.000Z</time>
      </trkpt>
      <trkpt lat="46.152576" lon="6.193401">
        <ele>1182.558321</ele>
        <time>2017-06-01T12:47:08.000Z</time>
      </trkpt>
      <trkpt lat="46.152504" lon="6.193511">
        <ele>1183.292152</ele>
        <time>2017-06-01T12:47:13.000Z</time>
      </trkpt>
      <trkpt lat="46.152420" lon="6.193592">
        <ele>1183.999254</ele>
        <time>2017-06-01T12:47:18.000Z</time>
      </trkpt>
      <trkpt lat="46.152313" lon="6.193645">
        <ele>1184.791096</ele>
        <time>2017-06-01T12:47:23.000Z</time>
      </trkpt>
      <trkpt lat="46.152206" lon="6.193679">
        <ele>1185.558004</ele>
        <time>2017-06-01T12:47:28.000Z</time>
      </trkpt>
      <trkpt lat="46.152103" lon="6.193685">
        <ele>1186.267033</ele>
        <time>2017-06-01T12:47:33.000Z</time>
      </trkpt>
      <trkpt lat="46.151993" lon="6.193687">
        <ele>1187.007095</ele>
        <time>2017-06-01T12:47:38.000Z</time>
      </trkpt>
      <trkpt lat="46.151882" lon="6.193693">
        <ele>1187.754349</ele>
        <time>2017-06-01T12:47:43.000Z</time>
      </trkpt>
      <trkpt lat="46.151794" lon="6.193690">
        <ele>1188.346517</ele>
        <time>2017-06-01T12:47:47.000Z</time>
      </trkpt>
      <trkpt lat="46.151684" lon="6.193685">
        <ele>1189.086887</ele>
        <time>2017-06-01T12:47:52.000Z</time>
      </trkpt>
      <trkpt lat="46.151580" lon="6.193677">
        <ele>1189.787519</ele>
        <time>2017-06-01T12:47:57.000Z</time>
      </trkpt>
      <trkpt lat="46.151474" lon="6.193688">
        <ele>1190.502454</ele>
        <time>2017-06-01T12:48:02.000Z</time>
      </trkpt>
      <trkpt lat="46.151363" lon="6.193708">
        <ele>1191.254979</ele>
        <time>2017-06-01T12:48:08.000Z</time>
      </trkpt>
      <trkpt lat="46.151270" lon="6.193741">
        <ele>1191.899244</ele>
        <time>2017-06-01T12:48:12.000Z</time>
      </trkpt>
      <trkpt lat="46.151176" lon="6.193778">
        <ele>1192.554698</ele>
        <time>2017-06-01T12:48:16.000Z</time>
      </trkpt>
      <trkpt lat="46.151062" lon="6.193818">
        <ele>1193.343942</ele>
        <time>2017-06-01T12:48:20.000Z</time>
      </trkpt>
      <trkpt lat="46.150963" lon="6.193856">
        <ele>1194.033089</ele>
        <time>2017-06-01T12:48:24.000Z</time>
      </trkpt>
      <trkpt lat="46.150864" lon="6.193895">
        <ele>1194.723448</ele>
        <time>2017-06-01T12:48:29.000Z</time>
      </trkpt>
      <trkpt lat="46.150772" lon="6.193932">
        <ele>1195.365932</ele>
        <time>2017-06-01T12:48:33.000Z</time>
      </trkpt>
      <trkpt lat="46.150690" lon="6.193981">
        <ele>1195.962970</ele>
        <time>2017-06-01T12:48:37.000Z</time>
      </trkpt>
      <trkpt lat="46.150580" lon="6.194012">
        <ele>1196.716945</ele>
        <time>2017-06-01T12:48:42.000Z</time>
      </trkpt>
      <trkpt lat="46.150480" lon="6.194033">
        <ele>1197.396757</ele>
        <time>2017-06-01T12:48:47.000Z</time>
      </trkpt>
      <trkpt lat="46.150368" lon="6.194055">
        <ele>1198.183516</ele>
        <time>2017-06-01T12:48:52.000Z</time>
      </trkpt>
      <trkpt lat="46.150257" lon="6.194052">
        <ele>1199.128017</ele>
        <time>2017-06-01T12:48:57.000Z</time>
      </trkpt>
      <trkpt lat="46.150158" lon="6.194047">
        <ele>1199.970776</ele>
        <time>2017-06-01T12:49:02.000Z</time>
      </trkpt>
      <trkpt lat="46.150055" lon="6.194022">
        <ele>1200.859352</ele>
        <time>2017-06-01T12:49:07.000Z</time>
      </trkpt>
      <trkpt lat="46.149963" lon="6.193986">
        <ele>1201.670293</ele>
        <time>2017-06-01T12:49:12.000Z</time>
      </trkpt>
      <trkpt lat="46.149868" lon="6.193961">
        <ele>1202.491828</ele>
        <time>2017-06-01T12:49:17.000Z</time>
      </trkpt>
      <trkpt lat="46.149773" lon="6.193919">
        <ele>1203.337101</ele>
        <time>2017-06-01T12:49:22.000Z</time>
      </trkpt>
      <trkpt lat="46.149677" lon="6.193896">
        <ele>1204.164996</ele>
        <time>2017-06-01T12:49:27.000Z</time>
      </trkpt>
      <trkpt lat="46.149582" lon="6.193870">
        <ele>1204.987609</ele>
        <time>2017-06-01T12:49:32.000Z</time>
      </trkpt>
      <trkpt lat="46.149483" lon="6.193848">
        <ele>1205.839776</ele>
        <time>2017-06-01T12:49:37.000Z</time>
      </trkpt>
      <trkpt lat="46.149387" lon="6.193810">
        <ele>1206.686650</ele>
        <time>2017-06-01T12:49:42.000Z</time>
      </trkpt>
      <trkpt lat="46.149292" lon="6.193790">
        <ele>1207.503415</ele>
        <time>2017-06-01T12:49:47.000Z</time>
      </trkpt>
      <trkpt lat="46.149193" lon="6.193740">
        <ele>1208.395726</ele>
        <time>2017-06-01T12:49:53.000Z</time>
      </trkpt>
      <trkpt lat="46.149105" lon="6.193693">
        <ele>1209.193993</ele>
        <time>2017-06-01T12:49:59.000Z</time>
      </trkpt>
      <trkpt lat="46.149006" lon="6.193647">
        <ele>1210.078798</ele>
        <time>2017-06-01T12:50:05.000Z</time>
      </trkpt>
      <trkpt lat="46.148922" lon="6.193606">
        <ele>1210.833181</ele>
        <time>2017-06-01T12:50:10.000Z</time>
      </trkpt>
      <trkpt lat="46.148830" lon="6.193553">
        <ele>1211.675906</ele>
        <time>2017-06-01T12:50:15.000Z</time>
      </trkpt>
      <trkpt lat="46.148743" lon="6.193504">
        <ele>1212.470408</ele>
        <time>2017-06-01T12:50:20.000Z</time>
      </trkpt>
      <trkpt lat="46.148647" lon="6.193456">
        <ele>1213.334741</ele>
        <time>2017-06-01T12:50:25.000Z</time>
      </trkpt>
      <trkpt lat="46.148556" lon="6.193451">
        <ele>1214.191473</ele>
        <time>2017-06-01T12:50:30.000Z</time>
      </trkpt>
      <trkpt lat="46.148480" lon="6.193373">
        <ele>1215.071555</ele>
        <time>2017-06-01T12:50:35.000Z</time>
      </trkpt>
      <trkpt lat="46.148380" lon="6.193309">
        <ele>1216.103923</ele>
        <time>2017-06-01T12:50:41.000Z</time>
      </trkpt>
      <trkpt lat="46.148290" lon="6.193266">
        <ele>1216.998628</ele>
        <time>2017-06-01T12:50:46.000Z</time>
      </trkpt>
      <trkpt lat="46.148193" lon="6.193277">
        <ele>1217.916896</ele>
        <time>2017-06-01T12:50:51.000Z</time>
      </trkpt>
      <trkpt lat="46.148117" lon="6.193191">
        <ele>1218.828288</ele>
        <time>2017-06-01T12:50:56.000Z</time>
      </trkpt>
      <trkpt lat="46.148018" lon="6.193203">
        <ele>1219.765899</ele>
        <time>2017-06-01T12:51:01.000Z</time>
      </trkpt>
      <trkpt lat="46.147923" lon="6.193180">
        <ele>1220.674996</ele>
        <time>2017-06-01T12:51:07.000Z</time>
      </trkpt>
      <trkpt lat="46.147830" lon="6.193164">
        <ele>1221.558905</ele>
        <time>2017-06-01T12:51:12.000Z</time>
      </trkpt>
      <trkpt lat="46.147743" lon="6.193129">
        <ele>1222.411270</ele>
        <time>2017-06-01T12:51:17.000Z</time>
      </trkpt>
      <trkpt lat="46.147680" lon="6.193013">
        <ele>1223.374993</ele>
        <time>2017-06-01T12:51:23.000Z</time>
      </trkpt>
      <trkpt lat="46.147670" lon="6.192856">
        <ele>1224.405850</ele>
        <time>2017-06-01T12:51:28.000Z</time>
      </trkpt>
      <trkpt lat="46.147710" lon="6.192735">
        <ele>1225.282445</ele>
        <time>2017-06-01T12:51:33.000Z</time>
      </trkpt>
      <trkpt lat="46.147790" lon="6.192660">
        <ele>1226.182727</ele>
        <time>2017-06-01T12:51:38.000Z</time>
      </trkpt>
      <trkpt lat="46.147892" lon="6.192632">
        <ele>1227.162616</ele>
        <time>2017-06-01T12:51:43.000Z</time>
      </trkpt>
      <trkpt lat="46.147984" lon="6.192591">
        <ele>1228.071317</ele>
        <time>2017-06-01T12:51:48.000Z</time>
      </trkpt>
      <trkpt lat="46.148067" lon="6.192545">
        <ele>1228.910394</ele>
        <time>2017-06-01T12:51:53.000Z</time>
      </trkpt>
      <trkpt lat="46.148150" lon="6.192478">
        <ele>1229.807888</ele>
        <time>2017-06-01T12:51:58.000Z</time>
      </trkpt>
      <trkpt lat="46.148228" lon="6.192395">
        <ele>1230.646817</ele>
        <time>2017-06-01T12:52:03.000Z</time>
      </trkpt>
      <trkpt lat="46.148304" lon="6.192310">
        <ele>1231.377360</ele>
        <time>2017-06-01T12:52:08.000Z</time>
      </trkpt>
      <trkpt lat="46.148376" lon="6.192216">
        <ele>1232.115028</ele>
        <time>2017-06-01T12:52:13.000Z</time>
      </trkpt>
      <trkpt lat="46.148450" lon="6.192130">
        <ele>1232.836907</ele>
        <time>2017-06-01T12:52:18.000Z</time>
      </trkpt>
      <trkpt lat="46.148518" lon="6.192028">
        <ele>1233.582073</ele>
        <time>2017-06-01T12:52:23.000Z</time>
      </trkpt>
      <trkpt lat="46.148590" lon="6.191936">
        <ele>1234.312720</ele>
        <time>2017-06-01T12:52:28.000Z</time>
      </trkpt>
      <trkpt lat="46.148666" lon="6.191833">
        <ele>1235.104845</ele>
        <time>2017-06-01T12:52:34.000Z</time>
      </trkpt>
      <trkpt lat="46.148724" lon="6.191725">
        <ele>1235.824177</ele>
        <time>2017-06-01T12:52:39.000Z</time>
      </trkpt>
      <trkpt lat="46.148804" lon="6.191634">
        <ele>1236.598114</ele>
        <time>2017-06-01T12:52:45.000Z</time>
      </trkpt>
      <trkpt lat="46.148872" lon="6.191533">
        <ele>1237.339493</ele>
        <time>2017-06-01T12:52:50.000Z</time>
      </trkpt>
      <trkpt lat="46.148950" lon="6.191447">
        <ele>1238.085287</ele>
        <time>2017-06-01T12:52:55.000Z</time>
      </trkpt>
      <trkpt lat="46.149020" lon="6.191348">
        <ele>1238.829930</ele>
        <time>2017-06-01T12:53:00.000Z</time>
      </trkpt>
      <trkpt lat="46.149100" lon="6.191254">
        <ele>1239.613737</ele>
        <time>2017-06-01T12:53:05.000Z</time>
      </trkpt>
      <trkpt lat="46.149185" lon="6.191177">
        <ele>1240.376255</ele>
        <time>2017-06-01T12:53:10.000Z</time>
      </trkpt>
      <trkpt lat="46.149277" lon="6.191139">
        <ele>1241.103363</ele>
        <time>2017-06-01T12:53:15.000Z</time>
      </trkpt>
      <trkpt lat="46.149364" lon="6.191105">
        <ele>1241.788223</ele>
        <time>2017-06-01T12:53:20.000Z</time>
      </trkpt>
      <trkpt lat="46.149460" lon="6.191061">
        <ele>1242.553558</ele>
        <time>2017-06-01T12:53:25.000Z</time>
      </trkpt>
      <trkpt lat="46.149567" lon="6.191021">
        <ele>1243.393409</ele>
        <time>2017-06-01T12:53:30.000Z</time>
      </trkpt>
      <trkpt lat="46.149624" lon="6.190904">
        <ele>1244.127947</ele>
        <time>2017-06-01T12:53:35.000Z</time>
      </trkpt>
      <trkpt lat="46.149643" lon="6.190764">
        <ele>1244.783754</ele>
        <time>2017-06-01T12:53:40.000Z</time>
      </trkpt>
      <trkpt lat="46.149605" lon="6.190629">
        <ele>1245.453612</ele>
        <time>2017-06-01T12:53:46.000Z</time>
      </trkpt>
      <trkpt lat="46.149530" lon="6.190548">
        <ele>1246.075158</ele>
        <time>2017-06-01T12:53:52.000Z</time>
      </trkpt>
      <trkpt lat="46.149430" lon="6.190534">
        <ele>1246.741826</ele>
        <time>2017-06-01T12:53:57.000Z</time>
      </trkpt>
      <trkpt lat="46.149260" lon="6.190571">
        <ele>1247.882620</ele>
        <time>2017-06-01T12:56:56.000Z</time>
      </trkpt>
      <trkpt lat="46.149185" lon="6.190490">
        <ele>1248.504166</ele>
        <time>2017-06-01T12:57:01.000Z</time>
      </trkpt>
      <trkpt lat="46.149105" lon="6.190422">
        <ele>1249.120211</ele>
        <time>2017-06-01T12:57:07.000Z</time>
      </trkpt>
      <trkpt lat="46.149006" lon="6.190393">
        <ele>1249.790521</ele>
        <time>2017-06-01T12:57:12.000Z</time>
      </trkpt>
      <trkpt lat="46.148914" lon="6.190334">
        <ele>1250.458530</ele>
        <time>2017-06-01T12:57:19.000Z</time>
      </trkpt>
      <trkpt lat="46.148830" lon="6.190243">
        <ele>1251.155435</ele>
        <time>2017-06-01T12:57:25.000Z</time>
      </trkpt>
      <trkpt lat="46.148746" lon="6.190198">
        <ele>1251.749971</ele>
        <time>2017-06-01T12:57:30.000Z</time>
      </trkpt>
      <trkpt lat="46.148655" lon="6.190167">
        <ele>1252.370394</ele>
        <time>2017-06-01T12:57:35.000Z</time>
      </trkpt>
      <trkpt lat="46.148580" lon="6.190075">
        <ele>1253.023494</ele>
        <time>2017-06-01T12:57:41.000Z</time>
      </trkpt>
      <trkpt lat="46.148483" lon="6.190013">
        <ele>1253.727423</ele>
        <time>2017-06-01T12:57:47.000Z</time>
      </trkpt>
      <trkpt lat="46.148390" lon="6.189950">
        <ele>1254.409110</ele>
        <time>2017-06-01T12:57:53.000Z</time>
      </trkpt>
      <trkpt lat="46.148304" lon="6.189927">
        <ele>1254.989479</ele>
        <time>2017-06-01T12:57:58.000Z</time>
      </trkpt>
      <trkpt lat="46.148224" lon="6.189832">
        <ele>1255.676880</ele>
        <time>2017-06-01T12:58:04.000Z</time>
      </trkpt>
      <trkpt lat="46.148144" lon="6.189772">
        <ele>1256.282711</ele>
        <time>2017-06-01T12:58:09.000Z</time>
      </trkpt>
      <trkpt lat="46.148056" lon="6.189717">
        <ele>1256.933307</ele>
        <time>2017-06-01T12:58:15.000Z</time>
      </trkpt>
      <trkpt lat="46.147987" lon="6.189618">
        <ele>1257.593359</ele>
        <time>2017-06-01T12:58:21.000Z</time>
      </trkpt>
      <trkpt lat="46.147910" lon="6.189544">
        <ele>1258.220959</ele>
        <time>2017-06-01T12:58:26.000Z</time>
      </trkpt>
      <trkpt lat="46.147865" lon="6.189419">
        <ele>1258.883078</ele>
        <time>2017-06-01T12:58:31.000Z</time>
      </trkpt>
      <trkpt lat="46.147808" lon="6.189316">
        <ele>1259.502695</ele>
        <time>2017-06-01T12:58:36.000Z</time>
      </trkpt>
      <trkpt lat="46.147762" lon="6.189189">
        <ele>1260.176287</ele>
        <time>2017-06-01T12:58:42.000Z</time>
      </trkpt>
      <trkpt lat="46.147766" lon="6.189054">
        <ele>1260.811403</ele>
        <time>2017-06-01T12:58:47.000Z</time>
      </trkpt>
      <trkpt lat="46.147747" lon="6.188918">
        <ele>1261.463507</ele>
        <time>2017-06-01T12:58:52.000Z</time>
      </trkpt>
      <trkpt lat="46.147724" lon="6.188780">
        <ele>1262.130650</ele>
        <time>2017-06-01T12:58:58.000Z</time>
      </trkpt>
      <trkpt lat="46.147663" lon="6.188664">
        <ele>1262.815157</ele>
        <time>2017-06-01T12:59:02.000Z</time>
      </trkpt>
      <trkpt lat="46.147560" lon="6.188626">
        <ele>1263.536419</ele>
        <time>2017-06-01T12:59:07.000Z</time>
      </trkpt>
      <trkpt lat="46.147470" lon="6.188672">
        <ele>1264.184169</ele>
        <time>2017-06-01T12:59:12.000Z</time>
      </trkpt>
      <trkpt lat="46.147404" lon="6.188806">
        <ele>1264.956956</ele>
        <time>2017-06-01T12:59:17.000Z</time>
      </trkpt>
      <trkpt lat="46.147360" lon="6.188931">
        <ele>1265.615979</ele>
        <time>2017-06-01T12:59:21.000Z</time>
      </trkpt>
      <trkpt lat="46.147312" lon="6.189045">
        <ele>1266.243010</ele>
        <time>2017-06-01T12:59:25.000Z</time>
      </trkpt>
      <trkpt lat="46.147250" lon="6.189140">
        <ele>1266.856462</ele>
        <time>2017-06-01T12:59:29.000Z</time>
      </trkpt>
      <trkpt lat="46.147175" lon="6.189219">
        <ele>1267.486377</ele>
        <time>2017-06-01T12:59:33.000Z</time>
      </trkpt>
      <trkpt lat="46.147064" lon="6.189255">
        <ele>1268.259269</ele>
        <time>2017-06-01T12:59:38.000Z</time>
      </trkpt>
      <trkpt lat="46.146960" lon="6.189272">
        <ele>1268.975569</ele>
        <time>2017-06-01T12:59:43.000Z</time>
      </trkpt>
      <trkpt lat="46.146854" lon="6.189280">
        <ele>1269.701999</ele>
        <time>2017-06-01T12:59:48.000Z</time>
      </trkpt>
      <trkpt lat="46.146767" lon="6.189293">
        <ele>1270.300588</ele>
        <time>2017-06-01T12:59:52.000Z</time>
      </trkpt>
      <trkpt lat="46.146667" lon="6.189323">
        <ele>1270.999589</ele>
        <time>2017-06-01T12:59:57.000Z</time>
      </trkpt>
      <trkpt lat="46.146570" lon="6.189354">
        <ele>1271.679512</ele>
        <time>2017-06-01T13:00:02.000Z</time>
      </trkpt>
      <trkpt lat="46.146470" lon="6.189375">
        <ele>1272.371093</ele>
        <time>2017-06-01T13:00:07.000Z</time>
      </trkpt>
      <trkpt lat="46.146374" lon="6.189389">
        <ele>1273.031439</ele>
        <time>2017-06-01T13:00:12.000Z</time>
      </trkpt>
      <trkpt lat="46.146286" lon="6.189409">
        <ele>1273.641110</ele>
        <time>2017-06-01T13:00:17.000Z</time>
      </trkpt>
      <trkpt lat="46.146180" lon="6.189426">
        <ele>1274.371012</ele>
        <time>2017-06-01T13:00:22.000Z</time>
      </trkpt>
      <trkpt lat="46.146088" lon="6.189439">
        <ele>1275.003648</ele>
        <time>2017-06-01T13:00:27.000Z</time>
      </trkpt>
      <trkpt lat="46.145985" lon="6.189473">
        <ele>1275.726755</ele>
        <time>2017-06-01T13:00:32.000Z</time>
      </trkpt>
      <trkpt lat="46.145878" lon="6.189465">
        <ele>1276.460019</ele>
        <time>2017-06-01T13:00:37.000Z</time>
      </trkpt>
      <trkpt lat="46.145786" lon="6.189485">
        <ele>1277.096746</ele>
        <time>2017-06-01T13:00:41.000Z</time>
      </trkpt>
      <trkpt lat="46.145695" lon="6.189506">
        <ele>1277.727438</ele>
        <time>2017-06-01T13:00:45.000Z</time>
      </trkpt>
      <trkpt lat="46.145603" lon="6.189521">
        <ele>1278.361068</ele>
        <time>2017-06-01T13:00:49.000Z</time>
      </trkpt>
      <trkpt lat="46.145493" lon="6.189561">
        <ele>1279.137405</ele>
        <time>2017-06-01T13:00:54.000Z</time>
      </trkpt>
      <trkpt lat="46.145390" lon="6.189601">
        <ele>1279.867382</ele>
        <time>2017-06-01T13:00:59.000Z</time>
      </trkpt>
      <trkpt lat="46.145283" lon="6.189620">
        <ele>1280.548222</ele>
        <time>2017-06-01T13:01:04.000Z</time>
      </trkpt>
      <trkpt lat="46.145190" lon="6.189612">
        <ele>1280.954082</ele>
        <time>2017-06-01T13:01:08.000Z</time>
      </trkpt>
      <trkpt lat="46.145090" lon="6.189580">
        <ele>1281.400297</ele>
        <time>2017-06-01T13:01:13.000Z</time>
      </trkpt>
      <trkpt lat="46.144985" lon="6.189526">
        <ele>1281.885884</ele>
        <time>2017-06-01T13:01:18.000Z</time>
      </trkpt>
      <trkpt lat="46.144900" lon="6.189470">
        <ele>1282.292926</ele>
        <time>2017-06-01T13:01:22.000Z</time>
      </trkpt>
      <trkpt lat="46.144820" lon="6.189410">
        <ele>1282.685678</ele>
        <time>2017-06-01T13:01:26.000Z</time>
      </trkpt>
      <trkpt lat="46.144740" lon="6.189331">
        <ele>1283.107949</ele>
        <time>2017-06-01T13:01:31.000Z</time>
      </trkpt>
      <trkpt lat="46.144672" lon="6.189244">
        <ele>1283.503811</ele>
        <time>2017-06-01T13:01:35.000Z</time>
      </trkpt>
      <trkpt lat="46.144608" lon="6.189140">
        <ele>1283.923652</ele>
        <time>2017-06-01T13:01:39.000Z</time>
      </trkpt>
      <trkpt lat="46.144543" lon="6.189010">
        <ele>1284.407531</ele>
        <time>2017-06-01T13:01:44.000Z</time>
      </trkpt>
      <trkpt lat="46.144493" lon="6.188874">
        <ele>1284.872227</ele>
        <time>2017-06-01T13:01:49.000Z</time>
      </trkpt>
      <trkpt lat="46.144440" lon="6.188747">
        <ele>1285.319713</ele>
        <time>2017-06-01T13:01:54.000Z</time>
      </trkpt>
      <trkpt lat="46.144390" lon="6.188615">
        <ele>1285.773780</ele>
        <time>2017-06-01T13:01:59.000Z</time>
      </trkpt>
      <trkpt lat="46.144337" lon="6.188506">
        <ele>1286.175706</ele>
        <time>2017-06-01T13:02:03.000Z</time>
      </trkpt>
      <trkpt lat="46.144290" lon="6.188388">
        <ele>1286.586522</ele>
        <time>2017-06-01T13:02:07.000Z</time>
      </trkpt>
      <trkpt lat="46.144253" lon="6.188264">
        <ele>1286.994023</ele>
        <time>2017-06-01T13:02:11.000Z</time>
      </trkpt>
      <trkpt lat="46.144215" lon="6.188135">
        <ele>1287.417112</ele>
        <time>2017-06-01T13:02:15.000Z</time>
      </trkpt>
      <trkpt lat="46.144165" lon="6.188026">
        <ele>1287.811676</ele>
        <time>2017-06-01T13:02:19.000Z</time>
      </trkpt>
      <trkpt lat="46.144123" lon="6.187910">
        <ele>1288.206723</ele>
        <time>2017-06-01T13:02:23.000Z</time>
      </trkpt>
      <trkpt lat="46.144096" lon="6.187785">
        <ele>1288.615404</ele>
        <time>2017-06-01T13:02:27.000Z</time>
      </trkpt>
      <trkpt lat="46.144070" lon="6.187653">
        <ele>1289.047175</ele>
        <time>2017-06-01T13:02:31.000Z</time>
      </trkpt>
      <trkpt lat="46.144035" lon="6.187527">
        <ele>1289.474285</ele>
        <time>2017-06-01T13:02:35.000Z</time>
      </trkpt>
      <trkpt lat="46.144010" lon="6.187392">
        <ele>1289.913949</ele>
        <time>2017-06-01T13:02:39.000Z</time>
      </trkpt>
      <trkpt lat="46.143986" lon="6.187261">
        <ele>1290.340283</ele>
        <time>2017-06-01T13:02:43.000Z</time>
      </trkpt>
      <trkpt lat="46.143955" lon="6.187105">
        <ele>1290.850898</ele>
        <time>2017-06-01T13:02:48.000Z</time>
      </trkpt>
      <trkpt lat="46.143944" lon="6.186969">
        <ele>1291.281704</ele>
        <time>2017-06-01T13:02:52.000Z</time>
      </trkpt>
      <trkpt lat="46.143913" lon="6.186841">
        <ele>1291.708329</ele>
        <time>2017-06-01T13:02:56.000Z</time>
      </trkpt>
      <trkpt lat="46.143887" lon="6.186717">
        <ele>1292.115948</ele>
        <time>2017-06-01T13:03:00.000Z</time>
      </trkpt>
      <trkpt lat="46.143867" lon="6.186561">
        <ele>1292.615108</ele>
        <time>2017-06-01T13:03:05.000Z</time>
      </trkpt>
      <trkpt lat="46.143840" lon="6.186403">
        <ele>1293.127125</ele>
        <time>2017-06-01T13:03:10.000Z</time>
      </trkpt>
      <trkpt lat="46.143930" lon="6.186370">
        <ele>1293.548810</ele>
        <time>2017-06-01T13:03:22.000Z</time>
      </trkpt>
      <trkpt lat="46.143840" lon="6.186289">
        <ele>1294.030461</ele>
        <time>2017-06-01T13:03:40.000Z</time>
      </trkpt>
      <trkpt lat="46.143784" lon="6.186188">
        <ele>1294.437467</ele>
        <time>2017-06-01T13:03:44.000Z</time>
      </trkpt>
      <trkpt lat="46.143738" lon="6.186075">
        <ele>1294.849828</ele>
        <time>2017-06-01T13:03:48.000Z</time>
      </trkpt>
      <trkpt lat="46.143665" lon="6.185988">
        <ele>1295.279739</ele>
        <time>2017-06-01T13:03:52.000Z</time>
      </trkpt>
      <trkpt lat="46.143604" lon="6.185893">
        <ele>1295.687265</ele>
        <time>2017-06-01T13:03:56.000Z</time>
      </trkpt>
      <trkpt lat="46.143528" lon="6.185805">
        <ele>1296.129728</ele>
        <time>2017-06-01T13:04:00.000Z</time>
      </trkpt>
      <trkpt lat="46.143448" lon="6.185716">
        <ele>1296.571004</ele>
        <time>2017-06-01T13:04:04.000Z</time>
      </trkpt>
      <trkpt lat="46.143350" lon="6.185652">
        <ele>1296.997177</ele>
        <time>2017-06-01T13:04:08.000Z</time>
      </trkpt>
      <trkpt lat="46.143240" lon="6.185582">
        <ele>1297.473478</ele>
        <time>2017-06-01T13:04:12.000Z</time>
      </trkpt>
      <trkpt lat="46.143158" lon="6.185535">
        <ele>1297.823042</ele>
        <time>2017-06-01T13:04:15.000Z</time>
      </trkpt>
      <trkpt lat="46.143063" lon="6.185463">
        <ele>1298.248170</ele>
        <time>2017-06-01T13:04:19.000Z</time>
      </trkpt>
      <trkpt lat="46.142963" lon="6.185398">
        <ele>1298.682695</ele>
        <time>2017-06-01T13:04:23.000Z</time>
      </trkpt>
      <trkpt lat="46.142860" lon="6.185328">
        <ele>1299.133758</ele>
        <time>2017-06-01T13:04:27.000Z</time>
      </trkpt>
      <trkpt lat="46.142776" lon="6.185270">
        <ele>1299.502690</ele>
        <time>2017-06-01T13:04:30.000Z</time>
      </trkpt>
      <trkpt lat="46.142670" lon="6.185190">
        <ele>1299.976614</ele>
        <time>2017-06-01T13:04:34.000Z</time>
      </trkpt>
      <trkpt lat="46.142567" lon="6.185109">
        <ele>1300.441346</ele>
        <time>2017-06-01T13:04:38.000Z</time>
      </trkpt>
      <trkpt lat="46.142483" lon="6.185049">
        <ele>1300.812681</ele>
        <time>2017-06-01T13:04:41.000Z</time>
      </trkpt>
      <trkpt lat="46.142387" lon="6.184979">
        <ele>1301.238817</ele>
        <time>2017-06-01T13:04:44.000Z</time>
      </trkpt>
      <trkpt lat="46.142296" lon="6.184926">
        <ele>1301.627608</ele>
        <time>2017-06-01T13:04:47.000Z</time>
      </trkpt>
      <trkpt lat="46.142210" lon="6.184850">
        <ele>1302.027139</ele>
        <time>2017-06-01T13:04:50.000Z</time>
      </trkpt>
      <trkpt lat="46.142117" lon="6.184781">
        <ele>1302.441439</ele>
        <time>2017-06-01T13:04:53.000Z</time>
      </trkpt>
      <trkpt lat="46.142025" lon="6.184706">
        <ele>1302.860070</ele>
        <time>2017-06-01T13:04:56.000Z</time>
      </trkpt>
      <trkpt lat="46.141930" lon="6.184644">
        <ele>1303.273152</ele>
        <time>2017-06-01T13:04:59.000Z</time>
      </trkpt>
      <trkpt lat="46.141846" lon="6.184592">
        <ele>1303.613399</ele>
        <time>2017-06-01T13:05:01.000Z</time>
      </trkpt>
      <trkpt lat="46.141735" lon="6.184545">
        <ele>1303.896328</ele>
        <time>2017-06-01T13:05:04.000Z</time>
      </trkpt>
      <trkpt lat="46.141640" lon="6.184519">
        <ele>1304.132822</ele>
        <time>2017-06-01T13:05:07.000Z</time>
      </trkpt>
      <trkpt lat="46.141525" lon="6.184503">
        <ele>1304.415395</ele>
        <time>2017-06-01T13:05:10.000Z</time>
      </trkpt>
      <trkpt lat="46.141388" lon="6.184516">
        <ele>1304.751196</ele>
        <time>2017-06-01T13:05:13.000Z</time>
      </trkpt>
      <trkpt lat="46.141296" lon="6.184550">
        <ele>1304.983471</ele>
        <time>2017-06-01T13:05:15.000Z</time>
      </trkpt>
      <trkpt lat="46.141174" lon="6.184609">
        <ele>1305.298168</ele>
        <time>2017-06-01T13:05:18.000Z</time>
      </trkpt>
      <trkpt lat="46.141060" lon="6.184659">
        <ele>1305.589582</ele>
        <time>2017-06-01T13:05:21.000Z</time>
      </trkpt>
      <trkpt lat="46.140950" lon="6.184696">
        <ele>1305.865833</ele>
        <time>2017-06-01T13:05:24.000Z</time>
      </trkpt>
      <trkpt lat="46.140842" lon="6.184732">
        <ele>1306.136935</ele>
        <time>2017-06-01T13:05:27.000Z</time>
      </trkpt>
      <trkpt lat="46.140740" lon="6.184765">
        <ele>1306.392600</ele>
        <time>2017-06-01T13:05:30.000Z</time>
      </trkpt>
      <trkpt lat="46.140636" lon="6.184794">
        <ele>1306.651670</ele>
        <time>2017-06-01T13:05:33.000Z</time>
      </trkpt>
      <trkpt lat="46.140537" lon="6.184831">
        <ele>1306.901793</ele>
        <time>2017-06-01T13:05:36.000Z</time>
      </trkpt>
      <trkpt lat="46.140427" lon="6.184868">
        <ele>1307.178044</ele>
        <time>2017-06-01T13:05:40.000Z</time>
      </trkpt>
      <trkpt lat="46.140340" lon="6.184904">
        <ele>1307.399404</ele>
        <time>2017-06-01T13:05:44.000Z</time>
      </trkpt>
      <trkpt lat="46.140236" lon="6.184938">
        <ele>1307.660214</ele>
        <time>2017-06-01T13:05:49.000Z</time>
      </trkpt>
      <trkpt lat="46.140150" lon="6.184974">
        <ele>1307.879223</ele>
        <time>2017-06-01T13:05:53.000Z</time>
      </trkpt>
      <trkpt lat="46.140040" lon="6.184994">
        <ele>1308.375431</ele>
        <time>2017-06-01T13:05:58.000Z</time>
      </trkpt>
      <trkpt lat="46.139946" lon="6.185020">
        <ele>1308.913800</ele>
        <time>2017-06-01T13:06:03.000Z</time>
      </trkpt>
      <trkpt lat="46.139843" lon="6.184990">
        <ele>1309.504850</ele>
        <time>2017-06-01T13:06:08.000Z</time>
      </trkpt>
      <trkpt lat="46.139750" lon="6.184927">
        <ele>1310.082732</ele>
        <time>2017-06-01T13:06:13.000Z</time>
      </trkpt>
      <trkpt lat="46.139683" lon="6.184842">
        <ele>1310.584515</ele>
        <time>2017-06-01T13:06:18.000Z</time>
      </trkpt>
      <trkpt lat="46.139633" lon="6.184719">
        <ele>1311.140323</ele>
        <time>2017-06-01T13:06:23.000Z</time>
      </trkpt>
      <trkpt lat="46.139600" lon="6.184578">
        <ele>1311.720379</ele>
        <time>2017-06-01T13:06:28.000Z</time>
      </trkpt>
      <trkpt lat="46.139570" lon="6.184433">
        <ele>1312.310180</ele>
        <time>2017-06-01T13:06:33.000Z</time>
      </trkpt>
      <trkpt lat="46.139550" lon="6.184288">
        <ele>1312.886413</ele>
        <time>2017-06-01T13:06:38.000Z</time>
      </trkpt>
      <trkpt lat="46.139526" lon="6.184142">
        <ele>1313.471250</ele>
        <time>2017-06-01T13:06:43.000Z</time>
      </trkpt>
      <trkpt lat="46.139507" lon="6.183995">
        <ele>1314.054073</ele>
        <time>2017-06-01T13:06:48.000Z</time>
      </trkpt>
      <trkpt lat="46.139490" lon="6.183847">
        <ele>1314.638784</ele>
        <time>2017-06-01T13:06:53.000Z</time>
      </trkpt>
      <trkpt lat="46.139460" lon="6.183707">
        <ele>1315.209939</ele>
        <time>2017-06-01T13:06:58.000Z</time>
      </trkpt>
      <trkpt lat="46.139440" lon="6.183574">
        <ele>1315.740382</ele>
        <time>2017-06-01T13:07:03.000Z</time>
      </trkpt>
      <trkpt lat="46.139412" lon="6.183429">
        <ele>1316.327064</ele>
        <time>2017-06-01T13:07:08.000Z</time>
      </trkpt>
      <trkpt lat="46.139385" lon="6.183294">
        <ele>1316.874715</ele>
        <time>2017-06-01T13:07:13.000Z</time>
      </trkpt>
      <trkpt lat="46.139362" lon="6.183161">
        <ele>1317.408991</ele>
        <time>2017-06-01T13:07:18.000Z</time>
      </trkpt>
      <trkpt lat="46.139330" lon="6.183014">
        <ele>1318.009543</ele>
        <time>2017-06-01T13:07:23.000Z</time>
      </trkpt>
      <trkpt lat="46.139313" lon="6.182868">
        <ele>1318.605034</ele>
        <time>2017-06-01T13:07:28.000Z</time>
      </trkpt>
      <trkpt lat="46.139280" lon="6.182734">
        <ele>1319.180118</ele>
        <time>2017-06-01T13:07:33.000Z</time>
      </trkpt>
      <trkpt lat="46.139230" lon="6.182601">
        <ele>1319.792012</ele>
        <time>2017-06-01T13:07:38.000Z</time>
      </trkpt>
      <trkpt lat="46.139175" lon="6.182485">
        <ele>1320.360409</ele>
        <time>2017-06-01T13:07:43.000Z</time>
      </trkpt>
      <trkpt lat="46.139110" lon="6.182386">
        <ele>1320.911932</ele>
        <time>2017-06-01T13:07:48.000Z</time>
      </trkpt>
      <trkpt lat="46.139030" lon="6.182305">
        <ele>1321.482260</ele>
        <time>2017-06-01T13:07:53.000Z</time>
      </trkpt>
      <trkpt lat="46.138958" lon="6.182223">
        <ele>1322.017538</ele>
        <time>2017-06-01T13:07:58.000Z</time>
      </trkpt>
      <trkpt lat="46.138863" lon="6.182174">
        <ele>1322.606311</ele>
        <time>2017-06-01T13:08:03.000Z</time>
      </trkpt>
      <trkpt lat="46.138780" lon="6.182106">
        <ele>1323.163315</ele>
        <time>2017-06-01T13:08:08.000Z</time>
      </trkpt>
      <trkpt lat="46.138700" lon="6.182021">
        <ele>1323.743086</ele>
        <time>2017-06-01T13:08:13.000Z</time>
      </trkpt>
      <trkpt lat="46.138634" lon="6.181911">
        <ele>1324.331506</ele>
        <time>2017-06-01T13:08:18.000Z</time>
      </trkpt>
      <trkpt lat="46.138620" lon="6.181753">
        <ele>1324.975646</ele>
        <time>2017-06-01T13:08:23.000Z</time>
      </trkpt>
      <trkpt lat="46.138664" lon="6.181640">
        <ele>1325.499815</ele>
        <time>2017-06-01T13:08:27.000Z</time>
      </trkpt>
      <trkpt lat="46.138730" lon="6.181531">
        <ele>1326.085184</ele>
        <time>2017-06-01T13:08:32.000Z</time>
      </trkpt>
      <trkpt lat="46.138817" lon="6.181483">
        <ele>1326.628761</ele>
        <time>2017-06-01T13:08:37.000Z</time>
      </trkpt>
      <trkpt lat="46.138916" lon="6.181510">
        <ele>1327.216758</ele>
        <time>2017-06-01T13:08:42.000Z</time>
      </trkpt>
      <trkpt lat="46.139010" lon="6.181531">
        <ele>1327.771883</ele>
        <time>2017-06-01T13:08:46.000Z</time>
      </trkpt>
      <trkpt lat="46.139103" lon="6.181519">
        <ele>1328.316803</ele>
        <time>2017-06-01T13:08:50.000Z</time>
      </trkpt>
      <trkpt lat="46.139190" lon="6.181465">
        <ele>1328.651486</ele>
        <time>2017-06-01T13:08:54.000Z</time>
      </trkpt>
      <trkpt lat="46.139250" lon="6.181361">
        <ele>1328.769488</ele>
        <time>2017-06-01T13:08:58.000Z</time>
      </trkpt>
      <trkpt lat="46.139313" lon="6.181245">
        <ele>1328.898003</ele>
        <time>2017-06-01T13:09:02.000Z</time>
      </trkpt>
      <trkpt lat="46.139360" lon="6.181115">
        <ele>1329.025861</ele>
        <time>2017-06-01T13:09:06.000Z</time>
      </trkpt>
      <trkpt lat="46.139397" lon="6.180972">
        <ele>1329.158961</ele>
        <time>2017-06-01T13:09:10.000Z</time>
      </trkpt>
      <trkpt lat="46.139416" lon="6.180826">
        <ele>1329.288493</ele>
        <time>2017-06-01T13:09:14.000Z</time>
      </trkpt>
      <trkpt lat="46.139412" lon="6.180666">
        <ele>1329.428097</ele>
        <time>2017-06-01T13:09:18.000Z</time>
      </trkpt>
      <trkpt lat="46.139427" lon="6.180526">
        <ele>1329.551622</ele>
        <time>2017-06-01T13:09:22.000Z</time>
      </trkpt>
      <trkpt lat="46.139378" lon="6.180400">
        <ele>1329.677610</ele>
        <time>2017-06-01T13:09:29.000Z</time>
      </trkpt>
      <trkpt lat="46.139300" lon="6.180277">
        <ele>1329.822997</ele>
        <time>2017-06-01T13:09:34.000Z</time>
      </trkpt>
      <trkpt lat="46.139200" lon="6.180178">
        <ele>1329.975601</ele>
        <time>2017-06-01T13:09:38.000Z</time>
      </trkpt>
      <trkpt lat="46.139107" lon="6.180137">
        <ele>1330.097971</ele>
        <time>2017-06-01T13:09:40.000Z</time>
      </trkpt>
      <trkpt lat="46.139004" lon="6.180114">
        <ele>1330.229130</ele>
        <time>2017-06-01T13:09:42.000Z</time>
      </trkpt>
      <trkpt lat="46.138897" lon="6.180087">
        <ele>1330.365822</ele>
        <time>2017-06-01T13:09:44.000Z</time>
      </trkpt>
      <trkpt lat="46.138783" lon="6.180063">
        <ele>1330.510800</ele>
        <time>2017-06-01T13:09:46.000Z</time>
      </trkpt>
      <trkpt lat="46.138653" lon="6.180037">
        <ele>1330.675956</ele>
        <time>2017-06-01T13:09:48.000Z</time>
      </trkpt>
      <trkpt lat="46.138515" lon="6.180001">
        <ele>1330.852431</ele>
        <time>2017-06-01T13:09:50.000Z</time>
      </trkpt>
      <trkpt lat="46.138382" lon="6.179958">
        <ele>1331.150117</ele>
        <time>2017-06-01T13:09:52.000Z</time>
      </trkpt>
      <trkpt lat="46.138260" lon="6.179918">
        <ele>1331.425116</ele>
        <time>2017-06-01T13:09:54.000Z</time>
      </trkpt>
      <trkpt lat="46.138145" lon="6.179884">
        <ele>1331.683145</ele>
        <time>2017-06-01T13:09:56.000Z</time>
      </trkpt>
      <trkpt lat="46.138042" lon="6.179852">
        <ele>1331.914733</ele>
        <time>2017-06-01T13:09:58.000Z</time>
      </trkpt>
      <trkpt lat="46.137950" lon="6.179829">
        <ele>1332.119968</ele>
        <time>2017-06-01T13:10:00.000Z</time>
      </trkpt>
      <trkpt lat="46.137833" lon="6.179812">
        <ele>1332.378443</ele>
        <time>2017-06-01T13:10:03.000Z</time>
      </trkpt>
      <trkpt lat="46.137730" lon="6.179778">
        <ele>1332.610692</ele>
        <time>2017-06-01T13:10:06.000Z</time>
      </trkpt>
      <trkpt lat="46.137623" lon="6.179762">
        <ele>1332.847145</ele>
        <time>2017-06-01T13:10:09.000Z</time>
      </trkpt>
      <trkpt lat="46.137512" lon="6.179754">
        <ele>1333.091436</ele>
        <time>2017-06-01T13:10:12.000Z</time>
      </trkpt>
      <trkpt lat="46.137410" lon="6.179762">
        <ele>1333.315970</ele>
        <time>2017-06-01T13:10:15.000Z</time>
      </trkpt>
      <trkpt lat="46.137314" lon="6.179811">
        <ele>1333.539795</ele>
        <time>2017-06-01T13:10:18.000Z</time>
      </trkpt>
      <trkpt lat="46.137220" lon="6.179858">
        <ele>1333.758464</ele>
        <time>2017-06-01T13:10:21.000Z</time>
      </trkpt>
      <trkpt lat="46.137123" lon="6.179921">
        <ele>1333.992275</ele>
        <time>2017-06-01T13:10:24.000Z</time>
      </trkpt>
      <trkpt lat="46.137035" lon="6.180013">
        <ele>1334.231129</ele>
        <time>2017-06-01T13:10:27.000Z</time>
      </trkpt>
      <trkpt lat="46.136960" lon="6.180114">
        <ele>1334.456612</ele>
        <time>2017-06-01T13:10:30.000Z</time>
      </trkpt>
      <trkpt lat="46.136890" lon="6.180240">
        <ele>1334.702591</ele>
        <time>2017-06-01T13:10:33.000Z</time>
      </trkpt>
      <trkpt lat="46.136826" lon="6.180362">
        <ele>1335.017028</ele>
        <time>2017-06-01T13:10:36.000Z</time>
      </trkpt>
      <trkpt lat="46.136757" lon="6.180483">
        <ele>1335.408489</ele>
        <time>2017-06-01T13:10:39.000Z</time>
      </trkpt>
      <trkpt lat="46.136680" lon="6.180609">
        <ele>1335.828166</ele>
        <time>2017-06-01T13:10:42.000Z</time>
      </trkpt>
      <trkpt lat="46.136610" lon="6.180728">
        <ele>1336.218106</ele>
        <time>2017-06-01T13:10:45.000Z</time>
      </trkpt>
      <trkpt lat="46.136547" lon="6.180849">
        <ele>1336.596193</ele>
        <time>2017-06-01T13:10:48.000Z</time>
      </trkpt>
      <trkpt lat="46.136480" lon="6.180971">
        <ele>1336.985068</ele>
        <time>2017-06-01T13:10:51.000Z</time>
      </trkpt>
      <trkpt lat="46.136414" lon="6.181088">
        <ele>1337.361948</ele>
        <time>2017-06-01T13:10:54.000Z</time>
      </trkpt>
      <trkpt lat="46.136337" lon="6.181201">
        <ele>1337.757853</ele>
        <time>2017-06-01T13:10:57.000Z</time>
      </trkpt>
      <trkpt lat="46.136253" lon="6.181310">
        <ele>1338.165096</ele>
        <time>2017-06-01T13:11:00.000Z</time>
      </trkpt>
      <trkpt lat="46.136170" lon="6.181411">
        <ele>1338.556494</ele>
        <time>2017-06-01T13:11:03.000Z</time>
      </trkpt>
      <trkpt lat="46.136097" lon="6.181500">
        <ele>1338.901007</ele>
        <time>2017-06-01T13:11:06.000Z</time>
      </trkpt>
      <trkpt lat="46.136020" lon="6.181622">
        <ele>1339.313245</ele>
        <time>2017-06-01T13:11:10.000Z</time>
      </trkpt>
      <trkpt lat="46.135850" lon="6.181712">
        <ele>1339.966043</ele>
        <time>2017-06-01T13:11:58.000Z</time>
      </trkpt>
      <trkpt lat="46.135740" lon="6.181770">
        <ele>1340.388240</ele>
        <time>2017-06-01T13:12:02.000Z</time>
      </trkpt>
      <trkpt lat="46.135624" lon="6.181798">
        <ele>1340.812236</ele>
        <time>2017-06-01T13:12:07.000Z</time>
      </trkpt>
      <trkpt lat="46.135510" lon="6.181812">
        <ele>1341.224698</ele>
        <time>2017-06-01T13:12:10.000Z</time>
      </trkpt>
      <trkpt lat="46.135418" lon="6.181833">
        <ele>1341.297189</ele>
        <time>2017-06-01T13:12:13.000Z</time>
      </trkpt>
      <trkpt lat="46.135323" lon="6.181878">
        <ele>1341.303176</ele>
        <time>2017-06-01T13:12:16.000Z</time>
      </trkpt>
      <trkpt lat="46.135230" lon="6.181932">
        <ele>1341.309179</ele>
        <time>2017-06-01T13:12:19.000Z</time>
      </trkpt>
      <trkpt lat="46.135147" lon="6.181998">
        <ele>1341.314854</ele>
        <time>2017-06-01T13:12:22.000Z</time>
      </trkpt>
      <trkpt lat="46.135086" lon="6.182112">
        <ele>1341.320831</ele>
        <time>2017-06-01T13:12:25.000Z</time>
      </trkpt>
      <trkpt lat="46.135014" lon="6.182236">
        <ele>1341.327544</ele>
        <time>2017-06-01T13:12:28.000Z</time>
      </trkpt>
      <trkpt lat="46.134940" lon="6.182333">
        <ele>1341.333530</ele>
        <time>2017-06-01T13:12:31.000Z</time>
      </trkpt>
      <trkpt lat="46.134853" lon="6.182402">
        <ele>1341.339475</ele>
        <time>2017-06-01T13:12:34.000Z</time>
      </trkpt>
      <trkpt lat="46.134760" lon="6.182457">
        <ele>1341.345493</ele>
        <time>2017-06-01T13:12:37.000Z</time>
      </trkpt>
      <trkpt lat="46.134663" lon="6.182480">
        <ele>1341.351380</ele>
        <time>2017-06-01T13:12:40.000Z</time>
      </trkpt>
      <trkpt lat="46.134556" lon="6.182471">
        <ele>1341.357798</ele>
        <time>2017-06-01T13:12:43.000Z</time>
      </trkpt>
      <trkpt lat="46.134434" lon="6.182430">
        <ele>1341.365299</ele>
        <time>2017-06-01T13:12:46.000Z</time>
      </trkpt>
      <trkpt lat="46.134330" lon="6.182337">
        <ele>1341.372625</ele>
        <time>2017-06-01T13:12:49.000Z</time>
      </trkpt>
      <trkpt lat="46.134220" lon="6.182223">
        <ele>1341.380735</ele>
        <time>2017-06-01T13:12:52.000Z</time>
      </trkpt>
      <trkpt lat="46.134140" lon="6.182146">
        <ele>1341.386493</ele>
        <time>2017-06-01T13:12:54.000Z</time>
      </trkpt>
      <trkpt lat="46.134060" lon="6.182077">
        <ele>1341.392074</ele>
        <time>2017-06-01T13:12:56.000Z</time>
      </trkpt>
      <trkpt lat="46.133957" lon="6.181972">
        <ele>1341.399626</ele>
        <time>2017-06-01T13:12:59.000Z</time>
      </trkpt>
      <trkpt lat="46.133870" lon="6.181882">
        <ele>1341.229849</ele>
        <time>2017-06-01T13:13:02.000Z</time>
      </trkpt>
      <trkpt lat="46.133790" lon="6.181788">
        <ele>1341.041271</ele>
        <time>2017-06-01T13:13:05.000Z</time>
      </trkpt>
      <trkpt lat="46.133710" lon="6.181711">
        <ele>1340.865495</ele>
        <time>2017-06-01T13:13:08.000Z</time>
      </trkpt>
      <trkpt lat="46.133617" lon="6.181639">
        <ele>1340.672579</ele>
        <time>2017-06-01T13:13:12.000Z</time>
      </trkpt>
      <trkpt lat="46.133550" lon="6.181539">
        <ele>1340.496385</ele>
        <time>2017-06-01T13:13:17.000Z</time>
      </trkpt>
      <trkpt lat="46.133510" lon="6.181392">
        <ele>1340.296339</ele>
        <time>2017-06-01T13:13:22.000Z</time>
      </trkpt>
      <trkpt lat="46.133476" lon="6.181263">
        <ele>1340.121514</ele>
        <time>2017-06-01T13:13:25.000Z</time>
      </trkpt>
      <trkpt lat="46.133446" lon="6.181126">
        <ele>1339.939517</ele>
        <time>2017-06-01T13:13:28.000Z</time>
      </trkpt>
      <trkpt lat="46.133450" lon="6.180975">
        <ele>1339.748104</ele>
        <time>2017-06-01T13:13:31.000Z</time>
      </trkpt>
      <trkpt lat="46.133450" lon="6.180783">
        <ele>1339.504896</ele>
        <time>2017-06-01T13:13:34.000Z</time>
      </trkpt>
      <trkpt lat="46.133460" lon="6.180645">
        <ele>1339.329138</ele>
        <time>2017-06-01T13:13:36.000Z</time>
      </trkpt>
      <trkpt lat="46.133470" lon="6.180497">
        <ele>1339.140776</ele>
        <time>2017-06-01T13:13:38.000Z</time>
      </trkpt>
      <trkpt lat="46.133472" lon="6.180341">
        <ele>1338.943136</ele>
        <time>2017-06-01T13:13:40.000Z</time>
      </trkpt>
      <trkpt lat="46.133476" lon="6.180195">
        <ele>1338.758052</ele>
        <time>2017-06-01T13:13:42.000Z</time>
      </trkpt>
      <trkpt lat="46.133476" lon="6.180049">
        <ele>1338.573113</ele>
        <time>2017-06-01T13:13:44.000Z</time>
      </trkpt>
      <trkpt lat="46.133476" lon="6.179905">
        <ele>1338.390707</ele>
        <time>2017-06-01T13:13:46.000Z</time>
      </trkpt>
      <trkpt lat="46.133476" lon="6.179770">
        <ele>1338.219701</ele>
        <time>2017-06-01T13:13:48.000Z</time>
      </trkpt>
      <trkpt lat="46.133484" lon="6.179635">
        <ele>1337.847632</ele>
        <time>2017-06-01T13:13:50.000Z</time>
      </trkpt>
      <trkpt lat="46.133495" lon="6.179434">
        <ele>1336.799969</ele>
        <time>2017-06-01T13:13:53.000Z</time>
      </trkpt>
      <trkpt lat="46.133500" lon="6.179279">
        <ele>1335.993705</ele>
        <time>2017-06-01T13:13:55.000Z</time>
      </trkpt>
      <trkpt lat="46.133507" lon="6.179122">
        <ele>1335.176234</ele>
        <time>2017-06-01T13:13:57.000Z</time>
      </trkpt>
      <trkpt lat="46.133514" lon="6.178968">
        <ele>1334.374319</ele>
        <time>2017-06-01T13:13:59.000Z</time>
      </trkpt>
      <trkpt lat="46.133522" lon="6.178829">
        <ele>1333.649577</ele>
        <time>2017-06-01T13:14:01.000Z</time>
      </trkpt>
      <trkpt lat="46.133526" lon="6.178652">
        <ele>1332.729383</ele>
        <time>2017-06-01T13:14:04.000Z</time>
      </trkpt>
      <trkpt lat="46.133533" lon="6.178502">
        <ele>1331.948207</ele>
        <time>2017-06-01T13:14:07.000Z</time>
      </trkpt>
      <trkpt lat="46.133545" lon="6.178371">
        <ele>1331.261600</ele>
        <time>2017-06-01T13:14:10.000Z</time>
      </trkpt>
      <trkpt lat="46.133540" lon="6.178206">
        <ele>1330.403429</ele>
        <time>2017-06-01T13:14:13.000Z</time>
      </trkpt>
      <trkpt lat="46.133533" lon="6.178061">
        <ele>1329.648172</ele>
        <time>2017-06-01T13:14:15.000Z</time>
      </trkpt>
      <trkpt lat="46.133510" lon="6.177895">
        <ele>1328.768552</ele>
        <time>2017-06-01T13:14:17.000Z</time>
      </trkpt>
      <trkpt lat="46.133480" lon="6.177722">
        <ele>1327.841913</ele>
        <time>2017-06-01T13:14:19.000Z</time>
      </trkpt>
      <trkpt lat="46.133427" lon="6.177548">
        <ele>1326.854311</ele>
        <time>2017-06-01T13:14:21.000Z</time>
      </trkpt>
      <trkpt lat="46.133373" lon="6.177362">
        <ele>1325.806450</ele>
        <time>2017-06-01T13:14:23.000Z</time>
      </trkpt>
      <trkpt lat="46.133320" lon="6.177162">
        <ele>1324.693839</ele>
        <time>2017-06-01T13:14:25.000Z</time>
      </trkpt>
      <trkpt lat="46.133266" lon="6.176961">
        <ele>1323.728103</ele>
        <time>2017-06-01T13:14:27.000Z</time>
      </trkpt>
      <trkpt lat="46.133213" lon="6.176760">
        <ele>1322.774588</ele>
        <time>2017-06-01T13:14:29.000Z</time>
      </trkpt>
      <trkpt lat="46.133150" lon="6.176560">
        <ele>1321.800528</ele>
        <time>2017-06-01T13:14:31.000Z</time>
      </trkpt>
      <trkpt lat="46.133087" lon="6.176367">
        <ele>1320.854634</ele>
        <time>2017-06-01T13:14:33.000Z</time>
      </trkpt>
      <trkpt lat="46.133010" lon="6.176179">
        <ele>1319.886387</ele>
        <time>2017-06-01T13:14:35.000Z</time>
      </trkpt>
      <trkpt lat="46.132896" lon="6.176024">
        <ele>1318.884249</ele>
        <time>2017-06-01T13:14:37.000Z</time>
      </trkpt>
      <trkpt lat="46.132730" lon="6.175935">
        <ele>1317.751237</ele>
        <time>2017-06-01T13:14:39.000Z</time>
      </trkpt>
      <trkpt lat="46.132633" lon="6.175922">
        <ele>1317.127956</ele>
        <time>2017-06-01T13:14:40.000Z</time>
      </trkpt>
      <trkpt lat="46.132540" lon="6.175921">
        <ele>1316.532922</ele>
        <time>2017-06-01T13:14:41.000Z</time>
      </trkpt>
      <trkpt lat="46.132450" lon="6.175923">
        <ele>1315.957030</ele>
        <time>2017-06-01T13:14:42.000Z</time>
      </trkpt>
      <trkpt lat="46.132270" lon="6.175915">
        <ele>1314.804836</ele>
        <time>2017-06-01T13:14:44.000Z</time>
      </trkpt>
      <trkpt lat="46.132175" lon="6.175898">
        <ele>1314.192366</ele>
        <time>2017-06-01T13:14:45.000Z</time>
      </trkpt>
      <trkpt lat="46.132088" lon="6.175871">
        <ele>1313.623009</ele>
        <time>2017-06-01T13:14:46.000Z</time>
      </trkpt>
      <trkpt lat="46.131912" lon="6.175810">
        <ele>1312.532015</ele>
        <time>2017-06-01T13:14:48.000Z</time>
      </trkpt>
      <trkpt lat="46.131750" lon="6.175726">
        <ele>1311.543721</ele>
        <time>2017-06-01T13:14:50.000Z</time>
      </trkpt>
      <trkpt lat="46.131580" lon="6.175649">
        <ele>1310.520768</ele>
        <time>2017-06-01T13:14:52.000Z</time>
      </trkpt>
      <trkpt lat="46.131416" lon="6.175585">
        <ele>1309.545391</ele>
        <time>2017-06-01T13:14:54.000Z</time>
      </trkpt>
      <trkpt lat="46.131264" lon="6.175499">
        <ele>1308.608047</ele>
        <time>2017-06-01T13:14:56.000Z</time>
      </trkpt>
      <trkpt lat="46.131110" lon="6.175404">
        <ele>1307.646501</ele>
        <time>2017-06-01T13:14:58.000Z</time>
      </trkpt>
      <trkpt lat="46.130947" lon="6.175344">
        <ele>1306.680719</ele>
        <time>2017-06-01T13:15:00.000Z</time>
      </trkpt>
      <trkpt lat="46.130770" lon="6.175317">
        <ele>1305.658868</ele>
        <time>2017-06-01T13:15:02.000Z</time>
      </trkpt>
      <trkpt lat="46.130680" lon="6.175316">
        <ele>1305.142147</ele>
        <time>2017-06-01T13:15:03.000Z</time>
      </trkpt>
      <trkpt lat="46.130585" lon="6.175327">
        <ele>1304.594981</ele>
        <time>2017-06-01T13:15:04.000Z</time>
      </trkpt>
      <trkpt lat="46.130486" lon="6.175348">
        <ele>1304.020496</ele>
        <time>2017-06-01T13:15:05.000Z</time>
      </trkpt>
      <trkpt lat="46.130386" lon="6.175363">
        <ele>1303.443284</ele>
        <time>2017-06-01T13:15:06.000Z</time>
      </trkpt>
      <trkpt lat="46.130283" lon="6.175380">
        <ele>1302.848087</ele>
        <time>2017-06-01T13:15:07.000Z</time>
      </trkpt>
      <trkpt lat="46.130184" lon="6.175388">
        <ele>1302.313899</ele>
        <time>2017-06-01T13:15:08.000Z</time>
      </trkpt>
      <trkpt lat="46.130085" lon="6.175394">
        <ele>1301.783904</ele>
        <time>2017-06-01T13:15:09.000Z</time>
      </trkpt>
      <trkpt lat="46.129990" lon="6.175396">
        <ele>1301.275717</ele>
        <time>2017-06-01T13:15:10.000Z</time>
      </trkpt>
      <trkpt lat="46.129898" lon="6.175396">
        <ele>1300.783630</ele>
        <time>2017-06-01T13:15:11.000Z</time>
      </trkpt>
      <trkpt lat="46.129803" lon="6.175398">
        <ele>1300.275443</ele>
        <time>2017-06-01T13:15:12.000Z</time>
      </trkpt>
      <trkpt lat="46.129710" lon="6.175391">
        <ele>1299.777331</ele>
        <time>2017-06-01T13:15:13.000Z</time>
      </trkpt>
      <trkpt lat="46.129620" lon="6.175393">
        <ele>1299.295885</ele>
        <time>2017-06-01T13:15:14.000Z</time>
      </trkpt>
      <trkpt lat="46.129524" lon="6.175388">
        <ele>1298.782069</ele>
        <time>2017-06-01T13:15:15.000Z</time>
      </trkpt>
      <trkpt lat="46.129430" lon="6.175386">
        <ele>1298.279230</ele>
        <time>2017-06-01T13:15:16.000Z</time>
      </trkpt>
      <trkpt lat="46.129340" lon="6.175389">
        <ele>1297.797713</ele>
        <time>2017-06-01T13:15:17.000Z</time>
      </trkpt>
      <trkpt lat="46.129160" lon="6.175378">
        <ele>1296.834071</ele>
        <time>2017-06-01T13:15:19.000Z</time>
      </trkpt>
      <trkpt lat="46.128990" lon="6.175372">
        <ele>1295.924509</ele>
        <time>2017-06-01T13:15:21.000Z</time>
      </trkpt>
      <trkpt lat="46.128810" lon="6.175359">
        <ele>1294.960525</ele>
        <time>2017-06-01T13:15:23.000Z</time>
      </trkpt>
      <trkpt lat="46.128720" lon="6.175341">
        <ele>1294.474534</ele>
        <time>2017-06-01T13:15:24.000Z</time>
      </trkpt>
      <trkpt lat="46.128548" lon="6.175277">
        <ele>1293.524449</ele>
        <time>2017-06-01T13:15:26.000Z</time>
      </trkpt>
      <trkpt lat="46.128380" lon="6.175218">
        <ele>1292.437574</ele>
        <time>2017-06-01T13:15:28.000Z</time>
      </trkpt>
      <trkpt lat="46.128197" lon="6.175186">
        <ele>1291.172207</ele>
        <time>2017-06-01T13:15:30.000Z</time>
      </trkpt>
      <trkpt lat="46.128100" lon="6.175178">
        <ele>1290.505278</ele>
        <time>2017-06-01T13:15:31.000Z</time>
      </trkpt>
      <trkpt lat="46.128006" lon="6.175171">
        <ele>1289.859170</ele>
        <time>2017-06-01T13:15:32.000Z</time>
      </trkpt>
      <trkpt lat="46.127907" lon="6.175174">
        <ele>1289.179449</ele>
        <time>2017-06-01T13:15:33.000Z</time>
      </trkpt>
      <trkpt lat="46.127808" lon="6.175180">
        <ele>1288.499279</ele>
        <time>2017-06-01T13:15:34.000Z</time>
      </trkpt>
      <trkpt lat="46.127716" lon="6.175185">
        <ele>1287.867311</ele>
        <time>2017-06-01T13:15:35.000Z</time>
      </trkpt>
      <trkpt lat="46.127625" lon="6.175188">
        <ele>1287.242492</ele>
        <time>2017-06-01T13:15:36.000Z</time>
      </trkpt>
      <trkpt lat="46.127533" lon="6.175191">
        <ele>1286.610810</ele>
        <time>2017-06-01T13:15:37.000Z</time>
      </trkpt>
      <trkpt lat="46.127357" lon="6.175187">
        <ele>1285.402534</ele>
        <time>2017-06-01T13:15:39.000Z</time>
      </trkpt>
      <trkpt lat="46.127186" lon="6.175161">
        <ele>1284.222231</ele>
        <time>2017-06-01T13:15:41.000Z</time>
      </trkpt>
      <trkpt lat="46.127018" lon="6.175114">
        <ele>1283.047543</ele>
        <time>2017-06-01T13:15:43.000Z</time>
      </trkpt>
      <trkpt lat="46.126858" lon="6.175059">
        <ele>1281.918508</ele>
        <time>2017-06-01T13:15:45.000Z</time>
      </trkpt>
      <trkpt lat="46.126717" lon="6.174995">
        <ele>1280.903873</ele>
        <time>2017-06-01T13:15:47.000Z</time>
      </trkpt>
      <trkpt lat="46.126600" lon="6.174898">
        <ele>1279.665161</ele>
        <time>2017-06-01T13:15:49.000Z</time>
      </trkpt>
      <trkpt lat="46.126495" lon="6.174750">
        <ele>1278.286053</ele>
        <time>2017-06-01T13:15:51.000Z</time>
      </trkpt>
      <trkpt lat="46.126410" lon="6.174566">
        <ele>1276.846162</ele>
        <time>2017-06-01T13:15:53.000Z</time>
      </trkpt>
      <trkpt lat="46.126324" lon="6.174365">
        <ele>1275.308015</ele>
        <time>2017-06-01T13:15:55.000Z</time>
      </trkpt>
      <trkpt lat="46.126230" lon="6.174164">
        <ele>1273.729086</ele>
        <time>2017-06-01T13:15:57.000Z</time>
      </trkpt>
      <trkpt lat="46.126130" lon="6.173976">
        <ele>1272.185925</ele>
        <time>2017-06-01T13:15:59.000Z</time>
      </trkpt>
      <trkpt lat="46.126040" lon="6.173801">
        <ele>1270.766932</ele>
        <time>2017-06-01T13:16:01.000Z</time>
      </trkpt>
      <trkpt lat="46.125960" lon="6.173626">
        <ele>1269.401837</ele>
        <time>2017-06-01T13:16:03.000Z</time>
      </trkpt>
      <trkpt lat="46.125890" lon="6.173447">
        <ele>1268.063509</ele>
        <time>2017-06-01T13:16:05.000Z</time>
      </trkpt>
      <trkpt lat="46.125828" lon="6.173256">
        <ele>1266.690128</ele>
        <time>2017-06-01T13:16:07.000Z</time>
      </trkpt>
      <trkpt lat="46.125793" lon="6.173071">
        <ele>1265.441395</ele>
        <time>2017-06-01T13:16:09.000Z</time>
      </trkpt>
      <trkpt lat="46.125774" lon="6.172900">
        <ele>1264.313681</ele>
        <time>2017-06-01T13:16:11.000Z</time>
      </trkpt>
      <trkpt lat="46.125763" lon="6.172735">
        <ele>1263.515979</ele>
        <time>2017-06-01T13:16:13.000Z</time>
      </trkpt>
      <trkpt lat="46.125725" lon="6.172579">
        <ele>1262.877591</ele>
        <time>2017-06-01T13:16:15.000Z</time>
      </trkpt>
      <trkpt lat="46.125652" lon="6.172439">
        <ele>1262.201204</ele>
        <time>2017-06-01T13:16:17.000Z</time>
      </trkpt>
      <trkpt lat="46.125550" lon="6.172319">
        <ele>1261.468082</ele>
        <time>2017-06-01T13:16:19.000Z</time>
      </trkpt>
      <trkpt lat="46.125427" lon="6.172226">
        <ele>1260.694543</ele>
        <time>2017-06-01T13:16:21.000Z</time>
      </trkpt>
      <trkpt lat="46.125298" lon="6.172142">
        <ele>1259.906169</ele>
        <time>2017-06-01T13:16:23.000Z</time>
      </trkpt>
      <trkpt lat="46.125168" lon="6.172047">
        <ele>1259.094430</ele>
        <time>2017-06-01T13:16:25.000Z</time>
      </trkpt>
      <trkpt lat="46.125050" lon="6.171950">
        <ele>1258.337924</ele>
        <time>2017-06-01T13:16:27.000Z</time>
      </trkpt>
      <trkpt lat="46.124935" lon="6.171862">
        <ele>1257.612807</ele>
        <time>2017-06-01T13:16:29.000Z</time>
      </trkpt>
      <trkpt lat="46.124836" lon="6.171783">
        <ele>1256.982611</ele>
        <time>2017-06-01T13:16:31.000Z</time>
      </trkpt>
      <trkpt lat="46.124733" lon="6.171708">
        <ele>1256.339932</ele>
        <time>2017-06-01T13:16:33.000Z</time>
      </trkpt>
      <trkpt lat="46.124634" lon="6.171633">
        <ele>1255.717063</ele>
        <time>2017-06-01T13:16:35.000Z</time>
      </trkpt>
      <trkpt lat="46.124546" lon="6.171575">
        <ele>1255.178143</ele>
        <time>2017-06-01T13:16:37.000Z</time>
      </trkpt>
      <trkpt lat="46.124450" lon="6.171528">
        <ele>1254.613435</ele>
        <time>2017-06-01T13:16:40.000Z</time>
      </trkpt>
      <trkpt lat="46.124360" lon="6.171478">
        <ele>1254.076216</ele>
        <time>2017-06-01T13:16:45.000Z</time>
      </trkpt>
      <trkpt lat="46.124268" lon="6.171433">
        <ele>1253.521008</ele>
        <time>2017-06-01T13:16:53.000Z</time>
      </trkpt>
      <trkpt lat="46.124165" lon="6.171387">
        <ele>1252.897659</ele>
        <time>2017-06-01T13:19:14.000Z</time>
      </trkpt>
      <trkpt lat="46.124077" lon="6.171347">
        <ele>1252.364254</ele>
        <time>2017-06-01T13:19:17.000Z</time>
      </trkpt>
      <trkpt lat="46.123970" lon="6.171292">
        <ele>1251.707569</ele>
        <time>2017-06-01T13:19:20.000Z</time>
      </trkpt>
      <trkpt lat="46.123886" lon="6.171240">
        <ele>1251.179126</ele>
        <time>2017-06-01T13:19:22.000Z</time>
      </trkpt>
      <trkpt lat="46.123802" lon="6.171183">
        <ele>1250.642468</ele>
        <time>2017-06-01T13:19:24.000Z</time>
      </trkpt>
      <trkpt lat="46.123722" lon="6.171120">
        <ele>1250.115554</ele>
        <time>2017-06-01T13:19:26.000Z</time>
      </trkpt>
      <trkpt lat="46.123634" lon="6.171042">
        <ele>1249.518463</ele>
        <time>2017-06-01T13:19:28.000Z</time>
      </trkpt>
      <trkpt lat="46.123540" lon="6.170969">
        <ele>1248.901296</ele>
        <time>2017-06-01T13:19:30.000Z</time>
      </trkpt>
      <trkpt lat="46.123440" lon="6.170890">
        <ele>1248.242173</ele>
        <time>2017-06-01T13:19:32.000Z</time>
      </trkpt>
      <trkpt lat="46.123337" lon="6.170800">
        <ele>1247.546007</ele>
        <time>2017-06-01T13:19:34.000Z</time>
      </trkpt>
      <trkpt lat="46.123234" lon="6.170717">
        <ele>1246.863949</ele>
        <time>2017-06-01T13:19:36.000Z</time>
      </trkpt>
      <trkpt lat="46.123130" lon="6.170636">
        <ele>1246.180680</ele>
        <time>2017-06-01T13:19:38.000Z</time>
      </trkpt>
      <trkpt lat="46.123024" lon="6.170559">
        <ele>1245.494571</ele>
        <time>2017-06-01T13:19:40.000Z</time>
      </trkpt>
      <trkpt lat="46.122902" lon="6.170497">
        <ele>1244.746776</ele>
        <time>2017-06-01T13:19:42.000Z</time>
      </trkpt>
      <trkpt lat="46.122760" lon="6.170484">
        <ele>1243.924180</ele>
        <time>2017-06-01T13:19:44.000Z</time>
      </trkpt>
      <trkpt lat="46.122620" lon="6.170517">
        <ele>1243.072811</ele>
        <time>2017-06-01T13:19:46.000Z</time>
      </trkpt>
      <trkpt lat="46.122480" lon="6.170569">
        <ele>1242.172451</ele>
        <time>2017-06-01T13:19:48.000Z</time>
      </trkpt>
      <trkpt lat="46.122337" lon="6.170672">
        <ele>1241.177017</ele>
        <time>2017-06-01T13:19:50.000Z</time>
      </trkpt>
      <trkpt lat="46.122204" lon="6.170810">
        <ele>1240.156714</ele>
        <time>2017-06-01T13:19:52.000Z</time>
      </trkpt>
      <trkpt lat="46.122070" lon="6.170952">
        <ele>1239.121220</ele>
        <time>2017-06-01T13:19:54.000Z</time>
      </trkpt>
      <trkpt lat="46.121930" lon="6.171083">
        <ele>1238.081962</ele>
        <time>2017-06-01T13:19:56.000Z</time>
      </trkpt>
      <trkpt lat="46.121784" lon="6.171168">
        <ele>1237.101421</ele>
        <time>2017-06-01T13:19:58.000Z</time>
      </trkpt>
      <trkpt lat="46.121640" lon="6.171218">
        <ele>1236.178971</ele>
        <time>2017-06-01T13:20:00.000Z</time>
      </trkpt>
      <trkpt lat="46.121500" lon="6.171258">
        <ele>1235.290108</ele>
        <time>2017-06-01T13:20:02.000Z</time>
      </trkpt>
      <trkpt lat="46.121357" lon="6.171288">
        <ele>1234.390128</ele>
        <time>2017-06-01T13:20:04.000Z</time>
      </trkpt>
      <trkpt lat="46.121210" lon="6.171326">
        <ele>1233.460022</ele>
        <time>2017-06-01T13:20:06.000Z</time>
      </trkpt>
      <trkpt lat="46.121067" lon="6.171389">
        <ele>1232.528809</ele>
        <time>2017-06-01T13:20:08.000Z</time>
      </trkpt>
      <trkpt lat="46.120930" lon="6.171487">
        <ele>1231.855758</ele>
        <time>2017-06-01T13:20:10.000Z</time>
      </trkpt>
      <trkpt lat="46.120810" lon="6.171607">
        <ele>1231.294343</ele>
        <time>2017-06-01T13:20:12.000Z</time>
      </trkpt>
      <trkpt lat="46.120705" lon="6.171725">
        <ele>1230.782573</ele>
        <time>2017-06-01T13:20:14.000Z</time>
      </trkpt>
      <trkpt lat="46.120575" lon="6.171824">
        <ele>1230.217346</ele>
        <time>2017-06-01T13:20:16.000Z</time>
      </trkpt>
      <trkpt lat="46.120430" lon="6.171879">
        <ele>1229.640859</ele>
        <time>2017-06-01T13:20:18.000Z</time>
      </trkpt>
      <trkpt lat="46.120270" lon="6.171894">
        <ele>1229.024346</ele>
        <time>2017-06-01T13:20:20.000Z</time>
      </trkpt>
      <trkpt lat="46.120113" lon="6.171887">
        <ele>1228.420377</ele>
        <time>2017-06-01T13:20:22.000Z</time>
      </trkpt>
      <trkpt lat="46.119980" lon="6.171884">
        <ele>1227.908917</ele>
        <time>2017-06-01T13:20:24.000Z</time>
      </trkpt>
      <trkpt lat="46.119865" lon="6.171877">
        <ele>1227.466338</ele>
        <time>2017-06-01T13:20:26.000Z</time>
      </trkpt>
      <trkpt lat="46.119762" lon="6.171857">
        <ele>1227.066721</ele>
        <time>2017-06-01T13:20:28.000Z</time>
      </trkpt>
      <trkpt lat="46.119675" lon="6.171820">
        <ele>1226.717966</ele>
        <time>2017-06-01T13:20:30.000Z</time>
      </trkpt>
      <trkpt lat="46.119590" lon="6.171738">
        <ele>1226.324794</ele>
        <time>2017-06-01T13:20:32.000Z</time>
      </trkpt>
      <trkpt lat="46.119534" lon="6.171617">
        <ele>1225.937020</ele>
        <time>2017-06-01T13:20:34.000Z</time>
      </trkpt>
      <trkpt lat="46.119470" lon="6.171467">
        <ele>1225.467564</ele>
        <time>2017-06-01T13:20:37.000Z</time>
      </trkpt>
      <trkpt lat="46.119446" lon="6.171332">
        <ele>1225.812989</ele>
        <time>2017-06-01T13:20:40.000Z</time>
      </trkpt>
      <trkpt lat="46.119423" lon="6.171198">
        <ele>1226.341018</ele>
        <time>2017-06-01T13:20:45.000Z</time>
      </trkpt>
      <trkpt lat="46.119465" lon="6.171080">
        <ele>1226.848395</ele>
        <time>2017-06-01T13:20:53.000Z</time>
      </trkpt>
      <trkpt lat="46.119473" lon="6.170933">
        <ele>1227.412399</ele>
        <time>2017-06-01T13:20:59.000Z</time>
      </trkpt>
      <trkpt lat="46.119465" lon="6.170802">
        <ele>1227.915413</ele>
        <time>2017-06-01T13:21:04.000Z</time>
      </trkpt>
      <trkpt lat="46.119450" lon="6.170667">
        <ele>1228.438379</ele>
        <time>2017-06-01T13:21:09.000Z</time>
      </trkpt>
      <trkpt lat="46.119408" lon="6.170533">
        <ele>1229.000893</ele>
        <time>2017-06-01T13:21:14.000Z</time>
      </trkpt>
      <trkpt lat="46.119370" lon="6.170404">
        <ele>1229.537026</ele>
        <time>2017-06-01T13:21:19.000Z</time>
      </trkpt>
      <trkpt lat="46.119350" lon="6.170263">
        <ele>1230.087527</ele>
        <time>2017-06-01T13:21:24.000Z</time>
      </trkpt>
      <trkpt lat="46.119347" lon="6.170120">
        <ele>1230.634753</ele>
        <time>2017-06-01T13:21:29.000Z</time>
      </trkpt>
      <trkpt lat="46.119354" lon="6.169979">
        <ele>1231.175459</ele>
        <time>2017-06-01T13:21:34.000Z</time>
      </trkpt>
      <trkpt lat="46.119373" lon="6.169843">
        <ele>1231.706120</ele>
        <time>2017-06-01T13:21:39.000Z</time>
      </trkpt>
      <trkpt lat="46.119385" lon="6.169704">
        <ele>1232.241902</ele>
        <time>2017-06-01T13:21:44.000Z</time>
      </trkpt>
      <trkpt lat="46.119366" lon="6.169564">
        <ele>1232.787569</ele>
        <time>2017-06-01T13:21:49.000Z</time>
      </trkpt>
      <trkpt lat="46.119347" lon="6.169430">
        <ele>1233.310733</ele>
        <time>2017-06-01T13:21:54.000Z</time>
      </trkpt>
      <trkpt lat="46.119328" lon="6.169292">
        <ele>1233.848895</ele>
        <time>2017-06-01T13:21:59.000Z</time>
      </trkpt>
      <trkpt lat="46.119300" lon="6.169161">
        <ele>1234.373251</ele>
        <time>2017-06-01T13:22:04.000Z</time>
      </trkpt>
      <trkpt lat="46.119280" lon="6.169028">
        <ele>1234.893810</ele>
        <time>2017-06-01T13:22:09.000Z</time>
      </trkpt>
      <trkpt lat="46.119267" lon="6.168887">
        <ele>1235.458493</ele>
        <time>2017-06-01T13:22:14.000Z</time>
      </trkpt>
      <trkpt lat="46.119255" lon="6.168749">
        <ele>1236.080279</ele>
        <time>2017-06-01T13:22:19.000Z</time>
      </trkpt>
      <trkpt lat="46.119250" lon="6.168618">
        <ele>1236.666822</ele>
        <time>2017-06-01T13:22:24.000Z</time>
      </trkpt>
      <trkpt lat="46.119240" lon="6.168482">
        <ele>1237.278242</ele>
        <time>2017-06-01T13:22:29.000Z</time>
      </trkpt>
      <trkpt lat="46.119240" lon="6.168337">
        <ele>1237.926487</ele>
        <time>2017-06-01T13:22:34.000Z</time>
      </trkpt>
      <trkpt lat="46.119240" lon="6.168202">
        <ele>1238.530026</ele>
        <time>2017-06-01T13:22:39.000Z</time>
      </trkpt>
      <trkpt lat="46.119247" lon="6.168065">
        <ele>1239.144167</ele>
        <time>2017-06-01T13:22:44.000Z</time>
      </trkpt>
      <trkpt lat="46.119270" lon="6.167914">
        <ele>1239.835343</ele>
        <time>2017-06-01T13:22:50.000Z</time>
      </trkpt>
      <trkpt lat="46.119293" lon="6.167785">
        <ele>1240.430830</ele>
        <time>2017-06-01T13:22:55.000Z</time>
      </trkpt>
      <trkpt lat="46.119312" lon="6.167644">
        <ele>1241.072992</ele>
        <time>2017-06-01T13:23:00.000Z</time>
      </trkpt>
      <trkpt lat="46.119340" lon="6.167508">
        <ele>1241.707254</ele>
        <time>2017-06-01T13:23:05.000Z</time>
      </trkpt>
      <trkpt lat="46.119358" lon="6.167374">
        <ele>1242.317466</ele>
        <time>2017-06-01T13:23:10.000Z</time>
      </trkpt>
      <trkpt lat="46.119366" lon="6.167237">
        <ele>1242.932114</ele>
        <time>2017-06-01T13:23:15.000Z</time>
      </trkpt>
      <trkpt lat="46.119377" lon="6.167100">
        <ele>1243.548687</ele>
        <time>2017-06-01T13:23:20.000Z</time>
      </trkpt>
      <trkpt lat="46.119380" lon="6.166955">
        <ele>1244.197220</ele>
        <time>2017-06-01T13:23:25.000Z</time>
      </trkpt>
      <trkpt lat="46.119373" lon="6.166810">
        <ele>1244.847033</ele>
        <time>2017-06-01T13:23:30.000Z</time>
      </trkpt>
      <trkpt lat="46.119360" lon="6.166662">
        <ele>1245.513980</ele>
        <time>2017-06-01T13:23:35.000Z</time>
      </trkpt>
      <trkpt lat="46.119347" lon="6.166515">
        <ele>1246.176492</ele>
        <time>2017-06-01T13:23:40.000Z</time>
      </trkpt>
      <trkpt lat="46.119343" lon="6.166374">
        <ele>1246.807381</ele>
        <time>2017-06-01T13:23:45.000Z</time>
      </trkpt>
      <trkpt lat="46.119340" lon="6.166231">
        <ele>1247.449327</ele>
        <time>2017-06-01T13:23:50.000Z</time>
      </trkpt>
      <trkpt lat="46.119305" lon="6.166096">
        <ele>1248.096554</ele>
        <time>2017-06-01T13:23:55.000Z</time>
      </trkpt>
      <trkpt lat="46.119312" lon="6.165964">
        <ele>1248.691026</ele>
        <time>2017-06-01T13:24:00.000Z</time>
      </trkpt>
      <trkpt lat="46.119297" lon="6.165817">
        <ele>1249.358237</ele>
        <time>2017-06-01T13:24:05.000Z</time>
      </trkpt>
      <trkpt lat="46.119278" lon="6.165680">
        <ele>1249.985623</ele>
        <time>2017-06-01T13:24:10.000Z</time>
      </trkpt>
      <trkpt lat="46.119240" lon="6.165545">
        <ele>1250.639912</ele>
        <time>2017-06-01T13:24:15.000Z</time>
      </trkpt>
      <trkpt lat="46.119198" lon="6.165407">
        <ele>1251.316698</ele>
        <time>2017-06-01T13:24:20.000Z</time>
      </trkpt>
      <trkpt lat="46.119152" lon="6.165284">
        <ele>1251.944288</ele>
        <time>2017-06-01T13:24:25.000Z</time>
      </trkpt>
      <trkpt lat="46.119087" lon="6.165175">
        <ele>1252.589955</ele>
        <time>2017-06-01T13:24:30.000Z</time>
      </trkpt>
      <trkpt lat="46.119064" lon="6.165045">
        <ele>1253.192432</ele>
        <time>2017-06-01T13:24:35.000Z</time>
      </trkpt>
      <trkpt lat="46.119020" lon="6.164930">
        <ele>1253.782282</ele>
        <time>2017-06-01T13:24:40.000Z</time>
      </trkpt>
      <trkpt lat="46.118950" lon="6.164829">
        <ele>1254.423639</ele>
        <time>2017-06-01T13:24:45.000Z</time>
      </trkpt>
      <trkpt lat="46.118896" lon="6.164722">
        <ele>1255.017980</ele>
        <time>2017-06-01T13:24:50.000Z</time>
      </trkpt>
      <trkpt lat="46.118870" lon="6.164594">
        <ele>1255.616934</ele>
        <time>2017-06-01T13:24:55.000Z</time>
      </trkpt>
      <trkpt lat="46.118790" lon="6.164500">
        <ele>1256.285340</ele>
        <time>2017-06-01T13:25:00.000Z</time>
      </trkpt>
      <trkpt lat="46.118736" lon="6.164377">
        <ele>1256.939135</ele>
        <time>2017-06-01T13:25:06.000Z</time>
      </trkpt>
      <trkpt lat="46.118683" lon="6.164256">
        <ele>1257.581877</ele>
        <time>2017-06-01T13:25:11.000Z</time>
      </trkpt>
      <trkpt lat="46.118603" lon="6.164174">
        <ele>1258.217629</ele>
        <time>2017-06-01T13:25:16.000Z</time>
      </trkpt>
      <trkpt lat="46.118560" lon="6.164046">
        <ele>1258.923516</ele>
        <time>2017-06-01T13:25:21.000Z</time>
      </trkpt>
      <trkpt lat="46.118492" lon="6.163947">
        <ele>1259.695390</ele>
        <time>2017-06-01T13:25:26.000Z</time>
      </trkpt>
      <trkpt lat="46.118427" lon="6.163827">
        <ele>1260.538823</ele>
        <time>2017-06-01T13:25:31.000Z</time>
      </trkpt>
      <trkpt lat="46.118370" lon="6.163724">
        <ele>1261.268755</ele>
        <time>2017-06-01T13:25:35.000Z</time>
      </trkpt>
      <trkpt lat="46.118280" lon="6.163650">
        <ele>1262.096418</ele>
        <time>2017-06-01T13:25:40.000Z</time>
      </trkpt>
      <trkpt lat="46.118230" lon="6.163523">
        <ele>1262.905306</ele>
        <time>2017-06-01T13:25:45.000Z</time>
      </trkpt>
      <trkpt lat="46.118134" lon="6.163448">
        <ele>1263.777566</ele>
        <time>2017-06-01T13:25:50.000Z</time>
      </trkpt>
      <trkpt lat="46.118070" lon="6.163324">
        <ele>1264.633771</ele>
        <time>2017-06-01T13:25:55.000Z</time>
      </trkpt>
      <trkpt lat="46.117966" lon="6.163281">
        <ele>1265.498153</ele>
        <time>2017-06-01T13:26:00.000Z</time>
      </trkpt>
      <trkpt lat="46.117893" lon="6.163183">
        <ele>1266.294870</ele>
        <time>2017-06-01T13:26:05.000Z</time>
      </trkpt>
      <trkpt lat="46.117798" lon="6.163151">
        <ele>1267.074308</ele>
        <time>2017-06-01T13:26:10.000Z</time>
      </trkpt>
      <trkpt lat="46.117720" lon="6.163078">
        <ele>1267.817160</ele>
        <time>2017-06-01T13:26:15.000Z</time>
      </trkpt>
      <trkpt lat="46.117638" lon="6.163012">
        <ele>1268.567386</ele>
        <time>2017-06-01T13:26:20.000Z</time>
      </trkpt>
      <trkpt lat="46.117540" lon="6.162942">
        <ele>1269.441098</ele>
        <time>2017-06-01T13:26:25.000Z</time>
      </trkpt>
      <trkpt lat="46.117455" lon="6.162899">
        <ele>1270.160768</ele>
        <time>2017-06-01T13:26:29.000Z</time>
      </trkpt>
      <trkpt lat="46.117370" lon="6.162838">
        <ele>1270.919283</ele>
        <time>2017-06-01T13:26:33.000Z</time>
      </trkpt>
      <trkpt lat="46.117280" lon="6.162777">
        <ele>1271.713765</ele>
        <time>2017-06-01T13:26:37.000Z</time>
      </trkpt>
      <trkpt lat="46.117172" lon="6.162732">
        <ele>1272.611924</ele>
        <time>2017-06-01T13:26:42.000Z</time>
      </trkpt>
      <trkpt lat="46.117090" lon="6.162667">
        <ele>1273.250220</ele>
        <time>2017-06-01T13:26:47.000Z</time>
      </trkpt>
      <trkpt lat="46.116993" lon="6.162615">
        <ele>1273.862102</ele>
        <time>2017-06-01T13:26:52.000Z</time>
      </trkpt>
      <trkpt lat="46.116900" lon="6.162531">
        <ele>1274.510903</ele>
        <time>2017-06-01T13:26:57.000Z</time>
      </trkpt>
      <trkpt lat="46.116825" lon="6.162461">
        <ele>1275.039100</ele>
        <time>2017-06-01T13:27:01.000Z</time>
      </trkpt>
      <trkpt lat="46.116734" lon="6.162462">
        <ele>1275.577198</ele>
        <time>2017-06-01T13:27:05.000Z</time>
      </trkpt>
      <trkpt lat="46.116642" lon="6.162373">
        <ele>1276.232185</ele>
        <time>2017-06-01T13:27:10.000Z</time>
      </trkpt>
      <trkpt lat="46.116558" lon="6.162321">
        <ele>1276.772676</ele>
        <time>2017-06-01T13:27:14.000Z</time>
      </trkpt>
      <trkpt lat="46.116450" lon="6.162332">
        <ele>1277.412869</ele>
        <time>2017-06-01T13:27:19.000Z</time>
      </trkpt>
      <trkpt lat="46.116367" lon="6.162280">
        <ele>1277.947933</ele>
        <time>2017-06-01T13:27:24.000Z</time>
      </trkpt>
      <trkpt lat="46.116270" lon="6.162229">
        <ele>1278.558400</ele>
        <time>2017-06-01T13:27:30.000Z</time>
      </trkpt>
      <trkpt lat="46.116165" lon="6.162236">
        <ele>1279.179927</ele>
        <time>2017-06-01T13:27:35.000Z</time>
      </trkpt>
      <trkpt lat="46.116077" lon="6.162181">
        <ele>1279.747007</ele>
        <time>2017-06-01T13:27:40.000Z</time>
      </trkpt>
      <trkpt lat="46.115974" lon="6.162149">
        <ele>1280.370010</ele>
        <time>2017-06-01T13:27:45.000Z</time>
      </trkpt>
      <trkpt lat="46.115894" lon="6.162087">
        <ele>1280.906991</ele>
        <time>2017-06-01T13:27:50.000Z</time>
      </trkpt>
      <trkpt lat="46.115810" lon="6.162033">
        <ele>1281.450769</ele>
        <time>2017-06-01T13:27:54.000Z</time>
      </trkpt>
      <trkpt lat="46.115715" lon="6.162025">
        <ele>1282.013460</ele>
        <time>2017-06-01T13:27:59.000Z</time>
      </trkpt>
      <trkpt lat="46.115640" lon="6.161942">
        <ele>1282.572399</ele>
        <time>2017-06-01T13:28:04.000Z</time>
      </trkpt>
      <trkpt lat="46.115547" lon="6.161849">
        <ele>1283.241512</ele>
        <time>2017-06-01T13:28:10.000Z</time>
      </trkpt>
      <trkpt lat="46.115470" lon="6.161738">
        <ele>1283.857002</ele>
        <time>2017-06-01T13:28:15.000Z</time>
      </trkpt>
      <trkpt lat="46.115402" lon="6.161631">
        <ele>1284.398037</ele>
        <time>2017-06-01T13:28:19.000Z</time>
      </trkpt>
      <trkpt lat="46.115350" lon="6.161502">
        <ele>1284.954222</ele>
        <time>2017-06-01T13:28:24.000Z</time>
      </trkpt>
      <trkpt lat="46.115330" lon="6.161374">
        <ele>1285.443268</ele>
        <time>2017-06-01T13:28:28.000Z</time>
      </trkpt>
      <trkpt lat="46.115270" lon="6.161272">
        <ele>1285.941867</ele>
        <time>2017-06-01T13:28:33.000Z</time>
      </trkpt>
      <trkpt lat="46.115257" lon="6.161132">
        <ele>1286.468331</ele>
        <time>2017-06-01T13:28:37.000Z</time>
      </trkpt>
      <trkpt lat="46.115190" lon="6.161018">
        <ele>1287.025385</ele>
        <time>2017-06-01T13:28:42.000Z</time>
      </trkpt>
      <trkpt lat="46.115160" lon="6.160873">
        <ele>1287.589382</ele>
        <time>2017-06-01T13:28:47.000Z</time>
      </trkpt>
      <trkpt lat="46.115105" lon="6.160742">
        <ele>1288.160212</ele>
        <time>2017-06-01T13:28:52.000Z</time>
      </trkpt>
      <trkpt lat="46.115040" lon="6.160626">
        <ele>1288.716151</ele>
        <time>2017-06-01T13:28:57.000Z</time>
      </trkpt>
      <trkpt lat="46.114975" lon="6.160498">
        <ele>1289.307543</ele>
        <time>2017-06-01T13:29:02.000Z</time>
      </trkpt>
      <trkpt lat="46.114925" lon="6.160384">
        <ele>1289.810347</ele>
        <time>2017-06-01T13:29:07.000Z</time>
      </trkpt>
      <trkpt lat="46.114857" lon="6.160276">
        <ele>1290.354139</ele>
        <time>2017-06-01T13:29:12.000Z</time>
      </trkpt>
      <trkpt lat="46.114803" lon="6.160162">
        <ele>1290.868763</ele>
        <time>2017-06-01T13:29:17.000Z</time>
      </trkpt>
      <trkpt lat="46.114740" lon="6.160043">
        <ele>1291.426852</ele>
        <time>2017-06-01T13:29:22.000Z</time>
      </trkpt>
      <trkpt lat="46.114643" lon="6.159978">
        <ele>1292.001914</ele>
        <time>2017-06-01T13:29:27.000Z</time>
      </trkpt>
      <trkpt lat="46.114582" lon="6.159867">
        <ele>1292.529866</ele>
        <time>2017-06-01T13:29:32.000Z</time>
      </trkpt>
      <trkpt lat="46.114500" lon="6.159798">
        <ele>1293.040280</ele>
        <time>2017-06-01T13:29:37.000Z</time>
      </trkpt>
      <trkpt lat="46.114410" lon="6.159717">
        <ele>1293.568271</ele>
        <time>2017-06-01T13:29:42.000Z</time>
      </trkpt>
      <trkpt lat="46.114338" lon="6.159606">
        <ele>1294.069168</ele>
        <time>2017-06-01T13:29:47.000Z</time>
      </trkpt>
      <trkpt lat="46.114250" lon="6.159523">
        <ele>1294.568928</ele>
        <time>2017-06-01T13:29:52.000Z</time>
      </trkpt>
      <trkpt lat="46.114166" lon="6.159430">
        <ele>1295.072243</ele>
        <time>2017-06-01T13:29:57.000Z</time>
      </trkpt>
      <trkpt lat="46.114075" lon="6.159340">
        <ele>1295.596687</ele>
        <time>2017-06-01T13:30:02.000Z</time>
      </trkpt>
      <trkpt lat="46.113980" lon="6.159267">
        <ele>1296.108317</ele>
        <time>2017-06-01T13:30:07.000Z</time>
      </trkpt>
      <trkpt lat="46.113880" lon="6.159197">
        <ele>1296.636650</ele>
        <time>2017-06-01T13:30:12.000Z</time>
      </trkpt>
      <trkpt lat="46.113800" lon="6.159139">
        <ele>1297.062236</ele>
        <time>2017-06-01T13:30:16.000Z</time>
      </trkpt>
      <trkpt lat="46.113716" lon="6.159082">
        <ele>1297.503479</ele>
        <time>2017-06-01T13:30:20.000Z</time>
      </trkpt>
      <trkpt lat="46.113613" lon="6.159010">
        <ele>1298.047519</ele>
        <time>2017-06-01T13:30:25.000Z</time>
      </trkpt>
      <trkpt lat="46.113530" lon="6.158938">
        <ele>1298.507880</ele>
        <time>2017-06-01T13:30:29.000Z</time>
      </trkpt>
      <trkpt lat="46.113450" lon="6.158867">
        <ele>1298.954346</ele>
        <time>2017-06-01T13:30:33.000Z</time>
      </trkpt>
      <trkpt lat="46.113365" lon="6.158793">
        <ele>1299.426252</ele>
        <time>2017-06-01T13:30:37.000Z</time>
      </trkpt>
      <trkpt lat="46.113280" lon="6.158719">
        <ele>1299.898157</ele>
        <time>2017-06-01T13:30:41.000Z</time>
      </trkpt>
      <trkpt lat="46.113197" lon="6.158637">
        <ele>1300.376335</ele>
        <time>2017-06-01T13:30:45.000Z</time>
      </trkpt>
      <trkpt lat="46.113117" lon="6.158558">
        <ele>1300.837162</ele>
        <time>2017-06-01T13:30:49.000Z</time>
      </trkpt>
      <trkpt lat="46.113037" lon="6.158483">
        <ele>1301.290675</ele>
        <time>2017-06-01T13:30:53.000Z</time>
      </trkpt>
      <trkpt lat="46.112957" lon="6.158403">
        <ele>1301.753372</ele>
        <time>2017-06-01T13:30:57.000Z</time>
      </trkpt>
      <trkpt lat="46.112885" lon="6.158326">
        <ele>1302.185604</ele>
        <time>2017-06-01T13:31:01.000Z</time>
      </trkpt>
      <trkpt lat="46.112800" lon="6.158238">
        <ele>1302.690936</ele>
        <time>2017-06-01T13:31:06.000Z</time>
      </trkpt>
      <trkpt lat="46.112710" lon="6.158170">
        <ele>1303.181644</ele>
        <time>2017-06-01T13:31:11.000Z</time>
      </trkpt>
      <trkpt lat="46.112640" lon="6.158088">
        <ele>1303.617176</ele>
        <time>2017-06-01T13:31:15.000Z</time>
      </trkpt>
      <trkpt lat="46.112560" lon="6.158017">
        <ele>1304.070842</ele>
        <time>2017-06-01T13:31:19.000Z</time>
      </trkpt>
      <trkpt lat="46.112476" lon="6.157938">
        <ele>1304.555165</ele>
        <time>2017-06-01T13:31:23.000Z</time>
      </trkpt>
      <trkpt lat="46.112400" lon="6.157857">
        <ele>1305.011561</ele>
        <time>2017-06-01T13:31:27.000Z</time>
      </trkpt>
      <trkpt lat="46.112324" lon="6.157781">
        <ele>1305.458211</ele>
        <time>2017-06-01T13:31:31.000Z</time>
      </trkpt>
      <trkpt lat="46.112244" lon="6.157694">
        <ele>1305.942106</ele>
        <time>2017-06-01T13:31:35.000Z</time>
      </trkpt>
      <trkpt lat="46.112164" lon="6.157610">
        <ele>1306.420022</ele>
        <time>2017-06-01T13:31:39.000Z</time>
      </trkpt>
      <trkpt lat="46.112090" lon="6.157525">
        <ele>1306.876907</ele>
        <time>2017-06-01T13:31:43.000Z</time>
      </trkpt>
      <trkpt lat="46.112015" lon="6.157451">
        <ele>1307.315782</ele>
        <time>2017-06-01T13:31:47.000Z</time>
      </trkpt>
      <trkpt lat="46.111942" lon="6.157365">
        <ele>1307.771010</ele>
        <time>2017-06-01T13:31:51.000Z</time>
      </trkpt>
      <trkpt lat="46.111866" lon="6.157279">
        <ele>1308.237550</ele>
        <time>2017-06-01T13:31:55.000Z</time>
      </trkpt>
      <trkpt lat="46.111794" lon="6.157196">
        <ele>1308.682708</ele>
        <time>2017-06-01T13:31:59.000Z</time>
      </trkpt>
      <trkpt lat="46.111713" lon="6.157122">
        <ele>1309.145792</ele>
        <time>2017-06-01T13:32:03.000Z</time>
      </trkpt>
      <trkpt lat="46.111633" lon="6.157053">
        <ele>1309.595987</ele>
        <time>2017-06-01T13:32:07.000Z</time>
      </trkpt>
      <trkpt lat="46.111553" lon="6.156977">
        <ele>1310.058647</ele>
        <time>2017-06-01T13:32:11.000Z</time>
      </trkpt>
      <trkpt lat="46.111460" lon="6.156907">
        <ele>1310.560336</ele>
        <time>2017-06-01T13:32:15.000Z</time>
      </trkpt>
      <trkpt lat="46.111380" lon="6.156839">
        <ele>1310.982126</ele>
        <time>2017-06-01T13:32:19.000Z</time>
      </trkpt>
      <trkpt lat="46.111300" lon="6.156767">
        <ele>1311.410448</ele>
        <time>2017-06-01T13:32:23.000Z</time>
      </trkpt>
      <trkpt lat="46.111225" lon="6.156681">
        <ele>1311.845654</ele>
        <time>2017-06-01T13:32:27.000Z</time>
      </trkpt>
      <trkpt lat="46.111150" lon="6.156611">
        <ele>1312.251429</ele>
        <time>2017-06-01T13:32:31.000Z</time>
      </trkpt>
      <trkpt lat="46.111070" lon="6.156532">
        <ele>1312.691817</ele>
        <time>2017-06-01T13:32:35.000Z</time>
      </trkpt>
      <trkpt lat="46.110980" lon="6.156473">
        <ele>1313.140871</ele>
        <time>2017-06-01T13:32:39.000Z</time>
      </trkpt>
      <trkpt lat="46.110893" lon="6.156401">
        <ele>1313.596481</ele>
        <time>2017-06-01T13:32:44.000Z</time>
      </trkpt>
      <trkpt lat="46.110817" lon="6.156320">
        <ele>1314.025714</ele>
        <time>2017-06-01T13:32:48.000Z</time>
      </trkpt>
      <trkpt lat="46.110718" lon="6.156279">
        <ele>1314.493578</ele>
        <time>2017-06-01T13:32:53.000Z</time>
      </trkpt>
      <trkpt lat="46.110640" lon="6.156164">
        <ele>1315.000215</ele>
        <time>2017-06-01T13:32:58.000Z</time>
      </trkpt>
      <trkpt lat="46.110530" lon="6.156124">
        <ele>1315.515510</ele>
        <time>2017-06-01T13:33:03.000Z</time>
      </trkpt>
      <trkpt lat="46.110450" lon="6.156020">
        <ele>1316.004706</ele>
        <time>2017-06-01T13:33:08.000Z</time>
      </trkpt>
      <trkpt lat="46.110367" lon="6.155963">
        <ele>1316.422273</ele>
        <time>2017-06-01T13:33:12.000Z</time>
      </trkpt>
      <trkpt lat="46.110280" lon="6.155901">
        <ele>1316.863061</ele>
        <time>2017-06-01T13:33:16.000Z</time>
      </trkpt>
      <trkpt lat="46.110200" lon="6.155831">
        <ele>1317.288085</ele>
        <time>2017-06-01T13:33:20.000Z</time>
      </trkpt>
      <trkpt lat="46.110110" lon="6.155765">
        <ele>1317.746699</ele>
        <time>2017-06-01T13:33:24.000Z</time>
      </trkpt>
      <trkpt lat="46.110030" lon="6.155699">
        <ele>1318.165329</ele>
        <time>2017-06-01T13:33:28.000Z</time>
      </trkpt>
      <trkpt lat="46.109950" lon="6.155633">
        <ele>1318.583959</ele>
        <time>2017-06-01T13:33:32.000Z</time>
      </trkpt>
      <trkpt lat="46.109870" lon="6.155566">
        <ele>1319.085999</ele>
        <time>2017-06-01T13:33:36.000Z</time>
      </trkpt>
      <trkpt lat="46.109787" lon="6.155493">
        <ele>1319.630199</ele>
        <time>2017-06-01T13:33:40.000Z</time>
      </trkpt>
      <trkpt lat="46.109703" lon="6.155435">
        <ele>1320.151533</ele>
        <time>2017-06-01T13:33:44.000Z</time>
      </trkpt>
      <trkpt lat="46.109620" lon="6.155380">
        <ele>1320.662855</ele>
        <time>2017-06-01T13:33:48.000Z</time>
      </trkpt>
      <trkpt lat="46.109535" lon="6.155315">
        <ele>1321.201422</ele>
        <time>2017-06-01T13:33:52.000Z</time>
      </trkpt>
      <trkpt lat="46.109455" lon="6.155260">
        <ele>1321.697533</ele>
        <time>2017-06-01T13:33:56.000Z</time>
      </trkpt>
      <trkpt lat="46.109370" lon="6.155197">
        <ele>1322.232508</ele>
        <time>2017-06-01T13:34:00.000Z</time>
      </trkpt>
      <trkpt lat="46.109272" lon="6.155121">
        <ele>1322.855380</ele>
        <time>2017-06-01T13:34:05.000Z</time>
      </trkpt>
      <trkpt lat="46.109184" lon="6.155059">
        <ele>1323.403633</ele>
        <time>2017-06-01T13:34:09.000Z</time>
      </trkpt>
      <trkpt lat="46.109080" lon="6.155009">
        <ele>1324.017316</ele>
        <time>2017-06-01T13:34:14.000Z</time>
      </trkpt>
      <trkpt lat="46.109000" lon="6.154941">
        <ele>1324.537135</ele>
        <time>2017-06-01T13:34:18.000Z</time>
      </trkpt>
      <trkpt lat="46.108917" lon="6.154886">
        <ele>1325.048458</ele>
        <time>2017-06-01T13:34:22.000Z</time>
      </trkpt>
      <trkpt lat="46.108830" lon="6.154823">
        <ele>1325.593417</ele>
        <time>2017-06-01T13:34:26.000Z</time>
      </trkpt>
      <trkpt lat="46.108740" lon="6.154760">
        <ele>1326.153436</ele>
        <time>2017-06-01T13:34:30.000Z</time>
      </trkpt>
      <trkpt lat="46.108658" lon="6.154700">
        <ele>1326.668161</ele>
        <time>2017-06-01T13:34:34.000Z</time>
      </trkpt>
      <trkpt lat="46.108578" lon="6.154638">
        <ele>1327.176554</ele>
        <time>2017-06-01T13:34:38.000Z</time>
      </trkpt>
      <trkpt lat="46.108494" lon="6.154588">
        <ele>1327.685256</ele>
        <time>2017-06-01T13:34:42.000Z</time>
      </trkpt>
      <trkpt lat="46.108400" lon="6.154512">
        <ele>1328.288501</ele>
        <time>2017-06-01T13:34:47.000Z</time>
      </trkpt>
      <trkpt lat="46.108315" lon="6.154455">
        <ele>1328.801998</ele>
        <time>2017-06-01T13:34:51.000Z</time>
      </trkpt>
      <trkpt lat="46.108234" lon="6.154387">
        <ele>1329.262771</ele>
        <time>2017-06-01T13:34:55.000Z</time>
      </trkpt>
      <trkpt lat="46.108143" lon="6.154324">
        <ele>1329.759034</ele>
        <time>2017-06-01T13:34:59.000Z</time>
      </trkpt>
      <trkpt lat="46.108060" lon="6.154254">
        <ele>1330.231736</ele>
        <time>2017-06-01T13:35:03.000Z</time>
      </trkpt>
      <trkpt lat="46.107970" lon="6.154187">
        <ele>1330.729675</ele>
        <time>2017-06-01T13:35:07.000Z</time>
      </trkpt>
      <trkpt lat="46.107883" lon="6.154124">
        <ele>1331.208285</ele>
        <time>2017-06-01T13:35:11.000Z</time>
      </trkpt>
      <trkpt lat="46.107800" lon="6.154062">
        <ele>1331.667827</ele>
        <time>2017-06-01T13:35:15.000Z</time>
      </trkpt>
      <trkpt lat="46.107710" lon="6.154005">
        <ele>1332.151084</ele>
        <time>2017-06-01T13:35:19.000Z</time>
      </trkpt>
      <trkpt lat="46.107616" lon="6.153954">
        <ele>1332.644843</ele>
        <time>2017-06-01T13:35:23.000Z</time>
      </trkpt>
      <trkpt lat="46.107517" lon="6.153895">
        <ele>1333.171482</ele>
        <time>2017-06-01T13:35:27.000Z</time>
      </trkpt>
      <trkpt lat="46.107420" lon="6.153851">
        <ele>1333.671405</ele>
        <time>2017-06-01T13:35:31.000Z</time>
      </trkpt>
      <trkpt lat="46.107330" lon="6.153806">
        <ele>1334.139718</ele>
        <time>2017-06-01T13:35:35.000Z</time>
      </trkpt>
      <trkpt lat="46.107240" lon="6.153758">
        <ele>1334.611478</ele>
        <time>2017-06-01T13:35:39.000Z</time>
      </trkpt>
      <trkpt lat="46.107140" lon="6.153698">
        <ele>1335.143965</ele>
        <time>2017-06-01T13:35:43.000Z</time>
      </trkpt>
      <trkpt lat="46.107033" lon="6.153650">
        <ele>1335.694881</ele>
        <time>2017-06-01T13:35:47.000Z</time>
      </trkpt>
      <trkpt lat="46.106934" lon="6.153607">
        <ele>1336.203199</ele>
        <time>2017-06-01T13:35:51.000Z</time>
      </trkpt>
      <trkpt lat="46.106840" lon="6.153552">
        <ele>1336.701924</ele>
        <time>2017-06-01T13:35:55.000Z</time>
      </trkpt>
      <trkpt lat="46.106740" lon="6.153500">
        <ele>1337.224544</ele>
        <time>2017-06-01T13:35:59.000Z</time>
      </trkpt>
      <trkpt lat="46.106636" lon="6.153445">
        <ele>1337.635072</ele>
        <time>2017-06-01T13:36:03.000Z</time>
      </trkpt>
      <trkpt lat="46.106533" lon="6.153391">
        <ele>1337.822076</ele>
        <time>2017-06-01T13:36:07.000Z</time>
      </trkpt>
      <trkpt lat="46.106422" lon="6.153344">
        <ele>1338.019473</ele>
        <time>2017-06-01T13:36:11.000Z</time>
      </trkpt>
      <trkpt lat="46.106330" lon="6.153321">
        <ele>1338.178797</ele>
        <time>2017-06-01T13:36:14.000Z</time>
      </trkpt>
      <trkpt lat="46.106236" lon="6.153301">
        <ele>1338.340929</ele>
        <time>2017-06-01T13:36:17.000Z</time>
      </trkpt>
      <trkpt lat="46.106117" lon="6.153267">
        <ele>1338.547929</ele>
        <time>2017-06-01T13:36:21.000Z</time>
      </trkpt>
      <trkpt lat="46.106003" lon="6.153235">
        <ele>1338.746102</ele>
        <time>2017-06-01T13:36:25.000Z</time>
      </trkpt>
      <trkpt lat="46.105910" lon="6.153217">
        <ele>1338.906214</ele>
        <time>2017-06-01T13:36:28.000Z</time>
      </trkpt>
      <trkpt lat="46.105816" lon="6.153203">
        <ele>1339.067463</ele>
        <time>2017-06-01T13:36:31.000Z</time>
      </trkpt>
      <trkpt lat="46.105700" lon="6.153183">
        <ele>1339.266808</ele>
        <time>2017-06-01T13:36:35.000Z</time>
      </trkpt>
      <trkpt lat="46.105595" lon="6.153171">
        <ele>1339.446535</ele>
        <time>2017-06-01T13:36:39.000Z</time>
      </trkpt>
      <trkpt lat="46.105473" lon="6.153174">
        <ele>1339.654739</ele>
        <time>2017-06-01T13:36:43.000Z</time>
      </trkpt>
      <trkpt lat="46.105385" lon="6.153190">
        <ele>1339.806086</ele>
        <time>2017-06-01T13:36:46.000Z</time>
      </trkpt>
      <trkpt lat="46.105293" lon="6.153223">
        <ele>1339.967851</ele>
        <time>2017-06-01T13:36:49.000Z</time>
      </trkpt>
      <trkpt lat="46.105200" lon="6.153263">
        <ele>1340.133446</ele>
        <time>2017-06-01T13:36:52.000Z</time>
      </trkpt>
      <trkpt lat="46.105106" lon="6.153286">
        <ele>1340.296134</ele>
        <time>2017-06-01T13:36:55.000Z</time>
      </trkpt>
      <trkpt lat="46.105003" lon="6.153288">
        <ele>1340.471903</ele>
        <time>2017-06-01T13:36:58.000Z</time>
      </trkpt>
      <trkpt lat="46.104904" lon="6.153263">
        <ele>1340.643912</ele>
        <time>2017-06-01T13:37:01.000Z</time>
      </trkpt>
      <trkpt lat="46.104810" lon="6.153228">
        <ele>1340.817631</ele>
        <time>2017-06-01T13:37:04.000Z</time>
      </trkpt>
      <trkpt lat="46.104717" lon="6.153181">
        <ele>1340.993966</ele>
        <time>2017-06-01T13:37:07.000Z</time>
      </trkpt>
      <trkpt lat="46.104618" lon="6.153132">
        <ele>1341.181258</ele>
        <time>2017-06-01T13:37:10.000Z</time>
      </trkpt>
      <trkpt lat="46.104527" lon="6.153091">
        <ele>1341.351854</ele>
        <time>2017-06-01T13:37:13.000Z</time>
      </trkpt>
      <trkpt lat="46.104430" lon="6.153048">
        <ele>1341.533440</ele>
        <time>2017-06-01T13:37:16.000Z</time>
      </trkpt>
      <trkpt lat="46.104340" lon="6.153005">
        <ele>1341.703093</ele>
        <time>2017-06-01T13:37:19.000Z</time>
      </trkpt>
      <trkpt lat="46.104248" lon="6.152942">
        <ele>1341.885332</ele>
        <time>2017-06-01T13:37:22.000Z</time>
      </trkpt>
      <trkpt lat="46.104156" lon="6.152881">
        <ele>1342.066520</ele>
        <time>2017-06-01T13:37:25.000Z</time>
      </trkpt>
      <trkpt lat="46.104050" lon="6.152821">
        <ele>1342.270282</ele>
        <time>2017-06-01T13:37:29.000Z</time>
      </trkpt>
      <trkpt lat="46.103970" lon="6.152754">
        <ele>1342.435819</ele>
        <time>2017-06-01T13:37:33.000Z</time>
      </trkpt>
      <trkpt lat="46.103878" lon="6.152676">
        <ele>1342.626782</ele>
        <time>2017-06-01T13:37:37.000Z</time>
      </trkpt>
      <trkpt lat="46.103783" lon="6.152575">
        <ele>1342.837970</ele>
        <time>2017-06-01T13:37:41.000Z</time>
      </trkpt>
      <trkpt lat="46.103703" lon="6.152508">
        <ele>1343.003507</ele>
        <time>2017-06-01T13:37:44.000Z</time>
      </trkpt>
      <trkpt lat="46.103596" lon="6.152433">
        <ele>1343.216388</ele>
        <time>2017-06-01T13:37:48.000Z</time>
      </trkpt>
      <trkpt lat="46.103508" lon="6.152379">
        <ele>1343.387516</ele>
        <time>2017-06-01T13:37:51.000Z</time>
      </trkpt>
      <trkpt lat="46.103420" lon="6.152305">
        <ele>1343.569795</ele>
        <time>2017-06-01T13:37:54.000Z</time>
      </trkpt>
      <trkpt lat="46.103333" lon="6.152229">
        <ele>1343.751803</ele>
        <time>2017-06-01T13:37:57.000Z</time>
      </trkpt>
      <trkpt lat="46.103256" lon="6.152144">
        <ele>1343.982246</ele>
        <time>2017-06-01T13:38:00.000Z</time>
      </trkpt>
      <trkpt lat="46.103160" lon="6.152066">
        <ele>1344.331300</ele>
        <time>2017-06-01T13:38:03.000Z</time>
      </trkpt>
      <trkpt lat="46.103054" lon="6.151987">
        <ele>1344.709279</ele>
        <time>2017-06-01T13:38:06.000Z</time>
      </trkpt>
      <trkpt lat="46.102966" lon="6.151911">
        <ele>1345.034212</ele>
        <time>2017-06-01T13:38:09.000Z</time>
      </trkpt>
      <trkpt lat="46.102886" lon="6.151838">
        <ele>1345.334107</ele>
        <time>2017-06-01T13:38:13.000Z</time>
      </trkpt>
      <trkpt lat="46.102790" lon="6.151755">
        <ele>1345.688681</ele>
        <time>2017-06-01T13:38:18.000Z</time>
      </trkpt>
      <trkpt lat="46.102715" lon="6.151670">
        <ele>1345.990852</ele>
        <time>2017-06-01T13:38:22.000Z</time>
      </trkpt>
      <trkpt lat="46.102634" lon="6.151572">
        <ele>1346.325782</ele>
        <time>2017-06-01T13:38:27.000Z</time>
      </trkpt>
      <trkpt lat="46.102566" lon="6.151480">
        <ele>1346.621146</ele>
        <time>2017-06-01T13:38:32.000Z</time>
      </trkpt>
      <trkpt lat="46.102490" lon="6.151378">
        <ele>1346.950023</ele>
        <time>2017-06-01T13:38:37.000Z</time>
      </trkpt>
      <trkpt lat="46.102413" lon="6.151287">
        <ele>1347.265385</ele>
        <time>2017-06-01T13:38:42.000Z</time>
      </trkpt>
      <trkpt lat="46.102383" lon="6.151157">
        <ele>1347.566332</ele>
        <time>2017-06-01T13:38:47.000Z</time>
      </trkpt>
      <trkpt lat="46.102380" lon="6.151019">
        <ele>1347.869600</ele>
        <time>2017-06-01T13:38:53.000Z</time>
      </trkpt>
      <trkpt lat="46.102287" lon="6.151040">
        <ele>1348.167801</ele>
        <time>2017-06-01T13:44:28.000Z</time>
      </trkpt>
      <trkpt lat="46.102192" lon="6.151028">
        <ele>1348.469902</ele>
        <time>2017-06-01T13:44:57.000Z</time>
      </trkpt>
      <trkpt lat="46.102116" lon="6.150923">
        <ele>1348.803304</ele>
        <time>2017-06-01T13:45:02.000Z</time>
      </trkpt>
      <trkpt lat="46.102030" lon="6.150827">
        <ele>1349.147814</ele>
        <time>2017-06-01T13:45:07.000Z</time>
      </trkpt>
      <trkpt lat="46.101948" lon="6.150731">
        <ele>1349.482393</ele>
        <time>2017-06-01T13:45:12.000Z</time>
      </trkpt>
      <trkpt lat="46.101870" lon="6.150618">
        <ele>1349.826309</ele>
        <time>2017-06-01T13:45:17.000Z</time>
      </trkpt>
      <trkpt lat="46.101807" lon="6.150522">
        <ele>1350.110173</ele>
        <time>2017-06-01T13:45:21.000Z</time>
      </trkpt>
      <trkpt lat="46.101746" lon="6.150421">
        <ele>1350.397824</ele>
        <time>2017-06-01T13:45:25.000Z</time>
      </trkpt>
      <trkpt lat="46.101673" lon="6.150303">
        <ele>1350.737440</ele>
        <time>2017-06-01T13:45:30.000Z</time>
      </trkpt>
      <trkpt lat="46.101604" lon="6.150197">
        <ele>1351.049680</ele>
        <time>2017-06-01T13:45:35.000Z</time>
      </trkpt>
      <trkpt lat="46.101540" lon="6.150068">
        <ele>1351.390330</ele>
        <time>2017-06-01T13:45:40.000Z</time>
      </trkpt>
      <trkpt lat="46.101480" lon="6.149956">
        <ele>1351.694285</ele>
        <time>2017-06-01T13:45:44.000Z</time>
      </trkpt>
      <trkpt lat="46.101425" lon="6.149845">
        <ele>1351.987278</ele>
        <time>2017-06-01T13:45:48.000Z</time>
      </trkpt>
      <trkpt lat="46.101364" lon="6.149741">
        <ele>1352.279818</ele>
        <time>2017-06-01T13:45:52.000Z</time>
      </trkpt>
      <trkpt lat="46.101290" lon="6.149619">
        <ele>1352.627925</ele>
        <time>2017-06-01T13:45:57.000Z</time>
      </trkpt>
      <trkpt lat="46.101215" lon="6.149506">
        <ele>1352.963860</ele>
        <time>2017-06-01T13:46:02.000Z</time>
      </trkpt>
      <trkpt lat="46.101154" lon="6.149404">
        <ele>1353.253136</ele>
        <time>2017-06-01T13:46:07.000Z</time>
      </trkpt>
      <trkpt lat="46.101036" lon="6.149255">
        <ele>1353.738900</ele>
        <time>2017-06-01T13:53:07.000Z</time>
      </trkpt>
      <trkpt lat="46.100956" lon="6.149142">
        <ele>1354.085726</ele>
        <time>2017-06-01T13:53:12.000Z</time>
      </trkpt>
      <trkpt lat="46.100880" lon="6.149038">
        <ele>1354.410217</ele>
        <time>2017-06-01T13:53:16.000Z</time>
      </trkpt>
      <trkpt lat="46.100807" lon="6.148924">
        <ele>1354.743475</ele>
        <time>2017-06-01T13:53:20.000Z</time>
      </trkpt>
      <trkpt lat="46.100727" lon="6.148818">
        <ele>1355.079954</ele>
        <time>2017-06-01T13:53:24.000Z</time>
      </trkpt>
      <trkpt lat="46.100650" lon="6.148720">
        <ele>1355.369445</ele>
        <time>2017-06-01T13:53:28.000Z</time>
      </trkpt>
      <trkpt lat="46.100567" lon="6.148657">
        <ele>1355.630065</ele>
        <time>2017-06-01T13:53:32.000Z</time>
      </trkpt>
      <trkpt lat="46.100470" lon="6.148626">
        <ele>1355.906132</ele>
        <time>2017-06-01T13:53:36.000Z</time>
      </trkpt>
      <trkpt lat="46.100372" lon="6.148620">
        <ele>1356.178685</ele>
        <time>2017-06-01T13:53:40.000Z</time>
      </trkpt>
      <trkpt lat="46.100273" lon="6.148632">
        <ele>1356.454741</ele>
        <time>2017-06-01T13:53:44.000Z</time>
      </trkpt>
      <trkpt lat="46.100170" lon="6.148681">
        <ele>1356.756112</ele>
        <time>2017-06-01T13:53:48.000Z</time>
      </trkpt>
      <trkpt lat="46.100070" lon="6.148737">
        <ele>1357.054190</ele>
        <time>2017-06-01T13:53:52.000Z</time>
      </trkpt>
      <trkpt lat="46.099940" lon="6.148789">
        <ele>1357.429051</ele>
        <time>2017-06-01T13:53:57.000Z</time>
      </trkpt>
      <trkpt lat="46.099834" lon="6.148769">
        <ele>1357.726098</ele>
        <time>2017-06-01T13:54:01.000Z</time>
      </trkpt>
      <trkpt lat="46.099735" lon="6.148699">
        <ele>1358.032468</ele>
        <time>2017-06-01T13:54:05.000Z</time>
      </trkpt>
      <trkpt lat="46.099648" lon="6.148628">
        <ele>1358.310233</ele>
        <time>2017-06-01T13:54:09.000Z</time>
      </trkpt>
      <trkpt lat="46.099564" lon="6.148563">
        <ele>1358.575116</ele>
        <time>2017-06-01T13:54:13.000Z</time>
      </trkpt>
      <trkpt lat="46.099457" lon="6.148483">
        <ele>1358.910012</ele>
        <time>2017-06-01T13:54:18.000Z</time>
      </trkpt>
      <trkpt lat="46.099373" lon="6.148414">
        <ele>1359.178625</ele>
        <time>2017-06-01T13:54:22.000Z</time>
      </trkpt>
      <trkpt lat="46.099285" lon="6.148348">
        <ele>1359.454236</ele>
        <time>2017-06-01T13:54:26.000Z</time>
      </trkpt>
      <trkpt lat="46.099200" lon="6.148284">
        <ele>1359.720674</ele>
        <time>2017-06-01T13:54:30.000Z</time>
      </trkpt>
      <trkpt lat="46.099117" lon="6.148221">
        <ele>1359.981296</ele>
        <time>2017-06-01T13:54:34.000Z</time>
      </trkpt>
      <trkpt lat="46.099033" lon="6.148150">
        <ele>1360.337318</ele>
        <time>2017-06-01T13:54:38.000Z</time>
      </trkpt>
      <trkpt lat="46.098960" lon="6.148058">
        <ele>1360.778668</ele>
        <time>2017-06-01T13:54:42.000Z</time>
      </trkpt>
      <trkpt lat="46.098880" lon="6.147914">
        <ele>1361.361145</ele>
        <time>2017-06-01T13:54:47.000Z</time>
      </trkpt>
      <trkpt lat="46.098824" lon="6.147795">
        <ele>1361.815140</ele>
        <time>2017-06-01T13:54:51.000Z</time>
      </trkpt>
      <trkpt lat="46.098770" lon="6.147681">
        <ele>1362.250964</ele>
        <time>2017-06-01T13:54:55.000Z</time>
      </trkpt>
      <trkpt lat="46.098713" lon="6.147568">
        <ele>1362.692079</ele>
        <time>2017-06-01T13:54:59.000Z</time>
      </trkpt>
      <trkpt lat="46.098660" lon="6.147440">
        <ele>1363.162704</ele>
        <time>2017-06-01T13:55:04.000Z</time>
      </trkpt>
      <trkpt lat="46.098590" lon="6.147316">
        <ele>1363.667461</ele>
        <time>2017-06-01T13:55:09.000Z</time>
      </trkpt>
      <trkpt lat="46.098530" lon="6.147193">
        <ele>1364.142199</ele>
        <time>2017-06-01T13:55:14.000Z</time>
      </trkpt>
      <trkpt lat="46.098465" lon="6.147072">
        <ele>1364.625383</ele>
        <time>2017-06-01T13:55:19.000Z</time>
      </trkpt>
      <trkpt lat="46.098392" lon="6.146959">
        <ele>1365.112919</ele>
        <time>2017-06-01T13:55:24.000Z</time>
      </trkpt>
      <trkpt lat="46.098312" lon="6.146857">
        <ele>1365.599048</ele>
        <time>2017-06-01T13:55:29.000Z</time>
      </trkpt>
      <trkpt lat="46.098230" lon="6.146752">
        <ele>1366.098272</ele>
        <time>2017-06-01T13:55:34.000Z</time>
      </trkpt>
      <trkpt lat="46.098164" lon="6.146660">
        <ele>1366.516156</ele>
        <time>2017-06-01T13:55:38.000Z</time>
      </trkpt>
      <trkpt lat="46.098083" lon="6.146557">
        <ele>1367.007787</ele>
        <time>2017-06-01T13:55:43.000Z</time>
      </trkpt>
      <trkpt lat="46.098000" lon="6.146457">
        <ele>1367.500160</ele>
        <time>2017-06-01T13:55:48.000Z</time>
      </trkpt>
      <trkpt lat="46.097920" lon="6.146357">
        <ele>1367.982131</ele>
        <time>2017-06-01T13:55:53.000Z</time>
      </trkpt>
      <trkpt lat="46.097836" lon="6.146278">
        <ele>1368.395993</ele>
        <time>2017-06-01T13:55:58.000Z</time>
      </trkpt>
      <trkpt lat="46.097740" lon="6.146215">
        <ele>1368.721403</ele>
        <time>2017-06-01T13:56:03.000Z</time>
      </trkpt>
      <trkpt lat="46.097637" lon="6.146174">
        <ele>1369.051069</ele>
        <time>2017-06-01T13:56:08.000Z</time>
      </trkpt>
      <trkpt lat="46.097546" lon="6.146160">
        <ele>1369.333420</ele>
        <time>2017-06-01T13:56:12.000Z</time>
      </trkpt>
      <trkpt lat="46.097450" lon="6.146177">
        <ele>1369.631829</ele>
        <time>2017-06-01T13:56:16.000Z</time>
      </trkpt>
      <trkpt lat="46.097360" lon="6.146218">
        <ele>1369.923028</ele>
        <time>2017-06-01T13:56:20.000Z</time>
      </trkpt>
      <trkpt lat="46.097275" lon="6.146269">
        <ele>1370.207067</ele>
        <time>2017-06-01T13:56:24.000Z</time>
      </trkpt>
      <trkpt lat="46.097187" lon="6.146347">
        <ele>1370.525754</ele>
        <time>2017-06-01T13:56:28.000Z</time>
      </trkpt>
      <trkpt lat="46.097103" lon="6.146424">
        <ele>1370.832842</ele>
        <time>2017-06-01T13:56:32.000Z</time>
      </trkpt>
      <trkpt lat="46.097023" lon="6.146503">
        <ele>1371.131985</ele>
        <time>2017-06-01T13:56:36.000Z</time>
      </trkpt>
      <trkpt lat="46.096935" lon="6.146587">
        <ele>1371.457577</ele>
        <time>2017-06-01T13:56:40.000Z</time>
      </trkpt>
      <trkpt lat="46.096850" lon="6.146656">
        <ele>1371.758518</ele>
        <time>2017-06-01T13:56:44.000Z</time>
      </trkpt>
      <trkpt lat="46.096764" lon="6.146700">
        <ele>1372.040054</ele>
        <time>2017-06-01T13:56:48.000Z</time>
      </trkpt>
      <trkpt lat="46.096676" lon="6.146760">
        <ele>1372.340374</ele>
        <time>2017-06-01T13:56:52.000Z</time>
      </trkpt>
      <trkpt lat="46.096580" lon="6.146806">
        <ele>1372.652481</ele>
        <time>2017-06-01T13:56:56.000Z</time>
      </trkpt>
      <trkpt lat="46.096480" lon="6.146839">
        <ele>1372.968982</ele>
        <time>2017-06-01T13:57:00.000Z</time>
      </trkpt>
      <trkpt lat="46.096380" lon="6.146861">
        <ele>1373.281077</ele>
        <time>2017-06-01T13:57:04.000Z</time>
      </trkpt>
      <trkpt lat="46.096256" lon="6.146874">
        <ele>1373.664659</ele>
        <time>2017-06-01T13:57:08.000Z</time>
      </trkpt>
      <trkpt lat="46.096160" lon="6.146882">
        <ele>1373.938236</ele>
        <time>2017-06-01T13:57:11.000Z</time>
      </trkpt>
      <trkpt lat="46.096050" lon="6.146895">
        <ele>1374.204413</ele>
        <time>2017-06-01T13:57:15.000Z</time>
      </trkpt>
      <trkpt lat="46.095960" lon="6.146924">
        <ele>1374.426819</ele>
        <time>2017-06-01T13:57:18.000Z</time>
      </trkpt>
      <trkpt lat="46.095863" lon="6.146958">
        <ele>1374.667566</ele>
        <time>2017-06-01T13:57:21.000Z</time>
      </trkpt>
      <trkpt lat="46.095757" lon="6.146969">
        <ele>1374.923868</ele>
        <time>2017-06-01T13:57:24.000Z</time>
      </trkpt>
      <trkpt lat="46.095657" lon="6.146924">
        <ele>1375.176509</ele>
        <time>2017-06-01T13:57:27.000Z</time>
      </trkpt>
      <trkpt lat="46.095554" lon="6.146842">
        <ele>1375.460256</ele>
        <time>2017-06-01T13:57:30.000Z</time>
      </trkpt>
      <trkpt lat="46.095448" lon="6.146734">
        <ele>1375.773267</ele>
        <time>2017-06-01T13:57:33.000Z</time>
      </trkpt>
      <trkpt lat="46.095387" lon="6.146632">
        <ele>1375.998528</ele>
        <time>2017-06-01T13:57:35.000Z</time>
      </trkpt>
      <trkpt lat="46.095333" lon="6.146506">
        <ele>1376.246249</ele>
        <time>2017-06-01T13:57:37.000Z</time>
      </trkpt>
      <trkpt lat="46.095314" lon="6.146374">
        <ele>1376.471714</ele>
        <time>2017-06-01T13:57:39.000Z</time>
      </trkpt>
      <trkpt lat="46.095284" lon="6.146193">
        <ele>1376.782950</ele>
        <time>2017-06-01T13:57:42.000Z</time>
      </trkpt>
      <trkpt lat="46.095253" lon="6.146069">
        <ele>1377.003395</ele>
        <time>2017-06-01T13:57:44.000Z</time>
      </trkpt>
      <trkpt lat="46.095222" lon="6.145942">
        <ele>1377.228567</ele>
        <time>2017-06-01T13:57:46.000Z</time>
      </trkpt>
      <trkpt lat="46.095170" lon="6.145767">
        <ele>1377.546979</ele>
        <time>2017-06-01T13:57:49.000Z</time>
      </trkpt>
      <trkpt lat="46.095108" lon="6.145599">
        <ele>1377.865257</ele>
        <time>2017-06-01T13:57:52.000Z</time>
      </trkpt>
      <trkpt lat="46.095043" lon="6.145446">
        <ele>1378.165340</ele>
        <time>2017-06-01T13:57:55.000Z</time>
      </trkpt>
      <trkpt lat="46.094990" lon="6.145310">
        <ele>1378.434025</ele>
        <time>2017-06-01T13:57:58.000Z</time>
      </trkpt>
      <trkpt lat="46.094944" lon="6.145180">
        <ele>1378.686262</ele>
        <time>2017-06-01T13:58:01.000Z</time>
      </trkpt>
      <trkpt lat="46.094890" lon="6.145065">
        <ele>1378.926294</ele>
        <time>2017-06-01T13:58:04.000Z</time>
      </trkpt>
      <trkpt lat="46.094845" lon="6.144951">
        <ele>1379.153003</ele>
        <time>2017-06-01T13:58:07.000Z</time>
      </trkpt>
      <trkpt lat="46.094795" lon="6.144795">
        <ele>1379.450022</ele>
        <time>2017-06-01T13:58:11.000Z</time>
      </trkpt>
      <trkpt lat="46.094753" lon="6.144679">
        <ele>1379.676186</ele>
        <time>2017-06-01T13:58:14.000Z</time>
      </trkpt>
      <trkpt lat="46.094710" lon="6.144567">
        <ele>1379.897441</ele>
        <time>2017-06-01T13:58:17.000Z</time>
      </trkpt>
      <trkpt lat="46.094650" lon="6.144421">
        <ele>1380.190754</ele>
        <time>2017-06-01T13:58:21.000Z</time>
      </trkpt>
      <trkpt lat="46.094590" lon="6.144283">
        <ele>1380.472260</ele>
        <time>2017-06-01T13:58:25.000Z</time>
      </trkpt>
      <trkpt lat="46.094513" lon="6.144159">
        <ele>1380.759933</ele>
        <time>2017-06-01T13:58:29.000Z</time>
      </trkpt>
      <trkpt lat="46.094430" lon="6.144051">
        <ele>1381.038556</ele>
        <time>2017-06-01T13:58:33.000Z</time>
      </trkpt>
      <trkpt lat="46.094330" lon="6.143957">
        <ele>1381.336057</ele>
        <time>2017-06-01T13:58:37.000Z</time>
      </trkpt>
      <trkpt lat="46.094242" lon="6.143904">
        <ele>1381.573736</ele>
        <time>2017-06-01T13:58:40.000Z</time>
      </trkpt>
      <trkpt lat="46.094130" lon="6.143865">
        <ele>1381.860892</ele>
        <time>2017-06-01T13:58:44.000Z</time>
      </trkpt>
      <trkpt lat="46.094048" lon="6.143817">
        <ele>1382.081453</ele>
        <time>2017-06-01T13:58:47.000Z</time>
      </trkpt>
      <trkpt lat="46.093937" lon="6.143759">
        <ele>1382.375695</ele>
        <time>2017-06-01T13:58:51.000Z</time>
      </trkpt>
      <trkpt lat="46.093830" lon="6.143704">
        <ele>1382.658802</ele>
        <time>2017-06-01T13:58:55.000Z</time>
      </trkpt>
      <trkpt lat="46.093730" lon="6.143621">
        <ele>1382.929703</ele>
        <time>2017-06-01T13:58:59.000Z</time>
      </trkpt>
      <trkpt lat="46.093640" lon="6.143515">
        <ele>1383.201469</ele>
        <time>2017-06-01T13:59:03.000Z</time>
      </trkpt>
      <trkpt lat="46.093570" lon="6.143423">
        <ele>1383.422971</ele>
        <time>2017-06-01T13:59:06.000Z</time>
      </trkpt>
      <trkpt lat="46.093494" lon="6.143293">
        <ele>1383.698732</ele>
        <time>2017-06-01T13:59:10.000Z</time>
      </trkpt>
      <trkpt lat="46.093422" lon="6.143155">
        <ele>1383.978814</ele>
        <time>2017-06-01T13:59:14.000Z</time>
      </trkpt>
      <trkpt lat="46.093357" lon="6.143052">
        <ele>1384.204677</ele>
        <time>2017-06-01T13:59:17.000Z</time>
      </trkpt>
      <trkpt lat="46.093285" lon="6.142956">
        <ele>1384.434012</ele>
        <time>2017-06-01T13:59:20.000Z</time>
      </trkpt>
      <trkpt lat="46.093204" lon="6.142868">
        <ele>1384.671193</ele>
        <time>2017-06-01T13:59:23.000Z</time>
      </trkpt>
      <trkpt lat="46.093124" lon="6.142781">
        <ele>1384.905529</ele>
        <time>2017-06-01T13:59:26.000Z</time>
      </trkpt>
      <trkpt lat="46.093052" lon="6.142699">
        <ele>1385.120099</ele>
        <time>2017-06-01T13:59:29.000Z</time>
      </trkpt>
      <trkpt lat="46.092976" lon="6.142614">
        <ele>1385.345034</ele>
        <time>2017-06-01T13:59:32.000Z</time>
      </trkpt>
      <trkpt lat="46.092896" lon="6.142498">
        <ele>1385.610362</ele>
        <time>2017-06-01T13:59:36.000Z</time>
      </trkpt>
      <trkpt lat="46.092840" lon="6.142393">
        <ele>1385.825193</ele>
        <time>2017-06-01T13:59:40.000Z</time>
      </trkpt>
      <trkpt lat="46.092770" lon="6.142292">
        <ele>1386.056781</ele>
        <time>2017-06-01T13:59:44.000Z</time>
      </trkpt>
      <trkpt lat="46.092710" lon="6.142160">
        <ele>1386.312754</ele>
        <time>2017-06-01T13:59:48.000Z</time>
      </trkpt>
      <trkpt lat="46.092663" lon="6.142037">
        <ele>1386.540521</ele>
        <time>2017-06-01T13:59:51.000Z</time>
      </trkpt>
      <trkpt lat="46.092620" lon="6.141870">
        <ele>1386.829438</ele>
        <time>2017-06-01T13:59:54.000Z</time>
      </trkpt>
      <trkpt lat="46.092594" lon="6.141735">
        <ele>1387.018042</ele>
        <time>2017-06-01T13:59:56.000Z</time>
      </trkpt>
      <trkpt lat="46.092570" lon="6.141608">
        <ele>1387.184191</ele>
        <time>2017-06-01T13:59:58.000Z</time>
      </trkpt>
      <trkpt lat="46.092545" lon="6.141477">
        <ele>1387.355690</ele>
        <time>2017-06-01T14:00:00.000Z</time>
      </trkpt>
      <trkpt lat="46.092510" lon="6.141337">
        <ele>1387.543535</ele>
        <time>2017-06-01T14:00:02.000Z</time>
      </trkpt>
      <trkpt lat="46.092480" lon="6.141205">
        <ele>1387.718869</ele>
        <time>2017-06-01T14:00:04.000Z</time>
      </trkpt>
      <trkpt lat="46.092450" lon="6.141045">
        <ele>1387.928079</ele>
        <time>2017-06-01T14:00:06.000Z</time>
      </trkpt>
      <trkpt lat="46.092415" lon="6.140889">
        <ele>1388.135036</ele>
        <time>2017-06-01T14:00:08.000Z</time>
      </trkpt>
      <trkpt lat="46.092380" lon="6.140695">
        <ele>1388.388061</ele>
        <time>2017-06-01T14:00:10.000Z</time>
      </trkpt>
      <trkpt lat="46.092323" lon="6.140486">
        <ele>1388.671535</ele>
        <time>2017-06-01T14:00:12.000Z</time>
      </trkpt>
      <trkpt lat="46.092280" lon="6.140297">
        <ele>1388.922609</ele>
        <time>2017-06-01T14:00:14.000Z</time>
      </trkpt>
      <trkpt lat="46.092236" lon="6.140132">
        <ele>1389.145745</ele>
        <time>2017-06-01T14:00:16.000Z</time>
      </trkpt>
      <trkpt lat="46.092186" lon="6.139971">
        <ele>1389.368413</ele>
        <time>2017-06-01T14:00:18.000Z</time>
      </trkpt>
      <trkpt lat="46.092125" lon="6.139835">
        <ele>1389.572853</ele>
        <time>2017-06-01T14:00:20.000Z</time>
      </trkpt>
      <trkpt lat="46.092052" lon="6.139733">
        <ele>1389.757867</ele>
        <time>2017-06-01T14:00:22.000Z</time>
      </trkpt>
      <trkpt lat="46.091970" lon="6.139663">
        <ele>1389.931309</ele>
        <time>2017-06-01T14:00:24.000Z</time>
      </trkpt>
      <trkpt lat="46.091885" lon="6.139610">
        <ele>1390.099862</ele>
        <time>2017-06-01T14:00:26.000Z</time>
      </trkpt>
      <trkpt lat="46.091763" lon="6.139533">
        <ele>1390.538404</ele>
        <time>2017-06-01T14:00:29.000Z</time>
      </trkpt>
      <trkpt lat="46.091633" lon="6.139518">
        <ele>1391.025975</ele>
        <time>2017-06-01T14:00:32.000Z</time>
      </trkpt>
      <trkpt lat="46.091503" lon="6.139480">
        <ele>1391.521878</ele>
        <time>2017-06-01T14:00:35.000Z</time>
      </trkpt>
      <trkpt lat="46.091404" lon="6.139497">
        <ele>1391.894615</ele>
        <time>2017-06-01T14:00:37.000Z</time>
      </trkpt>
      <trkpt lat="46.091316" lon="6.139519">
        <ele>1392.228519</ele>
        <time>2017-06-01T14:00:39.000Z</time>
      </trkpt>
      <trkpt lat="46.091225" lon="6.139528">
        <ele>1392.569531</ele>
        <time>2017-06-01T14:00:41.000Z</time>
      </trkpt>
      <trkpt lat="46.091133" lon="6.139523">
        <ele>1392.913726</ele>
        <time>2017-06-01T14:00:43.000Z</time>
      </trkpt>
      <trkpt lat="46.091040" lon="6.139517">
        <ele>1393.261764</ele>
        <time>2017-06-01T14:00:45.000Z</time>
      </trkpt>
      <trkpt lat="46.090946" lon="6.139487">
        <ele>1393.621697</ele>
        <time>2017-06-01T14:00:47.000Z</time>
      </trkpt>
      <trkpt lat="46.090874" lon="6.139415">
        <ele>1393.949274</ele>
        <time>2017-06-01T14:00:49.000Z</time>
      </trkpt>
      <trkpt lat="46.090790" lon="6.139264">
        <ele>1394.451173</ele>
        <time>2017-06-01T14:00:52.000Z</time>
      </trkpt>
      <trkpt lat="46.090740" lon="6.139152">
        <ele>1394.796528</ele>
        <time>2017-06-01T14:00:54.000Z</time>
      </trkpt>
      <trkpt lat="46.090683" lon="6.138987">
        <ele>1395.274475</ele>
        <time>2017-06-01T14:00:57.000Z</time>
      </trkpt>
      <trkpt lat="46.090640" lon="6.138810">
        <ele>1395.760741</ele>
        <time>2017-06-01T14:01:00.000Z</time>
      </trkpt>
      <trkpt lat="46.090614" lon="6.138681">
        <ele>1396.109049</ele>
        <time>2017-06-01T14:01:02.000Z</time>
      </trkpt>
      <trkpt lat="46.090570" lon="6.138511">
        <ele>1396.579519</ele>
        <time>2017-06-01T14:01:05.000Z</time>
      </trkpt>
      <trkpt lat="46.090530" lon="6.138329">
        <ele>1396.930734</ele>
        <time>2017-06-01T14:01:08.000Z</time>
      </trkpt>
      <trkpt lat="46.090490" lon="6.138150">
        <ele>1397.056846</ele>
        <time>2017-06-01T14:01:11.000Z</time>
      </trkpt>
      <trkpt lat="46.090397" lon="6.138010">
        <ele>1397.186846</ele>
        <time>2017-06-01T14:01:14.000Z</time>
      </trkpt>
      <trkpt lat="46.090320" lon="6.137911">
        <ele>1397.286598</ele>
        <time>2017-06-01T14:01:16.000Z</time>
      </trkpt>
      <trkpt lat="46.090225" lon="6.137817">
        <ele>1397.398004</ele>
        <time>2017-06-01T14:01:18.000Z</time>
      </trkpt>
      <trkpt lat="46.090115" lon="6.137736">
        <ele>1397.517432</ele>
        <time>2017-06-01T14:01:20.000Z</time>
      </trkpt>
      <trkpt lat="46.090015" lon="6.137656">
        <ele>1397.628010</ele>
        <time>2017-06-01T14:01:22.000Z</time>
      </trkpt>
      <trkpt lat="46.089928" lon="6.137585">
        <ele>1397.724671</ele>
        <time>2017-06-01T14:01:24.000Z</time>
      </trkpt>
      <trkpt lat="46.089820" lon="6.137479">
        <ele>1397.850995</ele>
        <time>2017-06-01T14:01:27.000Z</time>
      </trkpt>
      <trkpt lat="46.089720" lon="6.137379">
        <ele>1397.968666</ele>
        <time>2017-06-01T14:01:30.000Z</time>
      </trkpt>
      <trkpt lat="46.089620" lon="6.137291">
        <ele>1398.081943</ele>
        <time>2017-06-01T14:01:33.000Z</time>
      </trkpt>
      <trkpt lat="46.089527" lon="6.137171">
        <ele>1398.202616</ele>
        <time>2017-06-01T14:01:36.000Z</time>
      </trkpt>
      <trkpt lat="46.089462" lon="6.137023">
        <ele>1398.320090</ele>
        <time>2017-06-01T14:01:39.000Z</time>
      </trkpt>
      <trkpt lat="46.089417" lon="6.136861">
        <ele>1398.437116</ele>
        <time>2017-06-01T14:01:42.000Z</time>
      </trkpt>
      <trkpt lat="46.089390" lon="6.136719">
        <ele>1398.535855</ele>
        <time>2017-06-01T14:01:45.000Z</time>
      </trkpt>
      <trkpt lat="46.089370" lon="6.136569">
        <ele>1398.524675</ele>
        <time>2017-06-01T14:01:48.000Z</time>
      </trkpt>
      <trkpt lat="46.089350" lon="6.136428">
        <ele>1398.030738</ele>
        <time>2017-06-01T14:01:51.000Z</time>
      </trkpt>
      <trkpt lat="46.089348" lon="6.136232">
        <ele>1397.357982</ele>
        <time>2017-06-01T14:01:54.000Z</time>
      </trkpt>
      <trkpt lat="46.089306" lon="6.136030">
        <ele>1396.634221</ele>
        <time>2017-06-01T14:01:56.000Z</time>
      </trkpt>
      <trkpt lat="46.089260" lon="6.135857">
        <ele>1395.998333</ele>
        <time>2017-06-01T14:01:58.000Z</time>
      </trkpt>
      <trkpt lat="46.089214" lon="6.135687">
        <ele>1395.372047</ele>
        <time>2017-06-01T14:02:00.000Z</time>
      </trkpt>
      <trkpt lat="46.089170" lon="6.135524">
        <ele>1394.771740</ele>
        <time>2017-06-01T14:02:02.000Z</time>
      </trkpt>
      <trkpt lat="46.089123" lon="6.135372">
        <ele>1394.200565</ele>
        <time>2017-06-01T14:02:04.000Z</time>
      </trkpt>
      <trkpt lat="46.089080" lon="6.135186">
        <ele>1393.527668</ele>
        <time>2017-06-01T14:02:06.000Z</time>
      </trkpt>
      <trkpt lat="46.089046" lon="6.134995">
        <ele>1392.850893</ele>
        <time>2017-06-01T14:02:08.000Z</time>
      </trkpt>
      <trkpt lat="46.089005" lon="6.134809">
        <ele>1392.181059</ele>
        <time>2017-06-01T14:02:10.000Z</time>
      </trkpt>
      <trkpt lat="46.088963" lon="6.134635">
        <ele>1391.548742</ele>
        <time>2017-06-01T14:02:12.000Z</time>
      </trkpt>
      <trkpt lat="46.088910" lon="6.134474">
        <ele>1390.937090</ele>
        <time>2017-06-01T14:02:14.000Z</time>
      </trkpt>
      <trkpt lat="46.088833" lon="6.134321">
        <ele>1390.288295</ele>
        <time>2017-06-01T14:02:16.000Z</time>
      </trkpt>
      <trkpt lat="46.088726" lon="6.134195">
        <ele>1389.566135</ele>
        <time>2017-06-01T14:02:18.000Z</time>
      </trkpt>
      <trkpt lat="46.088620" lon="6.134066">
        <ele>1388.648342</ele>
        <time>2017-06-01T14:02:20.000Z</time>
      </trkpt>
      <trkpt lat="46.088528" lon="6.133908">
        <ele>1387.701635</ele>
        <time>2017-06-01T14:02:22.000Z</time>
      </trkpt>
      <trkpt lat="46.088450" lon="6.133720">
        <ele>1386.696325</ele>
        <time>2017-06-01T14:02:24.000Z</time>
      </trkpt>
      <trkpt lat="46.088387" lon="6.133507">
        <ele>1385.633703</ele>
        <time>2017-06-01T14:02:26.000Z</time>
      </trkpt>
      <trkpt lat="46.088326" lon="6.133317">
        <ele>1384.672912</ele>
        <time>2017-06-01T14:02:28.000Z</time>
      </trkpt>
      <trkpt lat="46.088270" lon="6.133162">
        <ele>1383.870898</ele>
        <time>2017-06-01T14:02:30.000Z</time>
      </trkpt>
      <trkpt lat="46.088170" lon="6.133002">
        <ele>1382.882515</ele>
        <time>2017-06-01T14:02:32.000Z</time>
      </trkpt>
      <trkpt lat="46.088028" lon="6.132895">
        <ele>1381.822383</ele>
        <time>2017-06-01T14:02:34.000Z</time>
      </trkpt>
      <trkpt lat="46.087890" lon="6.132806">
        <ele>1380.822107</ele>
        <time>2017-06-01T14:02:36.000Z</time>
      </trkpt>
      <trkpt lat="46.087750" lon="6.132695">
        <ele>1379.764962</ele>
        <time>2017-06-01T14:02:38.000Z</time>
      </trkpt>
      <trkpt lat="46.087590" lon="6.132597">
        <ele>1378.614737</ele>
        <time>2017-06-01T14:02:40.000Z</time>
      </trkpt>
      <trkpt lat="46.087498" lon="6.132559">
        <ele>1377.981521</ele>
        <time>2017-06-01T14:02:41.000Z</time>
      </trkpt>
      <trkpt lat="46.087406" lon="6.132501">
        <ele>1377.546161</ele>
        <time>2017-06-01T14:02:42.000Z</time>
      </trkpt>
      <trkpt lat="46.087320" lon="6.132435">
        <ele>1377.196351</ele>
        <time>2017-06-01T14:02:43.000Z</time>
      </trkpt>
      <trkpt lat="46.087227" lon="6.132381">
        <ele>1376.836364</ele>
        <time>2017-06-01T14:02:44.000Z</time>
      </trkpt>
      <trkpt lat="46.087130" lon="6.132313">
        <ele>1376.449090</ele>
        <time>2017-06-01T14:02:45.000Z</time>
      </trkpt>
      <trkpt lat="46.087040" lon="6.132250">
        <ele>1376.089864</ele>
        <time>2017-06-01T14:02:46.000Z</time>
      </trkpt>
      <trkpt lat="46.086956" lon="6.132182">
        <ele>1375.743965</ele>
        <time>2017-06-01T14:02:47.000Z</time>
      </trkpt>
      <trkpt lat="46.086872" lon="6.132114">
        <ele>1375.398067</ele>
        <time>2017-06-01T14:02:48.000Z</time>
      </trkpt>
      <trkpt lat="46.086777" lon="6.132048">
        <ele>1375.019426</ele>
        <time>2017-06-01T14:02:49.000Z</time>
      </trkpt>
      <trkpt lat="46.086685" lon="6.131975">
        <ele>1374.642370</ele>
        <time>2017-06-01T14:02:50.000Z</time>
      </trkpt>
      <trkpt lat="46.086590" lon="6.131921">
        <ele>1374.275711</ele>
        <time>2017-06-01T14:02:51.000Z</time>
      </trkpt>
      <trkpt lat="46.086506" lon="6.131865">
        <ele>1373.943419</ele>
        <time>2017-06-01T14:02:52.000Z</time>
      </trkpt>
      <trkpt lat="46.086357" lon="6.131773">
        <ele>1373.361425</ele>
        <time>2017-06-01T14:02:54.000Z</time>
      </trkpt>
      <trkpt lat="46.086224" lon="6.131699">
        <ele>1372.849550</ele>
        <time>2017-06-01T14:02:56.000Z</time>
      </trkpt>
      <trkpt lat="46.086113" lon="6.131639">
        <ele>1372.423904</ele>
        <time>2017-06-01T14:02:58.000Z</time>
      </trkpt>
      <trkpt lat="46.086020" lon="6.131564">
        <ele>1372.041291</ele>
        <time>2017-06-01T14:03:00.000Z</time>
      </trkpt>
      <trkpt lat="46.085922" lon="6.131530">
        <ele>1371.679368</ele>
        <time>2017-06-01T14:03:02.000Z</time>
      </trkpt>
      <trkpt lat="46.085827" lon="6.131487">
        <ele>1371.342936</ele>
        <time>2017-06-01T14:03:04.000Z</time>
      </trkpt>
      <trkpt lat="46.085697" lon="6.131463">
        <ele>1371.134622</ele>
        <time>2017-06-01T14:03:07.000Z</time>
      </trkpt>
      <trkpt lat="46.085564" lon="6.131451">
        <ele>1370.922813</ele>
        <time>2017-06-01T14:03:10.000Z</time>
      </trkpt>
      <trkpt lat="46.085472" lon="6.131392">
        <ele>1370.762772</ele>
        <time>2017-06-01T14:03:12.000Z</time>
      </trkpt>
      <trkpt lat="46.085392" lon="6.131319">
        <ele>1370.612290</ele>
        <time>2017-06-01T14:03:14.000Z</time>
      </trkpt>
      <trkpt lat="46.085304" lon="6.131245">
        <ele>1370.450367</ele>
        <time>2017-06-01T14:03:16.000Z</time>
      </trkpt>
      <trkpt lat="46.085224" lon="6.131152">
        <ele>1370.287028</ele>
        <time>2017-06-01T14:03:18.000Z</time>
      </trkpt>
      <trkpt lat="46.085140" lon="6.131041">
        <ele>1370.105921</ele>
        <time>2017-06-01T14:03:20.000Z</time>
      </trkpt>
      <trkpt lat="46.085052" lon="6.130921">
        <ele>1369.913400</ele>
        <time>2017-06-01T14:03:22.000Z</time>
      </trkpt>
      <trkpt lat="46.084976" lon="6.130798">
        <ele>1369.731799</ele>
        <time>2017-06-01T14:03:24.000Z</time>
      </trkpt>
      <trkpt lat="46.084904" lon="6.130655">
        <ele>1369.536995</ele>
        <time>2017-06-01T14:03:26.000Z</time>
      </trkpt>
      <trkpt lat="46.084835" lon="6.130498">
        <ele>1369.332093</ele>
        <time>2017-06-01T14:03:28.000Z</time>
      </trkpt>
      <trkpt lat="46.084778" lon="6.130324">
        <ele>1369.119953</ele>
        <time>2017-06-01T14:03:30.000Z</time>
      </trkpt>
      <trkpt lat="46.084717" lon="6.130149">
        <ele>1368.904036</ele>
        <time>2017-06-01T14:03:32.000Z</time>
      </trkpt>
      <trkpt lat="46.084640" lon="6.129974">
        <ele>1368.675566</ele>
        <time>2017-06-01T14:03:34.000Z</time>
      </trkpt>
      <trkpt lat="46.084576" lon="6.129782">
        <ele>1368.395050</ele>
        <time>2017-06-01T14:03:36.000Z</time>
      </trkpt>
      <trkpt lat="46.084510" lon="6.129588">
        <ele>1367.975884</ele>
        <time>2017-06-01T14:03:38.000Z</time>
      </trkpt>
      <trkpt lat="46.084446" lon="6.129400">
        <ele>1367.569630</ele>
        <time>2017-06-01T14:03:40.000Z</time>
      </trkpt>
      <trkpt lat="46.084380" lon="6.129224">
        <ele>1367.181508</ele>
        <time>2017-06-01T14:03:42.000Z</time>
      </trkpt>
      <trkpt lat="46.084320" lon="6.129046">
        <ele>1366.797594</ele>
        <time>2017-06-01T14:03:44.000Z</time>
      </trkpt>
      <trkpt lat="46.084248" lon="6.128906">
        <ele>1366.459501</ele>
        <time>2017-06-01T14:03:46.000Z</time>
      </trkpt>
      <trkpt lat="46.084152" lon="6.128790">
        <ele>1366.109178</ele>
        <time>2017-06-01T14:03:48.000Z</time>
      </trkpt>
      <trkpt lat="46.084076" lon="6.128665">
        <ele>1365.786719</ele>
        <time>2017-06-01T14:03:50.000Z</time>
      </trkpt>
      <trkpt lat="46.084000" lon="6.128551">
        <ele>1365.479983</ele>
        <time>2017-06-01T14:03:52.000Z</time>
      </trkpt>
      <trkpt lat="46.083923" lon="6.128443">
        <ele>1365.179532</ele>
        <time>2017-06-01T14:03:54.000Z</time>
      </trkpt>
      <trkpt lat="46.083850" lon="6.128348">
        <ele>1364.904492</ele>
        <time>2017-06-01T14:03:56.000Z</time>
      </trkpt>
      <trkpt lat="46.083775" lon="6.128238">
        <ele>1364.605269</ele>
        <time>2017-06-01T14:03:59.000Z</time>
      </trkpt>
      <trkpt lat="46.083706" lon="6.128151">
        <ele>1364.348900</ele>
        <time>2017-06-01T14:04:04.000Z</time>
      </trkpt>
      <trkpt lat="46.083603" lon="6.128071">
        <ele>1364.021684</ele>
        <time>2017-06-01T14:05:08.000Z</time>
      </trkpt>
      <trkpt lat="46.083504" lon="6.127981">
        <ele>1363.694351</ele>
        <time>2017-06-01T14:05:11.000Z</time>
      </trkpt>
      <trkpt lat="46.083420" lon="6.127902">
        <ele>1363.403315</ele>
        <time>2017-06-01T14:05:13.000Z</time>
      </trkpt>
      <trkpt lat="46.083336" lon="6.127821">
        <ele>1363.067986</ele>
        <time>2017-06-01T14:05:15.000Z</time>
      </trkpt>
      <trkpt lat="46.083252" lon="6.127754">
        <ele>1362.749444</ele>
        <time>2017-06-01T14:05:17.000Z</time>
      </trkpt>
      <trkpt lat="46.083140" lon="6.127656">
        <ele>1362.314713</ele>
        <time>2017-06-01T14:05:20.000Z</time>
      </trkpt>
      <trkpt lat="46.083060" lon="6.127589">
        <ele>1362.007717</ele>
        <time>2017-06-01T14:05:22.000Z</time>
      </trkpt>
      <trkpt lat="46.082966" lon="6.127508">
        <ele>1361.644338</ele>
        <time>2017-06-01T14:05:24.000Z</time>
      </trkpt>
      <trkpt lat="46.082886" lon="6.127428">
        <ele>1361.321275</ele>
        <time>2017-06-01T14:05:26.000Z</time>
      </trkpt>
      <trkpt lat="46.082787" lon="6.127318">
        <ele>1360.906532</ele>
        <time>2017-06-01T14:05:29.000Z</time>
      </trkpt>
      <trkpt lat="46.082714" lon="6.127244">
        <ele>1360.610419</ele>
        <time>2017-06-01T14:05:32.000Z</time>
      </trkpt>
      <trkpt lat="46.082650" lon="6.127141">
        <ele>1360.292145</ele>
        <time>2017-06-01T14:05:35.000Z</time>
      </trkpt>
      <trkpt lat="46.082542" lon="6.127049">
        <ele>1359.875896</ele>
        <time>2017-06-01T14:05:38.000Z</time>
      </trkpt>
      <trkpt lat="46.082462" lon="6.126949">
        <ele>1359.524555</ele>
        <time>2017-06-01T14:05:41.000Z</time>
      </trkpt>
      <trkpt lat="46.082330" lon="6.126859">
        <ele>1359.040038</ele>
        <time>2017-06-01T14:05:44.000Z</time>
      </trkpt>
      <trkpt lat="46.082222" lon="6.126806">
        <ele>1358.661478</ele>
        <time>2017-06-01T14:05:46.000Z</time>
      </trkpt>
      <trkpt lat="46.082127" lon="6.126745">
        <ele>1358.316396</ele>
        <time>2017-06-01T14:05:48.000Z</time>
      </trkpt>
      <trkpt lat="46.082027" lon="6.126659">
        <ele>1357.930021</ele>
        <time>2017-06-01T14:05:50.000Z</time>
      </trkpt>
      <trkpt lat="46.081963" lon="6.126520">
        <ele>1357.546029</ele>
        <time>2017-06-01T14:05:52.000Z</time>
      </trkpt>
      <trkpt lat="46.081910" lon="6.126348">
        <ele>1357.115089</ele>
        <time>2017-06-01T14:05:54.000Z</time>
      </trkpt>
      <trkpt lat="46.081856" lon="6.126168">
        <ele>1356.666312</ele>
        <time>2017-06-01T14:05:56.000Z</time>
      </trkpt>
      <trkpt lat="46.081818" lon="6.125974">
        <ele>1356.205010</ele>
        <time>2017-06-01T14:05:58.000Z</time>
      </trkpt>
      <trkpt lat="46.081757" lon="6.125784">
        <ele>1355.725908</ele>
        <time>2017-06-01T14:06:00.000Z</time>
      </trkpt>
      <trkpt lat="46.081680" lon="6.125599">
        <ele>1355.232195</ele>
        <time>2017-06-01T14:06:02.000Z</time>
      </trkpt>
      <trkpt lat="46.081590" lon="6.125423">
        <ele>1354.731826</ele>
        <time>2017-06-01T14:06:04.000Z</time>
      </trkpt>
      <trkpt lat="46.081480" lon="6.125307">
        <ele>1354.282204</ele>
        <time>2017-06-01T14:06:06.000Z</time>
      </trkpt>
      <trkpt lat="46.081375" lon="6.125209">
        <ele>1353.869544</ele>
        <time>2017-06-01T14:06:08.000Z</time>
      </trkpt>
      <trkpt lat="46.081276" lon="6.125125">
        <ele>1353.490566</ele>
        <time>2017-06-01T14:06:10.000Z</time>
      </trkpt>
      <trkpt lat="46.081180" lon="6.125052">
        <ele>1353.132498</ele>
        <time>2017-06-01T14:06:12.000Z</time>
      </trkpt>
      <trkpt lat="46.081104" lon="6.124984">
        <ele>1352.837404</ele>
        <time>2017-06-01T14:06:14.000Z</time>
      </trkpt>
      <trkpt lat="46.081020" lon="6.124929">
        <ele>1352.533038</ele>
        <time>2017-06-01T14:06:16.000Z</time>
      </trkpt>
      <trkpt lat="46.080902" lon="6.124848">
        <ele>1352.101869</ele>
        <time>2017-06-01T14:06:19.000Z</time>
      </trkpt>
      <trkpt lat="46.080780" lon="6.124806">
        <ele>1351.688063</ele>
        <time>2017-06-01T14:06:22.000Z</time>
      </trkpt>
      <trkpt lat="46.080660" lon="6.124851">
        <ele>1351.383170</ele>
        <time>2017-06-01T14:06:25.000Z</time>
      </trkpt>
      <trkpt lat="46.080570" lon="6.124935">
        <ele>1351.156869</ele>
        <time>2017-06-01T14:06:28.000Z</time>
      </trkpt>
      <trkpt lat="46.080513" lon="6.125054">
        <ele>1350.945138</ele>
        <time>2017-06-01T14:06:31.000Z</time>
      </trkpt>
      <trkpt lat="46.080475" lon="6.125188">
        <ele>1350.733186</ele>
        <time>2017-06-01T14:06:34.000Z</time>
      </trkpt>
      <trkpt lat="46.080430" lon="6.125327">
        <ele>1350.508601</ele>
        <time>2017-06-01T14:06:37.000Z</time>
      </trkpt>
      <trkpt lat="46.080383" lon="6.125457">
        <ele>1350.293966</ele>
        <time>2017-06-01T14:06:40.000Z</time>
      </trkpt>
      <trkpt lat="46.080310" lon="6.125550">
        <ele>1350.088341</ele>
        <time>2017-06-01T14:06:43.000Z</time>
      </trkpt>
      <trkpt lat="46.080235" lon="6.125632">
        <ele>1349.889660</ele>
        <time>2017-06-01T14:06:46.000Z</time>
      </trkpt>
      <trkpt lat="46.080173" lon="6.125732">
        <ele>1349.693289</ele>
        <time>2017-06-01T14:06:49.000Z</time>
      </trkpt>
      <trkpt lat="46.080090" lon="6.125828">
        <ele>1349.468684</ele>
        <time>2017-06-01T14:06:52.000Z</time>
      </trkpt>
      <trkpt lat="46.079964" lon="6.125907">
        <ele>1349.178669</ele>
        <time>2017-06-01T14:06:55.000Z</time>
      </trkpt>
      <trkpt lat="46.079845" lon="6.125978">
        <ele>1348.906831</ele>
        <time>2017-06-01T14:06:58.000Z</time>
      </trkpt>
      <trkpt lat="46.079730" lon="6.126031">
        <ele>1348.651995</ele>
        <time>2017-06-01T14:07:01.000Z</time>
      </trkpt>
      <trkpt lat="46.079624" lon="6.126095">
        <ele>1348.409428</ele>
        <time>2017-06-01T14:07:04.000Z</time>
      </trkpt>
      <trkpt lat="46.079533" lon="6.126179">
        <ele>1348.181352</ele>
        <time>2017-06-01T14:07:07.000Z</time>
      </trkpt>
      <trkpt lat="46.079445" lon="6.126247">
        <ele>1347.970607</ele>
        <time>2017-06-01T14:07:10.000Z</time>
      </trkpt>
      <trkpt lat="46.079360" lon="6.126301">
        <ele>1347.774547</ele>
        <time>2017-06-01T14:07:13.000Z</time>
      </trkpt>
      <trkpt lat="46.079260" lon="6.126362">
        <ele>1347.714896</ele>
        <time>2017-06-01T14:07:17.000Z</time>
      </trkpt>
      <trkpt lat="46.079174" lon="6.126416">
        <ele>1347.665176</ele>
        <time>2017-06-01T14:07:22.000Z</time>
      </trkpt>
      <trkpt lat="46.079080" lon="6.126401">
        <ele>1347.615048</ele>
        <time>2017-06-01T14:07:36.000Z</time>
      </trkpt>
      <trkpt lat="46.079037" lon="6.126536">
        <ele>1347.560429</ele>
        <time>2017-06-01T14:10:02.000Z</time>
      </trkpt>
      <trkpt lat="46.078976" lon="6.126656">
        <ele>1347.505729</ele>
        <time>2017-06-01T14:10:13.000Z</time>
      </trkpt>
      <trkpt lat="46.078870" lon="6.126679">
        <ele>1347.448912</ele>
        <time>2017-06-01T14:12:15.000Z</time>
      </trkpt>
      <trkpt lat="46.078777" lon="6.126761">
        <ele>1347.391129</ele>
        <time>2017-06-01T14:12:19.000Z</time>
      </trkpt>
      <trkpt lat="46.078693" lon="6.126827">
        <ele>1347.340421</ele>
        <time>2017-06-01T14:12:22.000Z</time>
      </trkpt>
      <trkpt lat="46.078613" lon="6.126920">
        <ele>1347.285949</ele>
        <time>2017-06-01T14:12:25.000Z</time>
      </trkpt>
      <trkpt lat="46.078526" lon="6.127044">
        <ele>1347.221102</ele>
        <time>2017-06-01T14:12:28.000Z</time>
      </trkpt>
      <trkpt lat="46.078440" lon="6.127170">
        <ele>1347.156109</ele>
        <time>2017-06-01T14:12:31.000Z</time>
      </trkpt>
      <trkpt lat="46.078373" lon="6.127281">
        <ele>1347.102009</ele>
        <time>2017-06-01T14:12:34.000Z</time>
      </trkpt>
      <trkpt lat="46.078304" lon="6.127409">
        <ele>1347.042406</ele>
        <time>2017-06-01T14:12:37.000Z</time>
      </trkpt>
      <trkpt lat="46.078240" lon="6.127535">
        <ele>1346.984986</ele>
        <time>2017-06-01T14:12:40.000Z</time>
      </trkpt>
      <trkpt lat="46.078180" lon="6.127654">
        <ele>1346.930896</ele>
        <time>2017-06-01T14:12:43.000Z</time>
      </trkpt>
      <trkpt lat="46.078100" lon="6.127780">
        <ele>1346.868092</ele>
        <time>2017-06-01T14:12:46.000Z</time>
      </trkpt>
      <trkpt lat="46.078033" lon="6.127879">
        <ele>1346.810890</ele>
        <time>2017-06-01T14:12:48.000Z</time>
      </trkpt>
      <trkpt lat="46.077970" lon="6.127976">
        <ele>1346.492089</ele>
        <time>2017-06-01T14:12:50.000Z</time>
      </trkpt>
      <trkpt lat="46.077892" lon="6.128073">
        <ele>1346.135810</ele>
        <time>2017-06-01T14:12:52.000Z</time>
      </trkpt>
      <trkpt lat="46.077816" lon="6.128178">
        <ele>1345.771734</ele>
        <time>2017-06-01T14:12:54.000Z</time>
      </trkpt>
      <trkpt lat="46.077747" lon="6.128279">
        <ele>1345.431634</ele>
        <time>2017-06-01T14:12:56.000Z</time>
      </trkpt>
      <trkpt lat="46.077670" lon="6.128376">
        <ele>1345.077967</ele>
        <time>2017-06-01T14:12:58.000Z</time>
      </trkpt>
      <trkpt lat="46.077553" lon="6.128521">
        <ele>1344.544331</ele>
        <time>2017-06-01T14:13:01.000Z</time>
      </trkpt>
      <trkpt lat="46.077470" lon="6.128605">
        <ele>1344.193588</ele>
        <time>2017-06-01T14:13:03.000Z</time>
      </trkpt>
      <trkpt lat="46.077385" lon="6.128679">
        <ele>1343.850157</ele>
        <time>2017-06-01T14:13:06.000Z</time>
      </trkpt>
      <trkpt lat="46.077280" lon="6.128778">
        <ele>1343.416226</ele>
        <time>2017-06-01T14:13:57.000Z</time>
      </trkpt>
      <trkpt lat="46.077194" lon="6.128818">
        <ele>1343.103688</ele>
        <time>2017-06-01T14:14:00.000Z</time>
      </trkpt>
      <trkpt lat="46.077090" lon="6.128852">
        <ele>1342.734860</ele>
        <time>2017-06-01T14:14:03.000Z</time>
      </trkpt>
      <trkpt lat="46.076970" lon="6.128839">
        <ele>1342.318657</ele>
        <time>2017-06-01T14:14:06.000Z</time>
      </trkpt>
      <trkpt lat="46.076843" lon="6.128800">
        <ele>1341.869559</ele>
        <time>2017-06-01T14:14:09.000Z</time>
      </trkpt>
      <trkpt lat="46.076725" lon="6.128732">
        <ele>1341.430043</ele>
        <time>2017-06-01T14:14:12.000Z</time>
      </trkpt>
      <trkpt lat="46.076640" lon="6.128685">
        <ele>1341.115178</ele>
        <time>2017-06-01T14:14:14.000Z</time>
      </trkpt>
      <trkpt lat="46.076557" lon="6.128625">
        <ele>1340.794042</ele>
        <time>2017-06-01T14:14:16.000Z</time>
      </trkpt>
      <trkpt lat="46.076473" lon="6.128568">
        <ele>1340.407395</ele>
        <time>2017-06-01T14:14:18.000Z</time>
      </trkpt>
      <trkpt lat="46.076355" lon="6.128491">
        <ele>1339.723856</ele>
        <time>2017-06-01T14:14:21.000Z</time>
      </trkpt>
      <trkpt lat="46.076270" lon="6.128418">
        <ele>1339.201721</ele>
        <time>2017-06-01T14:14:23.000Z</time>
      </trkpt>
      <trkpt lat="46.076183" lon="6.128315">
        <ele>1338.607612</ele>
        <time>2017-06-01T14:14:25.000Z</time>
      </trkpt>
      <trkpt lat="46.076084" lon="6.128188">
        <ele>1337.908255</ele>
        <time>2017-06-01T14:14:27.000Z</time>
      </trkpt>
      <trkpt lat="46.075977" lon="6.128045">
        <ele>1337.138260</ele>
        <time>2017-06-01T14:14:29.000Z</time>
      </trkpt>
      <trkpt lat="46.075867" lon="6.127877">
        <ele>1336.292553</ele>
        <time>2017-06-01T14:14:31.000Z</time>
      </trkpt>
      <trkpt lat="46.075768" lon="6.127698">
        <ele>1335.454489</ele>
        <time>2017-06-01T14:14:33.000Z</time>
      </trkpt>
      <trkpt lat="46.075676" lon="6.127508">
        <ele>1334.606246</ele>
        <time>2017-06-01T14:14:35.000Z</time>
      </trkpt>
      <trkpt lat="46.075600" lon="6.127306">
        <ele>1333.764997</ele>
        <time>2017-06-01T14:14:37.000Z</time>
      </trkpt>
      <trkpt lat="46.075535" lon="6.127104">
        <ele>1332.949822</ele>
        <time>2017-06-01T14:14:39.000Z</time>
      </trkpt>
      <trkpt lat="46.075480" lon="6.126912">
        <ele>1332.189369</ele>
        <time>2017-06-01T14:14:41.000Z</time>
      </trkpt>
      <trkpt lat="46.075424" lon="6.126721">
        <ele>1331.430259</ele>
        <time>2017-06-01T14:14:43.000Z</time>
      </trkpt>
      <trkpt lat="46.075350" lon="6.126558">
        <ele>1330.583971</ele>
        <time>2017-06-01T14:14:45.000Z</time>
      </trkpt>
      <trkpt lat="46.075264" lon="6.126422">
        <ele>1329.679503</ele>
        <time>2017-06-01T14:14:47.000Z</time>
      </trkpt>
      <trkpt lat="46.075170" lon="6.126312">
        <ele>1328.821691</ele>
        <time>2017-06-01T14:14:49.000Z</time>
      </trkpt>
      <trkpt lat="46.075047" lon="6.126237">
        <ele>1327.875479</ele>
        <time>2017-06-01T14:14:51.000Z</time>
      </trkpt>
      <trkpt lat="46.074898" lon="6.126202">
        <ele>1326.805889</ele>
        <time>2017-06-01T14:14:53.000Z</time>
      </trkpt>
      <trkpt lat="46.074750" lon="6.126178">
        <ele>1325.750694</ele>
        <time>2017-06-01T14:14:55.000Z</time>
      </trkpt>
      <trkpt lat="46.074604" lon="6.126157">
        <ele>1324.711147</ele>
        <time>2017-06-01T14:14:57.000Z</time>
      </trkpt>
      <trkpt lat="46.074463" lon="6.126149">
        <ele>1323.711388</ele>
        <time>2017-06-01T14:14:59.000Z</time>
      </trkpt>
      <trkpt lat="46.074337" lon="6.126155">
        <ele>1322.818190</ele>
        <time>2017-06-01T14:15:01.000Z</time>
      </trkpt>
      <trkpt lat="46.074223" lon="6.126176">
        <ele>1322.003931</ele>
        <time>2017-06-01T14:15:03.000Z</time>
      </trkpt>
      <trkpt lat="46.074116" lon="6.126189">
        <ele>1321.243148</ele>
        <time>2017-06-01T14:15:05.000Z</time>
      </trkpt>
      <trkpt lat="46.074013" lon="6.126182">
        <ele>1320.512582</ele>
        <time>2017-06-01T14:15:07.000Z</time>
      </trkpt>
      <trkpt lat="46.073887" lon="6.126158">
        <ele>1319.612111</ele>
        <time>2017-06-01T14:15:10.000Z</time>
      </trkpt>
      <trkpt lat="46.073795" lon="6.126201">
        <ele>1318.926883</ele>
        <time>2017-06-01T14:15:13.000Z</time>
      </trkpt>
      <trkpt lat="46.073788" lon="6.126337">
        <ele>1318.301019</ele>
        <time>2017-06-01T14:15:28.000Z</time>
      </trkpt>
      <trkpt lat="46.073776" lon="6.126199">
        <ele>1317.904493</ele>
        <time>2017-06-01T14:24:17.000Z</time>
      </trkpt>
      <trkpt lat="46.073870" lon="6.126212">
        <ele>1317.516403</ele>
        <time>2017-06-01T14:28:26.000Z</time>
      </trkpt>
      <trkpt lat="46.073875" lon="6.126081">
        <ele>1317.142350</ele>
        <time>2017-06-01T14:28:31.000Z</time>
      </trkpt>
      <trkpt lat="46.073856" lon="6.125954">
        <ele>1316.771942</ele>
        <time>2017-06-01T14:28:34.000Z</time>
      </trkpt>
      <trkpt lat="46.073810" lon="6.125773">
        <ele>1316.222361</ele>
        <time>2017-06-01T14:28:37.000Z</time>
      </trkpt>
      <trkpt lat="46.073833" lon="6.125585">
        <ele>1315.678091</ele>
        <time>2017-06-01T14:28:40.000Z</time>
      </trkpt>
      <trkpt lat="46.073864" lon="6.125415">
        <ele>1315.176947</ele>
        <time>2017-06-01T14:28:43.000Z</time>
      </trkpt>
      <trkpt lat="46.073906" lon="6.125267">
        <ele>1314.721051</ele>
        <time>2017-06-01T14:28:46.000Z</time>
      </trkpt>
      <trkpt lat="46.073944" lon="6.125098">
        <ele>1314.214545</ele>
        <time>2017-06-01T14:28:49.000Z</time>
      </trkpt>
      <trkpt lat="46.073963" lon="6.124961">
        <ele>1313.816222</ele>
        <time>2017-06-01T14:28:51.000Z</time>
      </trkpt>
      <trkpt lat="46.073950" lon="6.124804">
        <ele>1313.365430</ele>
        <time>2017-06-01T14:28:53.000Z</time>
      </trkpt>
      <trkpt lat="46.073880" lon="6.124653">
        <ele>1312.847647</ele>
        <time>2017-06-01T14:28:55.000Z</time>
      </trkpt>
      <trkpt lat="46.073772" lon="6.124522">
        <ele>1312.267561</ele>
        <time>2017-06-01T14:28:57.000Z</time>
      </trkpt>
      <trkpt lat="46.073666" lon="6.124388">
        <ele>1311.688136</ele>
        <time>2017-06-01T14:28:59.000Z</time>
      </trkpt>
      <trkpt lat="46.073563" lon="6.124281">
        <ele>1311.166360</ele>
        <time>2017-06-01T14:29:01.000Z</time>
      </trkpt>
      <trkpt lat="46.073450" lon="6.124169">
        <ele>1310.571883</ele>
        <time>2017-06-01T14:29:03.000Z</time>
      </trkpt>
      <trkpt lat="46.073345" lon="6.124054">
        <ele>1309.984399</ele>
        <time>2017-06-01T14:29:05.000Z</time>
      </trkpt>
      <trkpt lat="46.073235" lon="6.123969">
        <ele>1309.428375</ele>
        <time>2017-06-01T14:29:07.000Z</time>
      </trkpt>
      <trkpt lat="46.073120" lon="6.123900">
        <ele>1308.873438</ele>
        <time>2017-06-01T14:29:09.000Z</time>
      </trkpt>
      <trkpt lat="46.072987" lon="6.123881">
        <ele>1308.278018</ele>
        <time>2017-06-01T14:29:11.000Z</time>
      </trkpt>
      <trkpt lat="46.072860" lon="6.123847">
        <ele>1307.702556</ele>
        <time>2017-06-01T14:29:13.000Z</time>
      </trkpt>
      <trkpt lat="46.072712" lon="6.123855">
        <ele>1307.042751</ele>
        <time>2017-06-01T14:29:15.000Z</time>
      </trkpt>
      <trkpt lat="46.072586" lon="6.123819">
        <ele>1306.470499</ele>
        <time>2017-06-01T14:29:17.000Z</time>
      </trkpt>
      <trkpt lat="46.072450" lon="6.123785">
        <ele>1305.855572</ele>
        <time>2017-06-01T14:29:19.000Z</time>
      </trkpt>
      <trkpt lat="46.072323" lon="6.123734">
        <ele>1305.268239</ele>
        <time>2017-06-01T14:29:21.000Z</time>
      </trkpt>
      <trkpt lat="46.072197" lon="6.123671">
        <ele>1304.674096</ele>
        <time>2017-06-01T14:29:23.000Z</time>
      </trkpt>
      <trkpt lat="46.072070" lon="6.123592">
        <ele>1304.057873</ele>
        <time>2017-06-01T14:29:25.000Z</time>
      </trkpt>
      <trkpt lat="46.071940" lon="6.123511">
        <ele>1303.426930</ele>
        <time>2017-06-01T14:29:27.000Z</time>
      </trkpt>
      <trkpt lat="46.071810" lon="6.123401">
        <ele>1302.572684</ele>
        <time>2017-06-01T14:29:29.000Z</time>
      </trkpt>
      <trkpt lat="46.071700" lon="6.123251">
        <ele>1301.288223</ele>
        <time>2017-06-01T14:29:31.000Z</time>
      </trkpt>
      <trkpt lat="46.071590" lon="6.123099">
        <ele>1299.995644</ele>
        <time>2017-06-01T14:29:33.000Z</time>
      </trkpt>
      <trkpt lat="46.071470" lon="6.122951">
        <ele>1298.655980</ele>
        <time>2017-06-01T14:29:35.000Z</time>
      </trkpt>
      <trkpt lat="46.071327" lon="6.122847">
        <ele>1297.297321</ele>
        <time>2017-06-01T14:29:37.000Z</time>
      </trkpt>
      <trkpt lat="46.071182" lon="6.122755">
        <ele>1295.953465</ele>
        <time>2017-06-01T14:29:39.000Z</time>
      </trkpt>
      <trkpt lat="46.071053" lon="6.122644">
        <ele>1294.679071</ele>
        <time>2017-06-01T14:29:41.000Z</time>
      </trkpt>
      <trkpt lat="46.070946" lon="6.122520">
        <ele>1293.514468</ele>
        <time>2017-06-01T14:29:43.000Z</time>
      </trkpt>
      <trkpt lat="46.070843" lon="6.122417">
        <ele>1292.451092</ele>
        <time>2017-06-01T14:29:45.000Z</time>
      </trkpt>
      <trkpt lat="46.070730" lon="6.122314">
        <ele>1291.316988</ele>
        <time>2017-06-01T14:29:47.000Z</time>
      </trkpt>
      <trkpt lat="46.070590" lon="6.122219">
        <ele>1290.004415</ele>
        <time>2017-06-01T14:29:49.000Z</time>
      </trkpt>
      <trkpt lat="46.070435" lon="6.122145">
        <ele>1288.619375</ele>
        <time>2017-06-01T14:29:51.000Z</time>
      </trkpt>
      <trkpt lat="46.070260" lon="6.122152">
        <ele>1287.389058</ele>
        <time>2017-06-01T14:29:53.000Z</time>
      </trkpt>
      <trkpt lat="46.070170" lon="6.122177">
        <ele>1286.961445</ele>
        <time>2017-06-01T14:29:54.000Z</time>
      </trkpt>
      <trkpt lat="46.070080" lon="6.122198">
        <ele>1286.536093</ele>
        <time>2017-06-01T14:29:55.000Z</time>
      </trkpt>
      <trkpt lat="46.069912" lon="6.122227">
        <ele>1285.746704</ele>
        <time>2017-06-01T14:29:57.000Z</time>
      </trkpt>
      <trkpt lat="46.069748" lon="6.122246">
        <ele>1284.979111</ele>
        <time>2017-06-01T14:29:59.000Z</time>
      </trkpt>
      <trkpt lat="46.069610" lon="6.122282">
        <ele>1284.324825</ele>
        <time>2017-06-01T14:30:01.000Z</time>
      </trkpt>
      <trkpt lat="46.069490" lon="6.122311">
        <ele>1283.757162</ele>
        <time>2017-06-01T14:30:03.000Z</time>
      </trkpt>
      <trkpt lat="46.069370" lon="6.122332">
        <ele>1283.193202</ele>
        <time>2017-06-01T14:30:05.000Z</time>
      </trkpt>
      <trkpt lat="46.069252" lon="6.122374">
        <ele>1282.626148</ele>
        <time>2017-06-01T14:30:07.000Z</time>
      </trkpt>
      <trkpt lat="46.069134" lon="6.122417">
        <ele>1282.058308</ele>
        <time>2017-06-01T14:30:09.000Z</time>
      </trkpt>
      <trkpt lat="46.069008" lon="6.122445">
        <ele>1281.463522</ele>
        <time>2017-06-01T14:30:11.000Z</time>
      </trkpt>
      <trkpt lat="46.068880" lon="6.122489">
        <ele>1280.849602</ele>
        <time>2017-06-01T14:30:13.000Z</time>
      </trkpt>
      <trkpt lat="46.068750" lon="6.122531">
        <ele>1280.228050</ele>
        <time>2017-06-01T14:30:15.000Z</time>
      </trkpt>
      <trkpt lat="46.068623" lon="6.122597">
        <ele>1279.598207</ele>
        <time>2017-06-01T14:30:17.000Z</time>
      </trkpt>
      <trkpt lat="46.068504" lon="6.122660">
        <ele>1278.889341</ele>
        <time>2017-06-01T14:30:19.000Z</time>
      </trkpt>
      <trkpt lat="46.068386" lon="6.122693">
        <ele>1278.110671</ele>
        <time>2017-06-01T14:30:21.000Z</time>
      </trkpt>
      <trkpt lat="46.068270" lon="6.122645">
        <ele>1277.328859</ele>
        <time>2017-06-01T14:30:23.000Z</time>
      </trkpt>
      <trkpt lat="46.068172" lon="6.122521">
        <ele>1276.484086</ele>
        <time>2017-06-01T14:30:25.000Z</time>
      </trkpt>
      <trkpt lat="46.068104" lon="6.122337">
        <ele>1275.547091</ele>
        <time>2017-06-01T14:30:27.000Z</time>
      </trkpt>
      <trkpt lat="46.068085" lon="6.122124">
        <ele>1274.581879</ele>
        <time>2017-06-01T14:30:29.000Z</time>
      </trkpt>
      <trkpt lat="46.068123" lon="6.121926">
        <ele>1273.658546</ele>
        <time>2017-06-01T14:30:31.000Z</time>
      </trkpt>
      <trkpt lat="46.068195" lon="6.121719">
        <ele>1272.617813</ele>
        <time>2017-06-01T14:30:33.000Z</time>
      </trkpt>
      <trkpt lat="46.068250" lon="6.121504">
        <ele>1271.587902</ele>
        <time>2017-06-01T14:30:35.000Z</time>
      </trkpt>
      <trkpt lat="46.068317" lon="6.121316">
        <ele>1270.637981</ele>
        <time>2017-06-01T14:30:37.000Z</time>
      </trkpt>
      <trkpt lat="46.068375" lon="6.121112">
        <ele>1269.647105</ele>
        <time>2017-06-01T14:30:39.000Z</time>
      </trkpt>
      <trkpt lat="46.068443" lon="6.120911">
        <ele>1268.642035</ele>
        <time>2017-06-01T14:30:41.000Z</time>
      </trkpt>
      <trkpt lat="46.068516" lon="6.120709">
        <ele>1267.624978</ele>
        <time>2017-06-01T14:30:43.000Z</time>
      </trkpt>
      <trkpt lat="46.068580" lon="6.120518">
        <ele>1266.833888</ele>
        <time>2017-06-01T14:30:45.000Z</time>
      </trkpt>
      <trkpt lat="46.068640" lon="6.120337">
        <ele>1266.085729</ele>
        <time>2017-06-01T14:30:47.000Z</time>
      </trkpt>
      <trkpt lat="46.068687" lon="6.120137">
        <ele>1265.298176</ele>
        <time>2017-06-01T14:30:49.000Z</time>
      </trkpt>
      <trkpt lat="46.068718" lon="6.119933">
        <ele>1264.519297</ele>
        <time>2017-06-01T14:30:51.000Z</time>
      </trkpt>
      <trkpt lat="46.068710" lon="6.119731">
        <ele>1263.764687</ele>
        <time>2017-06-01T14:30:53.000Z</time>
      </trkpt>
      <trkpt lat="46.068700" lon="6.119546">
        <ele>1263.072616</ele>
        <time>2017-06-01T14:30:55.000Z</time>
      </trkpt>
      <trkpt lat="46.068695" lon="6.119385">
        <ele>1262.471545</ele>
        <time>2017-06-01T14:30:57.000Z</time>
      </trkpt>
      <trkpt lat="46.068695" lon="6.119214">
        <ele>1261.833779</ele>
        <time>2017-06-01T14:30:59.000Z</time>
      </trkpt>
      <trkpt lat="46.068700" lon="6.119041">
        <ele>1261.187995</ele>
        <time>2017-06-01T14:31:01.000Z</time>
      </trkpt>
      <trkpt lat="46.068687" lon="6.118868">
        <ele>1260.538997</ele>
        <time>2017-06-01T14:31:03.000Z</time>
      </trkpt>
      <trkpt lat="46.068714" lon="6.118699">
        <ele>1259.892195</ele>
        <time>2017-06-01T14:31:05.000Z</time>
      </trkpt>
      <trkpt lat="46.068775" lon="6.118549">
        <ele>1259.243731</ele>
        <time>2017-06-01T14:31:07.000Z</time>
      </trkpt>
      <trkpt lat="46.068863" lon="6.118415">
        <ele>1258.555578</ele>
        <time>2017-06-01T14:31:09.000Z</time>
      </trkpt>
      <trkpt lat="46.068960" lon="6.118293">
        <ele>1257.846212</ele>
        <time>2017-06-01T14:31:11.000Z</time>
      </trkpt>
      <trkpt lat="46.069065" lon="6.118173">
        <ele>1257.025880</ele>
        <time>2017-06-01T14:31:13.000Z</time>
      </trkpt>
      <trkpt lat="46.069164" lon="6.118056">
        <ele>1256.242142</ele>
        <time>2017-06-01T14:31:15.000Z</time>
      </trkpt>
      <trkpt lat="46.069267" lon="6.117953">
        <ele>1255.474701</ele>
        <time>2017-06-01T14:31:17.000Z</time>
      </trkpt>
      <trkpt lat="46.069344" lon="6.117818">
        <ele>1254.732435</ele>
        <time>2017-06-01T14:31:19.000Z</time>
      </trkpt>
      <trkpt lat="46.069386" lon="6.117646">
        <ele>1253.957984</ele>
        <time>2017-06-01T14:31:21.000Z</time>
      </trkpt>
      <trkpt lat="46.069360" lon="6.117462">
        <ele>1253.160450</ele>
        <time>2017-06-01T14:31:23.000Z</time>
      </trkpt>
      <trkpt lat="46.069305" lon="6.117271">
        <ele>1252.282129</ele>
        <time>2017-06-01T14:31:25.000Z</time>
      </trkpt>
      <trkpt lat="46.069256" lon="6.117079">
        <ele>1251.413238</ele>
        <time>2017-06-01T14:31:27.000Z</time>
      </trkpt>
      <trkpt lat="46.069187" lon="6.116939">
        <ele>1250.683860</ele>
        <time>2017-06-01T14:31:29.000Z</time>
      </trkpt>
      <trkpt lat="46.069073" lon="6.116857">
        <ele>1249.903899</ele>
        <time>2017-06-01T14:31:31.000Z</time>
      </trkpt>
      <trkpt lat="46.068947" lon="6.116821">
        <ele>1249.117542</ele>
        <time>2017-06-01T14:31:33.000Z</time>
      </trkpt>
      <trkpt lat="46.068813" lon="6.116811">
        <ele>1248.296121</ele>
        <time>2017-06-01T14:31:35.000Z</time>
      </trkpt>
      <trkpt lat="46.068672" lon="6.116787">
        <ele>1247.426948</ele>
        <time>2017-06-01T14:31:37.000Z</time>
      </trkpt>
      <trkpt lat="46.068535" lon="6.116758">
        <ele>1246.517912</ele>
        <time>2017-06-01T14:31:39.000Z</time>
      </trkpt>
      <trkpt lat="46.068400" lon="6.116735">
        <ele>1245.557448</ele>
        <time>2017-06-01T14:31:41.000Z</time>
      </trkpt>
      <trkpt lat="46.068270" lon="6.116757">
        <ele>1244.632642</ele>
        <time>2017-06-01T14:31:43.000Z</time>
      </trkpt>
      <trkpt lat="46.068146" lon="6.116819">
        <ele>1243.705319</ele>
        <time>2017-06-01T14:31:45.000Z</time>
      </trkpt>
      <trkpt lat="46.068012" lon="6.116906">
        <ele>1242.666941</ele>
        <time>2017-06-01T14:31:47.000Z</time>
      </trkpt>
      <trkpt lat="46.067867" lon="6.116983">
        <ele>1241.575142</ele>
        <time>2017-06-01T14:31:49.000Z</time>
      </trkpt>
      <trkpt lat="46.067730" lon="6.117048">
        <ele>1240.556093</ele>
        <time>2017-06-01T14:31:51.000Z</time>
      </trkpt>
      <trkpt lat="46.067600" lon="6.117103">
        <ele>1239.598844</ele>
        <time>2017-06-01T14:31:53.000Z</time>
      </trkpt>
      <trkpt lat="46.067467" lon="6.117137">
        <ele>1238.644485</ele>
        <time>2017-06-01T14:31:55.000Z</time>
      </trkpt>
      <trkpt lat="46.067333" lon="6.117175">
        <ele>1237.679575</ele>
        <time>2017-06-01T14:31:57.000Z</time>
      </trkpt>
      <trkpt lat="46.067207" lon="6.117207">
        <ele>1236.775625</ele>
        <time>2017-06-01T14:31:59.000Z</time>
      </trkpt>
      <trkpt lat="46.067080" lon="6.117248">
        <ele>1235.856091</ele>
        <time>2017-06-01T14:32:01.000Z</time>
      </trkpt>
      <trkpt lat="46.066956" lon="6.117308">
        <ele>1234.931933</ele>
        <time>2017-06-01T14:32:03.000Z</time>
      </trkpt>
      <trkpt lat="46.066833" lon="6.117345">
        <ele>1234.038482</ele>
        <time>2017-06-01T14:32:05.000Z</time>
      </trkpt>
      <trkpt lat="46.066700" lon="6.117367">
        <ele>1233.068727</ele>
        <time>2017-06-01T14:32:07.000Z</time>
      </trkpt>
      <trkpt lat="46.066563" lon="6.117412">
        <ele>1232.050875</ele>
        <time>2017-06-01T14:32:09.000Z</time>
      </trkpt>
      <trkpt lat="46.066420" lon="6.117464">
        <ele>1230.982545</ele>
        <time>2017-06-01T14:32:11.000Z</time>
      </trkpt>
      <trkpt lat="46.066288" lon="6.117550">
        <ele>1229.933204</ele>
        <time>2017-06-01T14:32:13.000Z</time>
      </trkpt>
      <trkpt lat="46.066162" lon="6.117632">
        <ele>1228.931747</ele>
        <time>2017-06-01T14:32:15.000Z</time>
      </trkpt>
      <trkpt lat="46.066032" lon="6.117664">
        <ele>1227.976412</ele>
        <time>2017-06-01T14:32:17.000Z</time>
      </trkpt>
      <trkpt lat="46.065907" lon="6.117629">
        <ele>1227.054003</ele>
        <time>2017-06-01T14:32:19.000Z</time>
      </trkpt>
      <trkpt lat="46.065792" lon="6.117508">
        <ele>1226.022596</ele>
        <time>2017-06-01T14:32:21.000Z</time>
      </trkpt>
      <trkpt lat="46.065700" lon="6.117327">
        <ele>1224.894898</ele>
        <time>2017-06-01T14:32:23.000Z</time>
      </trkpt>
      <trkpt lat="46.065628" lon="6.117122">
        <ele>1223.740078</ele>
        <time>2017-06-01T14:32:25.000Z</time>
      </trkpt>
      <trkpt lat="46.065556" lon="6.116918">
        <ele>1222.589738</ele>
        <time>2017-06-01T14:32:27.000Z</time>
      </trkpt>
      <trkpt lat="46.065464" lon="6.116720">
        <ele>1221.392046</ele>
        <time>2017-06-01T14:32:29.000Z</time>
      </trkpt>
      <trkpt lat="46.065380" lon="6.116526">
        <ele>1220.281358</ele>
        <time>2017-06-01T14:32:31.000Z</time>
      </trkpt>
      <trkpt lat="46.065308" lon="6.116339">
        <ele>1219.248122</ele>
        <time>2017-06-01T14:32:33.000Z</time>
      </trkpt>
      <trkpt lat="46.065228" lon="6.116152">
        <ele>1218.186737</ele>
        <time>2017-06-01T14:32:35.000Z</time>
      </trkpt>
      <trkpt lat="46.065147" lon="6.115970">
        <ele>1217.142094</ele>
        <time>2017-06-01T14:32:37.000Z</time>
      </trkpt>
      <trkpt lat="46.065070" lon="6.115771">
        <ele>1216.041265</ele>
        <time>2017-06-01T14:32:39.000Z</time>
      </trkpt>
      <trkpt lat="46.065000" lon="6.115553">
        <ele>1214.880717</ele>
        <time>2017-06-01T14:32:41.000Z</time>
      </trkpt>
      <trkpt lat="46.064940" lon="6.115315">
        <ele>1213.657313</ele>
        <time>2017-06-01T14:32:43.000Z</time>
      </trkpt>
      <trkpt lat="46.064890" lon="6.115081">
        <ele>1212.474385</ele>
        <time>2017-06-01T14:32:45.000Z</time>
      </trkpt>
      <trkpt lat="46.064846" lon="6.114846">
        <ele>1211.298407</ele>
        <time>2017-06-01T14:32:47.000Z</time>
      </trkpt>
      <trkpt lat="46.064800" lon="6.114611">
        <ele>1210.118725</ele>
        <time>2017-06-01T14:32:49.000Z</time>
      </trkpt>
      <trkpt lat="46.064735" lon="6.114375">
        <ele>1208.891979</ele>
        <time>2017-06-01T14:32:51.000Z</time>
      </trkpt>
      <trkpt lat="46.064660" lon="6.114162">
        <ele>1207.784744</ele>
        <time>2017-06-01T14:32:53.000Z</time>
      </trkpt>
      <trkpt lat="46.064580" lon="6.113952">
        <ele>1206.682650</ele>
        <time>2017-06-01T14:32:55.000Z</time>
      </trkpt>
      <trkpt lat="46.064520" lon="6.113741">
        <ele>1205.633631</ele>
        <time>2017-06-01T14:32:57.000Z</time>
      </trkpt>
      <trkpt lat="46.064487" lon="6.113530">
        <ele>1204.638614</ele>
        <time>2017-06-01T14:32:59.000Z</time>
      </trkpt>
      <trkpt lat="46.064457" lon="6.113331">
        <ele>1203.701794</ele>
        <time>2017-06-01T14:33:01.000Z</time>
      </trkpt>
      <trkpt lat="46.064415" lon="6.113134">
        <ele>1202.753715</ele>
        <time>2017-06-01T14:33:03.000Z</time>
      </trkpt>
      <trkpt lat="46.064370" lon="6.112937">
        <ele>1201.799605</ele>
        <time>2017-06-01T14:33:05.000Z</time>
      </trkpt>
      <trkpt lat="46.064290" lon="6.112758">
        <ele>1200.820106</ele>
        <time>2017-06-01T14:33:07.000Z</time>
      </trkpt>
      <trkpt lat="46.064217" lon="6.112573">
        <ele>1199.841046</ele>
        <time>2017-06-01T14:33:09.000Z</time>
      </trkpt>
      <trkpt lat="46.064170" lon="6.112396">
        <ele>1198.969196</ele>
        <time>2017-06-01T14:33:11.000Z</time>
      </trkpt>
      <trkpt lat="46.064160" lon="6.112225">
        <ele>1198.179750</ele>
        <time>2017-06-01T14:33:13.000Z</time>
      </trkpt>
      <trkpt lat="46.064167" lon="6.112033">
        <ele>1197.295267</ele>
        <time>2017-06-01T14:33:15.000Z</time>
      </trkpt>
      <trkpt lat="46.064180" lon="6.111842">
        <ele>1196.387699</ele>
        <time>2017-06-01T14:33:17.000Z</time>
      </trkpt>
      <trkpt lat="46.064137" lon="6.111654">
        <ele>1195.417629</ele>
        <time>2017-06-01T14:33:19.000Z</time>
      </trkpt>
      <trkpt lat="46.064030" lon="6.111498">
        <ele>1194.342662</ele>
        <time>2017-06-01T14:33:21.000Z</time>
      </trkpt>
      <trkpt lat="46.063900" lon="6.111383">
        <ele>1193.265335</ele>
        <time>2017-06-01T14:33:23.000Z</time>
      </trkpt>
      <trkpt lat="46.063770" lon="6.111280">
        <ele>1192.217570</ele>
        <time>2017-06-01T14:33:25.000Z</time>
      </trkpt>
      <trkpt lat="46.063644" lon="6.111173">
        <ele>1191.184660</ele>
        <time>2017-06-01T14:33:27.000Z</time>
      </trkpt>
      <trkpt lat="46.063522" lon="6.111063">
        <ele>1190.168266</ele>
        <time>2017-06-01T14:33:29.000Z</time>
      </trkpt>
      <trkpt lat="46.063393" lon="6.110975">
        <ele>1189.160254</ele>
        <time>2017-06-01T14:33:31.000Z</time>
      </trkpt>
      <trkpt lat="46.063248" lon="6.110893">
        <ele>1188.060126</ele>
        <time>2017-06-01T14:33:33.000Z</time>
      </trkpt>
      <trkpt lat="46.063114" lon="6.110811">
        <ele>1187.031928</ele>
        <time>2017-06-01T14:33:35.000Z</time>
      </trkpt>
      <trkpt lat="46.062996" lon="6.110679">
        <ele>1185.976923</ele>
        <time>2017-06-01T14:33:37.000Z</time>
      </trkpt>
      <trkpt lat="46.062890" lon="6.110507">
        <ele>1184.849540</ele>
        <time>2017-06-01T14:33:39.000Z</time>
      </trkpt>
      <trkpt lat="46.062810" lon="6.110302">
        <ele>1183.705251</ele>
        <time>2017-06-01T14:33:41.000Z</time>
      </trkpt>
      <trkpt lat="46.062737" lon="6.110079">
        <ele>1182.522698</ele>
        <time>2017-06-01T14:33:43.000Z</time>
      </trkpt>
      <trkpt lat="46.062653" lon="6.109890">
        <ele>1181.446252</ele>
        <time>2017-06-01T14:33:45.000Z</time>
      </trkpt>
      <trkpt lat="46.062557" lon="6.109699">
        <ele>1180.315140</ele>
        <time>2017-06-01T14:33:47.000Z</time>
      </trkpt>
      <trkpt lat="46.062473" lon="6.109532">
        <ele>1179.325901</ele>
        <time>2017-06-01T14:33:49.000Z</time>
      </trkpt>
      <trkpt lat="46.062366" lon="6.109382">
        <ele>1178.294148</ele>
        <time>2017-06-01T14:33:51.000Z</time>
      </trkpt>
      <trkpt lat="46.062244" lon="6.109228">
        <ele>1177.173170</ele>
        <time>2017-06-01T14:33:53.000Z</time>
      </trkpt>
      <trkpt lat="46.062122" lon="6.109094">
        <ele>1176.112932</ele>
        <time>2017-06-01T14:33:55.000Z</time>
      </trkpt>
      <trkpt lat="46.062008" lon="6.108971">
        <ele>1175.128615</ele>
        <time>2017-06-01T14:33:57.000Z</time>
      </trkpt>
      <trkpt lat="46.061920" lon="6.108837">
        <ele>1174.243745</ele>
        <time>2017-06-01T14:33:59.000Z</time>
      </trkpt>
      <trkpt lat="46.061825" lon="6.108681">
        <ele>1173.248280</ele>
        <time>2017-06-01T14:34:01.000Z</time>
      </trkpt>
      <trkpt lat="46.061745" lon="6.108508">
        <ele>1172.251187</ele>
        <time>2017-06-01T14:34:03.000Z</time>
      </trkpt>
      <trkpt lat="46.061687" lon="6.108316">
        <ele>1171.326597</ele>
        <time>2017-06-01T14:34:05.000Z</time>
      </trkpt>
      <trkpt lat="46.061615" lon="6.108156">
        <ele>1170.590621</ele>
        <time>2017-06-01T14:34:07.000Z</time>
      </trkpt>
      <trkpt lat="46.061504" lon="6.108025">
        <ele>1169.792655</ele>
        <time>2017-06-01T14:34:09.000Z</time>
      </trkpt>
      <trkpt lat="46.061360" lon="6.107931">
        <ele>1168.913411</ele>
        <time>2017-06-01T14:34:11.000Z</time>
      </trkpt>
      <trkpt lat="46.061207" lon="6.107856">
        <ele>1168.014560</ele>
        <time>2017-06-01T14:34:13.000Z</time>
      </trkpt>
      <trkpt lat="46.061073" lon="6.107772">
        <ele>1167.201810</ele>
        <time>2017-06-01T14:34:15.000Z</time>
      </trkpt>
      <trkpt lat="46.060950" lon="6.107688">
        <ele>1166.444771</ele>
        <time>2017-06-01T14:34:17.000Z</time>
      </trkpt>
      <trkpt lat="46.060840" lon="6.107586">
        <ele>1165.717257</ele>
        <time>2017-06-01T14:34:19.000Z</time>
      </trkpt>
      <trkpt lat="46.060726" lon="6.107495">
        <ele>1164.992432</ele>
        <time>2017-06-01T14:34:21.000Z</time>
      </trkpt>
      <trkpt lat="46.060596" lon="6.107405">
        <ele>1164.190281</ele>
        <time>2017-06-01T14:34:23.000Z</time>
      </trkpt>
      <trkpt lat="46.060470" lon="6.107317">
        <ele>1163.411521</ele>
        <time>2017-06-01T14:34:25.000Z</time>
      </trkpt>
      <trkpt lat="46.060352" lon="6.107222">
        <ele>1162.659748</ele>
        <time>2017-06-01T14:34:27.000Z</time>
      </trkpt>
      <trkpt lat="46.060238" lon="6.107115">
        <ele>1161.903070</ele>
        <time>2017-06-01T14:34:29.000Z</time>
      </trkpt>
      <trkpt lat="46.060047" lon="6.106963">
        <ele>1160.402462</ele>
        <time>2017-06-01T14:34:32.000Z</time>
      </trkpt>
      <trkpt lat="46.059910" lon="6.106849">
        <ele>1159.259926</ele>
        <time>2017-06-01T14:34:34.000Z</time>
      </trkpt>
      <trkpt lat="46.059790" lon="6.106711">
        <ele>1158.151143</ele>
        <time>2017-06-01T14:34:36.000Z</time>
      </trkpt>
      <trkpt lat="46.059685" lon="6.106555">
        <ele>1157.061981</ele>
        <time>2017-06-01T14:34:38.000Z</time>
      </trkpt>
      <trkpt lat="46.059597" lon="6.106398">
        <ele>1156.050547</ele>
        <time>2017-06-01T14:34:40.000Z</time>
      </trkpt>
      <trkpt lat="46.059513" lon="6.106257">
        <ele>1155.119223</ele>
        <time>2017-06-01T14:34:42.000Z</time>
      </trkpt>
      <trkpt lat="46.059456" lon="6.106127">
        <ele>1154.348559</ele>
        <time>2017-06-01T14:34:44.000Z</time>
      </trkpt>
      <trkpt lat="46.059410" lon="6.105999">
        <ele>1153.626156</ele>
        <time>2017-06-01T14:34:46.000Z</time>
      </trkpt>
      <trkpt lat="46.059370" lon="6.105823">
        <ele>1152.698017</ele>
        <time>2017-06-01T14:34:49.000Z</time>
      </trkpt>
      <trkpt lat="46.059320" lon="6.105681">
        <ele>1151.899998</ele>
        <time>2017-06-01T14:34:52.000Z</time>
      </trkpt>
      <trkpt lat="46.059240" lon="6.105582">
        <ele>1151.138431</ele>
        <time>2017-06-01T14:34:55.000Z</time>
      </trkpt>
      <trkpt lat="46.059135" lon="6.105541">
        <ele>1150.352757</ele>
        <time>2017-06-01T14:34:58.000Z</time>
      </trkpt>
      <trkpt lat="46.059030" lon="6.105588">
        <ele>1149.558689</ele>
        <time>2017-06-01T14:35:01.000Z</time>
      </trkpt>
      <trkpt lat="46.058968" lon="6.105701">
        <ele>1148.836739</ele>
        <time>2017-06-01T14:35:03.000Z</time>
      </trkpt>
      <trkpt lat="46.058940" lon="6.105880">
        <ele>1147.996580</ele>
        <time>2017-06-01T14:35:05.000Z</time>
      </trkpt>
      <trkpt lat="46.058968" lon="6.106070">
        <ele>1147.127069</ele>
        <time>2017-06-01T14:35:07.000Z</time>
      </trkpt>
      <trkpt lat="46.059032" lon="6.106261">
        <ele>1146.177587</ele>
        <time>2017-06-01T14:35:09.000Z</time>
      </trkpt>
      <trkpt lat="46.059097" lon="6.106445">
        <ele>1145.253315</ele>
        <time>2017-06-01T14:35:11.000Z</time>
      </trkpt>
      <trkpt lat="46.059143" lon="6.106655">
        <ele>1144.267520</ele>
        <time>2017-06-01T14:35:13.000Z</time>
      </trkpt>
      <trkpt lat="46.059177" lon="6.106877">
        <ele>1143.249817</ele>
        <time>2017-06-01T14:35:15.000Z</time>
      </trkpt>
      <trkpt lat="46.059190" lon="6.107110">
        <ele>1142.203423</ele>
        <time>2017-06-01T14:35:17.000Z</time>
      </trkpt>
      <trkpt lat="46.059166" lon="6.107353">
        <ele>1141.104667</ele>
        <time>2017-06-01T14:35:19.000Z</time>
      </trkpt>
      <trkpt lat="46.059147" lon="6.107479">
        <ele>1140.527461</ele>
        <time>2017-06-01T14:35:20.000Z</time>
      </trkpt>
      <trkpt lat="46.059128" lon="6.107607">
        <ele>1139.941504</ele>
        <time>2017-06-01T14:35:21.000Z</time>
      </trkpt>
      <trkpt lat="46.059116" lon="6.107737">
        <ele>1139.354430</ele>
        <time>2017-06-01T14:35:22.000Z</time>
      </trkpt>
      <trkpt lat="46.059110" lon="6.107866">
        <ele>1138.775663</ele>
        <time>2017-06-01T14:35:23.000Z</time>
      </trkpt>
      <trkpt lat="46.059093" lon="6.108108">
        <ele>1137.686808</ele>
        <time>2017-06-01T14:35:25.000Z</time>
      </trkpt>
      <trkpt lat="46.059093" lon="6.108336">
        <ele>1136.650200</ele>
        <time>2017-06-01T14:35:27.000Z</time>
      </trkpt>
      <trkpt lat="46.059100" lon="6.108563">
        <ele>1135.591578</ele>
        <time>2017-06-01T14:35:29.000Z</time>
      </trkpt>
      <trkpt lat="46.059150" lon="6.108792">
        <ele>1134.473115</ele>
        <time>2017-06-01T14:35:31.000Z</time>
      </trkpt>
      <trkpt lat="46.059208" lon="6.108994">
        <ele>1133.454628</ele>
        <time>2017-06-01T14:35:33.000Z</time>
      </trkpt>
      <trkpt lat="46.059240" lon="6.109194">
        <ele>1132.498395</ele>
        <time>2017-06-01T14:35:35.000Z</time>
      </trkpt>
      <trkpt lat="46.059216" lon="6.109377">
        <ele>1131.630719</ele>
        <time>2017-06-01T14:35:37.000Z</time>
      </trkpt>
      <trkpt lat="46.059143" lon="6.109503">
        <ele>1130.865986</ele>
        <time>2017-06-01T14:35:39.000Z</time>
      </trkpt>
      <trkpt lat="46.059020" lon="6.109544">
        <ele>1130.018364</ele>
        <time>2017-06-01T14:35:41.000Z</time>
      </trkpt>
      <trkpt lat="46.058900" lon="6.109475">
        <ele>1129.150921</ele>
        <time>2017-06-01T14:35:43.000Z</time>
      </trkpt>
      <trkpt lat="46.058792" lon="6.109346">
        <ele>1128.209120</ele>
        <time>2017-06-01T14:35:45.000Z</time>
      </trkpt>
      <trkpt lat="46.058740" lon="6.109135">
        <ele>1127.165923</ele>
        <time>2017-06-01T14:35:47.000Z</time>
      </trkpt>
      <trkpt lat="46.058693" lon="6.108912">
        <ele>1126.080109</ele>
        <time>2017-06-01T14:35:49.000Z</time>
      </trkpt>
      <trkpt lat="46.058630" lon="6.108702">
        <ele>1125.014207</ele>
        <time>2017-06-01T14:35:51.000Z</time>
      </trkpt>
      <trkpt lat="46.058560" lon="6.108498">
        <ele>1124.060657</ele>
        <time>2017-06-01T14:35:53.000Z</time>
      </trkpt>
      <trkpt lat="46.058490" lon="6.108307">
        <ele>1123.158802</ele>
        <time>2017-06-01T14:35:55.000Z</time>
      </trkpt>
      <trkpt lat="46.058422" lon="6.108141">
        <ele>1122.353963</ele>
        <time>2017-06-01T14:35:57.000Z</time>
      </trkpt>
      <trkpt lat="46.058342" lon="6.107974">
        <ele>1121.506692</ele>
        <time>2017-06-01T14:35:59.000Z</time>
      </trkpt>
      <trkpt lat="46.058266" lon="6.107814">
        <ele>1120.697138</ele>
        <time>2017-06-01T14:36:01.000Z</time>
      </trkpt>
      <trkpt lat="46.058205" lon="6.107666">
        <ele>1119.978423</ele>
        <time>2017-06-01T14:36:03.000Z</time>
      </trkpt>
      <trkpt lat="46.058178" lon="6.107482">
        <ele>1119.193191</ele>
        <time>2017-06-01T14:36:05.000Z</time>
      </trkpt>
      <trkpt lat="46.058155" lon="6.107297">
        <ele>1118.408473</ele>
        <time>2017-06-01T14:36:07.000Z</time>
      </trkpt>
      <trkpt lat="46.058144" lon="6.107096">
        <ele>1117.566644</ele>
        <time>2017-06-01T14:36:09.000Z</time>
      </trkpt>
      <trkpt lat="46.058117" lon="6.106908">
        <ele>1116.765064</ele>
        <time>2017-06-01T14:36:11.000Z</time>
      </trkpt>
      <trkpt lat="46.058040" lon="6.106708">
        <ele>1115.810103</ele>
        <time>2017-06-01T14:36:13.000Z</time>
      </trkpt>
      <trkpt lat="46.057930" lon="6.106550">
        <ele>1114.875632</ele>
        <time>2017-06-01T14:36:15.000Z</time>
      </trkpt>
      <trkpt lat="46.057816" lon="6.106385">
        <ele>1113.899338</ele>
        <time>2017-06-01T14:36:17.000Z</time>
      </trkpt>
      <trkpt lat="46.057697" lon="6.106230">
        <ele>1112.918623</ele>
        <time>2017-06-01T14:36:19.000Z</time>
      </trkpt>
      <trkpt lat="46.057580" lon="6.106080">
        <ele>1111.961175</ele>
        <time>2017-06-01T14:36:21.000Z</time>
      </trkpt>
      <trkpt lat="46.057460" lon="6.105961">
        <ele>1111.070567</ele>
        <time>2017-06-01T14:36:23.000Z</time>
      </trkpt>
      <trkpt lat="46.057350" lon="6.105893">
        <ele>1110.338763</ele>
        <time>2017-06-01T14:36:25.000Z</time>
      </trkpt>
      <trkpt lat="46.057220" lon="6.105927">
        <ele>1109.530965</ele>
        <time>2017-06-01T14:36:27.000Z</time>
      </trkpt>
      <trkpt lat="46.057140" lon="6.106082">
        <ele>1108.711392</ele>
        <time>2017-06-01T14:36:29.000Z</time>
      </trkpt>
      <trkpt lat="46.057120" lon="6.106293">
        <ele>1107.807866</ele>
        <time>2017-06-01T14:36:30.000Z</time>
      </trkpt>
      <trkpt lat="46.057170" lon="6.106515">
        <ele>1106.817616</ele>
        <time>2017-06-01T14:36:32.000Z</time>
      </trkpt>
      <trkpt lat="46.057266" lon="6.106714">
        <ele>1105.789345</ele>
        <time>2017-06-01T14:36:34.000Z</time>
      </trkpt>
      <trkpt lat="46.057343" lon="6.106900">
        <ele>1104.870446</ele>
        <time>2017-06-01T14:36:36.000Z</time>
      </trkpt>
      <trkpt lat="46.057390" lon="6.107088">
        <ele>1104.022635</ele>
        <time>2017-06-01T14:36:38.000Z</time>
      </trkpt>
      <trkpt lat="46.057430" lon="6.107280">
        <ele>1103.172118</ele>
        <time>2017-06-01T14:36:40.000Z</time>
      </trkpt>
      <trkpt lat="46.057423" lon="6.107504">
        <ele>1102.370515</ele>
        <time>2017-06-01T14:36:42.000Z</time>
      </trkpt>
      <trkpt lat="46.057390" lon="6.107700">
        <ele>1101.650812</ele>
        <time>2017-06-01T14:36:44.000Z</time>
      </trkpt>
      <trkpt lat="46.057396" lon="6.107894">
        <ele>1100.957851</ele>
        <time>2017-06-01T14:36:46.000Z</time>
      </trkpt>
      <trkpt lat="46.057460" lon="6.108065">
        <ele>1100.264559</ele>
        <time>2017-06-01T14:36:48.000Z</time>
      </trkpt>
      <trkpt lat="46.057556" lon="6.108200">
        <ele>1099.574798</ele>
        <time>2017-06-01T14:36:50.000Z</time>
      </trkpt>
      <trkpt lat="46.057620" lon="6.108346">
        <ele>1098.958569</ele>
        <time>2017-06-01T14:36:52.000Z</time>
      </trkpt>
      <trkpt lat="46.057650" lon="6.108525">
        <ele>1098.301459</ele>
        <time>2017-06-01T14:36:54.000Z</time>
      </trkpt>
      <trkpt lat="46.057655" lon="6.108781">
        <ele>1097.387585</ele>
        <time>2017-06-01T14:36:56.000Z</time>
      </trkpt>
      <trkpt lat="46.057660" lon="6.108997">
        <ele>1096.616381</ele>
        <time>2017-06-01T14:36:58.000Z</time>
      </trkpt>
      <trkpt lat="46.057682" lon="6.109216">
        <ele>1095.826754</ele>
        <time>2017-06-01T14:37:00.000Z</time>
      </trkpt>
      <trkpt lat="46.057670" lon="6.109403">
        <ele>1095.156615</ele>
        <time>2017-06-01T14:37:02.000Z</time>
      </trkpt>
      <trkpt lat="46.057655" lon="6.109593">
        <ele>1094.474245</ele>
        <time>2017-06-01T14:37:04.000Z</time>
      </trkpt>
      <trkpt lat="46.057580" lon="6.109697">
        <ele>1093.939018</ele>
        <time>2017-06-01T14:37:06.000Z</time>
      </trkpt>
      <trkpt lat="46.057472" lon="6.109762">
        <ele>1093.144717</ele>
        <time>2017-06-01T14:37:08.000Z</time>
      </trkpt>
      <trkpt lat="46.057350" lon="6.109744">
        <ele>1092.303598</ele>
        <time>2017-06-01T14:37:10.000Z</time>
      </trkpt>
      <trkpt lat="46.057250" lon="6.109675">
        <ele>1091.543174</ele>
        <time>2017-06-01T14:37:12.000Z</time>
      </trkpt>
      <trkpt lat="46.057190" lon="6.109567">
        <ele>1090.884722</ele>
        <time>2017-06-01T14:37:14.000Z</time>
      </trkpt>
      <trkpt lat="46.057170" lon="6.109379">
        <ele>1089.979495</ele>
        <time>2017-06-01T14:37:16.000Z</time>
      </trkpt>
      <trkpt lat="46.057198" lon="6.109178">
        <ele>1089.003764</ele>
        <time>2017-06-01T14:37:18.000Z</time>
      </trkpt>
      <trkpt lat="46.057240" lon="6.109008">
        <ele>1088.144913</ele>
        <time>2017-06-01T14:37:20.000Z</time>
      </trkpt>
      <trkpt lat="46.057250" lon="6.108836">
        <ele>1087.323423</ele>
        <time>2017-06-01T14:37:22.000Z</time>
      </trkpt>
      <trkpt lat="46.057217" lon="6.108660">
        <ele>1086.455725</ele>
        <time>2017-06-01T14:37:24.000Z</time>
      </trkpt>
      <trkpt lat="46.057130" lon="6.108510">
        <ele>1085.525285</ele>
        <time>2017-06-01T14:37:26.000Z</time>
      </trkpt>
      <trkpt lat="46.057037" lon="6.108396">
        <ele>1084.687885</ele>
        <time>2017-06-01T14:37:28.000Z</time>
      </trkpt>
      <trkpt lat="46.056910" lon="6.108346">
        <ele>1083.784925</ele>
        <time>2017-06-01T14:37:30.000Z</time>
      </trkpt>
      <trkpt lat="46.056786" lon="6.108450">
        <ele>1082.800905</ele>
        <time>2017-06-01T14:37:32.000Z</time>
      </trkpt>
      <trkpt lat="46.056698" lon="6.108650">
        <ele>1081.673794</ele>
        <time>2017-06-01T14:37:34.000Z</time>
      </trkpt>
      <trkpt lat="46.056683" lon="6.108847">
        <ele>1080.668979</ele>
        <time>2017-06-01T14:37:36.000Z</time>
      </trkpt>
      <trkpt lat="46.056675" lon="6.109027">
        <ele>1079.748120</ele>
        <time>2017-06-01T14:37:38.000Z</time>
      </trkpt>
      <trkpt lat="46.056618" lon="6.109153">
        <ele>1078.980219</ele>
        <time>2017-06-01T14:37:40.000Z</time>
      </trkpt>
      <trkpt lat="46.056520" lon="6.109217">
        <ele>1078.188640</ele>
        <time>2017-06-01T14:37:42.000Z</time>
      </trkpt>
      <trkpt lat="46.056396" lon="6.109179">
        <ele>1077.255961</ele>
        <time>2017-06-01T14:37:44.000Z</time>
      </trkpt>
      <trkpt lat="46.056270" lon="6.109102">
        <ele>1076.249055</ele>
        <time>2017-06-01T14:37:46.000Z</time>
      </trkpt>
      <trkpt lat="46.056168" lon="6.109016">
        <ele>1075.379620</ele>
        <time>2017-06-01T14:37:48.000Z</time>
      </trkpt>
      <trkpt lat="46.056034" lon="6.108981">
        <ele>1074.377707</ele>
        <time>2017-06-01T14:37:50.000Z</time>
      </trkpt>
      <trkpt lat="46.055920" lon="6.109067">
        <ele>1073.431021</ele>
        <time>2017-06-01T14:37:52.000Z</time>
      </trkpt>
      <trkpt lat="46.055836" lon="6.109247">
        <ele>1072.323565</ele>
        <time>2017-06-01T14:37:54.000Z</time>
      </trkpt>
      <trkpt lat="46.055817" lon="6.109462">
        <ele>1071.217017</ele>
        <time>2017-06-01T14:37:56.000Z</time>
      </trkpt>
      <trkpt lat="46.055800" lon="6.109653">
        <ele>1070.233878</ele>
        <time>2017-06-01T14:37:58.000Z</time>
      </trkpt>
      <trkpt lat="46.055733" lon="6.109793">
        <ele>1069.365620</ele>
        <time>2017-06-01T14:38:00.000Z</time>
      </trkpt>
      <trkpt lat="46.055630" lon="6.109882">
        <ele>1068.482047</ele>
        <time>2017-06-01T14:38:02.000Z</time>
      </trkpt>
      <trkpt lat="46.055530" lon="6.109902">
        <ele>1067.734786</ele>
        <time>2017-06-01T14:38:04.000Z</time>
      </trkpt>
      <trkpt lat="46.055430" lon="6.109836">
        <ele>1066.919568</ele>
        <time>2017-06-01T14:38:06.000Z</time>
      </trkpt>
      <trkpt lat="46.055363" lon="6.109709">
        <ele>1066.099020</ele>
        <time>2017-06-01T14:38:08.000Z</time>
      </trkpt>
      <trkpt lat="46.055313" lon="6.109528">
        <ele>1065.097000</ele>
        <time>2017-06-01T14:38:10.000Z</time>
      </trkpt>
      <trkpt lat="46.055290" lon="6.109322">
        <ele>1064.023815</ele>
        <time>2017-06-01T14:38:12.000Z</time>
      </trkpt>
      <trkpt lat="46.055283" lon="6.109108">
        <ele>1062.921886</ele>
        <time>2017-06-01T14:38:14.000Z</time>
      </trkpt>
      <trkpt lat="46.055244" lon="6.108911">
        <ele>1061.868193</ele>
        <time>2017-06-01T14:38:16.000Z</time>
      </trkpt>
      <trkpt lat="46.055218" lon="6.108711">
        <ele>1060.821599</ele>
        <time>2017-06-01T14:38:18.000Z</time>
      </trkpt>
      <trkpt lat="46.055153" lon="6.108538">
        <ele>1059.809726</ele>
        <time>2017-06-01T14:38:20.000Z</time>
      </trkpt>
      <trkpt lat="46.055042" lon="6.108376">
        <ele>1058.638766</ele>
        <time>2017-06-01T14:38:22.000Z</time>
      </trkpt>
      <trkpt lat="46.054930" lon="6.108232">
        <ele>1057.526255</ele>
        <time>2017-06-01T14:38:24.000Z</time>
      </trkpt>
      <trkpt lat="46.054817" lon="6.108115">
        <ele>1056.494941</ele>
        <time>2017-06-01T14:38:26.000Z</time>
      </trkpt>
      <trkpt lat="46.054690" lon="6.108040">
        <ele>1055.477666</ele>
        <time>2017-06-01T14:38:28.000Z</time>
      </trkpt>
      <trkpt lat="46.054573" lon="6.108050">
        <ele>1054.921459</ele>
        <time>2017-06-01T14:38:30.000Z</time>
      </trkpt>
      <trkpt lat="46.054480" lon="6.108093">
        <ele>1054.756387</ele>
        <time>2017-06-01T14:38:32.000Z</time>
      </trkpt>
      <trkpt lat="46.054390" lon="6.108143">
        <ele>1054.593364</ele>
        <time>2017-06-01T14:38:34.000Z</time>
      </trkpt>
      <trkpt lat="46.054287" lon="6.108184">
        <ele>1054.412763</ele>
        <time>2017-06-01T14:38:36.000Z</time>
      </trkpt>
      <trkpt lat="46.054188" lon="6.108136">
        <ele>1054.236225</ele>
        <time>2017-06-01T14:38:38.000Z</time>
      </trkpt>
      <trkpt lat="46.054127" lon="6.108032">
        <ele>1054.076512</ele>
        <time>2017-06-01T14:38:40.000Z</time>
      </trkpt>
      <trkpt lat="46.054127" lon="6.107899">
        <ele>1053.920517</ele>
        <time>2017-06-01T14:38:42.000Z</time>
      </trkpt>
      <trkpt lat="46.054142" lon="6.107766">
        <ele>1053.762475</ele>
        <time>2017-06-01T14:38:44.000Z</time>
      </trkpt>
      <trkpt lat="46.054153" lon="6.107614">
        <ele>1053.583228</ele>
        <time>2017-06-01T14:38:46.000Z</time>
      </trkpt>
      <trkpt lat="46.054157" lon="6.107477">
        <ele>1053.422400</ele>
        <time>2017-06-01T14:38:48.000Z</time>
      </trkpt>
      <trkpt lat="46.054184" lon="6.107349">
        <ele>1053.265487</ele>
        <time>2017-06-01T14:38:50.000Z</time>
      </trkpt>
      <trkpt lat="46.054184" lon="6.107172">
        <ele>1053.057885</ele>
        <time>2017-06-01T14:38:53.000Z</time>
      </trkpt>
      <trkpt lat="46.054173" lon="6.106981">
        <ele>1052.833092</ele>
        <time>2017-06-01T14:38:56.000Z</time>
      </trkpt>
      <trkpt lat="46.054150" lon="6.106852">
        <ele>1052.676874</ele>
        <time>2017-06-01T14:38:58.000Z</time>
      </trkpt>
      <trkpt lat="46.054127" lon="6.106670">
        <ele>1052.459897</ele>
        <time>2017-06-01T14:39:01.000Z</time>
      </trkpt>
      <trkpt lat="46.054100" lon="6.106501">
        <ele>1052.256493</ele>
        <time>2017-06-01T14:39:04.000Z</time>
      </trkpt>
      <trkpt lat="46.054066" lon="6.106343">
        <ele>1052.062470</ele>
        <time>2017-06-01T14:39:07.000Z</time>
      </trkpt>
      <trkpt lat="46.053993" lon="6.106200">
        <ele>1052.200593</ele>
        <time>2017-06-01T14:39:10.000Z</time>
      </trkpt>
      <trkpt lat="46.053900" lon="6.106084">
        <ele>1052.594620</ele>
        <time>2017-06-01T14:39:13.000Z</time>
      </trkpt>
      <trkpt lat="46.053814" lon="6.106008">
        <ele>1052.917797</ele>
        <time>2017-06-01T14:39:16.000Z</time>
      </trkpt>
      <trkpt lat="46.053726" lon="6.105962">
        <ele>1053.217673</ele>
        <time>2017-06-01T14:39:19.000Z</time>
      </trkpt>
      <trkpt lat="46.053620" lon="6.105901">
        <ele>1053.583313</ele>
        <time>2017-06-01T14:39:23.000Z</time>
      </trkpt>
      <trkpt lat="46.053520" lon="6.105810">
        <ele>1053.962188</ele>
        <time>2017-06-01T14:39:27.000Z</time>
      </trkpt>
      <trkpt lat="46.053460" lon="6.105686">
        <ele>1054.298247</ele>
        <time>2017-06-01T14:39:31.000Z</time>
      </trkpt>
      <trkpt lat="46.053436" lon="6.105528">
        <ele>1054.657817</ele>
        <time>2017-06-01T14:39:35.000Z</time>
      </trkpt>
      <trkpt lat="46.053467" lon="6.105385">
        <ele>1054.990874</ele>
        <time>2017-06-01T14:39:39.000Z</time>
      </trkpt>
      <trkpt lat="46.053543" lon="6.105267">
        <ele>1055.348769</ele>
        <time>2017-06-01T14:39:43.000Z</time>
      </trkpt>
      <trkpt lat="46.053630" lon="6.105192">
        <ele>1055.673535</ele>
        <time>2017-06-01T14:39:47.000Z</time>
      </trkpt>
      <trkpt lat="46.053734" lon="6.105175">
        <ele>1056.008827</ele>
        <time>2017-06-01T14:39:51.000Z</time>
      </trkpt>
      <trkpt lat="46.053840" lon="6.105219">
        <ele>1056.362197</ele>
        <time>2017-06-01T14:39:55.000Z</time>
      </trkpt>
      <trkpt lat="46.053944" lon="6.105248">
        <ele>1056.701533</ele>
        <time>2017-06-01T14:39:59.000Z</time>
      </trkpt>
      <trkpt lat="46.054043" lon="6.105268">
        <ele>1057.021773</ele>
        <time>2017-06-01T14:40:03.000Z</time>
      </trkpt>
      <trkpt lat="46.054146" lon="6.105245">
        <ele>1057.355664</ele>
        <time>2017-06-01T14:40:07.000Z</time>
      </trkpt>
      <trkpt lat="46.054230" lon="6.105194">
        <ele>1057.647661</ele>
        <time>2017-06-01T14:40:11.000Z</time>
      </trkpt>
      <trkpt lat="46.054317" lon="6.105127">
        <ele>1058.134090</ele>
        <time>2017-06-01T14:40:15.000Z</time>
      </trkpt>
      <trkpt lat="46.054394" lon="6.105061">
        <ele>1058.635637</ele>
        <time>2017-06-01T14:40:19.000Z</time>
      </trkpt>
      <trkpt lat="46.054480" lon="6.105003">
        <ele>1059.167192</ele>
        <time>2017-06-01T14:40:23.000Z</time>
      </trkpt>
      <trkpt lat="46.054560" lon="6.104938">
        <ele>1059.681324</ele>
        <time>2017-06-01T14:40:27.000Z</time>
      </trkpt>
      <trkpt lat="46.054638" lon="6.104870">
        <ele>1060.191668</ele>
        <time>2017-06-01T14:40:31.000Z</time>
      </trkpt>
      <trkpt lat="46.054740" lon="6.104801">
        <ele>1060.822462</ele>
        <time>2017-06-01T14:40:36.000Z</time>
      </trkpt>
      <trkpt lat="46.054832" lon="6.104728">
        <ele>1061.410404</ele>
        <time>2017-06-01T14:40:41.000Z</time>
      </trkpt>
      <trkpt lat="46.054928" lon="6.104646">
        <ele>1062.035141</ele>
        <time>2017-06-01T14:40:46.000Z</time>
      </trkpt>
      <trkpt lat="46.055010" lon="6.104569">
        <ele>1062.583048</ele>
        <time>2017-06-01T14:40:52.000Z</time>
      </trkpt>
      <trkpt lat="46.055096" lon="6.104497">
        <ele>1063.139840</ele>
        <time>2017-06-01T14:40:57.000Z</time>
      </trkpt>
      <trkpt lat="46.055180" lon="6.104413">
        <ele>1063.712216</ele>
        <time>2017-06-01T14:41:02.000Z</time>
      </trkpt>
      <trkpt lat="46.055244" lon="6.104283">
        <ele>1064.331426</ele>
        <time>2017-06-01T14:41:07.000Z</time>
      </trkpt>
      <trkpt lat="46.055298" lon="6.104145">
        <ele>1064.946891</ele>
        <time>2017-06-01T14:41:12.000Z</time>
      </trkpt>
      <trkpt lat="46.055347" lon="6.104007">
        <ele>1065.549102</ele>
        <time>2017-06-01T14:41:17.000Z</time>
      </trkpt>
      <trkpt lat="46.055390" lon="6.103889">
        <ele>1066.066874</ele>
        <time>2017-06-01T14:41:21.000Z</time>
      </trkpt>
      <trkpt lat="46.055412" lon="6.103745">
        <ele>1066.639689</ele>
        <time>2017-06-01T14:41:25.000Z</time>
      </trkpt>
      <trkpt lat="46.055443" lon="6.103599">
        <ele>1067.232832</ele>
        <time>2017-06-01T14:41:30.000Z</time>
      </trkpt>
      <trkpt lat="46.055492" lon="6.103473">
        <ele>1067.793943</ele>
        <time>2017-06-01T14:41:35.000Z</time>
      </trkpt>
      <trkpt lat="46.055540" lon="6.103353">
        <ele>1068.047599</ele>
        <time>2017-06-01T14:41:39.000Z</time>
      </trkpt>
      <trkpt lat="46.055584" lon="6.103206">
        <ele>1068.334131</ele>
        <time>2017-06-01T14:41:44.000Z</time>
      </trkpt>
      <trkpt lat="46.055626" lon="6.103092">
        <ele>1068.565141</ele>
        <time>2017-06-01T14:41:48.000Z</time>
      </trkpt>
      <trkpt lat="46.055650" lon="6.102963">
        <ele>1068.804179</ele>
        <time>2017-06-01T14:41:52.000Z</time>
      </trkpt>
      <trkpt lat="46.055695" lon="6.102830">
        <ele>1069.069009</ele>
        <time>2017-06-01T14:41:56.000Z</time>
      </trkpt>
      <trkpt lat="46.055744" lon="6.102690">
        <ele>1069.349647</ele>
        <time>2017-06-01T14:42:00.000Z</time>
      </trkpt>
      <trkpt lat="46.055786" lon="6.102541">
        <ele>1069.637487</ele>
        <time>2017-06-01T14:42:04.000Z</time>
      </trkpt>
      <trkpt lat="46.055824" lon="6.102414">
        <ele>1069.885021</ele>
        <time>2017-06-01T14:42:08.000Z</time>
      </trkpt>
      <trkpt lat="46.055860" lon="6.102294">
        <ele>1070.119007</ele>
        <time>2017-06-01T14:42:13.000Z</time>
      </trkpt>
      <trkpt lat="46.055893" lon="6.102167">
        <ele>1070.361723</ele>
        <time>2017-06-01T14:42:17.000Z</time>
      </trkpt>
      <trkpt lat="46.055927" lon="6.102035">
        <ele>1070.613725</ele>
        <time>2017-06-01T14:42:21.000Z</time>
      </trkpt>
      <trkpt lat="46.055965" lon="6.101905">
        <ele>1070.866197</ele>
        <time>2017-06-01T14:42:25.000Z</time>
      </trkpt>
      <trkpt lat="46.056004" lon="6.101764">
        <ele>1071.137865</ele>
        <time>2017-06-01T14:42:29.000Z</time>
      </trkpt>
      <trkpt lat="46.056040" lon="6.101642">
        <ele>1071.375140</ele>
        <time>2017-06-01T14:42:33.000Z</time>
      </trkpt>
      <trkpt lat="46.056070" lon="6.101502">
        <ele>1071.637385</ele>
        <time>2017-06-01T14:42:38.000Z</time>
      </trkpt>
      <trkpt lat="46.056084" lon="6.101368">
        <ele>1071.879920</ele>
        <time>2017-06-01T14:42:42.000Z</time>
      </trkpt>
      <trkpt lat="46.056110" lon="6.101161">
        <ele>1072.256426</ele>
        <time>2017-06-01T14:43:17.000Z</time>
      </trkpt>
      <trkpt lat="46.056110" lon="6.101004">
        <ele>1072.453413</ele>
        <time>2017-06-01T14:43:22.000Z</time>
      </trkpt>
      <trkpt lat="46.056120" lon="6.100863">
        <ele>1072.480109</ele>
        <time>2017-06-01T14:43:27.000Z</time>
      </trkpt>
      <trkpt lat="46.056103" lon="6.100708">
        <ele>1072.509667</ele>
        <time>2017-06-01T14:43:32.000Z</time>
      </trkpt>
      <trkpt lat="46.056103" lon="6.100567">
        <ele>1072.536225</ele>
        <time>2017-06-01T14:43:36.000Z</time>
      </trkpt>
      <trkpt lat="46.056107" lon="6.100411">
        <ele>1072.565628</ele>
        <time>2017-06-01T14:43:40.000Z</time>
      </trkpt>
      <trkpt lat="46.056107" lon="6.100266">
        <ele>1072.592939</ele>
        <time>2017-06-01T14:43:43.000Z</time>
      </trkpt>
      <trkpt lat="46.056107" lon="6.100091">
        <ele>1072.625901</ele>
        <time>2017-06-01T14:43:46.000Z</time>
      </trkpt>
      <trkpt lat="46.056100" lon="6.099904">
        <ele>1072.661175</ele>
        <time>2017-06-01T14:43:49.000Z</time>
      </trkpt>
      <trkpt lat="46.056090" lon="6.099715">
        <ele>1072.696877</ele>
        <time>2017-06-01T14:43:52.000Z</time>
      </trkpt>
      <trkpt lat="46.056076" lon="6.099524">
        <ele>1072.733053</ele>
        <time>2017-06-01T14:43:55.000Z</time>
      </trkpt>
      <trkpt lat="46.056040" lon="6.099366">
        <ele>1072.764376</ele>
        <time>2017-06-01T14:43:58.000Z</time>
      </trkpt>
      <trkpt lat="46.056007" lon="6.099227">
        <ele>1072.792047</ele>
        <time>2017-06-01T14:44:01.000Z</time>
      </trkpt>
      <trkpt lat="46.055965" lon="6.099097">
        <ele>1072.819057</ele>
        <time>2017-06-01T14:44:04.000Z</time>
      </trkpt>
      <trkpt lat="46.055930" lon="6.098969">
        <ele>1072.844971</ele>
        <time>2017-06-01T14:44:07.000Z</time>
      </trkpt>
      <trkpt lat="46.055880" lon="6.098825">
        <ele>1072.875300</ele>
        <time>2017-06-01T14:44:11.000Z</time>
      </trkpt>
      <trkpt lat="46.055850" lon="6.098682">
        <ele>1072.903438</ele>
        <time>2017-06-01T14:44:15.000Z</time>
      </trkpt>
      <trkpt lat="46.055847" lon="6.098532">
        <ele>1072.931703</ele>
        <time>2017-06-01T14:44:19.000Z</time>
      </trkpt>
      <trkpt lat="46.055850" lon="6.098388">
        <ele>1073.293952</ele>
        <time>2017-06-01T14:44:23.000Z</time>
      </trkpt>
      <trkpt lat="46.055860" lon="6.098251">
        <ele>1073.640582</ele>
        <time>2017-06-01T14:44:27.000Z</time>
      </trkpt>
      <trkpt lat="46.055890" lon="6.098130">
        <ele>1073.963899</ele>
        <time>2017-06-01T14:44:31.000Z</time>
      </trkpt>
      <trkpt lat="46.055950" lon="6.098032">
        <ele>1074.292746</ele>
        <time>2017-06-01T14:44:35.000Z</time>
      </trkpt>
      <trkpt lat="46.056015" lon="6.097936">
        <ele>1074.630237</ele>
        <time>2017-06-01T14:44:39.000Z</time>
      </trkpt>
      <trkpt lat="46.056080" lon="6.097804">
        <ele>1075.037508</ele>
        <time>2017-06-01T14:44:44.000Z</time>
      </trkpt>
      <trkpt lat="46.056156" lon="6.097696">
        <ele>1075.424538</ele>
        <time>2017-06-01T14:44:49.000Z</time>
      </trkpt>
      <trkpt lat="46.056220" lon="6.097573">
        <ele>1075.811374</ele>
        <time>2017-06-01T14:44:53.000Z</time>
      </trkpt>
      <trkpt lat="46.056286" lon="6.097458">
        <ele>1076.186881</ele>
        <time>2017-06-01T14:44:57.000Z</time>
      </trkpt>
      <trkpt lat="46.056360" lon="6.097374">
        <ele>1076.528453</ele>
        <time>2017-06-01T14:45:01.000Z</time>
      </trkpt>
      <trkpt lat="46.056440" lon="6.097303">
        <ele>1076.869132</ele>
        <time>2017-06-01T14:45:06.000Z</time>
      </trkpt>
      <trkpt lat="46.056484" lon="6.097162">
        <ele>1077.258143</ele>
        <time>2017-06-01T14:45:11.000Z</time>
      </trkpt>
      <trkpt lat="46.056510" lon="6.097004">
        <ele>1077.666734</ele>
        <time>2017-06-01T14:45:15.000Z</time>
      </trkpt>
      <trkpt lat="46.056550" lon="6.096884">
        <ele>1078.001710</ele>
        <time>2017-06-01T14:45:18.000Z</time>
      </trkpt>
      <trkpt lat="46.056590" lon="6.096768">
        <ele>1078.327642</ele>
        <time>2017-06-01T14:45:21.000Z</time>
      </trkpt>
      <trkpt lat="46.056644" lon="6.096650">
        <ele>1078.683307</ele>
        <time>2017-06-01T14:45:24.000Z</time>
      </trkpt>
      <trkpt lat="46.056710" lon="6.096541">
        <ele>1079.047305</ele>
        <time>2017-06-01T14:45:27.000Z</time>
      </trkpt>
      <trkpt lat="46.056793" lon="6.096424">
        <ele>1079.436336</ele>
        <time>2017-06-01T14:45:30.000Z</time>
      </trkpt>
      <trkpt lat="46.056885" lon="6.096292">
        <ele>1078.887261</ele>
        <time>2017-06-01T14:45:33.000Z</time>
      </trkpt>
      <trkpt lat="46.056980" lon="6.096153">
        <ele>1078.314672</ele>
        <time>2017-06-01T14:45:36.000Z</time>
      </trkpt>
      <trkpt lat="46.057045" lon="6.096056">
        <ele>1077.918920</ele>
        <time>2017-06-01T14:45:38.000Z</time>
      </trkpt>
      <trkpt lat="46.057130" lon="6.095977">
        <ele>1077.491143</ele>
        <time>2017-06-01T14:45:40.000Z</time>
      </trkpt>
      <trkpt lat="46.057198" lon="6.095881">
        <ele>1077.088534</ele>
        <time>2017-06-01T14:45:42.000Z</time>
      </trkpt>
      <trkpt lat="46.057270" lon="6.095785">
        <ele>1076.673672</ele>
        <time>2017-06-01T14:45:44.000Z</time>
      </trkpt>
      <trkpt lat="46.057343" lon="6.095689">
        <ele>1076.255696</ele>
        <time>2017-06-01T14:45:46.000Z</time>
      </trkpt>
      <trkpt lat="46.057415" lon="6.095587">
        <ele>1075.828679</ele>
        <time>2017-06-01T14:45:48.000Z</time>
      </trkpt>
      <trkpt lat="46.057500" lon="6.095514">
        <ele>1075.410186</ele>
        <time>2017-06-01T14:45:50.000Z</time>
      </trkpt>
      <trkpt lat="46.057610" lon="6.095457">
        <ele>1074.915796</ele>
        <time>2017-06-01T14:45:52.000Z</time>
      </trkpt>
      <trkpt lat="46.057747" lon="6.095409">
        <ele>1074.319499</ele>
        <time>2017-06-01T14:45:54.000Z</time>
      </trkpt>
      <trkpt lat="46.057920" lon="6.095345">
        <ele>1073.564100</ele>
        <time>2017-06-01T14:45:56.000Z</time>
      </trkpt>
      <trkpt lat="46.058006" lon="6.095306">
        <ele>1073.182793</ele>
        <time>2017-06-01T14:45:57.000Z</time>
      </trkpt>
      <trkpt lat="46.058167" lon="6.095213">
        <ele>1072.449205</ele>
        <time>2017-06-01T14:45:59.000Z</time>
      </trkpt>
      <trkpt lat="46.058250" lon="6.095163">
        <ele>1072.068733</ele>
        <time>2017-06-01T14:46:00.000Z</time>
      </trkpt>
      <trkpt lat="46.058410" lon="6.095068">
        <ele>1070.631626</ele>
        <time>2017-06-01T14:46:02.000Z</time>
      </trkpt>
      <trkpt lat="46.058563" lon="6.094987">
        <ele>1068.988323</ele>
        <time>2017-06-01T14:46:04.000Z</time>
      </trkpt>
      <trkpt lat="46.058720" lon="6.094928">
        <ele>1067.352556</ele>
        <time>2017-06-01T14:46:06.000Z</time>
      </trkpt>
      <trkpt lat="46.058884" lon="6.094873">
        <ele>1065.654968</ele>
        <time>2017-06-01T14:46:08.000Z</time>
      </trkpt>
      <trkpt lat="46.059048" lon="6.094827">
        <ele>1063.970535</ele>
        <time>2017-06-01T14:46:10.000Z</time>
      </trkpt>
      <trkpt lat="46.059196" lon="6.094776">
        <ele>1062.436372</ele>
        <time>2017-06-01T14:46:12.000Z</time>
      </trkpt>
      <trkpt lat="46.059334" lon="6.094713">
        <ele>1060.976950</ele>
        <time>2017-06-01T14:46:14.000Z</time>
      </trkpt>
      <trkpt lat="46.059464" lon="6.094634">
        <ele>1059.554562</ele>
        <time>2017-06-01T14:46:16.000Z</time>
      </trkpt>
      <trkpt lat="46.059590" lon="6.094557">
        <ele>1058.174766</ele>
        <time>2017-06-01T14:46:18.000Z</time>
      </trkpt>
      <trkpt lat="46.059704" lon="6.094455">
        <ele>1056.821947</ele>
        <time>2017-06-01T14:46:20.000Z</time>
      </trkpt>
      <trkpt lat="46.059820" lon="6.094342">
        <ele>1055.410345</ele>
        <time>2017-06-01T14:46:22.000Z</time>
      </trkpt>
      <trkpt lat="46.059925" lon="6.094215">
        <ele>1054.028329</ele>
        <time>2017-06-01T14:46:24.000Z</time>
      </trkpt>
      <trkpt lat="46.060043" lon="6.094084">
        <ele>1051.924842</ele>
        <time>2017-06-01T14:46:26.000Z</time>
      </trkpt>
      <trkpt lat="46.060150" lon="6.093983">
        <ele>1049.981204</ele>
        <time>2017-06-01T14:46:28.000Z</time>
      </trkpt>
      <trkpt lat="46.060250" lon="6.093892">
        <ele>1048.184071</ele>
        <time>2017-06-01T14:46:30.000Z</time>
      </trkpt>
      <trkpt lat="46.060352" lon="6.093800">
        <ele>1046.355598</ele>
        <time>2017-06-01T14:46:32.000Z</time>
      </trkpt>
      <trkpt lat="46.060460" lon="6.093686">
        <ele>1044.321364</ele>
        <time>2017-06-01T14:46:34.000Z</time>
      </trkpt>
      <trkpt lat="46.060570" lon="6.093579">
        <ele>1042.304738</ele>
        <time>2017-06-01T14:46:36.000Z</time>
      </trkpt>
      <trkpt lat="46.060680" lon="6.093479">
        <ele>1040.328459</ele>
        <time>2017-06-01T14:46:38.000Z</time>
      </trkpt>
      <trkpt lat="46.060790" lon="6.093380">
        <ele>1038.357786</ele>
        <time>2017-06-01T14:46:40.000Z</time>
      </trkpt>
      <trkpt lat="46.060913" lon="6.093267">
        <ele>1036.141276</ele>
        <time>2017-06-01T14:46:42.000Z</time>
      </trkpt>
      <trkpt lat="46.061040" lon="6.093166">
        <ele>1033.937118</ele>
        <time>2017-06-01T14:46:44.000Z</time>
      </trkpt>
      <trkpt lat="46.061172" lon="6.093096">
        <ele>1031.799833</ele>
        <time>2017-06-01T14:46:46.000Z</time>
      </trkpt>
      <trkpt lat="46.061314" lon="6.093035">
        <ele>1029.548261</ele>
        <time>2017-06-01T14:46:48.000Z</time>
      </trkpt>
      <trkpt lat="46.061450" lon="6.092978">
        <ele>1027.396063</ele>
        <time>2017-06-01T14:46:50.000Z</time>
      </trkpt>
      <trkpt lat="46.061584" lon="6.092923">
        <ele>1025.491077</ele>
        <time>2017-06-01T14:46:52.000Z</time>
      </trkpt>
      <trkpt lat="46.061703" lon="6.092876">
        <ele>1023.976818</ele>
        <time>2017-06-01T14:46:54.000Z</time>
      </trkpt>
      <trkpt lat="46.061820" lon="6.092843">
        <ele>1022.513715</ele>
        <time>2017-06-01T14:46:56.000Z</time>
      </trkpt>
      <trkpt lat="46.061930" lon="6.092826">
        <ele>1021.156018</ele>
        <time>2017-06-01T14:46:58.000Z</time>
      </trkpt>
      <trkpt lat="46.062046" lon="6.092827">
        <ele>1019.732401</ele>
        <time>2017-06-01T14:47:00.000Z</time>
      </trkpt>
      <trkpt lat="46.062157" lon="6.092850">
        <ele>1018.356164</ele>
        <time>2017-06-01T14:47:02.000Z</time>
      </trkpt>
      <trkpt lat="46.062283" lon="6.092871">
        <ele>1016.799543</ele>
        <time>2017-06-01T14:47:04.000Z</time>
      </trkpt>
      <trkpt lat="46.062420" lon="6.092908">
        <ele>1015.088966</ele>
        <time>2017-06-01T14:47:06.000Z</time>
      </trkpt>
      <trkpt lat="46.062553" lon="6.092939">
        <ele>1013.435536</ele>
        <time>2017-06-01T14:47:08.000Z</time>
      </trkpt>
      <trkpt lat="46.062683" lon="6.092965">
        <ele>1011.824843</ele>
        <time>2017-06-01T14:47:10.000Z</time>
      </trkpt>
      <trkpt lat="46.062805" lon="6.092988">
        <ele>1010.314862</ele>
        <time>2017-06-01T14:47:12.000Z</time>
      </trkpt>
      <trkpt lat="46.062935" lon="6.093013">
        <ele>1008.705318</ele>
        <time>2017-06-01T14:47:14.000Z</time>
      </trkpt>
      <trkpt lat="46.063065" lon="6.093037">
        <ele>1007.096878</ele>
        <time>2017-06-01T14:47:16.000Z</time>
      </trkpt>
      <trkpt lat="46.063190" lon="6.093056">
        <ele>1005.554327</ele>
        <time>2017-06-01T14:47:18.000Z</time>
      </trkpt>
      <trkpt lat="46.063313" lon="6.093069">
        <ele>1004.057259</ele>
        <time>2017-06-01T14:47:20.000Z</time>
      </trkpt>
      <trkpt lat="46.063435" lon="6.093082">
        <ele>1002.648445</ele>
        <time>2017-06-01T14:47:22.000Z</time>
      </trkpt>
      <trkpt lat="46.063557" lon="6.093088">
        <ele>1001.242649</ele>
        <time>2017-06-01T14:47:24.000Z</time>
      </trkpt>
      <trkpt lat="46.063675" lon="6.093071">
        <ele>999.876962</ele>
        <time>2017-06-01T14:47:26.000Z</time>
      </trkpt>
      <trkpt lat="46.063800" lon="6.093041">
        <ele>998.417612</ele>
        <time>2017-06-01T14:47:28.000Z</time>
      </trkpt>
      <trkpt lat="46.063927" lon="6.092992">
        <ele>996.903550</ele>
        <time>2017-06-01T14:47:30.000Z</time>
      </trkpt>
      <trkpt lat="46.064050" lon="6.092920">
        <ele>995.374677</ele>
        <time>2017-06-01T14:47:32.000Z</time>
      </trkpt>
      <trkpt lat="46.064194" lon="6.092835">
        <ele>993.582643</ele>
        <time>2017-06-01T14:47:34.000Z</time>
      </trkpt>
      <trkpt lat="46.064340" lon="6.092743">
        <ele>991.747591</ele>
        <time>2017-06-01T14:47:36.000Z</time>
      </trkpt>
      <trkpt lat="46.064480" lon="6.092670">
        <ele>990.033046</ele>
        <time>2017-06-01T14:47:38.000Z</time>
      </trkpt>
      <trkpt lat="46.064613" lon="6.092630">
        <ele>988.468396</ele>
        <time>2017-06-01T14:47:40.000Z</time>
      </trkpt>
      <trkpt lat="46.064743" lon="6.092619">
        <ele>986.968709</ele>
        <time>2017-06-01T14:47:42.000Z</time>
      </trkpt>
      <trkpt lat="46.064877" lon="6.092647">
        <ele>985.409402</ele>
        <time>2017-06-01T14:47:44.000Z</time>
      </trkpt>
      <trkpt lat="46.065010" lon="6.092709">
        <ele>983.799619</ele>
        <time>2017-06-01T14:47:46.000Z</time>
      </trkpt>
      <trkpt lat="46.065147" lon="6.092799">
        <ele>982.078562</ele>
        <time>2017-06-01T14:47:48.000Z</time>
      </trkpt>
      <trkpt lat="46.065280" lon="6.092886">
        <ele>980.410645</ele>
        <time>2017-06-01T14:47:50.000Z</time>
      </trkpt>
      <trkpt lat="46.065400" lon="6.092966">
        <ele>978.900796</ele>
        <time>2017-06-01T14:47:52.000Z</time>
      </trkpt>
      <trkpt lat="46.065525" lon="6.093048">
        <ele>977.332443</ele>
        <time>2017-06-01T14:47:54.000Z</time>
      </trkpt>
      <trkpt lat="46.065647" lon="6.093140">
        <ele>975.760077</ele>
        <time>2017-06-01T14:47:56.000Z</time>
      </trkpt>
      <trkpt lat="46.065765" lon="6.093234">
        <ele>974.220436</ele>
        <time>2017-06-01T14:47:58.000Z</time>
      </trkpt>
      <trkpt lat="46.065880" lon="6.093319">
        <ele>972.744562</ele>
        <time>2017-06-01T14:48:00.000Z</time>
      </trkpt>
      <trkpt lat="46.065990" lon="6.093406">
        <ele>971.311702</ele>
        <time>2017-06-01T14:48:02.000Z</time>
      </trkpt>
      <trkpt lat="46.066097" lon="6.093486">
        <ele>969.935183</ele>
        <time>2017-06-01T14:48:04.000Z</time>
      </trkpt>
      <trkpt lat="46.066196" lon="6.093565">
        <ele>968.642933</ele>
        <time>2017-06-01T14:48:06.000Z</time>
      </trkpt>
      <trkpt lat="46.066300" lon="6.093642">
        <ele>967.307760</ele>
        <time>2017-06-01T14:48:08.000Z</time>
      </trkpt>
      <trkpt lat="46.066395" lon="6.093718">
        <ele>966.066986</ele>
        <time>2017-06-01T14:48:10.000Z</time>
      </trkpt>
      <trkpt lat="46.066490" lon="6.093791">
        <ele>964.837572</ele>
        <time>2017-06-01T14:48:12.000Z</time>
      </trkpt>
      <trkpt lat="46.066593" lon="6.093874">
        <ele>963.489999</ele>
        <time>2017-06-01T14:48:14.000Z</time>
      </trkpt>
      <trkpt lat="46.066692" lon="6.093943">
        <ele>962.474249</ele>
        <time>2017-06-01T14:48:16.000Z</time>
      </trkpt>
      <trkpt lat="46.066800" lon="6.093953">
        <ele>961.599819</ele>
        <time>2017-06-01T14:48:18.000Z</time>
      </trkpt>
      <trkpt lat="46.066895" lon="6.093888">
        <ele>960.750126</ele>
        <time>2017-06-01T14:48:20.000Z</time>
      </trkpt>
      <trkpt lat="46.066963" lon="6.093760">
        <ele>959.846366</ele>
        <time>2017-06-01T14:48:22.000Z</time>
      </trkpt>
      <trkpt lat="46.066982" lon="6.093587">
        <ele>958.864455</ele>
        <time>2017-06-01T14:48:24.000Z</time>
      </trkpt>
      <trkpt lat="46.066948" lon="6.093423">
        <ele>957.904907</ele>
        <time>2017-06-01T14:48:26.000Z</time>
      </trkpt>
      <trkpt lat="46.066900" lon="6.093284">
        <ele>957.034493</ele>
        <time>2017-06-01T14:48:28.000Z</time>
      </trkpt>
      <trkpt lat="46.066840" lon="6.093138">
        <ele>956.083215</ele>
        <time>2017-06-01T14:48:30.000Z</time>
      </trkpt>
      <trkpt lat="46.066776" lon="6.093006">
        <ele>955.180444</ele>
        <time>2017-06-01T14:48:32.000Z</time>
      </trkpt>
      <trkpt lat="46.066720" lon="6.092878">
        <ele>954.332128</ele>
        <time>2017-06-01T14:48:34.000Z</time>
      </trkpt>
      <trkpt lat="46.066670" lon="6.092756">
        <ele>953.537786</ele>
        <time>2017-06-01T14:48:36.000Z</time>
      </trkpt>
      <trkpt lat="46.066593" lon="6.092601">
        <ele>952.469086</ele>
        <time>2017-06-01T14:48:39.000Z</time>
      </trkpt>
      <trkpt lat="46.066530" lon="6.092435">
        <ele>951.408362</ele>
        <time>2017-06-01T14:48:42.000Z</time>
      </trkpt>
      <trkpt lat="46.066483" lon="6.092319">
        <ele>950.655298</ele>
        <time>2017-06-01T14:48:44.000Z</time>
      </trkpt>
      <trkpt lat="46.066430" lon="6.092148">
        <ele>949.605364</ele>
        <time>2017-06-01T14:48:47.000Z</time>
      </trkpt>
      <trkpt lat="46.066402" lon="6.091987">
        <ele>948.674868</ele>
        <time>2017-06-01T14:48:50.000Z</time>
      </trkpt>
      <trkpt lat="46.066402" lon="6.091850">
        <ele>947.705881</ele>
        <time>2017-06-01T14:48:53.000Z</time>
      </trkpt>
      <trkpt lat="46.066430" lon="6.091722">
        <ele>946.707734</ele>
        <time>2017-06-01T14:48:57.000Z</time>
      </trkpt>
      <trkpt lat="46.066463" lon="6.091590">
        <ele>945.664248</ele>
        <time>2017-06-01T14:49:02.000Z</time>
      </trkpt>
      <trkpt lat="46.066490" lon="6.091460">
        <ele>944.655032</ele>
        <time>2017-06-01T14:49:07.000Z</time>
      </trkpt>
      <trkpt lat="46.066520" lon="6.091322">
        <ele>943.579509</ele>
        <time>2017-06-01T14:49:14.000Z</time>
      </trkpt>
      <trkpt lat="46.066513" lon="6.091169">
        <ele>942.439157</ele>
        <time>2017-06-01T14:49:20.000Z</time>
      </trkpt>
      <trkpt lat="46.066498" lon="6.091034">
        <ele>941.422352</ele>
        <time>2017-06-01T14:49:24.000Z</time>
      </trkpt>
      <trkpt lat="46.066433" lon="6.090904">
        <ele>940.230630</ele>
        <time>2017-06-01T14:49:28.000Z</time>
      </trkpt>
      <trkpt lat="46.066370" lon="6.090804">
        <ele>939.226069</ele>
        <time>2017-06-01T14:49:31.000Z</time>
      </trkpt>
      <trkpt lat="46.066307" lon="6.090678">
        <ele>938.071014</ele>
        <time>2017-06-01T14:49:35.000Z</time>
      </trkpt>
      <trkpt lat="46.066210" lon="6.090572">
        <ele>936.766193</ele>
        <time>2017-06-01T14:50:07.000Z</time>
      </trkpt>
      <trkpt lat="46.066130" lon="6.090463">
        <ele>935.586148</ele>
        <time>2017-06-01T14:50:10.000Z</time>
      </trkpt>
      <trkpt lat="46.066040" lon="6.090349">
        <ele>934.301817</ele>
        <time>2017-06-01T14:50:13.000Z</time>
      </trkpt>
      <trkpt lat="46.065970" lon="6.090261">
        <ele>933.306158</ele>
        <time>2017-06-01T14:50:15.000Z</time>
      </trkpt>
      <trkpt lat="46.065903" lon="6.090163">
        <ele>932.282930</ele>
        <time>2017-06-01T14:50:17.000Z</time>
      </trkpt>
      <trkpt lat="46.065830" lon="6.090067">
        <ele>931.223661</ele>
        <time>2017-06-01T14:50:19.000Z</time>
      </trkpt>
      <trkpt lat="46.065754" lon="6.089975">
        <ele>930.159793</ele>
        <time>2017-06-01T14:50:21.000Z</time>
      </trkpt>
      <trkpt lat="46.065674" lon="6.089875">
        <ele>929.086840</ele>
        <time>2017-06-01T14:50:23.000Z</time>
      </trkpt>
      <trkpt lat="46.065590" lon="6.089788">
        <ele>928.294724</ele>
        <time>2017-06-01T14:50:25.000Z</time>
      </trkpt>
      <trkpt lat="46.065506" lon="6.089699">
        <ele>927.496360</ele>
        <time>2017-06-01T14:50:27.000Z</time>
      </trkpt>
      <trkpt lat="46.065426" lon="6.089602">
        <ele>926.695782</ele>
        <time>2017-06-01T14:50:29.000Z</time>
      </trkpt>
      <trkpt lat="46.065350" lon="6.089510">
        <ele>925.935746</ele>
        <time>2017-06-01T14:50:31.000Z</time>
      </trkpt>
      <trkpt lat="46.065240" lon="6.089402">
        <ele>924.916511</ele>
        <time>2017-06-01T14:50:34.000Z</time>
      </trkpt>
      <trkpt lat="46.065147" lon="6.089279">
        <ele>923.949924</ele>
        <time>2017-06-01T14:50:37.000Z</time>
      </trkpt>
      <trkpt lat="46.065080" lon="6.089124">
        <ele>922.979622</ele>
        <time>2017-06-01T14:50:40.000Z</time>
      </trkpt>
      <trkpt lat="46.065050" lon="6.088964">
        <ele>922.099005</ele>
        <time>2017-06-01T14:50:43.000Z</time>
      </trkpt>
      <trkpt lat="46.065030" lon="6.088831">
        <ele>921.375934</ele>
        <time>2017-06-01T14:50:46.000Z</time>
      </trkpt>
      <trkpt lat="46.065067" lon="6.088682">
        <ele>920.535082</ele>
        <time>2017-06-01T14:50:49.000Z</time>
      </trkpt>
      <trkpt lat="46.065160" lon="6.088600">
        <ele>919.700209</ele>
        <time>2017-06-01T14:50:51.000Z</time>
      </trkpt>
      <trkpt lat="46.065254" lon="6.088569">
        <ele>918.961776</ele>
        <time>2017-06-01T14:50:53.000Z</time>
      </trkpt>
      <trkpt lat="46.065370" lon="6.088551">
        <ele>918.068342</ele>
        <time>2017-06-01T14:50:56.000Z</time>
      </trkpt>
      <trkpt lat="46.065490" lon="6.088554">
        <ele>917.149273</ele>
        <time>2017-06-01T14:50:59.000Z</time>
      </trkpt>
      <trkpt lat="46.065600" lon="6.088551">
        <ele>916.306768</ele>
        <time>2017-06-01T14:51:02.000Z</time>
      </trkpt>
      <trkpt lat="46.065710" lon="6.088558">
        <ele>915.469731</ele>
        <time>2017-06-01T14:51:05.000Z</time>
      </trkpt>
      <trkpt lat="46.065826" lon="6.088547">
        <ele>915.640004</ele>
        <time>2017-06-01T14:51:08.000Z</time>
      </trkpt>
      <trkpt lat="46.065940" lon="6.088535">
        <ele>915.807424</ele>
        <time>2017-06-01T14:51:11.000Z</time>
      </trkpt>
      <trkpt lat="46.066055" lon="6.088534">
        <ele>915.975868</ele>
        <time>2017-06-01T14:51:14.000Z</time>
      </trkpt>
      <trkpt lat="46.066166" lon="6.088530">
        <ele>916.138501</ele>
        <time>2017-06-01T14:51:17.000Z</time>
      </trkpt>
      <trkpt lat="46.066265" lon="6.088519">
        <ele>916.283936</ele>
        <time>2017-06-01T14:51:20.000Z</time>
      </trkpt>
      <trkpt lat="46.066360" lon="6.088491">
        <ele>916.425962</ele>
        <time>2017-06-01T14:51:23.000Z</time>
      </trkpt>
      <trkpt lat="46.066463" lon="6.088422">
        <ele>916.592326</ele>
        <time>2017-06-01T14:51:27.000Z</time>
      </trkpt>
      <trkpt lat="46.066555" lon="6.088337">
        <ele>916.752388</ele>
        <time>2017-06-01T14:51:31.000Z</time>
      </trkpt>
      <trkpt lat="46.066620" lon="6.088244">
        <ele>916.886538</ele>
        <time>2017-06-01T14:51:35.000Z</time>
      </trkpt>
      <trkpt lat="46.066673" lon="6.088120">
        <ele>917.034544</ele>
        <time>2017-06-01T14:51:39.000Z</time>
      </trkpt>
      <trkpt lat="46.066742" lon="6.088015">
        <ele>917.181514</ele>
        <time>2017-06-01T14:51:43.000Z</time>
      </trkpt>
      <trkpt lat="46.066803" lon="6.087890">
        <ele>917.336818</ele>
        <time>2017-06-01T14:51:48.000Z</time>
      </trkpt>
      <trkpt lat="46.066850" lon="6.087752">
        <ele>917.493044</ele>
        <time>2017-06-01T14:51:53.000Z</time>
      </trkpt>
      <trkpt lat="46.066900" lon="6.087609">
        <ele>917.655776</ele>
        <time>2017-06-01T14:51:58.000Z</time>
      </trkpt>
      <trkpt lat="46.066936" lon="6.087492">
        <ele>917.785843</ele>
        <time>2017-06-01T14:52:02.000Z</time>
      </trkpt>
      <trkpt lat="46.066980" lon="6.087364">
        <ele>917.931011</ele>
        <time>2017-06-01T14:52:06.000Z</time>
      </trkpt>
      <trkpt lat="46.067013" lon="6.087239">
        <ele>918.066925</ele>
        <time>2017-06-01T14:52:10.000Z</time>
      </trkpt>
      <trkpt lat="46.067047" lon="6.087119">
        <ele>918.138239</ele>
        <time>2017-06-01T14:52:14.000Z</time>
      </trkpt>
      <trkpt lat="46.067055" lon="6.086989">
        <ele>918.186909</ele>
        <time>2017-06-01T14:52:19.000Z</time>
      </trkpt>
      <trkpt lat="46.067024" lon="6.086865">
        <ele>918.236062</ele>
        <time>2017-06-01T14:52:23.000Z</time>
      </trkpt>
      <trkpt lat="46.066975" lon="6.086733">
        <ele>918.291891</ele>
        <time>2017-06-01T14:52:27.000Z</time>
      </trkpt>
      <trkpt lat="46.066917" lon="6.086604">
        <ele>918.349216</ele>
        <time>2017-06-01T14:52:31.000Z</time>
      </trkpt>
      <trkpt lat="46.066860" lon="6.086485">
        <ele>918.403142</ele>
        <time>2017-06-01T14:52:35.000Z</time>
      </trkpt>
      <trkpt lat="46.066807" lon="6.086349">
        <ele>918.461313</ele>
        <time>2017-06-01T14:52:39.000Z</time>
      </trkpt>
      <trkpt lat="46.066765" lon="6.086201">
        <ele>918.520944</ele>
        <time>2017-06-01T14:52:43.000Z</time>
      </trkpt>
      <trkpt lat="46.066723" lon="6.086055">
        <ele>918.579886</ele>
        <time>2017-06-01T14:52:47.000Z</time>
      </trkpt>
      <trkpt lat="46.066690" lon="6.085916">
        <ele>918.634673</ele>
        <time>2017-06-01T14:52:51.000Z</time>
      </trkpt>
      <trkpt lat="46.066650" lon="6.085770">
        <ele>918.693212</ele>
        <time>2017-06-01T14:52:55.000Z</time>
      </trkpt>
      <trkpt lat="46.066643" lon="6.085598">
        <ele>918.757465</ele>
        <time>2017-06-01T14:52:59.000Z</time>
      </trkpt>
      <trkpt lat="46.066628" lon="6.085457">
        <ele>918.810663</ele>
        <time>2017-06-01T14:53:02.000Z</time>
      </trkpt>
      <trkpt lat="46.066612" lon="6.085299">
        <ele>918.870209</ele>
        <time>2017-06-01T14:53:05.000Z</time>
      </trkpt>
      <trkpt lat="46.066597" lon="6.085124">
        <ele>918.935968</ele>
        <time>2017-06-01T14:53:08.000Z</time>
      </trkpt>
      <trkpt lat="46.066590" lon="6.084938">
        <ele>919.005434</ele>
        <time>2017-06-01T14:53:11.000Z</time>
      </trkpt>
      <trkpt lat="46.066593" lon="6.084803">
        <ele>919.055805</ele>
        <time>2017-06-01T14:53:13.000Z</time>
      </trkpt>
      <trkpt lat="46.066600" lon="6.084664">
        <ele>918.755134</ele>
        <time>2017-06-01T14:53:15.000Z</time>
      </trkpt>
      <trkpt lat="46.066610" lon="6.084525">
        <ele>918.320992</ele>
        <time>2017-06-01T14:53:17.000Z</time>
      </trkpt>
      <trkpt lat="46.066624" lon="6.084374">
        <ele>917.847715</ele>
        <time>2017-06-01T14:53:19.000Z</time>
      </trkpt>
      <trkpt lat="46.066647" lon="6.084224">
        <ele>917.370470</ele>
        <time>2017-06-01T14:53:21.000Z</time>
      </trkpt>
      <trkpt lat="46.066685" lon="6.084073">
        <ele>916.871459</ele>
        <time>2017-06-01T14:53:23.000Z</time>
      </trkpt>
      <trkpt lat="46.066742" lon="6.083926">
        <ele>916.348299</ele>
        <time>2017-06-01T14:53:25.000Z</time>
      </trkpt>
      <trkpt lat="46.066814" lon="6.083786">
        <ele>915.806911</ele>
        <time>2017-06-01T14:53:27.000Z</time>
      </trkpt>
      <trkpt lat="46.066887" lon="6.083654">
        <ele>915.282501</ele>
        <time>2017-06-01T14:53:29.000Z</time>
      </trkpt>
      <trkpt lat="46.066960" lon="6.083530">
        <ele>914.777288</ele>
        <time>2017-06-01T14:53:31.000Z</time>
      </trkpt>
      <trkpt lat="46.067030" lon="6.083408">
        <ele>914.285464</ele>
        <time>2017-06-01T14:53:33.000Z</time>
      </trkpt>
      <trkpt lat="46.067110" lon="6.083308">
        <ele>913.811305</ele>
        <time>2017-06-01T14:53:35.000Z</time>
      </trkpt>
      <trkpt lat="46.067192" lon="6.083218">
        <ele>913.349802</ele>
        <time>2017-06-01T14:53:37.000Z</time>
      </trkpt>
      <trkpt lat="46.067280" lon="6.083134">
        <ele>912.877194</ele>
        <time>2017-06-01T14:53:39.000Z</time>
      </trkpt>
      <trkpt lat="46.067368" lon="6.083073">
        <ele>912.439961</ele>
        <time>2017-06-01T14:53:41.000Z</time>
      </trkpt>
      <trkpt lat="46.067474" lon="6.083046">
        <ele>911.957978</ele>
        <time>2017-06-01T14:53:43.000Z</time>
      </trkpt>
      <trkpt lat="46.067590" lon="6.083068">
        <ele>911.434097</ele>
        <time>2017-06-01T14:53:45.000Z</time>
      </trkpt>
      <trkpt lat="46.067703" lon="6.083108">
        <ele>910.807164</ele>
        <time>2017-06-01T14:53:47.000Z</time>
      </trkpt>
      <trkpt lat="46.067810" lon="6.083172">
        <ele>909.756272</ele>
        <time>2017-06-01T14:53:49.000Z</time>
      </trkpt>
      <trkpt lat="46.067913" lon="6.083233">
        <ele>908.746124</ele>
        <time>2017-06-01T14:53:51.000Z</time>
      </trkpt>
      <trkpt lat="46.068000" lon="6.083284">
        <ele>907.894142</ele>
        <time>2017-06-01T14:53:53.000Z</time>
      </trkpt>
      <trkpt lat="46.068123" lon="6.083364">
        <ele>906.670025</ele>
        <time>2017-06-01T14:53:56.000Z</time>
      </trkpt>
      <trkpt lat="46.068233" lon="6.083427">
        <ele>905.596288</ele>
        <time>2017-06-01T14:53:59.000Z</time>
      </trkpt>
      <trkpt lat="46.068340" lon="6.083510">
        <ele>904.494015</ele>
        <time>2017-06-01T14:54:03.000Z</time>
      </trkpt>
      <trkpt lat="46.068455" lon="6.083615">
        <ele>903.259116</ele>
        <time>2017-06-01T14:54:06.000Z</time>
      </trkpt>
      <trkpt lat="46.068535" lon="6.083693">
        <ele>902.382966</ele>
        <time>2017-06-01T14:54:08.000Z</time>
      </trkpt>
      <trkpt lat="46.068623" lon="6.083779">
        <ele>901.418495</ele>
        <time>2017-06-01T14:54:10.000Z</time>
      </trkpt>
      <trkpt lat="46.068714" lon="6.083884">
        <ele>900.361075</ele>
        <time>2017-06-01T14:54:12.000Z</time>
      </trkpt>
      <trkpt lat="46.068800" lon="6.083985">
        <ele>899.354760</ele>
        <time>2017-06-01T14:54:14.000Z</time>
      </trkpt>
      <trkpt lat="46.068890" lon="6.084076">
        <ele>898.357489</ele>
        <time>2017-06-01T14:54:16.000Z</time>
      </trkpt>
      <trkpt lat="46.068985" lon="6.084145">
        <ele>897.392481</ele>
        <time>2017-06-01T14:54:18.000Z</time>
      </trkpt>
      <trkpt lat="46.069084" lon="6.084204">
        <ele>896.420681</ele>
        <time>2017-06-01T14:54:20.000Z</time>
      </trkpt>
      <trkpt lat="46.069183" lon="6.084257">
        <ele>895.462674</ele>
        <time>2017-06-01T14:54:22.000Z</time>
      </trkpt>
      <trkpt lat="46.069286" lon="6.084310">
        <ele>894.486533</ele>
        <time>2017-06-01T14:54:24.000Z</time>
      </trkpt>
      <trkpt lat="46.069397" lon="6.084371">
        <ele>893.483803</ele>
        <time>2017-06-01T14:54:26.000Z</time>
      </trkpt>
      <trkpt lat="46.069500" lon="6.084446">
        <ele>892.509746</ele>
        <time>2017-06-01T14:54:28.000Z</time>
      </trkpt>
      <trkpt lat="46.069607" lon="6.084534">
        <ele>891.469888</ele>
        <time>2017-06-01T14:54:30.000Z</time>
      </trkpt>
      <trkpt lat="46.069725" lon="6.084640">
        <ele>890.296260</ele>
        <time>2017-06-01T14:54:32.000Z</time>
      </trkpt>
      <trkpt lat="46.069847" lon="6.084767">
        <ele>889.025984</ele>
        <time>2017-06-01T14:54:34.000Z</time>
      </trkpt>
      <trkpt lat="46.069973" lon="6.084888">
        <ele>887.747998</ele>
        <time>2017-06-01T14:54:36.000Z</time>
      </trkpt>
      <trkpt lat="46.070100" lon="6.085019">
        <ele>886.429782</ele>
        <time>2017-06-01T14:54:38.000Z</time>
      </trkpt>
      <trkpt lat="46.070210" lon="6.085160">
        <ele>885.187241</ele>
        <time>2017-06-01T14:54:40.000Z</time>
      </trkpt>
      <trkpt lat="46.070313" lon="6.085306">
        <ele>883.967862</ele>
        <time>2017-06-01T14:54:42.000Z</time>
      </trkpt>
      <trkpt lat="46.070404" lon="6.085455">
        <ele>882.805379</ele>
        <time>2017-06-01T14:54:44.000Z</time>
      </trkpt>
      <trkpt lat="46.070484" lon="6.085620">
        <ele>881.626551</ele>
        <time>2017-06-01T14:54:46.000Z</time>
      </trkpt>
      <trkpt lat="46.070564" lon="6.085790">
        <ele>880.423607</ele>
        <time>2017-06-01T14:54:48.000Z</time>
      </trkpt>
      <trkpt lat="46.070630" lon="6.085966">
        <ele>879.249187</ele>
        <time>2017-06-01T14:54:50.000Z</time>
      </trkpt>
      <trkpt lat="46.070698" lon="6.086138">
        <ele>878.077564</ele>
        <time>2017-06-01T14:54:52.000Z</time>
      </trkpt>
      <trkpt lat="46.070755" lon="6.086307">
        <ele>876.965447</ele>
        <time>2017-06-01T14:54:54.000Z</time>
      </trkpt>
      <trkpt lat="46.070830" lon="6.086471">
        <ele>875.802954</ele>
        <time>2017-06-01T14:54:56.000Z</time>
      </trkpt>
      <trkpt lat="46.070946" lon="6.086601">
        <ele>874.549504</ele>
        <time>2017-06-01T14:54:58.000Z</time>
      </trkpt>
      <trkpt lat="46.071080" lon="6.086702">
        <ele>873.259555</ele>
        <time>2017-06-01T14:55:00.000Z</time>
      </trkpt>
      <trkpt lat="46.071220" lon="6.086777">
        <ele>871.985457</ele>
        <time>2017-06-01T14:55:02.000Z</time>
      </trkpt>
      <trkpt lat="46.071365" lon="6.086827">
        <ele>870.713619</ele>
        <time>2017-06-01T14:55:04.000Z</time>
      </trkpt>
      <trkpt lat="46.071507" lon="6.086861">
        <ele>869.485678</ele>
        <time>2017-06-01T14:55:06.000Z</time>
      </trkpt>
      <trkpt lat="46.071644" lon="6.086887">
        <ele>868.306902</ele>
        <time>2017-06-01T14:55:08.000Z</time>
      </trkpt>
      <trkpt lat="46.071777" lon="6.086907">
        <ele>867.166177</ele>
        <time>2017-06-01T14:55:10.000Z</time>
      </trkpt>
      <trkpt lat="46.071903" lon="6.086925">
        <ele>866.086057</ele>
        <time>2017-06-01T14:55:12.000Z</time>
      </trkpt>
      <trkpt lat="46.072014" lon="6.086944">
        <ele>865.132509</ele>
        <time>2017-06-01T14:55:14.000Z</time>
      </trkpt>
      <trkpt lat="46.072120" lon="6.086966">
        <ele>864.218942</ele>
        <time>2017-06-01T14:55:16.000Z</time>
      </trkpt>
      <trkpt lat="46.072224" lon="6.086981">
        <ele>863.182974</ele>
        <time>2017-06-01T14:55:18.000Z</time>
      </trkpt>
      <trkpt lat="46.072320" lon="6.086998">
        <ele>862.217304</ele>
        <time>2017-06-01T14:55:20.000Z</time>
      </trkpt>
      <trkpt lat="46.072420" lon="6.087005">
        <ele>861.217727</ele>
        <time>2017-06-01T14:55:22.000Z</time>
      </trkpt>
      <trkpt lat="46.072520" lon="6.087013">
        <ele>860.217790</ele>
        <time>2017-06-01T14:55:24.000Z</time>
      </trkpt>
      <trkpt lat="46.072630" lon="6.087029">
        <ele>859.113972</ele>
        <time>2017-06-01T14:55:26.000Z</time>
      </trkpt>
      <trkpt lat="46.072742" lon="6.087044">
        <ele>857.990947</ele>
        <time>2017-06-01T14:55:28.000Z</time>
      </trkpt>
      <trkpt lat="46.072865" lon="6.087068">
        <ele>856.751714</ele>
        <time>2017-06-01T14:55:30.000Z</time>
      </trkpt>
      <trkpt lat="46.072987" lon="6.087091">
        <ele>855.523292</ele>
        <time>2017-06-01T14:55:32.000Z</time>
      </trkpt>
      <trkpt lat="46.073105" lon="6.087111">
        <ele>854.337063</ele>
        <time>2017-06-01T14:55:34.000Z</time>
      </trkpt>
      <trkpt lat="46.073223" lon="6.087143">
        <ele>853.138282</ele>
        <time>2017-06-01T14:55:36.000Z</time>
      </trkpt>
      <trkpt lat="46.073340" lon="6.087164">
        <ele>851.961133</ele>
        <time>2017-06-01T14:55:38.000Z</time>
      </trkpt>
      <trkpt lat="46.073460" lon="6.087181">
        <ele>850.757280</ele>
        <time>2017-06-01T14:55:40.000Z</time>
      </trkpt>
      <trkpt lat="46.073570" lon="6.087194">
        <ele>849.655354</ele>
        <time>2017-06-01T14:55:42.000Z</time>
      </trkpt>
      <trkpt lat="46.073666" lon="6.087219">
        <ele>848.681374</ele>
        <time>2017-06-01T14:55:44.000Z</time>
      </trkpt>
      <trkpt lat="46.073757" lon="6.087241">
        <ele>847.760140</ele>
        <time>2017-06-01T14:55:46.000Z</time>
      </trkpt>
      <trkpt lat="46.073880" lon="6.087263">
        <ele>846.522690</ele>
        <time>2017-06-01T14:55:49.000Z</time>
      </trkpt>
      <trkpt lat="46.073997" lon="6.087216">
        <ele>845.960626</ele>
        <time>2017-06-01T14:55:52.000Z</time>
      </trkpt>
      <trkpt lat="46.074104" lon="6.087137">
        <ele>845.621397</ele>
        <time>2017-06-01T14:55:55.000Z</time>
      </trkpt>
      <trkpt lat="46.074177" lon="6.087045">
        <ele>845.347783</ele>
        <time>2017-06-01T14:55:58.000Z</time>
      </trkpt>
      <trkpt lat="46.074250" lon="6.086924">
        <ele>845.033881</ele>
        <time>2017-06-01T14:56:02.000Z</time>
      </trkpt>
      <trkpt lat="46.074272" lon="6.086781">
        <ele>844.747154</ele>
        <time>2017-06-01T14:56:07.000Z</time>
      </trkpt>
      <trkpt lat="46.074207" lon="6.086663">
        <ele>844.452202</ele>
        <time>2017-06-01T14:56:12.000Z</time>
      </trkpt>
      <trkpt lat="46.074160" lon="6.086540">
        <ele>844.177317</ele>
        <time>2017-06-01T14:56:17.000Z</time>
      </trkpt>
      <trkpt lat="46.074093" lon="6.086458">
        <ele>843.929307</ele>
        <time>2017-06-01T14:56:21.000Z</time>
      </trkpt>
      <trkpt lat="46.074013" lon="6.086359">
        <ele>843.631791</ele>
        <time>2017-06-01T14:56:25.000Z</time>
      </trkpt>
      <trkpt lat="46.073944" lon="6.086276">
        <ele>843.378202</ele>
        <time>2017-06-01T14:56:28.000Z</time>
      </trkpt>
      <trkpt lat="46.073860" lon="6.086153">
        <ele>843.040333</ele>
        <time>2017-06-01T14:56:32.000Z</time>
      </trkpt>
      <trkpt lat="46.073795" lon="6.086054">
        <ele>842.773503</ele>
        <time>2017-06-01T14:56:35.000Z</time>
      </trkpt>
      <trkpt lat="46.073740" lon="6.085942">
        <ele>842.504887</ele>
        <time>2017-06-01T14:56:38.000Z</time>
      </trkpt>
      <trkpt lat="46.073680" lon="6.085836">
        <ele>842.237080</ele>
        <time>2017-06-01T14:56:41.000Z</time>
      </trkpt>
      <trkpt lat="46.073616" lon="6.085709">
        <ele>841.929801</ele>
        <time>2017-06-01T14:56:45.000Z</time>
      </trkpt>
      <trkpt lat="46.073566" lon="6.085592">
        <ele>841.660799</ele>
        <time>2017-06-01T14:56:49.000Z</time>
      </trkpt>
      <trkpt lat="46.073510" lon="6.085473">
        <ele>841.379312</ele>
        <time>2017-06-01T14:56:54.000Z</time>
      </trkpt>
      <trkpt lat="46.073440" lon="6.085383">
        <ele>841.132006</ele>
        <time>2017-06-01T14:56:59.000Z</time>
      </trkpt>
      <trkpt lat="46.073380" lon="6.085264">
        <ele>841.029575</ele>
        <time>2017-06-01T14:57:05.000Z</time>
      </trkpt>
      <trkpt lat="46.073456" lon="6.085421">
        <ele>840.896276</ele>
        <time>2017-06-01T14:57:27.000Z</time>
      </trkpt>
      <trkpt lat="46.073532" lon="6.085489">
        <ele>840.806497</ele>
        <time>2017-06-01T14:57:33.000Z</time>
      </trkpt>
      <trkpt lat="46.073560" lon="6.085613">
        <ele>840.715699</ele>
        <time>2017-06-01T14:57:39.000Z</time>
      </trkpt>
      <trkpt lat="46.073616" lon="6.085712">
        <ele>840.626757</ele>
        <time>2017-06-01T14:57:44.000Z</time>
      </trkpt>
      <trkpt lat="46.073670" lon="6.085828">
        <ele>840.529489</ele>
        <time>2017-06-01T14:57:49.000Z</time>
      </trkpt>
      <trkpt lat="46.073727" lon="6.085931">
        <ele>840.437749</ele>
        <time>2017-06-01T14:57:53.000Z</time>
      </trkpt>
      <trkpt lat="46.073784" lon="6.086044">
        <ele>840.340468</ele>
        <time>2017-06-01T14:57:57.000Z</time>
      </trkpt>
      <trkpt lat="46.073845" lon="6.086158">
        <ele>840.240224</ele>
        <time>2017-06-01T14:58:01.000Z</time>
      </trkpt>
      <trkpt lat="46.073906" lon="6.086267">
        <ele>840.142713</ele>
        <time>2017-06-01T14:58:05.000Z</time>
      </trkpt>
      <trkpt lat="46.073980" lon="6.086392">
        <ele>840.028295</ele>
        <time>2017-06-01T14:58:10.000Z</time>
      </trkpt>
      <trkpt lat="46.074062" lon="6.086521">
        <ele>839.906471</ele>
        <time>2017-06-01T14:58:14.000Z</time>
      </trkpt>
      <trkpt lat="46.074142" lon="6.086630">
        <ele>839.795986</ele>
        <time>2017-06-01T14:58:17.000Z</time>
      </trkpt>
      <trkpt lat="46.074240" lon="6.086737">
        <ele>839.672595</ele>
        <time>2017-06-01T14:58:20.000Z</time>
      </trkpt>
      <trkpt lat="46.074330" lon="6.086794">
        <ele>839.573930</ele>
        <time>2017-06-01T14:58:23.000Z</time>
      </trkpt>
      <trkpt lat="46.074420" lon="6.086730">
        <ele>839.473206</ele>
        <time>2017-06-01T14:58:26.000Z</time>
      </trkpt>
      <trkpt lat="46.074444" lon="6.086597">
        <ele>839.377520</ele>
        <time>2017-06-01T14:58:29.000Z</time>
      </trkpt>
      <trkpt lat="46.074440" lon="6.086455">
        <ele>839.338786</ele>
        <time>2017-06-01T14:58:32.000Z</time>
      </trkpt>
      <trkpt lat="46.074432" lon="6.086287">
        <ele>839.343744</ele>
        <time>2017-06-01T14:58:36.000Z</time>
      </trkpt>
      <trkpt lat="46.074420" lon="6.086126">
        <ele>839.348512</ele>
        <time>2017-06-01T14:58:40.000Z</time>
      </trkpt>
      <trkpt lat="46.074410" lon="6.085968">
        <ele>839.353184</ele>
        <time>2017-06-01T14:58:44.000Z</time>
      </trkpt>
      <trkpt lat="46.074410" lon="6.085799">
        <ele>839.358160</ele>
        <time>2017-06-01T14:58:48.000Z</time>
      </trkpt>
      <trkpt lat="46.074417" lon="6.085627">
        <ele>839.363233</ele>
        <time>2017-06-01T14:58:52.000Z</time>
      </trkpt>
      <trkpt lat="46.074413" lon="6.085465">
        <ele>839.368006</ele>
        <time>2017-06-01T14:58:56.000Z</time>
      </trkpt>
      <trkpt lat="46.074345" lon="6.085335">
        <ele>839.372800</ele>
        <time>2017-06-01T14:59:01.000Z</time>
      </trkpt>
      <trkpt lat="46.074238" lon="6.085287">
        <ele>839.377556</ele>
        <time>2017-06-01T14:59:05.000Z</time>
      </trkpt>
      <trkpt lat="46.074135" lon="6.085265">
        <ele>839.381976</ele>
        <time>2017-06-01T14:59:10.000Z</time>
      </trkpt>
      <trkpt lat="46.074226" lon="6.085291">
        <ele>839.385913</ele>
        <time>2017-06-01T14:59:20.000Z</time>
      </trkpt>
      <trkpt lat="46.074276" lon="6.085160">
        <ele>839.390316</ele>
        <time>2017-06-01T14:59:24.000Z</time>
      </trkpt>
      <trkpt lat="46.074210" lon="6.085033">
        <ele>839.394988</ele>
        <time>2017-06-01T14:59:27.000Z</time>
      </trkpt>
      <trkpt lat="46.074150" lon="6.084890">
        <ele>839.399909</ele>
        <time>2017-06-01T14:59:30.000Z</time>
      </trkpt>
      <trkpt lat="46.074070" lon="6.084758">
        <ele>839.405070</ele>
        <time>2017-06-01T14:59:33.000Z</time>
      </trkpt>
      <trkpt lat="46.073986" lon="6.084663">
        <ele>839.409602</ele>
        <time>2017-06-01T14:59:36.000Z</time>
      </trkpt>
      <trkpt lat="46.073870" lon="6.084657">
        <ele>839.412685</ele>
        <time>2017-06-01T14:59:40.000Z</time>
      </trkpt>
      <trkpt lat="46.073760" lon="6.084692">
        <ele>839.412685</ele>
        <time>2017-06-01T14:59:44.000Z</time>
      </trkpt>
      <trkpt lat="46.073677" lon="6.084746">
        <ele>839.412685</ele>
        <time>2017-06-01T14:59:48.000Z</time>
      </trkpt>
      <trkpt lat="46.073590" lon="6.084797">
        <ele>839.412685</ele>
        <time>2017-06-01T14:59:54.000Z</time>
      </trkpt>
      <trkpt lat="46.073467" lon="6.084702">
        <ele>839.412685</ele>
        <time>2017-06-01T15:02:40.000Z</time>
      </trkpt>
      <trkpt lat="46.073530" lon="6.084807">
        <ele>839.412685</ele>
        <time>2017-06-01T15:08:32.000Z</time>
      </trkpt>
      <trkpt lat="46.073620" lon="6.084828">
        <ele>839.412685</ele>
        <time>2017-06-01T15:08:41.000Z</time>
      </trkpt>
      <trkpt lat="46.073494" lon="6.084530">
        <ele>839.412685</ele>
        <time>2017-06-01T15:33:04.000Z</time>
      </trkpt>
    </trkseg>
  </trk>
</gpx>